<?xml version="1.0" encoding="UTF-8" standalone="no" ?>
<gpx xmlns="http://www.topografix.com/GPX/1/1" xmlns:xsi="http://www.w3.org/2001/XMLSchema-instance" xsi:schemaLocation="http://www.topografix.com/GPX/1/1 http://www.topografix.com/GPX/1/1/gpx.xsd" version="1.1" creator="VisuGPX - https://www.visugpx.com">
  <metadata>
    <name>20140831 Chardonniere Salvagny</name>
    <desc><![CDATA[6 ème étape du circuit sur le GR5 entre Thonon les bains et Chamonix]]></desc>
  </metadata>
  <trk>
    <name><![CDATA[20140831 Chardonniere Salvagny_1]]></name>
    <trkseg>
      <trkpt lat="46.14031" lon="6.77415">
        <ele>1361.3</ele>
        <time>2014-08-31T07:37:06Z</time>
      </trkpt>
      <trkpt lat="46.14032" lon="6.77415">
        <ele>1361.3</ele>
        <time>2014-08-31T07:37:11Z</time>
      </trkpt>
      <trkpt lat="46.14034" lon="6.77414">
        <ele>1361.3</ele>
        <time>2014-08-31T07:37:16Z</time>
      </trkpt>
      <trkpt lat="46.14037" lon="6.77412">
        <ele>1361.3</ele>
        <time>2014-08-31T07:37:21Z</time>
      </trkpt>
      <trkpt lat="46.14031" lon="6.77406">
        <ele>1347.3223</ele>
        <time>2014-08-31T07:37:26Z</time>
      </trkpt>
      <trkpt lat="46.14027" lon="6.77408">
        <ele>1347.3223</ele>
        <time>2014-08-31T07:37:31Z</time>
      </trkpt>
      <trkpt lat="46.14023" lon="6.77414">
        <ele>1353.8329</ele>
        <time>2014-08-31T07:37:36Z</time>
      </trkpt>
      <trkpt lat="46.14019" lon="6.77418">
        <ele>1353.8329</ele>
        <time>2014-08-31T07:37:41Z</time>
      </trkpt>
      <trkpt lat="46.14017" lon="6.77423">
        <ele>1353.8329</ele>
        <time>2014-08-31T07:37:46Z</time>
      </trkpt>
      <trkpt lat="46.14015" lon="6.77428">
        <ele>1359.4153</ele>
        <time>2014-08-31T07:37:51Z</time>
      </trkpt>
      <trkpt lat="46.14013" lon="6.7743">
        <ele>1359.4153</ele>
        <time>2014-08-31T07:37:56Z</time>
      </trkpt>
      <trkpt lat="46.14013" lon="6.77431">
        <ele>1359.4153</ele>
        <time>2014-08-31T07:38:01Z</time>
      </trkpt>
      <trkpt lat="46.14013" lon="6.7743">
        <ele>1359.4153</ele>
        <time>2014-08-31T07:38:06Z</time>
      </trkpt>
      <trkpt lat="46.14013" lon="6.7743">
        <ele>1359.4153</ele>
        <time>2014-08-31T07:38:11Z</time>
      </trkpt>
      <trkpt lat="46.14012" lon="6.77431">
        <ele>1359.4153</ele>
        <time>2014-08-31T07:38:16Z</time>
      </trkpt>
      <trkpt lat="46.14007" lon="6.77426">
        <ele>1365.1971</ele>
        <time>2014-08-31T07:38:21Z</time>
      </trkpt>
      <trkpt lat="46.14002" lon="6.77423">
        <ele>1365.1971</ele>
        <time>2014-08-31T07:38:26Z</time>
      </trkpt>
      <trkpt lat="46.13998" lon="6.7742">
        <ele>1371.0464</ele>
        <time>2014-08-31T07:38:31Z</time>
      </trkpt>
      <trkpt lat="46.13995" lon="6.77417">
        <ele>1371.0464</ele>
        <time>2014-08-31T07:38:36Z</time>
      </trkpt>
      <trkpt lat="46.13991" lon="6.77414">
        <ele>1371.0464</ele>
        <time>2014-08-31T07:38:41Z</time>
      </trkpt>
      <trkpt lat="46.13986" lon="6.77408">
        <ele>1376.5033</ele>
        <time>2014-08-31T07:38:46Z</time>
      </trkpt>
      <trkpt lat="46.13983" lon="6.774">
        <ele>1376.5033</ele>
        <time>2014-08-31T07:38:51Z</time>
      </trkpt>
      <trkpt lat="46.13977" lon="6.77396">
        <ele>1381.3745</ele>
        <time>2014-08-31T07:38:56Z</time>
      </trkpt>
      <trkpt lat="46.13973" lon="6.77395">
        <ele>1381.3745</ele>
        <time>2014-08-31T07:39:01Z</time>
      </trkpt>
      <trkpt lat="46.13974" lon="6.77395">
        <ele>1381.3745</ele>
        <time>2014-08-31T07:39:06Z</time>
      </trkpt>
      <trkpt lat="46.13974" lon="6.77396">
        <ele>1381.3745</ele>
        <time>2014-08-31T07:39:11Z</time>
      </trkpt>
      <trkpt lat="46.13975" lon="6.77397">
        <ele>1381.3745</ele>
        <time>2014-08-31T07:39:16Z</time>
      </trkpt>
      <trkpt lat="46.1397" lon="6.77397">
        <ele>1385.3829</ele>
        <time>2014-08-31T07:39:21Z</time>
      </trkpt>
      <trkpt lat="46.13966" lon="6.77396">
        <ele>1385.3829</ele>
        <time>2014-08-31T07:39:26Z</time>
      </trkpt>
      <trkpt lat="46.13962" lon="6.77397">
        <ele>1385.3829</ele>
        <time>2014-08-31T07:39:31Z</time>
      </trkpt>
      <trkpt lat="46.13956" lon="6.77401">
        <ele>1388.3484</ele>
        <time>2014-08-31T07:39:36Z</time>
      </trkpt>
      <trkpt lat="46.13949" lon="6.77405">
        <ele>1388.3484</ele>
        <time>2014-08-31T07:39:41Z</time>
      </trkpt>
      <trkpt lat="46.13944" lon="6.77409">
        <ele>1390.3293</ele>
        <time>2014-08-31T07:39:46Z</time>
      </trkpt>
      <trkpt lat="46.13943" lon="6.77412">
        <ele>1390.3293</ele>
        <time>2014-08-31T07:39:51Z</time>
      </trkpt>
      <trkpt lat="46.13943" lon="6.77413">
        <ele>1390.3293</ele>
        <time>2014-08-31T07:39:56Z</time>
      </trkpt>
      <trkpt lat="46.1394" lon="6.77422">
        <ele>1391.6666</ele>
        <time>2014-08-31T07:40:01Z</time>
      </trkpt>
      <trkpt lat="46.13938" lon="6.77424">
        <ele>1391.6666</ele>
        <time>2014-08-31T07:40:06Z</time>
      </trkpt>
      <trkpt lat="46.13936" lon="6.7743">
        <ele>1391.6666</ele>
        <time>2014-08-31T07:40:11Z</time>
      </trkpt>
      <trkpt lat="46.13933" lon="6.77438">
        <ele>1391.8352</ele>
        <time>2014-08-31T07:40:16Z</time>
      </trkpt>
      <trkpt lat="46.13929" lon="6.77446">
        <ele>1391.8352</ele>
        <time>2014-08-31T07:40:21Z</time>
      </trkpt>
      <trkpt lat="46.13927" lon="6.7745">
        <ele>1391.2823</ele>
        <time>2014-08-31T07:40:26Z</time>
      </trkpt>
      <trkpt lat="46.13924" lon="6.77455">
        <ele>1391.2823</ele>
        <time>2014-08-31T07:40:31Z</time>
      </trkpt>
      <trkpt lat="46.13922" lon="6.7746">
        <ele>1391.2823</ele>
        <time>2014-08-31T07:40:36Z</time>
      </trkpt>
      <trkpt lat="46.13919" lon="6.77467">
        <ele>1390.2108</ele>
        <time>2014-08-31T07:40:41Z</time>
      </trkpt>
      <trkpt lat="46.13917" lon="6.77471">
        <ele>1390.2108</ele>
        <time>2014-08-31T07:40:46Z</time>
      </trkpt>
      <trkpt lat="46.13915" lon="6.77476">
        <ele>1390.2108</ele>
        <time>2014-08-31T07:40:51Z</time>
      </trkpt>
      <trkpt lat="46.13915" lon="6.77481">
        <ele>1389.2114</ele>
        <time>2014-08-31T07:40:56Z</time>
      </trkpt>
      <trkpt lat="46.13915" lon="6.77485">
        <ele>1389.2114</ele>
        <time>2014-08-31T07:41:01Z</time>
      </trkpt>
      <trkpt lat="46.13911" lon="6.77489">
        <ele>1389.2114</ele>
        <time>2014-08-31T07:41:06Z</time>
      </trkpt>
      <trkpt lat="46.13911" lon="6.77489">
        <ele>1389.2114</ele>
        <time>2014-08-31T07:41:11Z</time>
      </trkpt>
      <trkpt lat="46.13909" lon="6.77493">
        <ele>1388.7913</ele>
        <time>2014-08-31T07:41:21Z</time>
      </trkpt>
      <trkpt lat="46.13908" lon="6.77494">
        <ele>1388.7913</ele>
        <time>2014-08-31T07:41:26Z</time>
      </trkpt>
      <trkpt lat="46.13906" lon="6.77498">
        <ele>1388.7913</ele>
        <time>2014-08-31T07:41:31Z</time>
      </trkpt>
      <trkpt lat="46.13905" lon="6.775">
        <ele>1388.7913</ele>
        <time>2014-08-31T07:41:36Z</time>
      </trkpt>
      <trkpt lat="46.139" lon="6.77504">
        <ele>1387.8964</ele>
        <time>2014-08-31T07:41:41Z</time>
      </trkpt>
      <trkpt lat="46.13899" lon="6.77505">
        <ele>1387.8964</ele>
        <time>2014-08-31T07:41:46Z</time>
      </trkpt>
      <trkpt lat="46.13897" lon="6.77505">
        <ele>1387.8964</ele>
        <time>2014-08-31T07:41:51Z</time>
      </trkpt>
      <trkpt lat="46.13894" lon="6.7751">
        <ele>1387.8964</ele>
        <time>2014-08-31T07:41:56Z</time>
      </trkpt>
      <trkpt lat="46.13894" lon="6.7751">
        <ele>1387.8964</ele>
        <time>2014-08-31T07:42:01Z</time>
      </trkpt>
      <trkpt lat="46.1389" lon="6.77513">
        <ele>1387.0221</ele>
        <time>2014-08-31T07:42:06Z</time>
      </trkpt>
      <trkpt lat="46.13884" lon="6.77518">
        <ele>1387.0221</ele>
        <time>2014-08-31T07:42:11Z</time>
      </trkpt>
      <trkpt lat="46.13879" lon="6.77523">
        <ele>1386.0679</ele>
        <time>2014-08-31T07:42:16Z</time>
      </trkpt>
      <trkpt lat="46.13878" lon="6.77526">
        <ele>1386.0679</ele>
        <time>2014-08-31T07:42:21Z</time>
      </trkpt>
      <trkpt lat="46.13875" lon="6.77529">
        <ele>1386.0679</ele>
        <time>2014-08-31T07:42:26Z</time>
      </trkpt>
      <trkpt lat="46.13873" lon="6.77532">
        <ele>1385.0938</ele>
        <time>2014-08-31T07:42:31Z</time>
      </trkpt>
      <trkpt lat="46.13871" lon="6.77534">
        <ele>1385.0938</ele>
        <time>2014-08-31T07:42:36Z</time>
      </trkpt>
      <trkpt lat="46.13867" lon="6.77539">
        <ele>1385.0938</ele>
        <time>2014-08-31T07:42:41Z</time>
      </trkpt>
      <trkpt lat="46.13865" lon="6.77543">
        <ele>1384.2827</ele>
        <time>2014-08-31T07:42:46Z</time>
      </trkpt>
      <trkpt lat="46.13865" lon="6.77544">
        <ele>1384.2827</ele>
        <time>2014-08-31T07:42:51Z</time>
      </trkpt>
      <trkpt lat="46.13864" lon="6.77546">
        <ele>1384.2827</ele>
        <time>2014-08-31T07:43:11Z</time>
      </trkpt>
      <trkpt lat="46.13864" lon="6.77546">
        <ele>1384.2827</ele>
        <time>2014-08-31T07:43:16Z</time>
      </trkpt>
      <trkpt lat="46.13865" lon="6.77546">
        <ele>1384.2827</ele>
        <time>2014-08-31T07:43:36Z</time>
      </trkpt>
      <trkpt lat="46.13866" lon="6.77547">
        <ele>1384.2827</ele>
        <time>2014-08-31T07:43:41Z</time>
      </trkpt>
      <trkpt lat="46.13866" lon="6.77547">
        <ele>1384.2827</ele>
        <time>2014-08-31T07:43:46Z</time>
      </trkpt>
      <trkpt lat="46.13867" lon="6.77547">
        <ele>1384.2827</ele>
        <time>2014-08-31T07:43:56Z</time>
      </trkpt>
      <trkpt lat="46.13869" lon="6.77549">
        <ele>1384.2827</ele>
        <time>2014-08-31T07:44:01Z</time>
      </trkpt>
      <trkpt lat="46.13869" lon="6.77549">
        <ele>1384.2827</ele>
        <time>2014-08-31T07:44:06Z</time>
      </trkpt>
      <trkpt lat="46.13873" lon="6.7755">
        <ele>1385.46</ele>
        <time>2014-08-31T07:44:11Z</time>
      </trkpt>
      <trkpt lat="46.13877" lon="6.77554">
        <ele>1385.46</ele>
        <time>2014-08-31T07:44:16Z</time>
      </trkpt>
      <trkpt lat="46.13878" lon="6.77554">
        <ele>1385.46</ele>
        <time>2014-08-31T07:44:21Z</time>
      </trkpt>
      <trkpt lat="46.13881" lon="6.77555">
        <ele>1385.46</ele>
        <time>2014-08-31T07:44:26Z</time>
      </trkpt>
      <trkpt lat="46.13881" lon="6.77555">
        <ele>1385.46</ele>
        <time>2014-08-31T07:44:31Z</time>
      </trkpt>
      <trkpt lat="46.13882" lon="6.77558">
        <ele>1386.9083</ele>
        <time>2014-08-31T07:44:36Z</time>
      </trkpt>
      <trkpt lat="46.13882" lon="6.77561">
        <ele>1386.9083</ele>
        <time>2014-08-31T07:44:41Z</time>
      </trkpt>
      <trkpt lat="46.13882" lon="6.77561">
        <ele>1386.9083</ele>
        <time>2014-08-31T07:44:46Z</time>
      </trkpt>
      <trkpt lat="46.13883" lon="6.77561">
        <ele>1386.9083</ele>
        <time>2014-08-31T07:44:56Z</time>
      </trkpt>
      <trkpt lat="46.13883" lon="6.77561">
        <ele>1386.9083</ele>
        <time>2014-08-31T07:45:01Z</time>
      </trkpt>
      <trkpt lat="46.13883" lon="6.77565">
        <ele>1386.9083</ele>
        <time>2014-08-31T07:45:06Z</time>
      </trkpt>
      <trkpt lat="46.13882" lon="6.77565">
        <ele>1386.9083</ele>
        <time>2014-08-31T07:45:11Z</time>
      </trkpt>
      <trkpt lat="46.13882" lon="6.77565">
        <ele>1386.9083</ele>
        <time>2014-08-31T07:45:16Z</time>
      </trkpt>
      <trkpt lat="46.13884" lon="6.77567">
        <ele>1386.9083</ele>
        <time>2014-08-31T07:45:21Z</time>
      </trkpt>
      <trkpt lat="46.13884" lon="6.77567">
        <ele>1386.9083</ele>
        <time>2014-08-31T07:45:26Z</time>
      </trkpt>
      <trkpt lat="46.13883" lon="6.77566">
        <ele>1388.8223</ele>
        <time>2014-08-31T07:46:06Z</time>
      </trkpt>
      <trkpt lat="46.13884" lon="6.77566">
        <ele>1388.8223</ele>
        <time>2014-08-31T07:46:11Z</time>
      </trkpt>
      <trkpt lat="46.13884" lon="6.77568">
        <ele>1388.8223</ele>
        <time>2014-08-31T07:46:16Z</time>
      </trkpt>
      <trkpt lat="46.13884" lon="6.77568">
        <ele>1388.8223</ele>
        <time>2014-08-31T07:46:21Z</time>
      </trkpt>
      <trkpt lat="46.13883" lon="6.77568">
        <ele>1388.8223</ele>
        <time>2014-08-31T07:46:26Z</time>
      </trkpt>
      <trkpt lat="46.13883" lon="6.77568">
        <ele>1388.8223</ele>
        <time>2014-08-31T07:46:31Z</time>
      </trkpt>
      <trkpt lat="46.13887" lon="6.77575">
        <ele>1388.8223</ele>
        <time>2014-08-31T07:46:36Z</time>
      </trkpt>
      <trkpt lat="46.13887" lon="6.77575">
        <ele>1388.8223</ele>
        <time>2014-08-31T07:46:41Z</time>
      </trkpt>
      <trkpt lat="46.13888" lon="6.7758">
        <ele>1392.2302</ele>
        <time>2014-08-31T07:47:01Z</time>
      </trkpt>
      <trkpt lat="46.13888" lon="6.77583">
        <ele>1392.2302</ele>
        <time>2014-08-31T07:47:06Z</time>
      </trkpt>
      <trkpt lat="46.13888" lon="6.77584">
        <ele>1392.2302</ele>
        <time>2014-08-31T07:47:11Z</time>
      </trkpt>
      <trkpt lat="46.13888" lon="6.77584">
        <ele>1392.2302</ele>
        <time>2014-08-31T07:47:16Z</time>
      </trkpt>
      <trkpt lat="46.13887" lon="6.77586">
        <ele>1392.2302</ele>
        <time>2014-08-31T07:47:36Z</time>
      </trkpt>
      <trkpt lat="46.13886" lon="6.77588">
        <ele>1392.2302</ele>
        <time>2014-08-31T07:47:41Z</time>
      </trkpt>
      <trkpt lat="46.13886" lon="6.77593">
        <ele>1395.1157</ele>
        <time>2014-08-31T07:47:46Z</time>
      </trkpt>
      <trkpt lat="46.13886" lon="6.77594">
        <ele>1395.1157</ele>
        <time>2014-08-31T07:47:51Z</time>
      </trkpt>
      <trkpt lat="46.13886" lon="6.77594">
        <ele>1395.1157</ele>
        <time>2014-08-31T07:47:56Z</time>
      </trkpt>
      <trkpt lat="46.1389" lon="6.77602">
        <ele>1395.1157</ele>
        <time>2014-08-31T07:48:16Z</time>
      </trkpt>
      <trkpt lat="46.1389" lon="6.77602">
        <ele>1395.1157</ele>
        <time>2014-08-31T07:48:21Z</time>
      </trkpt>
      <trkpt lat="46.13888" lon="6.77602">
        <ele>1398.3839</ele>
        <time>2014-08-31T07:48:31Z</time>
      </trkpt>
      <trkpt lat="46.13888" lon="6.77602">
        <ele>1398.3839</ele>
        <time>2014-08-31T07:48:36Z</time>
      </trkpt>
      <trkpt lat="46.13888" lon="6.77602">
        <ele>1398.3839</ele>
        <time>2014-08-31T07:48:41Z</time>
      </trkpt>
      <trkpt lat="46.13885" lon="6.77602">
        <ele>1398.3839</ele>
        <time>2014-08-31T07:48:46Z</time>
      </trkpt>
      <trkpt lat="46.13885" lon="6.77602">
        <ele>1398.3839</ele>
        <time>2014-08-31T07:48:51Z</time>
      </trkpt>
      <trkpt lat="46.13885" lon="6.77606">
        <ele>1398.3839</ele>
        <time>2014-08-31T07:48:56Z</time>
      </trkpt>
      <trkpt lat="46.13885" lon="6.77606">
        <ele>1398.3839</ele>
        <time>2014-08-31T07:49:01Z</time>
      </trkpt>
      <trkpt lat="46.13886" lon="6.77607">
        <ele>1398.3839</ele>
        <time>2014-08-31T07:49:11Z</time>
      </trkpt>
      <trkpt lat="46.13886" lon="6.77607">
        <ele>1398.3839</ele>
        <time>2014-08-31T07:49:16Z</time>
      </trkpt>
      <trkpt lat="46.13891" lon="6.77614">
        <ele>1402.2064</ele>
        <time>2014-08-31T07:49:26Z</time>
      </trkpt>
      <trkpt lat="46.13889" lon="6.77623">
        <ele>1402.2064</ele>
        <time>2014-08-31T07:49:31Z</time>
      </trkpt>
      <trkpt lat="46.13892" lon="6.77632">
        <ele>1405.7863</ele>
        <time>2014-08-31T07:49:36Z</time>
      </trkpt>
      <trkpt lat="46.13892" lon="6.77639">
        <ele>1405.7863</ele>
        <time>2014-08-31T07:49:41Z</time>
      </trkpt>
      <trkpt lat="46.13892" lon="6.77647">
        <ele>1408.9735</ele>
        <time>2014-08-31T07:49:46Z</time>
      </trkpt>
      <trkpt lat="46.13895" lon="6.77651">
        <ele>1408.9735</ele>
        <time>2014-08-31T07:49:51Z</time>
      </trkpt>
      <trkpt lat="46.13896" lon="6.77654">
        <ele>1408.9735</ele>
        <time>2014-08-31T07:49:56Z</time>
      </trkpt>
      <trkpt lat="46.13897" lon="6.77656">
        <ele>1408.9735</ele>
        <time>2014-08-31T07:50:01Z</time>
      </trkpt>
      <trkpt lat="46.13898" lon="6.77659">
        <ele>1412.0049</ele>
        <time>2014-08-31T07:50:06Z</time>
      </trkpt>
      <trkpt lat="46.13901" lon="6.77663">
        <ele>1412.0049</ele>
        <time>2014-08-31T07:50:11Z</time>
      </trkpt>
      <trkpt lat="46.13903" lon="6.77663">
        <ele>1412.0049</ele>
        <time>2014-08-31T07:50:16Z</time>
      </trkpt>
      <trkpt lat="46.13905" lon="6.77667">
        <ele>1414.9857</ele>
        <time>2014-08-31T07:50:21Z</time>
      </trkpt>
      <trkpt lat="46.13904" lon="6.77672">
        <ele>1414.9857</ele>
        <time>2014-08-31T07:50:26Z</time>
      </trkpt>
      <trkpt lat="46.13903" lon="6.77676">
        <ele>1414.9857</ele>
        <time>2014-08-31T07:50:31Z</time>
      </trkpt>
      <trkpt lat="46.13904" lon="6.77679">
        <ele>1414.9857</ele>
        <time>2014-08-31T07:50:36Z</time>
      </trkpt>
      <trkpt lat="46.13902" lon="6.77687">
        <ele>1418.3324</ele>
        <time>2014-08-31T07:50:41Z</time>
      </trkpt>
      <trkpt lat="46.13901" lon="6.77693">
        <ele>1418.3324</ele>
        <time>2014-08-31T07:50:46Z</time>
      </trkpt>
      <trkpt lat="46.139" lon="6.777">
        <ele>1418.3324</ele>
        <time>2014-08-31T07:50:51Z</time>
      </trkpt>
      <trkpt lat="46.13899" lon="6.77704">
        <ele>1421.418</ele>
        <time>2014-08-31T07:50:56Z</time>
      </trkpt>
      <trkpt lat="46.13898" lon="6.77706">
        <ele>1421.418</ele>
        <time>2014-08-31T07:51:01Z</time>
      </trkpt>
      <trkpt lat="46.13897" lon="6.77711">
        <ele>1421.418</ele>
        <time>2014-08-31T07:51:06Z</time>
      </trkpt>
      <trkpt lat="46.13893" lon="6.77714">
        <ele>1424.2842</ele>
        <time>2014-08-31T07:51:11Z</time>
      </trkpt>
      <trkpt lat="46.13892" lon="6.77719">
        <ele>1424.2842</ele>
        <time>2014-08-31T07:51:16Z</time>
      </trkpt>
      <trkpt lat="46.13889" lon="6.77728">
        <ele>1426.7461</ele>
        <time>2014-08-31T07:51:21Z</time>
      </trkpt>
      <trkpt lat="46.13887" lon="6.77739">
        <ele>1426.7461</ele>
        <time>2014-08-31T07:51:26Z</time>
      </trkpt>
      <trkpt lat="46.13886" lon="6.77746">
        <ele>1428.6014</ele>
        <time>2014-08-31T07:51:31Z</time>
      </trkpt>
      <trkpt lat="46.13883" lon="6.77753">
        <ele>1428.6014</ele>
        <time>2014-08-31T07:51:36Z</time>
      </trkpt>
      <trkpt lat="46.13882" lon="6.77758">
        <ele>1429.7872</ele>
        <time>2014-08-31T07:51:41Z</time>
      </trkpt>
      <trkpt lat="46.1388" lon="6.77765">
        <ele>1429.7872</ele>
        <time>2014-08-31T07:51:46Z</time>
      </trkpt>
      <trkpt lat="46.13881" lon="6.7777">
        <ele>1429.7872</ele>
        <time>2014-08-31T07:51:51Z</time>
      </trkpt>
      <trkpt lat="46.1388" lon="6.77773">
        <ele>1430.7026</ele>
        <time>2014-08-31T07:51:56Z</time>
      </trkpt>
      <trkpt lat="46.13879" lon="6.77776">
        <ele>1430.7026</ele>
        <time>2014-08-31T07:52:01Z</time>
      </trkpt>
      <trkpt lat="46.13877" lon="6.77777">
        <ele>1430.7026</ele>
        <time>2014-08-31T07:52:06Z</time>
      </trkpt>
      <trkpt lat="46.13877" lon="6.77778">
        <ele>1430.7026</ele>
        <time>2014-08-31T07:52:11Z</time>
      </trkpt>
      <trkpt lat="46.13877" lon="6.77778">
        <ele>1430.7026</ele>
        <time>2014-08-31T07:52:16Z</time>
      </trkpt>
      <trkpt lat="46.13876" lon="6.77776">
        <ele>1430.7026</ele>
        <time>2014-08-31T07:52:46Z</time>
      </trkpt>
      <trkpt lat="46.13872" lon="6.7777">
        <ele>1431.5278</ele>
        <time>2014-08-31T07:52:51Z</time>
      </trkpt>
      <trkpt lat="46.1387" lon="6.77768">
        <ele>1431.5278</ele>
        <time>2014-08-31T07:52:56Z</time>
      </trkpt>
      <trkpt lat="46.13868" lon="6.77766">
        <ele>1431.5278</ele>
        <time>2014-08-31T07:53:01Z</time>
      </trkpt>
      <trkpt lat="46.13863" lon="6.77763">
        <ele>1432.348</ele>
        <time>2014-08-31T07:53:06Z</time>
      </trkpt>
      <trkpt lat="46.1386" lon="6.77761">
        <ele>1432.348</ele>
        <time>2014-08-31T07:53:11Z</time>
      </trkpt>
      <trkpt lat="46.1386" lon="6.77761">
        <ele>1432.348</ele>
        <time>2014-08-31T07:53:16Z</time>
      </trkpt>
      <trkpt lat="46.13857" lon="6.7776">
        <ele>1432.348</ele>
        <time>2014-08-31T07:53:21Z</time>
      </trkpt>
      <trkpt lat="46.13857" lon="6.7776">
        <ele>1432.348</ele>
        <time>2014-08-31T07:53:26Z</time>
      </trkpt>
      <trkpt lat="46.13854" lon="6.77758">
        <ele>1432.348</ele>
        <time>2014-08-31T07:53:31Z</time>
      </trkpt>
      <trkpt lat="46.13849" lon="6.77753">
        <ele>1433.3328</ele>
        <time>2014-08-31T07:53:36Z</time>
      </trkpt>
      <trkpt lat="46.13843" lon="6.77748">
        <ele>1433.3328</ele>
        <time>2014-08-31T07:53:41Z</time>
      </trkpt>
      <trkpt lat="46.13841" lon="6.77742">
        <ele>1434.0267</ele>
        <time>2014-08-31T07:53:46Z</time>
      </trkpt>
      <trkpt lat="46.13839" lon="6.77739">
        <ele>1434.0267</ele>
        <time>2014-08-31T07:53:51Z</time>
      </trkpt>
      <trkpt lat="46.13837" lon="6.77731">
        <ele>1434.0267</ele>
        <time>2014-08-31T07:53:56Z</time>
      </trkpt>
      <trkpt lat="46.13839" lon="6.77722">
        <ele>1434.4723</ele>
        <time>2014-08-31T07:54:01Z</time>
      </trkpt>
      <trkpt lat="46.13838" lon="6.77717">
        <ele>1434.4723</ele>
        <time>2014-08-31T07:54:06Z</time>
      </trkpt>
      <trkpt lat="46.13838" lon="6.77713">
        <ele>1434.4723</ele>
        <time>2014-08-31T07:54:11Z</time>
      </trkpt>
      <trkpt lat="46.13836" lon="6.77712">
        <ele>1434.4723</ele>
        <time>2014-08-31T07:54:16Z</time>
      </trkpt>
      <trkpt lat="46.13834" lon="6.77708">
        <ele>1434.6664</ele>
        <time>2014-08-31T07:54:21Z</time>
      </trkpt>
      <trkpt lat="46.1383" lon="6.77707">
        <ele>1434.6664</ele>
        <time>2014-08-31T07:54:26Z</time>
      </trkpt>
      <trkpt lat="46.13826" lon="6.77704">
        <ele>1434.6664</ele>
        <time>2014-08-31T07:54:31Z</time>
      </trkpt>
      <trkpt lat="46.1382" lon="6.777">
        <ele>1434.7268</ele>
        <time>2014-08-31T07:54:36Z</time>
      </trkpt>
      <trkpt lat="46.13817" lon="6.77697">
        <ele>1434.7268</ele>
        <time>2014-08-31T07:54:41Z</time>
      </trkpt>
      <trkpt lat="46.13814" lon="6.77694">
        <ele>1434.7268</ele>
        <time>2014-08-31T07:54:46Z</time>
      </trkpt>
      <trkpt lat="46.13811" lon="6.77694">
        <ele>1434.5703</ele>
        <time>2014-08-31T07:54:51Z</time>
      </trkpt>
      <trkpt lat="46.13807" lon="6.7769">
        <ele>1434.5703</ele>
        <time>2014-08-31T07:54:56Z</time>
      </trkpt>
      <trkpt lat="46.13803" lon="6.77687">
        <ele>1434.5703</ele>
        <time>2014-08-31T07:55:01Z</time>
      </trkpt>
      <trkpt lat="46.13803" lon="6.77686">
        <ele>1434.2098</ele>
        <time>2014-08-31T07:55:06Z</time>
      </trkpt>
      <trkpt lat="46.13804" lon="6.77686">
        <ele>1434.2098</ele>
        <time>2014-08-31T07:55:11Z</time>
      </trkpt>
      <trkpt lat="46.13805" lon="6.77686">
        <ele>1434.2098</ele>
        <time>2014-08-31T07:55:16Z</time>
      </trkpt>
      <trkpt lat="46.13806" lon="6.77687">
        <ele>1434.2098</ele>
        <time>2014-08-31T07:55:21Z</time>
      </trkpt>
      <trkpt lat="46.13807" lon="6.77687">
        <ele>1434.2098</ele>
        <time>2014-08-31T07:55:26Z</time>
      </trkpt>
      <trkpt lat="46.13807" lon="6.77688">
        <ele>1434.2098</ele>
        <time>2014-08-31T07:55:31Z</time>
      </trkpt>
      <trkpt lat="46.13807" lon="6.77688">
        <ele>1434.2098</ele>
        <time>2014-08-31T07:55:36Z</time>
      </trkpt>
      <trkpt lat="46.13807" lon="6.77688">
        <ele>1434.2098</ele>
        <time>2014-08-31T07:55:41Z</time>
      </trkpt>
      <trkpt lat="46.13804" lon="6.77688">
        <ele>1434.2098</ele>
        <time>2014-08-31T07:56:16Z</time>
      </trkpt>
      <trkpt lat="46.13799" lon="6.77689">
        <ele>1433.4324</ele>
        <time>2014-08-31T07:56:21Z</time>
      </trkpt>
      <trkpt lat="46.13797" lon="6.77689">
        <ele>1433.4324</ele>
        <time>2014-08-31T07:56:26Z</time>
      </trkpt>
      <trkpt lat="46.1379" lon="6.7769">
        <ele>1433.4324</ele>
        <time>2014-08-31T07:56:31Z</time>
      </trkpt>
      <trkpt lat="46.13785" lon="6.77691">
        <ele>1432.011</ele>
        <time>2014-08-31T07:56:36Z</time>
      </trkpt>
      <trkpt lat="46.13779" lon="6.7769">
        <ele>1432.011</ele>
        <time>2014-08-31T07:56:41Z</time>
      </trkpt>
      <trkpt lat="46.13775" lon="6.7769">
        <ele>1430.5675</ele>
        <time>2014-08-31T07:56:46Z</time>
      </trkpt>
      <trkpt lat="46.13769" lon="6.77691">
        <ele>1430.5675</ele>
        <time>2014-08-31T07:56:51Z</time>
      </trkpt>
      <trkpt lat="46.13761" lon="6.77689">
        <ele>1428.9081</ele>
        <time>2014-08-31T07:56:56Z</time>
      </trkpt>
      <trkpt lat="46.13756" lon="6.77688">
        <ele>1428.9081</ele>
        <time>2014-08-31T07:57:01Z</time>
      </trkpt>
      <trkpt lat="46.1375" lon="6.77687">
        <ele>1427.4421</ele>
        <time>2014-08-31T07:57:06Z</time>
      </trkpt>
      <trkpt lat="46.13745" lon="6.77688">
        <ele>1427.4421</ele>
        <time>2014-08-31T07:57:11Z</time>
      </trkpt>
      <trkpt lat="46.13743" lon="6.77687">
        <ele>1427.4421</ele>
        <time>2014-08-31T07:57:16Z</time>
      </trkpt>
      <trkpt lat="46.13736" lon="6.77687">
        <ele>1426.2894</ele>
        <time>2014-08-31T07:57:21Z</time>
      </trkpt>
      <trkpt lat="46.13732" lon="6.77686">
        <ele>1426.2894</ele>
        <time>2014-08-31T07:57:26Z</time>
      </trkpt>
      <trkpt lat="46.13728" lon="6.77685">
        <ele>1426.2894</ele>
        <time>2014-08-31T07:57:31Z</time>
      </trkpt>
      <trkpt lat="46.13724" lon="6.77683">
        <ele>1425.467</ele>
        <time>2014-08-31T07:57:36Z</time>
      </trkpt>
      <trkpt lat="46.1372" lon="6.77683">
        <ele>1425.467</ele>
        <time>2014-08-31T07:57:41Z</time>
      </trkpt>
      <trkpt lat="46.13715" lon="6.7768">
        <ele>1424.7933</ele>
        <time>2014-08-31T07:57:46Z</time>
      </trkpt>
      <trkpt lat="46.13708" lon="6.77677">
        <ele>1424.7933</ele>
        <time>2014-08-31T07:57:51Z</time>
      </trkpt>
      <trkpt lat="46.13703" lon="6.77674">
        <ele>1424.2347</ele>
        <time>2014-08-31T07:57:56Z</time>
      </trkpt>
      <trkpt lat="46.13701" lon="6.77671">
        <ele>1424.2347</ele>
        <time>2014-08-31T07:58:01Z</time>
      </trkpt>
      <trkpt lat="46.13699" lon="6.7767">
        <ele>1424.2347</ele>
        <time>2014-08-31T07:58:06Z</time>
      </trkpt>
      <trkpt lat="46.13696" lon="6.77667">
        <ele>1424.2347</ele>
        <time>2014-08-31T07:58:11Z</time>
      </trkpt>
      <trkpt lat="46.13693" lon="6.77665">
        <ele>1423.85</ele>
        <time>2014-08-31T07:58:16Z</time>
      </trkpt>
      <trkpt lat="46.13689" lon="6.7766">
        <ele>1423.85</ele>
        <time>2014-08-31T07:58:21Z</time>
      </trkpt>
      <trkpt lat="46.13687" lon="6.77659">
        <ele>1423.85</ele>
        <time>2014-08-31T07:58:26Z</time>
      </trkpt>
      <trkpt lat="46.13683" lon="6.77654">
        <ele>1423.6915</ele>
        <time>2014-08-31T07:58:31Z</time>
      </trkpt>
      <trkpt lat="46.13682" lon="6.7765">
        <ele>1423.6915</ele>
        <time>2014-08-31T07:58:36Z</time>
      </trkpt>
      <trkpt lat="46.13681" lon="6.77642">
        <ele>1423.6915</ele>
        <time>2014-08-31T07:58:41Z</time>
      </trkpt>
      <trkpt lat="46.13679" lon="6.77638">
        <ele>1423.5525</ele>
        <time>2014-08-31T07:58:46Z</time>
      </trkpt>
      <trkpt lat="46.13677" lon="6.77636">
        <ele>1423.5525</ele>
        <time>2014-08-31T07:58:51Z</time>
      </trkpt>
      <trkpt lat="46.13676" lon="6.77629">
        <ele>1423.5525</ele>
        <time>2014-08-31T07:58:56Z</time>
      </trkpt>
      <trkpt lat="46.13675" lon="6.77622">
        <ele>1423.4069</ele>
        <time>2014-08-31T07:59:01Z</time>
      </trkpt>
      <trkpt lat="46.13674" lon="6.77618">
        <ele>1423.4069</ele>
        <time>2014-08-31T07:59:06Z</time>
      </trkpt>
      <trkpt lat="46.13672" lon="6.77616">
        <ele>1423.4069</ele>
        <time>2014-08-31T07:59:11Z</time>
      </trkpt>
      <trkpt lat="46.13671" lon="6.77613">
        <ele>1423.4069</ele>
        <time>2014-08-31T07:59:16Z</time>
      </trkpt>
      <trkpt lat="46.1367" lon="6.77611">
        <ele>1423.201</ele>
        <time>2014-08-31T07:59:21Z</time>
      </trkpt>
      <trkpt lat="46.13666" lon="6.77603">
        <ele>1423.201</ele>
        <time>2014-08-31T07:59:26Z</time>
      </trkpt>
      <trkpt lat="46.13664" lon="6.77598">
        <ele>1422.9153</ele>
        <time>2014-08-31T07:59:31Z</time>
      </trkpt>
      <trkpt lat="46.13663" lon="6.77597">
        <ele>1422.9153</ele>
        <time>2014-08-31T07:59:36Z</time>
      </trkpt>
      <trkpt lat="46.13662" lon="6.77592">
        <ele>1422.9153</ele>
        <time>2014-08-31T07:59:41Z</time>
      </trkpt>
      <trkpt lat="46.13661" lon="6.77589">
        <ele>1422.9153</ele>
        <time>2014-08-31T07:59:46Z</time>
      </trkpt>
      <trkpt lat="46.13661" lon="6.77584">
        <ele>1422.6055</ele>
        <time>2014-08-31T07:59:51Z</time>
      </trkpt>
      <trkpt lat="46.13661" lon="6.77577">
        <ele>1422.6055</ele>
        <time>2014-08-31T07:59:56Z</time>
      </trkpt>
      <trkpt lat="46.13662" lon="6.77571">
        <ele>1422.6055</ele>
        <time>2014-08-31T08:00:01Z</time>
      </trkpt>
      <trkpt lat="46.13662" lon="6.77564">
        <ele>1422.485</ele>
        <time>2014-08-31T08:00:06Z</time>
      </trkpt>
      <trkpt lat="46.13664" lon="6.77563">
        <ele>1422.485</ele>
        <time>2014-08-31T08:00:11Z</time>
      </trkpt>
      <trkpt lat="46.13665" lon="6.77562">
        <ele>1422.485</ele>
        <time>2014-08-31T08:00:16Z</time>
      </trkpt>
      <trkpt lat="46.13665" lon="6.77561">
        <ele>1422.485</ele>
        <time>2014-08-31T08:00:21Z</time>
      </trkpt>
      <trkpt lat="46.13666" lon="6.7756">
        <ele>1422.485</ele>
        <time>2014-08-31T08:00:26Z</time>
      </trkpt>
      <trkpt lat="46.13666" lon="6.77559">
        <ele>1422.485</ele>
        <time>2014-08-31T08:00:31Z</time>
      </trkpt>
      <trkpt lat="46.13666" lon="6.77556">
        <ele>1422.485</ele>
        <time>2014-08-31T08:00:36Z</time>
      </trkpt>
      <trkpt lat="46.13666" lon="6.77554">
        <ele>1422.485</ele>
        <time>2014-08-31T08:00:41Z</time>
      </trkpt>
      <trkpt lat="46.13667" lon="6.77552">
        <ele>1422.7926</ele>
        <time>2014-08-31T08:00:46Z</time>
      </trkpt>
      <trkpt lat="46.13667" lon="6.77548">
        <ele>1422.7926</ele>
        <time>2014-08-31T08:00:51Z</time>
      </trkpt>
      <trkpt lat="46.13667" lon="6.77543">
        <ele>1422.7926</ele>
        <time>2014-08-31T08:00:56Z</time>
      </trkpt>
      <trkpt lat="46.13668" lon="6.77537">
        <ele>1423.1445</ele>
        <time>2014-08-31T08:01:01Z</time>
      </trkpt>
      <trkpt lat="46.13668" lon="6.7753">
        <ele>1423.1445</ele>
        <time>2014-08-31T08:01:06Z</time>
      </trkpt>
      <trkpt lat="46.13668" lon="6.77526">
        <ele>1423.1445</ele>
        <time>2014-08-31T08:01:11Z</time>
      </trkpt>
      <trkpt lat="46.13669" lon="6.77521">
        <ele>1423.657</ele>
        <time>2014-08-31T08:01:16Z</time>
      </trkpt>
      <trkpt lat="46.13668" lon="6.77517">
        <ele>1423.657</ele>
        <time>2014-08-31T08:01:21Z</time>
      </trkpt>
      <trkpt lat="46.13669" lon="6.7751">
        <ele>1423.657</ele>
        <time>2014-08-31T08:01:26Z</time>
      </trkpt>
      <trkpt lat="46.13667" lon="6.77507">
        <ele>1424.0851</ele>
        <time>2014-08-31T08:01:31Z</time>
      </trkpt>
      <trkpt lat="46.13665" lon="6.77504">
        <ele>1424.0851</ele>
        <time>2014-08-31T08:01:36Z</time>
      </trkpt>
      <trkpt lat="46.13664" lon="6.77499">
        <ele>1424.0851</ele>
        <time>2014-08-31T08:01:41Z</time>
      </trkpt>
      <trkpt lat="46.13665" lon="6.77492">
        <ele>1424.4379</ele>
        <time>2014-08-31T08:01:46Z</time>
      </trkpt>
      <trkpt lat="46.13664" lon="6.77488">
        <ele>1424.4379</ele>
        <time>2014-08-31T08:01:51Z</time>
      </trkpt>
      <trkpt lat="46.13664" lon="6.77483">
        <ele>1424.4379</ele>
        <time>2014-08-31T08:01:56Z</time>
      </trkpt>
      <trkpt lat="46.13665" lon="6.77476">
        <ele>1424.8107</ele>
        <time>2014-08-31T08:02:01Z</time>
      </trkpt>
      <trkpt lat="46.13669" lon="6.77464">
        <ele>1424.8107</ele>
        <time>2014-08-31T08:02:06Z</time>
      </trkpt>
      <trkpt lat="46.13669" lon="6.77457">
        <ele>1425.2618</ele>
        <time>2014-08-31T08:02:11Z</time>
      </trkpt>
      <trkpt lat="46.13671" lon="6.77452">
        <ele>1425.2618</ele>
        <time>2014-08-31T08:02:16Z</time>
      </trkpt>
      <trkpt lat="46.13671" lon="6.77444">
        <ele>1425.8451</ele>
        <time>2014-08-31T08:02:21Z</time>
      </trkpt>
      <trkpt lat="46.1367" lon="6.77441">
        <ele>1425.8451</ele>
        <time>2014-08-31T08:02:26Z</time>
      </trkpt>
      <trkpt lat="46.1367" lon="6.77436">
        <ele>1425.8451</ele>
        <time>2014-08-31T08:02:31Z</time>
      </trkpt>
      <trkpt lat="46.1367" lon="6.77431">
        <ele>1426.493</ele>
        <time>2014-08-31T08:02:36Z</time>
      </trkpt>
      <trkpt lat="46.13671" lon="6.77426">
        <ele>1426.493</ele>
        <time>2014-08-31T08:02:41Z</time>
      </trkpt>
      <trkpt lat="46.13671" lon="6.77419">
        <ele>1426.493</ele>
        <time>2014-08-31T08:02:46Z</time>
      </trkpt>
      <trkpt lat="46.13671" lon="6.77413">
        <ele>1427.1581</ele>
        <time>2014-08-31T08:02:51Z</time>
      </trkpt>
      <trkpt lat="46.13668" lon="6.77411">
        <ele>1427.1581</ele>
        <time>2014-08-31T08:02:56Z</time>
      </trkpt>
      <trkpt lat="46.13666" lon="6.77406">
        <ele>1427.1581</ele>
        <time>2014-08-31T08:03:01Z</time>
      </trkpt>
      <trkpt lat="46.13665" lon="6.77398">
        <ele>1427.8972</ele>
        <time>2014-08-31T08:03:06Z</time>
      </trkpt>
      <trkpt lat="46.13663" lon="6.77395">
        <ele>1427.8972</ele>
        <time>2014-08-31T08:03:11Z</time>
      </trkpt>
      <trkpt lat="46.13661" lon="6.77393">
        <ele>1427.8972</ele>
        <time>2014-08-31T08:03:16Z</time>
      </trkpt>
      <trkpt lat="46.13658" lon="6.77394">
        <ele>1427.8972</ele>
        <time>2014-08-31T08:03:21Z</time>
      </trkpt>
      <trkpt lat="46.13657" lon="6.77392">
        <ele>1428.6327</ele>
        <time>2014-08-31T08:03:26Z</time>
      </trkpt>
      <trkpt lat="46.13656" lon="6.7739">
        <ele>1428.6327</ele>
        <time>2014-08-31T08:03:31Z</time>
      </trkpt>
      <trkpt lat="46.13655" lon="6.77389">
        <ele>1428.6327</ele>
        <time>2014-08-31T08:03:36Z</time>
      </trkpt>
      <trkpt lat="46.13655" lon="6.77387">
        <ele>1428.6327</ele>
        <time>2014-08-31T08:03:41Z</time>
      </trkpt>
      <trkpt lat="46.13657" lon="6.77381">
        <ele>1429.4949</ele>
        <time>2014-08-31T08:03:46Z</time>
      </trkpt>
      <trkpt lat="46.13657" lon="6.77374">
        <ele>1429.4949</ele>
        <time>2014-08-31T08:03:51Z</time>
      </trkpt>
      <trkpt lat="46.13655" lon="6.77368">
        <ele>1430.2716</ele>
        <time>2014-08-31T08:03:56Z</time>
      </trkpt>
      <trkpt lat="46.13653" lon="6.77364">
        <ele>1430.2716</ele>
        <time>2014-08-31T08:04:01Z</time>
      </trkpt>
      <trkpt lat="46.1365" lon="6.77359">
        <ele>1430.2716</ele>
        <time>2014-08-31T08:04:06Z</time>
      </trkpt>
      <trkpt lat="46.13647" lon="6.77354">
        <ele>1430.94</ele>
        <time>2014-08-31T08:04:11Z</time>
      </trkpt>
      <trkpt lat="46.13645" lon="6.7735">
        <ele>1430.94</ele>
        <time>2014-08-31T08:04:16Z</time>
      </trkpt>
      <trkpt lat="46.13644" lon="6.77345">
        <ele>1431.2095</ele>
        <time>2014-08-31T08:04:21Z</time>
      </trkpt>
      <trkpt lat="46.13641" lon="6.7734">
        <ele>1431.479</ele>
        <time>2014-08-31T08:04:26Z</time>
      </trkpt>
      <trkpt lat="46.13639" lon="6.77335">
        <ele>1431.479</ele>
        <time>2014-08-31T08:04:31Z</time>
      </trkpt>
      <trkpt lat="46.13637" lon="6.77331">
        <ele>1431.479</ele>
        <time>2014-08-31T08:04:36Z</time>
      </trkpt>
      <trkpt lat="46.13633" lon="6.77324">
        <ele>1432.0859</ele>
        <time>2014-08-31T08:04:41Z</time>
      </trkpt>
      <trkpt lat="46.13632" lon="6.77321">
        <ele>1432.0859</ele>
        <time>2014-08-31T08:04:46Z</time>
      </trkpt>
      <trkpt lat="46.13628" lon="6.77317">
        <ele>1432.0859</ele>
        <time>2014-08-31T08:04:51Z</time>
      </trkpt>
      <trkpt lat="46.13627" lon="6.77308">
        <ele>1432.7698</ele>
        <time>2014-08-31T08:04:56Z</time>
      </trkpt>
      <trkpt lat="46.13627" lon="6.77301">
        <ele>1432.7698</ele>
        <time>2014-08-31T08:05:01Z</time>
      </trkpt>
      <trkpt lat="46.13627" lon="6.77294">
        <ele>1433.4089</ele>
        <time>2014-08-31T08:05:06Z</time>
      </trkpt>
      <trkpt lat="46.13626" lon="6.77289">
        <ele>1433.4089</ele>
        <time>2014-08-31T08:05:11Z</time>
      </trkpt>
      <trkpt lat="46.13625" lon="6.77285">
        <ele>1433.4089</ele>
        <time>2014-08-31T08:05:16Z</time>
      </trkpt>
      <trkpt lat="46.13623" lon="6.77276">
        <ele>1434.0784</ele>
        <time>2014-08-31T08:05:21Z</time>
      </trkpt>
      <trkpt lat="46.13623" lon="6.77268">
        <ele>1434.0784</ele>
        <time>2014-08-31T08:05:26Z</time>
      </trkpt>
      <trkpt lat="46.13622" lon="6.77263">
        <ele>1434.7894</ele>
        <time>2014-08-31T08:05:31Z</time>
      </trkpt>
      <trkpt lat="46.13622" lon="6.77258">
        <ele>1434.7894</ele>
        <time>2014-08-31T08:05:36Z</time>
      </trkpt>
      <trkpt lat="46.1362" lon="6.77255">
        <ele>1434.7894</ele>
        <time>2014-08-31T08:05:41Z</time>
      </trkpt>
      <trkpt lat="46.13618" lon="6.77245">
        <ele>1435.5383</ele>
        <time>2014-08-31T08:05:46Z</time>
      </trkpt>
      <trkpt lat="46.1362" lon="6.77237">
        <ele>1435.5383</ele>
        <time>2014-08-31T08:05:51Z</time>
      </trkpt>
      <trkpt lat="46.1362" lon="6.7723">
        <ele>1436.3932</ele>
        <time>2014-08-31T08:05:56Z</time>
      </trkpt>
      <trkpt lat="46.1362" lon="6.77226">
        <ele>1436.3932</ele>
        <time>2014-08-31T08:06:01Z</time>
      </trkpt>
      <trkpt lat="46.13619" lon="6.77223">
        <ele>1436.3932</ele>
        <time>2014-08-31T08:06:06Z</time>
      </trkpt>
      <trkpt lat="46.13618" lon="6.7722">
        <ele>1436.3932</ele>
        <time>2014-08-31T08:06:11Z</time>
      </trkpt>
      <trkpt lat="46.13616" lon="6.77216">
        <ele>1437.7917</ele>
        <time>2014-08-31T08:06:16Z</time>
      </trkpt>
      <trkpt lat="46.13616" lon="6.77213">
        <ele>1437.7917</ele>
        <time>2014-08-31T08:06:21Z</time>
      </trkpt>
      <trkpt lat="46.13617" lon="6.77204">
        <ele>1437.7917</ele>
        <time>2014-08-31T08:06:26Z</time>
      </trkpt>
      <trkpt lat="46.13619" lon="6.77195">
        <ele>1439.3164</ele>
        <time>2014-08-31T08:06:31Z</time>
      </trkpt>
      <trkpt lat="46.13617" lon="6.7719">
        <ele>1439.3164</ele>
        <time>2014-08-31T08:06:36Z</time>
      </trkpt>
      <trkpt lat="46.13616" lon="6.77183">
        <ele>1440.969</ele>
        <time>2014-08-31T08:06:41Z</time>
      </trkpt>
      <trkpt lat="46.13617" lon="6.77176">
        <ele>1440.969</ele>
        <time>2014-08-31T08:06:46Z</time>
      </trkpt>
      <trkpt lat="46.13618" lon="6.77169">
        <ele>1442.6208</ele>
        <time>2014-08-31T08:06:51Z</time>
      </trkpt>
      <trkpt lat="46.13623" lon="6.77165">
        <ele>1442.6208</ele>
        <time>2014-08-31T08:06:56Z</time>
      </trkpt>
      <trkpt lat="46.13624" lon="6.77164">
        <ele>1442.6208</ele>
        <time>2014-08-31T08:07:01Z</time>
      </trkpt>
      <trkpt lat="46.13625" lon="6.77163">
        <ele>1442.6208</ele>
        <time>2014-08-31T08:07:06Z</time>
      </trkpt>
      <trkpt lat="46.13625" lon="6.77162">
        <ele>1442.6208</ele>
        <time>2014-08-31T08:07:11Z</time>
      </trkpt>
      <trkpt lat="46.13626" lon="6.77162">
        <ele>1443.879</ele>
        <time>2014-08-31T08:07:16Z</time>
      </trkpt>
      <trkpt lat="46.13629" lon="6.77154">
        <ele>1443.879</ele>
        <time>2014-08-31T08:07:21Z</time>
      </trkpt>
      <trkpt lat="46.1363" lon="6.77147">
        <ele>1445.1016</ele>
        <time>2014-08-31T08:07:26Z</time>
      </trkpt>
      <trkpt lat="46.13629" lon="6.77145">
        <ele>1445.1016</ele>
        <time>2014-08-31T08:07:31Z</time>
      </trkpt>
      <trkpt lat="46.13633" lon="6.77142">
        <ele>1445.1016</ele>
        <time>2014-08-31T08:07:36Z</time>
      </trkpt>
      <trkpt lat="46.13635" lon="6.77134">
        <ele>1446.4183</ele>
        <time>2014-08-31T08:07:41Z</time>
      </trkpt>
      <trkpt lat="46.13634" lon="6.77128">
        <ele>1446.4183</ele>
        <time>2014-08-31T08:07:46Z</time>
      </trkpt>
      <trkpt lat="46.13633" lon="6.77121">
        <ele>1447.6033</ele>
        <time>2014-08-31T08:07:51Z</time>
      </trkpt>
      <trkpt lat="46.13632" lon="6.7712">
        <ele>1447.6033</ele>
        <time>2014-08-31T08:07:56Z</time>
      </trkpt>
      <trkpt lat="46.13631" lon="6.77115">
        <ele>1447.6033</ele>
        <time>2014-08-31T08:08:01Z</time>
      </trkpt>
      <trkpt lat="46.13631" lon="6.77107">
        <ele>1448.6061</ele>
        <time>2014-08-31T08:08:06Z</time>
      </trkpt>
      <trkpt lat="46.13631" lon="6.77102">
        <ele>1448.6061</ele>
        <time>2014-08-31T08:08:11Z</time>
      </trkpt>
      <trkpt lat="46.13631" lon="6.771">
        <ele>1448.6061</ele>
        <time>2014-08-31T08:08:16Z</time>
      </trkpt>
      <trkpt lat="46.13631" lon="6.77094">
        <ele>1448.6061</ele>
        <time>2014-08-31T08:08:21Z</time>
      </trkpt>
      <trkpt lat="46.13635" lon="6.77091">
        <ele>1449.6403</ele>
        <time>2014-08-31T08:08:26Z</time>
      </trkpt>
      <trkpt lat="46.13637" lon="6.77088">
        <ele>1449.6403</ele>
        <time>2014-08-31T08:08:31Z</time>
      </trkpt>
      <trkpt lat="46.13638" lon="6.77086">
        <ele>1449.6403</ele>
        <time>2014-08-31T08:08:36Z</time>
      </trkpt>
      <trkpt lat="46.13638" lon="6.77082">
        <ele>1449.6403</ele>
        <time>2014-08-31T08:08:41Z</time>
      </trkpt>
      <trkpt lat="46.13638" lon="6.77079">
        <ele>1450.8171</ele>
        <time>2014-08-31T08:08:46Z</time>
      </trkpt>
      <trkpt lat="46.13638" lon="6.77079">
        <ele>1450.8171</ele>
        <time>2014-08-31T08:08:51Z</time>
      </trkpt>
      <trkpt lat="46.13638" lon="6.77077">
        <ele>1450.8171</ele>
        <time>2014-08-31T08:08:56Z</time>
      </trkpt>
      <trkpt lat="46.1364" lon="6.77074">
        <ele>1450.8171</ele>
        <time>2014-08-31T08:09:01Z</time>
      </trkpt>
      <trkpt lat="46.1364" lon="6.7707">
        <ele>1450.8171</ele>
        <time>2014-08-31T08:09:06Z</time>
      </trkpt>
      <trkpt lat="46.13639" lon="6.77064">
        <ele>1452.4989</ele>
        <time>2014-08-31T08:09:11Z</time>
      </trkpt>
      <trkpt lat="46.13638" lon="6.77058">
        <ele>1452.4989</ele>
        <time>2014-08-31T08:09:16Z</time>
      </trkpt>
      <trkpt lat="46.13638" lon="6.77052">
        <ele>1452.4989</ele>
        <time>2014-08-31T08:09:21Z</time>
      </trkpt>
      <trkpt lat="46.13641" lon="6.77045">
        <ele>1454.198</ele>
        <time>2014-08-31T08:09:26Z</time>
      </trkpt>
      <trkpt lat="46.13641" lon="6.7704">
        <ele>1454.198</ele>
        <time>2014-08-31T08:09:31Z</time>
      </trkpt>
      <trkpt lat="46.13642" lon="6.77037">
        <ele>1454.198</ele>
        <time>2014-08-31T08:09:36Z</time>
      </trkpt>
      <trkpt lat="46.13643" lon="6.77036">
        <ele>1454.198</ele>
        <time>2014-08-31T08:09:41Z</time>
      </trkpt>
      <trkpt lat="46.13644" lon="6.77035">
        <ele>1454.198</ele>
        <time>2014-08-31T08:09:46Z</time>
      </trkpt>
      <trkpt lat="46.13645" lon="6.77034">
        <ele>1455.5487</ele>
        <time>2014-08-31T08:09:51Z</time>
      </trkpt>
      <trkpt lat="46.13649" lon="6.7703">
        <ele>1455.5487</ele>
        <time>2014-08-31T08:09:56Z</time>
      </trkpt>
      <trkpt lat="46.13649" lon="6.77029">
        <ele>1455.5487</ele>
        <time>2014-08-31T08:10:01Z</time>
      </trkpt>
      <trkpt lat="46.13655" lon="6.77024">
        <ele>1457.1224</ele>
        <time>2014-08-31T08:10:06Z</time>
      </trkpt>
      <trkpt lat="46.13655" lon="6.77023">
        <ele>1457.1224</ele>
        <time>2014-08-31T08:10:11Z</time>
      </trkpt>
      <trkpt lat="46.13655" lon="6.77019">
        <ele>1457.1224</ele>
        <time>2014-08-31T08:10:16Z</time>
      </trkpt>
      <trkpt lat="46.13655" lon="6.77017">
        <ele>1457.1224</ele>
        <time>2014-08-31T08:10:21Z</time>
      </trkpt>
      <trkpt lat="46.13655" lon="6.77016">
        <ele>1457.1224</ele>
        <time>2014-08-31T08:10:26Z</time>
      </trkpt>
      <trkpt lat="46.13655" lon="6.77015">
        <ele>1457.1224</ele>
        <time>2014-08-31T08:10:31Z</time>
      </trkpt>
      <trkpt lat="46.13656" lon="6.77005">
        <ele>1459.289</ele>
        <time>2014-08-31T08:10:36Z</time>
      </trkpt>
      <trkpt lat="46.13658" lon="6.76999">
        <ele>1459.289</ele>
        <time>2014-08-31T08:10:41Z</time>
      </trkpt>
      <trkpt lat="46.13662" lon="6.76987">
        <ele>1461.4088</ele>
        <time>2014-08-31T08:10:46Z</time>
      </trkpt>
      <trkpt lat="46.13667" lon="6.76983">
        <ele>1461.4088</ele>
        <time>2014-08-31T08:10:51Z</time>
      </trkpt>
      <trkpt lat="46.1367" lon="6.76978">
        <ele>1463.5962</ele>
        <time>2014-08-31T08:10:56Z</time>
      </trkpt>
      <trkpt lat="46.13672" lon="6.76977">
        <ele>1463.5962</ele>
        <time>2014-08-31T08:11:01Z</time>
      </trkpt>
      <trkpt lat="46.13673" lon="6.76974">
        <ele>1463.5962</ele>
        <time>2014-08-31T08:11:06Z</time>
      </trkpt>
      <trkpt lat="46.13676" lon="6.76968">
        <ele>1465.8127</ele>
        <time>2014-08-31T08:11:11Z</time>
      </trkpt>
      <trkpt lat="46.13677" lon="6.76963">
        <ele>1465.8127</ele>
        <time>2014-08-31T08:11:16Z</time>
      </trkpt>
      <trkpt lat="46.13677" lon="6.76961">
        <ele>1465.8127</ele>
        <time>2014-08-31T08:11:21Z</time>
      </trkpt>
      <trkpt lat="46.13676" lon="6.76957">
        <ele>1465.8127</ele>
        <time>2014-08-31T08:11:26Z</time>
      </trkpt>
      <trkpt lat="46.13676" lon="6.76954">
        <ele>1467.9652</ele>
        <time>2014-08-31T08:11:31Z</time>
      </trkpt>
      <trkpt lat="46.13676" lon="6.7695">
        <ele>1467.9652</ele>
        <time>2014-08-31T08:11:36Z</time>
      </trkpt>
      <trkpt lat="46.13672" lon="6.76947">
        <ele>1467.9652</ele>
        <time>2014-08-31T08:11:41Z</time>
      </trkpt>
      <trkpt lat="46.13672" lon="6.76946">
        <ele>1467.9652</ele>
        <time>2014-08-31T08:11:46Z</time>
      </trkpt>
      <trkpt lat="46.13672" lon="6.76946">
        <ele>1467.9652</ele>
        <time>2014-08-31T08:11:51Z</time>
      </trkpt>
      <trkpt lat="46.1367" lon="6.7694">
        <ele>1470.458</ele>
        <time>2014-08-31T08:11:56Z</time>
      </trkpt>
      <trkpt lat="46.1367" lon="6.76939">
        <ele>1470.458</ele>
        <time>2014-08-31T08:12:01Z</time>
      </trkpt>
      <trkpt lat="46.13669" lon="6.76936">
        <ele>1470.458</ele>
        <time>2014-08-31T08:12:06Z</time>
      </trkpt>
      <trkpt lat="46.13666" lon="6.76934">
        <ele>1470.458</ele>
        <time>2014-08-31T08:12:11Z</time>
      </trkpt>
      <trkpt lat="46.13666" lon="6.76934">
        <ele>1470.458</ele>
        <time>2014-08-31T08:12:16Z</time>
      </trkpt>
      <trkpt lat="46.13666" lon="6.76932">
        <ele>1470.458</ele>
        <time>2014-08-31T08:12:21Z</time>
      </trkpt>
      <trkpt lat="46.13666" lon="6.76932">
        <ele>1470.458</ele>
        <time>2014-08-31T08:12:26Z</time>
      </trkpt>
      <trkpt lat="46.13665" lon="6.76931">
        <ele>1472.9435</ele>
        <time>2014-08-31T08:12:31Z</time>
      </trkpt>
      <trkpt lat="46.13665" lon="6.76931">
        <ele>1472.9435</ele>
        <time>2014-08-31T08:12:36Z</time>
      </trkpt>
      <trkpt lat="46.13664" lon="6.76929">
        <ele>1472.9435</ele>
        <time>2014-08-31T08:12:41Z</time>
      </trkpt>
      <trkpt lat="46.13657" lon="6.7692">
        <ele>1475.3884</ele>
        <time>2014-08-31T08:12:46Z</time>
      </trkpt>
      <trkpt lat="46.13654" lon="6.7691">
        <ele>1475.3884</ele>
        <time>2014-08-31T08:12:51Z</time>
      </trkpt>
      <trkpt lat="46.13652" lon="6.76903">
        <ele>1477.5891</ele>
        <time>2014-08-31T08:12:56Z</time>
      </trkpt>
      <trkpt lat="46.13649" lon="6.76899">
        <ele>1477.5891</ele>
        <time>2014-08-31T08:13:01Z</time>
      </trkpt>
      <trkpt lat="46.13648" lon="6.76896">
        <ele>1477.5891</ele>
        <time>2014-08-31T08:13:06Z</time>
      </trkpt>
      <trkpt lat="46.13646" lon="6.76895">
        <ele>1477.5891</ele>
        <time>2014-08-31T08:13:11Z</time>
      </trkpt>
      <trkpt lat="46.13645" lon="6.76895">
        <ele>1479.3291</ele>
        <time>2014-08-31T08:13:16Z</time>
      </trkpt>
      <trkpt lat="46.13646" lon="6.76893">
        <ele>1479.3291</ele>
        <time>2014-08-31T08:13:21Z</time>
      </trkpt>
      <trkpt lat="46.13646" lon="6.76893">
        <ele>1479.3291</ele>
        <time>2014-08-31T08:13:26Z</time>
      </trkpt>
      <trkpt lat="46.13644" lon="6.7689">
        <ele>1479.3291</ele>
        <time>2014-08-31T08:13:46Z</time>
      </trkpt>
      <trkpt lat="46.13643" lon="6.7689">
        <ele>1479.3291</ele>
        <time>2014-08-31T08:13:51Z</time>
      </trkpt>
      <trkpt lat="46.13643" lon="6.7689">
        <ele>1479.3291</ele>
        <time>2014-08-31T08:13:56Z</time>
      </trkpt>
      <trkpt lat="46.13643" lon="6.76883">
        <ele>1480.8704</ele>
        <time>2014-08-31T08:14:01Z</time>
      </trkpt>
      <trkpt lat="46.13641" lon="6.76872">
        <ele>1480.8704</ele>
        <time>2014-08-31T08:14:06Z</time>
      </trkpt>
      <trkpt lat="46.13635" lon="6.7686">
        <ele>1482.2255</ele>
        <time>2014-08-31T08:14:11Z</time>
      </trkpt>
      <trkpt lat="46.13632" lon="6.76847">
        <ele>1483.3639</ele>
        <time>2014-08-31T08:14:16Z</time>
      </trkpt>
      <trkpt lat="46.13631" lon="6.76841">
        <ele>1483.3639</ele>
        <time>2014-08-31T08:14:21Z</time>
      </trkpt>
      <trkpt lat="46.1363" lon="6.76836">
        <ele>1483.3639</ele>
        <time>2014-08-31T08:14:26Z</time>
      </trkpt>
      <trkpt lat="46.13629" lon="6.76829">
        <ele>1484.3153</ele>
        <time>2014-08-31T08:14:31Z</time>
      </trkpt>
      <trkpt lat="46.13626" lon="6.76823">
        <ele>1484.3153</ele>
        <time>2014-08-31T08:14:36Z</time>
      </trkpt>
      <trkpt lat="46.13625" lon="6.76819">
        <ele>1484.3153</ele>
        <time>2014-08-31T08:14:41Z</time>
      </trkpt>
      <trkpt lat="46.13622" lon="6.76814">
        <ele>1485.1659</ele>
        <time>2014-08-31T08:14:46Z</time>
      </trkpt>
      <trkpt lat="46.13619" lon="6.76809">
        <ele>1485.1659</ele>
        <time>2014-08-31T08:14:51Z</time>
      </trkpt>
      <trkpt lat="46.13616" lon="6.76803">
        <ele>1485.808</ele>
        <time>2014-08-31T08:14:56Z</time>
      </trkpt>
      <trkpt lat="46.13613" lon="6.76798">
        <ele>1485.808</ele>
        <time>2014-08-31T08:15:01Z</time>
      </trkpt>
      <trkpt lat="46.13612" lon="6.76798">
        <ele>1485.808</ele>
        <time>2014-08-31T08:15:06Z</time>
      </trkpt>
      <trkpt lat="46.13609" lon="6.76797">
        <ele>1485.808</ele>
        <time>2014-08-31T08:15:11Z</time>
      </trkpt>
      <trkpt lat="46.13608" lon="6.76795">
        <ele>1486.5753</ele>
        <time>2014-08-31T08:15:16Z</time>
      </trkpt>
      <trkpt lat="46.13602" lon="6.7679">
        <ele>1486.5753</ele>
        <time>2014-08-31T08:15:21Z</time>
      </trkpt>
      <trkpt lat="46.13598" lon="6.76786">
        <ele>1487.2146</ele>
        <time>2014-08-31T08:15:26Z</time>
      </trkpt>
      <trkpt lat="46.13594" lon="6.76779">
        <ele>1487.2146</ele>
        <time>2014-08-31T08:15:31Z</time>
      </trkpt>
      <trkpt lat="46.13591" lon="6.76773">
        <ele>1487.8086</ele>
        <time>2014-08-31T08:15:36Z</time>
      </trkpt>
      <trkpt lat="46.13589" lon="6.7677">
        <ele>1487.8086</ele>
        <time>2014-08-31T08:15:41Z</time>
      </trkpt>
      <trkpt lat="46.13588" lon="6.76769">
        <ele>1487.8086</ele>
        <time>2014-08-31T08:15:46Z</time>
      </trkpt>
      <trkpt lat="46.13588" lon="6.76769">
        <ele>1487.8086</ele>
        <time>2014-08-31T08:15:51Z</time>
      </trkpt>
      <trkpt lat="46.13588" lon="6.7677">
        <ele>1487.8086</ele>
        <time>2014-08-31T08:16:01Z</time>
      </trkpt>
      <trkpt lat="46.13588" lon="6.7677">
        <ele>1487.8086</ele>
        <time>2014-08-31T08:16:06Z</time>
      </trkpt>
      <trkpt lat="46.13589" lon="6.7677">
        <ele>1487.8086</ele>
        <time>2014-08-31T08:16:21Z</time>
      </trkpt>
      <trkpt lat="46.13589" lon="6.7677">
        <ele>1487.8086</ele>
        <time>2014-08-31T08:16:26Z</time>
      </trkpt>
      <trkpt lat="46.13589" lon="6.76771">
        <ele>1487.8086</ele>
        <time>2014-08-31T08:16:51Z</time>
      </trkpt>
      <trkpt lat="46.13589" lon="6.76771">
        <ele>1487.8086</ele>
        <time>2014-08-31T08:16:56Z</time>
      </trkpt>
      <trkpt lat="46.13588" lon="6.7677">
        <ele>1487.8086</ele>
        <time>2014-08-31T08:17:31Z</time>
      </trkpt>
      <trkpt lat="46.13588" lon="6.7677">
        <ele>1487.8086</ele>
        <time>2014-08-31T08:17:36Z</time>
      </trkpt>
      <trkpt lat="46.13588" lon="6.76769">
        <ele>1487.8086</ele>
        <time>2014-08-31T08:17:46Z</time>
      </trkpt>
      <trkpt lat="46.13589" lon="6.76767">
        <ele>1489.0396</ele>
        <time>2014-08-31T08:17:51Z</time>
      </trkpt>
      <trkpt lat="46.1359" lon="6.76763">
        <ele>1489.0396</ele>
        <time>2014-08-31T08:17:56Z</time>
      </trkpt>
      <trkpt lat="46.1359" lon="6.7676">
        <ele>1489.0396</ele>
        <time>2014-08-31T08:18:01Z</time>
      </trkpt>
      <trkpt lat="46.13591" lon="6.7676">
        <ele>1489.0396</ele>
        <time>2014-08-31T08:18:06Z</time>
      </trkpt>
      <trkpt lat="46.13591" lon="6.7676">
        <ele>1489.0396</ele>
        <time>2014-08-31T08:18:11Z</time>
      </trkpt>
      <trkpt lat="46.13596" lon="6.76759">
        <ele>1490.1686</ele>
        <time>2014-08-31T08:18:16Z</time>
      </trkpt>
      <trkpt lat="46.13599" lon="6.76755">
        <ele>1490.1686</ele>
        <time>2014-08-31T08:18:21Z</time>
      </trkpt>
      <trkpt lat="46.136" lon="6.76755">
        <ele>1490.1686</ele>
        <time>2014-08-31T08:18:26Z</time>
      </trkpt>
      <trkpt lat="46.13603" lon="6.76756">
        <ele>1490.1686</ele>
        <time>2014-08-31T08:18:31Z</time>
      </trkpt>
      <trkpt lat="46.13607" lon="6.76754">
        <ele>1491.5781</ele>
        <time>2014-08-31T08:18:36Z</time>
      </trkpt>
      <trkpt lat="46.13609" lon="6.76754">
        <ele>1491.5781</ele>
        <time>2014-08-31T08:18:41Z</time>
      </trkpt>
      <trkpt lat="46.13611" lon="6.76757">
        <ele>1491.5781</ele>
        <time>2014-08-31T08:18:46Z</time>
      </trkpt>
      <trkpt lat="46.13618" lon="6.76753">
        <ele>1493.2037</ele>
        <time>2014-08-31T08:18:51Z</time>
      </trkpt>
      <trkpt lat="46.13619" lon="6.76751">
        <ele>1493.2037</ele>
        <time>2014-08-31T08:18:56Z</time>
      </trkpt>
      <trkpt lat="46.13621" lon="6.7675">
        <ele>1493.2037</ele>
        <time>2014-08-31T08:19:01Z</time>
      </trkpt>
      <trkpt lat="46.13622" lon="6.76748">
        <ele>1493.2037</ele>
        <time>2014-08-31T08:19:06Z</time>
      </trkpt>
      <trkpt lat="46.13631" lon="6.7674">
        <ele>1495.2156</ele>
        <time>2014-08-31T08:19:11Z</time>
      </trkpt>
      <trkpt lat="46.13632" lon="6.76738">
        <ele>1495.2156</ele>
        <time>2014-08-31T08:19:16Z</time>
      </trkpt>
      <trkpt lat="46.13633" lon="6.76736">
        <ele>1495.2156</ele>
        <time>2014-08-31T08:19:21Z</time>
      </trkpt>
      <trkpt lat="46.13635" lon="6.76734">
        <ele>1495.2156</ele>
        <time>2014-08-31T08:19:26Z</time>
      </trkpt>
      <trkpt lat="46.13636" lon="6.76733">
        <ele>1495.2156</ele>
        <time>2014-08-31T08:19:31Z</time>
      </trkpt>
      <trkpt lat="46.1364" lon="6.76732">
        <ele>1497.857</ele>
        <time>2014-08-31T08:19:36Z</time>
      </trkpt>
      <trkpt lat="46.13642" lon="6.76732">
        <ele>1497.857</ele>
        <time>2014-08-31T08:19:41Z</time>
      </trkpt>
      <trkpt lat="46.13642" lon="6.76731">
        <ele>1497.857</ele>
        <time>2014-08-31T08:19:46Z</time>
      </trkpt>
      <trkpt lat="46.13643" lon="6.76728">
        <ele>1497.857</ele>
        <time>2014-08-31T08:19:51Z</time>
      </trkpt>
      <trkpt lat="46.13644" lon="6.76728">
        <ele>1497.857</ele>
        <time>2014-08-31T08:19:56Z</time>
      </trkpt>
      <trkpt lat="46.13647" lon="6.76727">
        <ele>1497.857</ele>
        <time>2014-08-31T08:20:01Z</time>
      </trkpt>
      <trkpt lat="46.13648" lon="6.76727">
        <ele>1500.2563</ele>
        <time>2014-08-31T08:20:06Z</time>
      </trkpt>
      <trkpt lat="46.13652" lon="6.76725">
        <ele>1500.2563</ele>
        <time>2014-08-31T08:20:11Z</time>
      </trkpt>
      <trkpt lat="46.13653" lon="6.76725">
        <ele>1500.2563</ele>
        <time>2014-08-31T08:20:16Z</time>
      </trkpt>
      <trkpt lat="46.13655" lon="6.76723">
        <ele>1500.2563</ele>
        <time>2014-08-31T08:20:21Z</time>
      </trkpt>
      <trkpt lat="46.13655" lon="6.76724">
        <ele>1500.2563</ele>
        <time>2014-08-31T08:20:26Z</time>
      </trkpt>
      <trkpt lat="46.13659" lon="6.76725">
        <ele>1502.7308</ele>
        <time>2014-08-31T08:20:31Z</time>
      </trkpt>
      <trkpt lat="46.13663" lon="6.76725">
        <ele>1502.7308</ele>
        <time>2014-08-31T08:20:36Z</time>
      </trkpt>
      <trkpt lat="46.13663" lon="6.76725">
        <ele>1502.7308</ele>
        <time>2014-08-31T08:20:41Z</time>
      </trkpt>
      <trkpt lat="46.13665" lon="6.76726">
        <ele>1502.7308</ele>
        <time>2014-08-31T08:20:46Z</time>
      </trkpt>
      <trkpt lat="46.13668" lon="6.7673">
        <ele>1505.0698</ele>
        <time>2014-08-31T08:20:51Z</time>
      </trkpt>
      <trkpt lat="46.13668" lon="6.7673">
        <ele>1505.0698</ele>
        <time>2014-08-31T08:20:56Z</time>
      </trkpt>
      <trkpt lat="46.13671" lon="6.76731">
        <ele>1505.0698</ele>
        <time>2014-08-31T08:21:06Z</time>
      </trkpt>
      <trkpt lat="46.13671" lon="6.76731">
        <ele>1505.0698</ele>
        <time>2014-08-31T08:21:11Z</time>
      </trkpt>
      <trkpt lat="46.13673" lon="6.76733">
        <ele>1505.0698</ele>
        <time>2014-08-31T08:21:36Z</time>
      </trkpt>
      <trkpt lat="46.13674" lon="6.76735">
        <ele>1505.0698</ele>
        <time>2014-08-31T08:21:41Z</time>
      </trkpt>
      <trkpt lat="46.13685" lon="6.76738">
        <ele>1507.4967</ele>
        <time>2014-08-31T08:21:46Z</time>
      </trkpt>
      <trkpt lat="46.13688" lon="6.76739">
        <ele>1507.4967</ele>
        <time>2014-08-31T08:21:51Z</time>
      </trkpt>
      <trkpt lat="46.13697" lon="6.76736">
        <ele>1509.5981</ele>
        <time>2014-08-31T08:21:56Z</time>
      </trkpt>
      <trkpt lat="46.13697" lon="6.76736">
        <ele>1509.5981</ele>
        <time>2014-08-31T08:22:01Z</time>
      </trkpt>
      <trkpt lat="46.13699" lon="6.76735">
        <ele>1509.5981</ele>
        <time>2014-08-31T08:22:06Z</time>
      </trkpt>
      <trkpt lat="46.13703" lon="6.76725">
        <ele>1511.4105</ele>
        <time>2014-08-31T08:22:11Z</time>
      </trkpt>
      <trkpt lat="46.13703" lon="6.76725">
        <ele>1511.4105</ele>
        <time>2014-08-31T08:22:16Z</time>
      </trkpt>
      <trkpt lat="46.13703" lon="6.76722">
        <ele>1511.4105</ele>
        <time>2014-08-31T08:22:26Z</time>
      </trkpt>
      <trkpt lat="46.13702" lon="6.76715">
        <ele>1511.4105</ele>
        <time>2014-08-31T08:22:31Z</time>
      </trkpt>
      <trkpt lat="46.13701" lon="6.76712">
        <ele>1511.4105</ele>
        <time>2014-08-31T08:22:36Z</time>
      </trkpt>
      <trkpt lat="46.137" lon="6.76708">
        <ele>1512.9684</ele>
        <time>2014-08-31T08:22:41Z</time>
      </trkpt>
      <trkpt lat="46.13698" lon="6.76701">
        <ele>1512.9684</ele>
        <time>2014-08-31T08:22:46Z</time>
      </trkpt>
      <trkpt lat="46.13696" lon="6.76693">
        <ele>1514.4916</ele>
        <time>2014-08-31T08:22:51Z</time>
      </trkpt>
      <trkpt lat="46.13694" lon="6.76687">
        <ele>1514.4916</ele>
        <time>2014-08-31T08:22:56Z</time>
      </trkpt>
      <trkpt lat="46.13695" lon="6.76684">
        <ele>1514.4916</ele>
        <time>2014-08-31T08:23:01Z</time>
      </trkpt>
      <trkpt lat="46.13695" lon="6.76681">
        <ele>1514.4916</ele>
        <time>2014-08-31T08:23:06Z</time>
      </trkpt>
      <trkpt lat="46.13694" lon="6.7668">
        <ele>1515.8528</ele>
        <time>2014-08-31T08:23:11Z</time>
      </trkpt>
      <trkpt lat="46.1369" lon="6.76676">
        <ele>1515.8528</ele>
        <time>2014-08-31T08:23:16Z</time>
      </trkpt>
      <trkpt lat="46.13687" lon="6.76672">
        <ele>1516.9777</ele>
        <time>2014-08-31T08:23:21Z</time>
      </trkpt>
      <trkpt lat="46.13686" lon="6.76671">
        <ele>1516.9777</ele>
        <time>2014-08-31T08:23:26Z</time>
      </trkpt>
      <trkpt lat="46.1368" lon="6.76667">
        <ele>1516.9777</ele>
        <time>2014-08-31T08:23:31Z</time>
      </trkpt>
      <trkpt lat="46.13677" lon="6.76667">
        <ele>1517.7549</ele>
        <time>2014-08-31T08:23:36Z</time>
      </trkpt>
      <trkpt lat="46.13673" lon="6.76669">
        <ele>1517.7549</ele>
        <time>2014-08-31T08:23:41Z</time>
      </trkpt>
      <trkpt lat="46.13671" lon="6.76668">
        <ele>1517.7549</ele>
        <time>2014-08-31T08:23:46Z</time>
      </trkpt>
      <trkpt lat="46.1367" lon="6.76667">
        <ele>1517.7549</ele>
        <time>2014-08-31T08:23:51Z</time>
      </trkpt>
      <trkpt lat="46.1367" lon="6.76667">
        <ele>1517.7549</ele>
        <time>2014-08-31T08:23:56Z</time>
      </trkpt>
      <trkpt lat="46.13669" lon="6.76666">
        <ele>1517.7549</ele>
        <time>2014-08-31T08:24:01Z</time>
      </trkpt>
      <trkpt lat="46.13666" lon="6.76663">
        <ele>1518.4713</ele>
        <time>2014-08-31T08:24:06Z</time>
      </trkpt>
      <trkpt lat="46.13666" lon="6.76663">
        <ele>1518.4713</ele>
        <time>2014-08-31T08:24:11Z</time>
      </trkpt>
      <trkpt lat="46.13666" lon="6.76663">
        <ele>1518.4713</ele>
        <time>2014-08-31T08:24:16Z</time>
      </trkpt>
      <trkpt lat="46.13661" lon="6.76661">
        <ele>1518.4713</ele>
        <time>2014-08-31T08:24:21Z</time>
      </trkpt>
      <trkpt lat="46.13659" lon="6.76657">
        <ele>1518.4713</ele>
        <time>2014-08-31T08:24:26Z</time>
      </trkpt>
      <trkpt lat="46.13658" lon="6.7665">
        <ele>1519.8976</ele>
        <time>2014-08-31T08:24:31Z</time>
      </trkpt>
      <trkpt lat="46.13658" lon="6.7665">
        <ele>1519.8976</ele>
        <time>2014-08-31T08:24:36Z</time>
      </trkpt>
      <trkpt lat="46.13657" lon="6.76649">
        <ele>1519.8976</ele>
        <time>2014-08-31T08:24:46Z</time>
      </trkpt>
      <trkpt lat="46.13655" lon="6.76648">
        <ele>1519.8976</ele>
        <time>2014-08-31T08:24:51Z</time>
      </trkpt>
      <trkpt lat="46.13655" lon="6.76648">
        <ele>1519.8976</ele>
        <time>2014-08-31T08:24:56Z</time>
      </trkpt>
      <trkpt lat="46.13652" lon="6.76648">
        <ele>1519.8976</ele>
        <time>2014-08-31T08:25:01Z</time>
      </trkpt>
      <trkpt lat="46.13646" lon="6.76639">
        <ele>1521.434</ele>
        <time>2014-08-31T08:25:06Z</time>
      </trkpt>
      <trkpt lat="46.13635" lon="6.76628">
        <ele>1522.7987</ele>
        <time>2014-08-31T08:25:11Z</time>
      </trkpt>
      <trkpt lat="46.13625" lon="6.76619">
        <ele>1523.8895</ele>
        <time>2014-08-31T08:25:16Z</time>
      </trkpt>
      <trkpt lat="46.13618" lon="6.76613">
        <ele>1523.8895</ele>
        <time>2014-08-31T08:25:21Z</time>
      </trkpt>
      <trkpt lat="46.13617" lon="6.76612">
        <ele>1524.8431</ele>
        <time>2014-08-31T08:25:26Z</time>
      </trkpt>
      <trkpt lat="46.13617" lon="6.76611">
        <ele>1524.8431</ele>
        <time>2014-08-31T08:25:31Z</time>
      </trkpt>
      <trkpt lat="46.13615" lon="6.76608">
        <ele>1524.8431</ele>
        <time>2014-08-31T08:25:36Z</time>
      </trkpt>
      <trkpt lat="46.1361" lon="6.76604">
        <ele>1524.8431</ele>
        <time>2014-08-31T08:25:41Z</time>
      </trkpt>
      <trkpt lat="46.1361" lon="6.76604">
        <ele>1525.9596</ele>
        <time>2014-08-31T08:25:46Z</time>
      </trkpt>
      <trkpt lat="46.1361" lon="6.76604">
        <ele>1525.9596</ele>
        <time>2014-08-31T08:25:51Z</time>
      </trkpt>
      <trkpt lat="46.13609" lon="6.76606">
        <ele>1525.9596</ele>
        <time>2014-08-31T08:25:56Z</time>
      </trkpt>
      <trkpt lat="46.13609" lon="6.76606">
        <ele>1525.9596</ele>
        <time>2014-08-31T08:26:01Z</time>
      </trkpt>
      <trkpt lat="46.13607" lon="6.76608">
        <ele>1525.9596</ele>
        <time>2014-08-31T08:26:51Z</time>
      </trkpt>
      <trkpt lat="46.13601" lon="6.76616">
        <ele>1527.862</ele>
        <time>2014-08-31T08:26:56Z</time>
      </trkpt>
      <trkpt lat="46.13598" lon="6.76617">
        <ele>1527.862</ele>
        <time>2014-08-31T08:27:01Z</time>
      </trkpt>
      <trkpt lat="46.13593" lon="6.7662">
        <ele>1527.862</ele>
        <time>2014-08-31T08:27:06Z</time>
      </trkpt>
      <trkpt lat="46.13592" lon="6.76623">
        <ele>1529.5985</ele>
        <time>2014-08-31T08:27:11Z</time>
      </trkpt>
      <trkpt lat="46.1359" lon="6.76626">
        <ele>1529.5985</ele>
        <time>2014-08-31T08:27:16Z</time>
      </trkpt>
      <trkpt lat="46.13586" lon="6.76632">
        <ele>1529.5985</ele>
        <time>2014-08-31T08:27:21Z</time>
      </trkpt>
      <trkpt lat="46.1358" lon="6.7664">
        <ele>1531.1951</ele>
        <time>2014-08-31T08:27:26Z</time>
      </trkpt>
      <trkpt lat="46.1358" lon="6.7664">
        <ele>1531.1951</ele>
        <time>2014-08-31T08:27:31Z</time>
      </trkpt>
      <trkpt lat="46.13578" lon="6.76639">
        <ele>1531.1951</ele>
        <time>2014-08-31T08:27:36Z</time>
      </trkpt>
      <trkpt lat="46.13575" lon="6.76639">
        <ele>1531.1951</ele>
        <time>2014-08-31T08:27:41Z</time>
      </trkpt>
      <trkpt lat="46.13573" lon="6.7664">
        <ele>1531.1951</ele>
        <time>2014-08-31T08:27:46Z</time>
      </trkpt>
      <trkpt lat="46.13565" lon="6.76642">
        <ele>1533.3967</ele>
        <time>2014-08-31T08:27:51Z</time>
      </trkpt>
      <trkpt lat="46.13561" lon="6.76638">
        <ele>1533.3967</ele>
        <time>2014-08-31T08:27:56Z</time>
      </trkpt>
      <trkpt lat="46.13554" lon="6.76633">
        <ele>1535.4944</ele>
        <time>2014-08-31T08:28:01Z</time>
      </trkpt>
      <trkpt lat="46.13549" lon="6.7663">
        <ele>1535.4944</ele>
        <time>2014-08-31T08:28:06Z</time>
      </trkpt>
      <trkpt lat="46.13545" lon="6.76626">
        <ele>1537.2782</ele>
        <time>2014-08-31T08:28:11Z</time>
      </trkpt>
      <trkpt lat="46.13542" lon="6.76622">
        <ele>1537.2782</ele>
        <time>2014-08-31T08:28:16Z</time>
      </trkpt>
      <trkpt lat="46.13541" lon="6.76617">
        <ele>1537.2782</ele>
        <time>2014-08-31T08:28:21Z</time>
      </trkpt>
      <trkpt lat="46.13537" lon="6.76611">
        <ele>1538.7417</ele>
        <time>2014-08-31T08:28:26Z</time>
      </trkpt>
      <trkpt lat="46.13536" lon="6.76606">
        <ele>1538.7417</ele>
        <time>2014-08-31T08:28:31Z</time>
      </trkpt>
      <trkpt lat="46.13534" lon="6.76601">
        <ele>1538.7417</ele>
        <time>2014-08-31T08:28:36Z</time>
      </trkpt>
      <trkpt lat="46.13533" lon="6.76595">
        <ele>1539.8799</ele>
        <time>2014-08-31T08:28:41Z</time>
      </trkpt>
      <trkpt lat="46.13535" lon="6.76592">
        <ele>1539.8799</ele>
        <time>2014-08-31T08:28:46Z</time>
      </trkpt>
      <trkpt lat="46.13535" lon="6.76588">
        <ele>1539.8799</ele>
        <time>2014-08-31T08:28:51Z</time>
      </trkpt>
      <trkpt lat="46.13534" lon="6.76582">
        <ele>1540.8334</ele>
        <time>2014-08-31T08:28:56Z</time>
      </trkpt>
      <trkpt lat="46.13532" lon="6.76578">
        <ele>1540.8334</ele>
        <time>2014-08-31T08:29:01Z</time>
      </trkpt>
      <trkpt lat="46.13532" lon="6.76577">
        <ele>1540.8334</ele>
        <time>2014-08-31T08:29:06Z</time>
      </trkpt>
      <trkpt lat="46.13532" lon="6.76575">
        <ele>1540.8334</ele>
        <time>2014-08-31T08:29:11Z</time>
      </trkpt>
      <trkpt lat="46.1353" lon="6.7657">
        <ele>1541.6461</ele>
        <time>2014-08-31T08:29:16Z</time>
      </trkpt>
      <trkpt lat="46.13529" lon="6.76568">
        <ele>1541.6461</ele>
        <time>2014-08-31T08:29:21Z</time>
      </trkpt>
      <trkpt lat="46.13529" lon="6.76568">
        <ele>1541.6461</ele>
        <time>2014-08-31T08:29:26Z</time>
      </trkpt>
      <trkpt lat="46.13528" lon="6.76566">
        <ele>1541.6461</ele>
        <time>2014-08-31T08:29:31Z</time>
      </trkpt>
      <trkpt lat="46.13527" lon="6.76565">
        <ele>1541.6461</ele>
        <time>2014-08-31T08:29:36Z</time>
      </trkpt>
      <trkpt lat="46.13524" lon="6.76559">
        <ele>1542.4894</ele>
        <time>2014-08-31T08:29:41Z</time>
      </trkpt>
      <trkpt lat="46.13524" lon="6.76558">
        <ele>1542.4894</ele>
        <time>2014-08-31T08:29:46Z</time>
      </trkpt>
      <trkpt lat="46.13524" lon="6.76558">
        <ele>1542.4894</ele>
        <time>2014-08-31T08:29:51Z</time>
      </trkpt>
      <trkpt lat="46.13523" lon="6.76556">
        <ele>1542.4894</ele>
        <time>2014-08-31T08:29:56Z</time>
      </trkpt>
      <trkpt lat="46.13519" lon="6.76549">
        <ele>1542.4894</ele>
        <time>2014-08-31T08:30:01Z</time>
      </trkpt>
      <trkpt lat="46.13519" lon="6.76549">
        <ele>1542.4894</ele>
        <time>2014-08-31T08:30:06Z</time>
      </trkpt>
      <trkpt lat="46.13516" lon="6.76547">
        <ele>1543.6511</ele>
        <time>2014-08-31T08:30:11Z</time>
      </trkpt>
      <trkpt lat="46.13511" lon="6.7654">
        <ele>1543.6511</ele>
        <time>2014-08-31T08:30:16Z</time>
      </trkpt>
      <trkpt lat="46.13494" lon="6.76533">
        <ele>1544.9507</ele>
        <time>2014-08-31T08:30:21Z</time>
      </trkpt>
      <trkpt lat="46.13485" lon="6.76532">
        <ele>1546.4219</ele>
        <time>2014-08-31T08:30:26Z</time>
      </trkpt>
      <trkpt lat="46.1348" lon="6.76527">
        <ele>1546.4219</ele>
        <time>2014-08-31T08:30:31Z</time>
      </trkpt>
      <trkpt lat="46.13476" lon="6.76521">
        <ele>1548.211</ele>
        <time>2014-08-31T08:30:36Z</time>
      </trkpt>
      <trkpt lat="46.13473" lon="6.76519">
        <ele>1548.211</ele>
        <time>2014-08-31T08:30:41Z</time>
      </trkpt>
      <trkpt lat="46.13472" lon="6.76517">
        <ele>1548.211</ele>
        <time>2014-08-31T08:30:46Z</time>
      </trkpt>
      <trkpt lat="46.13469" lon="6.76515">
        <ele>1548.211</ele>
        <time>2014-08-31T08:30:51Z</time>
      </trkpt>
      <trkpt lat="46.13465" lon="6.76513">
        <ele>1550.2798</ele>
        <time>2014-08-31T08:30:56Z</time>
      </trkpt>
      <trkpt lat="46.13464" lon="6.76512">
        <ele>1550.2798</ele>
        <time>2014-08-31T08:31:01Z</time>
      </trkpt>
      <trkpt lat="46.13464" lon="6.76512">
        <ele>1550.2798</ele>
        <time>2014-08-31T08:31:06Z</time>
      </trkpt>
      <trkpt lat="46.13463" lon="6.76509">
        <ele>1550.2798</ele>
        <time>2014-08-31T08:31:11Z</time>
      </trkpt>
      <trkpt lat="46.13457" lon="6.76503">
        <ele>1552.4187</ele>
        <time>2014-08-31T08:31:16Z</time>
      </trkpt>
      <trkpt lat="46.13456" lon="6.76502">
        <ele>1552.4187</ele>
        <time>2014-08-31T08:31:21Z</time>
      </trkpt>
      <trkpt lat="46.13455" lon="6.76501">
        <ele>1552.4187</ele>
        <time>2014-08-31T08:31:26Z</time>
      </trkpt>
      <trkpt lat="46.13448" lon="6.76495">
        <ele>1554.3618</ele>
        <time>2014-08-31T08:31:31Z</time>
      </trkpt>
      <trkpt lat="46.13442" lon="6.76495">
        <ele>1554.3618</ele>
        <time>2014-08-31T08:31:36Z</time>
      </trkpt>
      <trkpt lat="46.13439" lon="6.76495">
        <ele>1554.3618</ele>
        <time>2014-08-31T08:31:41Z</time>
      </trkpt>
      <trkpt lat="46.13439" lon="6.76495">
        <ele>1556.2666</ele>
        <time>2014-08-31T08:31:46Z</time>
      </trkpt>
      <trkpt lat="46.13437" lon="6.76494">
        <ele>1556.2666</ele>
        <time>2014-08-31T08:31:51Z</time>
      </trkpt>
      <trkpt lat="46.13436" lon="6.76493">
        <ele>1556.2666</ele>
        <time>2014-08-31T08:31:56Z</time>
      </trkpt>
      <trkpt lat="46.13428" lon="6.76486">
        <ele>1558.005</ele>
        <time>2014-08-31T08:32:01Z</time>
      </trkpt>
      <trkpt lat="46.13421" lon="6.76475">
        <ele>1559.5891</ele>
        <time>2014-08-31T08:32:06Z</time>
      </trkpt>
      <trkpt lat="46.13419" lon="6.76472">
        <ele>1559.5891</ele>
        <time>2014-08-31T08:32:11Z</time>
      </trkpt>
      <trkpt lat="46.13416" lon="6.76469">
        <ele>1559.5891</ele>
        <time>2014-08-31T08:32:16Z</time>
      </trkpt>
      <trkpt lat="46.13413" lon="6.76465">
        <ele>1561.0587</ele>
        <time>2014-08-31T08:32:21Z</time>
      </trkpt>
      <trkpt lat="46.1341" lon="6.7646">
        <ele>1561.0587</ele>
        <time>2014-08-31T08:32:26Z</time>
      </trkpt>
      <trkpt lat="46.13408" lon="6.76456">
        <ele>1561.0587</ele>
        <time>2014-08-31T08:32:31Z</time>
      </trkpt>
      <trkpt lat="46.13405" lon="6.76449">
        <ele>1562.2787</ele>
        <time>2014-08-31T08:32:36Z</time>
      </trkpt>
      <trkpt lat="46.13405" lon="6.76449">
        <ele>1562.2787</ele>
        <time>2014-08-31T08:32:41Z</time>
      </trkpt>
      <trkpt lat="46.13403" lon="6.76444">
        <ele>1562.2787</ele>
        <time>2014-08-31T08:32:46Z</time>
      </trkpt>
      <trkpt lat="46.13402" lon="6.7644">
        <ele>1562.2787</ele>
        <time>2014-08-31T08:32:51Z</time>
      </trkpt>
      <trkpt lat="46.134" lon="6.76437">
        <ele>1563.2106</ele>
        <time>2014-08-31T08:32:56Z</time>
      </trkpt>
      <trkpt lat="46.13394" lon="6.76431">
        <ele>1563.2106</ele>
        <time>2014-08-31T08:33:01Z</time>
      </trkpt>
      <trkpt lat="46.13389" lon="6.76429">
        <ele>1564.0503</ele>
        <time>2014-08-31T08:33:06Z</time>
      </trkpt>
      <trkpt lat="46.13386" lon="6.7643">
        <ele>1564.0503</ele>
        <time>2014-08-31T08:33:11Z</time>
      </trkpt>
      <trkpt lat="46.13382" lon="6.76432">
        <ele>1564.0503</ele>
        <time>2014-08-31T08:33:16Z</time>
      </trkpt>
      <trkpt lat="46.13376" lon="6.76435">
        <ele>1565.167</ele>
        <time>2014-08-31T08:33:21Z</time>
      </trkpt>
      <trkpt lat="46.13374" lon="6.76436">
        <ele>1565.167</ele>
        <time>2014-08-31T08:33:26Z</time>
      </trkpt>
      <trkpt lat="46.13372" lon="6.76438">
        <ele>1565.167</ele>
        <time>2014-08-31T08:33:31Z</time>
      </trkpt>
      <trkpt lat="46.13369" lon="6.7644">
        <ele>1565.167</ele>
        <time>2014-08-31T08:33:36Z</time>
      </trkpt>
      <trkpt lat="46.13364" lon="6.76445">
        <ele>1566.4552</ele>
        <time>2014-08-31T08:33:41Z</time>
      </trkpt>
      <trkpt lat="46.1336" lon="6.76447">
        <ele>1566.4552</ele>
        <time>2014-08-31T08:33:46Z</time>
      </trkpt>
      <trkpt lat="46.13357" lon="6.76446">
        <ele>1566.4552</ele>
        <time>2014-08-31T08:33:51Z</time>
      </trkpt>
      <trkpt lat="46.13355" lon="6.76446">
        <ele>1567.8597</ele>
        <time>2014-08-31T08:33:56Z</time>
      </trkpt>
      <trkpt lat="46.13351" lon="6.76446">
        <ele>1567.8597</ele>
        <time>2014-08-31T08:34:01Z</time>
      </trkpt>
      <trkpt lat="46.13349" lon="6.76445">
        <ele>1567.8597</ele>
        <time>2014-08-31T08:34:06Z</time>
      </trkpt>
      <trkpt lat="46.13345" lon="6.76443">
        <ele>1569.4159</ele>
        <time>2014-08-31T08:34:11Z</time>
      </trkpt>
      <trkpt lat="46.13343" lon="6.76443">
        <ele>1569.4159</ele>
        <time>2014-08-31T08:34:16Z</time>
      </trkpt>
      <trkpt lat="46.13342" lon="6.76442">
        <ele>1569.4159</ele>
        <time>2014-08-31T08:34:21Z</time>
      </trkpt>
      <trkpt lat="46.13339" lon="6.76443">
        <ele>1569.4159</ele>
        <time>2014-08-31T08:34:26Z</time>
      </trkpt>
      <trkpt lat="46.13336" lon="6.76443">
        <ele>1571.17</ele>
        <time>2014-08-31T08:34:31Z</time>
      </trkpt>
      <trkpt lat="46.13329" lon="6.76445">
        <ele>1571.17</ele>
        <time>2014-08-31T08:34:36Z</time>
      </trkpt>
      <trkpt lat="46.13323" lon="6.76444">
        <ele>1572.9774</ele>
        <time>2014-08-31T08:34:41Z</time>
      </trkpt>
      <trkpt lat="46.13319" lon="6.76443">
        <ele>1572.9774</ele>
        <time>2014-08-31T08:34:46Z</time>
      </trkpt>
      <trkpt lat="46.13315" lon="6.76443">
        <ele>1572.9774</ele>
        <time>2014-08-31T08:34:51Z</time>
      </trkpt>
      <trkpt lat="46.13313" lon="6.76443">
        <ele>1575.1937</ele>
        <time>2014-08-31T08:34:56Z</time>
      </trkpt>
      <trkpt lat="46.13309" lon="6.76442">
        <ele>1575.1937</ele>
        <time>2014-08-31T08:35:01Z</time>
      </trkpt>
      <trkpt lat="46.13308" lon="6.76442">
        <ele>1575.1937</ele>
        <time>2014-08-31T08:35:06Z</time>
      </trkpt>
      <trkpt lat="46.13304" lon="6.76443">
        <ele>1575.1937</ele>
        <time>2014-08-31T08:35:11Z</time>
      </trkpt>
      <trkpt lat="46.13302" lon="6.76441">
        <ele>1577.4412</ele>
        <time>2014-08-31T08:35:16Z</time>
      </trkpt>
      <trkpt lat="46.13299" lon="6.7644">
        <ele>1577.4412</ele>
        <time>2014-08-31T08:35:21Z</time>
      </trkpt>
      <trkpt lat="46.13296" lon="6.76437">
        <ele>1577.4412</ele>
        <time>2014-08-31T08:35:26Z</time>
      </trkpt>
      <trkpt lat="46.13296" lon="6.76437">
        <ele>1577.4412</ele>
        <time>2014-08-31T08:35:31Z</time>
      </trkpt>
      <trkpt lat="46.13293" lon="6.76437">
        <ele>1579.4849</ele>
        <time>2014-08-31T08:35:36Z</time>
      </trkpt>
      <trkpt lat="46.13289" lon="6.76436">
        <ele>1579.4849</ele>
        <time>2014-08-31T08:35:41Z</time>
      </trkpt>
      <trkpt lat="46.13288" lon="6.76436">
        <ele>1579.4849</ele>
        <time>2014-08-31T08:35:46Z</time>
      </trkpt>
      <trkpt lat="46.13284" lon="6.76437">
        <ele>1579.4849</ele>
        <time>2014-08-31T08:35:51Z</time>
      </trkpt>
      <trkpt lat="46.13278" lon="6.7644">
        <ele>1581.5979</ele>
        <time>2014-08-31T08:35:56Z</time>
      </trkpt>
      <trkpt lat="46.13276" lon="6.7644">
        <ele>1581.5979</ele>
        <time>2014-08-31T08:36:01Z</time>
      </trkpt>
      <trkpt lat="46.1327" lon="6.76437">
        <ele>1581.5979</ele>
        <time>2014-08-31T08:36:06Z</time>
      </trkpt>
      <trkpt lat="46.13268" lon="6.76436">
        <ele>1583.687</ele>
        <time>2014-08-31T08:36:11Z</time>
      </trkpt>
      <trkpt lat="46.13264" lon="6.76434">
        <ele>1583.687</ele>
        <time>2014-08-31T08:36:16Z</time>
      </trkpt>
      <trkpt lat="46.13263" lon="6.76434">
        <ele>1583.687</ele>
        <time>2014-08-31T08:36:21Z</time>
      </trkpt>
      <trkpt lat="46.1326" lon="6.76432">
        <ele>1583.687</ele>
        <time>2014-08-31T08:36:26Z</time>
      </trkpt>
      <trkpt lat="46.13254" lon="6.76428">
        <ele>1585.522</ele>
        <time>2014-08-31T08:36:31Z</time>
      </trkpt>
      <trkpt lat="46.13254" lon="6.76428">
        <ele>1585.522</ele>
        <time>2014-08-31T08:36:36Z</time>
      </trkpt>
      <trkpt lat="46.13253" lon="6.76429">
        <ele>1585.522</ele>
        <time>2014-08-31T08:36:41Z</time>
      </trkpt>
      <trkpt lat="46.13252" lon="6.76428">
        <ele>1585.522</ele>
        <time>2014-08-31T08:36:46Z</time>
      </trkpt>
      <trkpt lat="46.13244" lon="6.76427">
        <ele>1587.3944</ele>
        <time>2014-08-31T08:36:51Z</time>
      </trkpt>
      <trkpt lat="46.1324" lon="6.76426">
        <ele>1587.3944</ele>
        <time>2014-08-31T08:36:56Z</time>
      </trkpt>
      <trkpt lat="46.13238" lon="6.76427">
        <ele>1587.3944</ele>
        <time>2014-08-31T08:37:01Z</time>
      </trkpt>
      <trkpt lat="46.13238" lon="6.76427">
        <ele>1587.3944</ele>
        <time>2014-08-31T08:37:06Z</time>
      </trkpt>
      <trkpt lat="46.13231" lon="6.76431">
        <ele>1589.4882</ele>
        <time>2014-08-31T08:37:11Z</time>
      </trkpt>
      <trkpt lat="46.13229" lon="6.76433">
        <ele>1589.4882</ele>
        <time>2014-08-31T08:37:16Z</time>
      </trkpt>
      <trkpt lat="46.13226" lon="6.76438">
        <ele>1589.4882</ele>
        <time>2014-08-31T08:37:21Z</time>
      </trkpt>
      <trkpt lat="46.13222" lon="6.76444">
        <ele>1591.5693</ele>
        <time>2014-08-31T08:37:26Z</time>
      </trkpt>
      <trkpt lat="46.13221" lon="6.76449">
        <ele>1591.5693</ele>
        <time>2014-08-31T08:37:31Z</time>
      </trkpt>
      <trkpt lat="46.13217" lon="6.76451">
        <ele>1591.5693</ele>
        <time>2014-08-31T08:37:36Z</time>
      </trkpt>
      <trkpt lat="46.13213" lon="6.76453">
        <ele>1593.4355</ele>
        <time>2014-08-31T08:37:41Z</time>
      </trkpt>
      <trkpt lat="46.13212" lon="6.76453">
        <ele>1593.4355</ele>
        <time>2014-08-31T08:37:46Z</time>
      </trkpt>
      <trkpt lat="46.1321" lon="6.76451">
        <ele>1593.4355</ele>
        <time>2014-08-31T08:37:51Z</time>
      </trkpt>
      <trkpt lat="46.13209" lon="6.7645">
        <ele>1593.4355</ele>
        <time>2014-08-31T08:37:56Z</time>
      </trkpt>
      <trkpt lat="46.13206" lon="6.76446">
        <ele>1593.4355</ele>
        <time>2014-08-31T08:38:01Z</time>
      </trkpt>
      <trkpt lat="46.13204" lon="6.76442">
        <ele>1595.1885</ele>
        <time>2014-08-31T08:38:06Z</time>
      </trkpt>
      <trkpt lat="46.13201" lon="6.76435">
        <ele>1595.1885</ele>
        <time>2014-08-31T08:38:11Z</time>
      </trkpt>
      <trkpt lat="46.13199" lon="6.76432">
        <ele>1595.1885</ele>
        <time>2014-08-31T08:38:16Z</time>
      </trkpt>
      <trkpt lat="46.13196" lon="6.76424">
        <ele>1596.7783</ele>
        <time>2014-08-31T08:38:21Z</time>
      </trkpt>
      <trkpt lat="46.13192" lon="6.76419">
        <ele>1596.7783</ele>
        <time>2014-08-31T08:38:26Z</time>
      </trkpt>
      <trkpt lat="46.13185" lon="6.76411">
        <ele>1598.4764</ele>
        <time>2014-08-31T08:38:31Z</time>
      </trkpt>
      <trkpt lat="46.13185" lon="6.7641">
        <ele>1598.4764</ele>
        <time>2014-08-31T08:38:36Z</time>
      </trkpt>
      <trkpt lat="46.13183" lon="6.76408">
        <ele>1598.4764</ele>
        <time>2014-08-31T08:38:41Z</time>
      </trkpt>
      <trkpt lat="46.1318" lon="6.76407">
        <ele>1598.4764</ele>
        <time>2014-08-31T08:38:46Z</time>
      </trkpt>
      <trkpt lat="46.13179" lon="6.76405">
        <ele>1598.4764</ele>
        <time>2014-08-31T08:38:51Z</time>
      </trkpt>
      <trkpt lat="46.13176" lon="6.76404">
        <ele>1600.0585</ele>
        <time>2014-08-31T08:38:56Z</time>
      </trkpt>
      <trkpt lat="46.13172" lon="6.76401">
        <ele>1600.0585</ele>
        <time>2014-08-31T08:39:01Z</time>
      </trkpt>
      <trkpt lat="46.13168" lon="6.764">
        <ele>1600.0585</ele>
        <time>2014-08-31T08:39:06Z</time>
      </trkpt>
      <trkpt lat="46.13167" lon="6.76399">
        <ele>1601.5044</ele>
        <time>2014-08-31T08:39:11Z</time>
      </trkpt>
      <trkpt lat="46.13166" lon="6.76398">
        <ele>1601.5044</ele>
        <time>2014-08-31T08:39:16Z</time>
      </trkpt>
      <trkpt lat="46.13164" lon="6.76398">
        <ele>1601.5044</ele>
        <time>2014-08-31T08:39:21Z</time>
      </trkpt>
      <trkpt lat="46.13162" lon="6.76398">
        <ele>1601.5044</ele>
        <time>2014-08-31T08:39:26Z</time>
      </trkpt>
      <trkpt lat="46.1316" lon="6.76398">
        <ele>1601.5044</ele>
        <time>2014-08-31T08:39:31Z</time>
      </trkpt>
      <trkpt lat="46.13158" lon="6.76398">
        <ele>1601.5044</ele>
        <time>2014-08-31T08:39:36Z</time>
      </trkpt>
      <trkpt lat="46.13157" lon="6.764">
        <ele>1603.8477</ele>
        <time>2014-08-31T08:39:41Z</time>
      </trkpt>
      <trkpt lat="46.13157" lon="6.764">
        <ele>1603.8477</ele>
        <time>2014-08-31T08:39:46Z</time>
      </trkpt>
      <trkpt lat="46.13151" lon="6.76392">
        <ele>1603.8477</ele>
        <time>2014-08-31T08:39:51Z</time>
      </trkpt>
      <trkpt lat="46.13148" lon="6.76386">
        <ele>1606.1559</ele>
        <time>2014-08-31T08:39:56Z</time>
      </trkpt>
      <trkpt lat="46.13148" lon="6.76376">
        <ele>1606.1559</ele>
        <time>2014-08-31T08:40:01Z</time>
      </trkpt>
      <trkpt lat="46.13149" lon="6.76366">
        <ele>1608.3145</ele>
        <time>2014-08-31T08:40:06Z</time>
      </trkpt>
      <trkpt lat="46.1315" lon="6.76361">
        <ele>1608.3145</ele>
        <time>2014-08-31T08:40:11Z</time>
      </trkpt>
      <trkpt lat="46.1315" lon="6.76355">
        <ele>1608.3145</ele>
        <time>2014-08-31T08:40:16Z</time>
      </trkpt>
      <trkpt lat="46.1315" lon="6.7635">
        <ele>1610.0735</ele>
        <time>2014-08-31T08:40:21Z</time>
      </trkpt>
      <trkpt lat="46.13149" lon="6.7634">
        <ele>1610.0735</ele>
        <time>2014-08-31T08:40:26Z</time>
      </trkpt>
      <trkpt lat="46.13148" lon="6.76338">
        <ele>1610.0735</ele>
        <time>2014-08-31T08:40:31Z</time>
      </trkpt>
      <trkpt lat="46.13148" lon="6.76334">
        <ele>1611.563</ele>
        <time>2014-08-31T08:40:36Z</time>
      </trkpt>
      <trkpt lat="46.13148" lon="6.76328">
        <ele>1611.563</ele>
        <time>2014-08-31T08:40:41Z</time>
      </trkpt>
      <trkpt lat="46.13148" lon="6.76323">
        <ele>1611.563</ele>
        <time>2014-08-31T08:40:46Z</time>
      </trkpt>
      <trkpt lat="46.13146" lon="6.76316">
        <ele>1612.7888</ele>
        <time>2014-08-31T08:40:51Z</time>
      </trkpt>
      <trkpt lat="46.13144" lon="6.7631">
        <ele>1612.7888</ele>
        <time>2014-08-31T08:40:56Z</time>
      </trkpt>
      <trkpt lat="46.13143" lon="6.76305">
        <ele>1612.7888</ele>
        <time>2014-08-31T08:41:01Z</time>
      </trkpt>
      <trkpt lat="46.13142" lon="6.76302">
        <ele>1613.8724</ele>
        <time>2014-08-31T08:41:06Z</time>
      </trkpt>
      <trkpt lat="46.13141" lon="6.76297">
        <ele>1613.8724</ele>
        <time>2014-08-31T08:41:11Z</time>
      </trkpt>
      <trkpt lat="46.1314" lon="6.76293">
        <ele>1613.8724</ele>
        <time>2014-08-31T08:41:16Z</time>
      </trkpt>
      <trkpt lat="46.13138" lon="6.76289">
        <ele>1614.754</ele>
        <time>2014-08-31T08:41:21Z</time>
      </trkpt>
      <trkpt lat="46.13138" lon="6.76286">
        <ele>1614.754</ele>
        <time>2014-08-31T08:41:26Z</time>
      </trkpt>
      <trkpt lat="46.13137" lon="6.76283">
        <ele>1614.754</ele>
        <time>2014-08-31T08:41:31Z</time>
      </trkpt>
      <trkpt lat="46.13138" lon="6.76279">
        <ele>1614.754</ele>
        <time>2014-08-31T08:41:36Z</time>
      </trkpt>
      <trkpt lat="46.13135" lon="6.76268">
        <ele>1616.0415</ele>
        <time>2014-08-31T08:41:41Z</time>
      </trkpt>
      <trkpt lat="46.13134" lon="6.76261">
        <ele>1616.0415</ele>
        <time>2014-08-31T08:41:46Z</time>
      </trkpt>
      <trkpt lat="46.13134" lon="6.76256">
        <ele>1616.0415</ele>
        <time>2014-08-31T08:41:51Z</time>
      </trkpt>
      <trkpt lat="46.13134" lon="6.76251">
        <ele>1617.4612</ele>
        <time>2014-08-31T08:41:56Z</time>
      </trkpt>
      <trkpt lat="46.13135" lon="6.76246">
        <ele>1617.4612</ele>
        <time>2014-08-31T08:42:01Z</time>
      </trkpt>
      <trkpt lat="46.13136" lon="6.76242">
        <ele>1617.4612</ele>
        <time>2014-08-31T08:42:06Z</time>
      </trkpt>
      <trkpt lat="46.13138" lon="6.76236">
        <ele>1618.8167</ele>
        <time>2014-08-31T08:42:11Z</time>
      </trkpt>
      <trkpt lat="46.13139" lon="6.76232">
        <ele>1618.8167</ele>
        <time>2014-08-31T08:42:16Z</time>
      </trkpt>
      <trkpt lat="46.1314" lon="6.76228">
        <ele>1618.8167</ele>
        <time>2014-08-31T08:42:21Z</time>
      </trkpt>
      <trkpt lat="46.13143" lon="6.76223">
        <ele>1620.1714</ele>
        <time>2014-08-31T08:42:26Z</time>
      </trkpt>
      <trkpt lat="46.13144" lon="6.76219">
        <ele>1620.1714</ele>
        <time>2014-08-31T08:42:31Z</time>
      </trkpt>
      <trkpt lat="46.13148" lon="6.76212">
        <ele>1621.5118</ele>
        <time>2014-08-31T08:42:36Z</time>
      </trkpt>
      <trkpt lat="46.1315" lon="6.76207">
        <ele>1621.5118</ele>
        <time>2014-08-31T08:42:41Z</time>
      </trkpt>
      <trkpt lat="46.13157" lon="6.76202">
        <ele>1622.8401</ele>
        <time>2014-08-31T08:42:46Z</time>
      </trkpt>
      <trkpt lat="46.1316" lon="6.76199">
        <ele>1622.8401</ele>
        <time>2014-08-31T08:42:51Z</time>
      </trkpt>
      <trkpt lat="46.13163" lon="6.76196">
        <ele>1622.8401</ele>
        <time>2014-08-31T08:42:56Z</time>
      </trkpt>
      <trkpt lat="46.13164" lon="6.7619">
        <ele>1624.2588</ele>
        <time>2014-08-31T08:43:01Z</time>
      </trkpt>
      <trkpt lat="46.13164" lon="6.76186">
        <ele>1624.2588</ele>
        <time>2014-08-31T08:43:06Z</time>
      </trkpt>
      <trkpt lat="46.13165" lon="6.76183">
        <ele>1624.2588</ele>
        <time>2014-08-31T08:43:11Z</time>
      </trkpt>
      <trkpt lat="46.13164" lon="6.76179">
        <ele>1624.2588</ele>
        <time>2014-08-31T08:43:16Z</time>
      </trkpt>
      <trkpt lat="46.13165" lon="6.76174">
        <ele>1625.6613</ele>
        <time>2014-08-31T08:43:21Z</time>
      </trkpt>
      <trkpt lat="46.13167" lon="6.76168">
        <ele>1625.6613</ele>
        <time>2014-08-31T08:43:26Z</time>
      </trkpt>
      <trkpt lat="46.13166" lon="6.76164">
        <ele>1625.6613</ele>
        <time>2014-08-31T08:43:31Z</time>
      </trkpt>
      <trkpt lat="46.13163" lon="6.76161">
        <ele>1627.1213</ele>
        <time>2014-08-31T08:43:36Z</time>
      </trkpt>
      <trkpt lat="46.13162" lon="6.76158">
        <ele>1627.1213</ele>
        <time>2014-08-31T08:43:41Z</time>
      </trkpt>
      <trkpt lat="46.13161" lon="6.76155">
        <ele>1627.1213</ele>
        <time>2014-08-31T08:43:46Z</time>
      </trkpt>
      <trkpt lat="46.13159" lon="6.76151">
        <ele>1627.1213</ele>
        <time>2014-08-31T08:43:51Z</time>
      </trkpt>
      <trkpt lat="46.13155" lon="6.76141">
        <ele>1629.0247</ele>
        <time>2014-08-31T08:43:56Z</time>
      </trkpt>
      <trkpt lat="46.13152" lon="6.76137">
        <ele>1629.0247</ele>
        <time>2014-08-31T08:44:01Z</time>
      </trkpt>
      <trkpt lat="46.13151" lon="6.76135">
        <ele>1629.0247</ele>
        <time>2014-08-31T08:44:06Z</time>
      </trkpt>
      <trkpt lat="46.1315" lon="6.76132">
        <ele>1629.0247</ele>
        <time>2014-08-31T08:44:11Z</time>
      </trkpt>
      <trkpt lat="46.13148" lon="6.76127">
        <ele>1631.136</ele>
        <time>2014-08-31T08:44:16Z</time>
      </trkpt>
      <trkpt lat="46.13146" lon="6.76121">
        <ele>1631.136</ele>
        <time>2014-08-31T08:44:21Z</time>
      </trkpt>
      <trkpt lat="46.13145" lon="6.76117">
        <ele>1631.136</ele>
        <time>2014-08-31T08:44:26Z</time>
      </trkpt>
      <trkpt lat="46.13144" lon="6.76115">
        <ele>1631.136</ele>
        <time>2014-08-31T08:44:31Z</time>
      </trkpt>
      <trkpt lat="46.13143" lon="6.76113">
        <ele>1633.5831</ele>
        <time>2014-08-31T08:44:36Z</time>
      </trkpt>
      <trkpt lat="46.13143" lon="6.76113">
        <ele>1633.5831</ele>
        <time>2014-08-31T08:44:41Z</time>
      </trkpt>
      <trkpt lat="46.13141" lon="6.76112">
        <ele>1633.5831</ele>
        <time>2014-08-31T08:44:46Z</time>
      </trkpt>
      <trkpt lat="46.13139" lon="6.7611">
        <ele>1633.5831</ele>
        <time>2014-08-31T08:44:51Z</time>
      </trkpt>
      <trkpt lat="46.13135" lon="6.76107">
        <ele>1636.2238</ele>
        <time>2014-08-31T08:44:56Z</time>
      </trkpt>
      <trkpt lat="46.13132" lon="6.76104">
        <ele>1636.2238</ele>
        <time>2014-08-31T08:45:01Z</time>
      </trkpt>
      <trkpt lat="46.13128" lon="6.76102">
        <ele>1636.2238</ele>
        <time>2014-08-31T08:45:06Z</time>
      </trkpt>
      <trkpt lat="46.13124" lon="6.76101">
        <ele>1638.9545</ele>
        <time>2014-08-31T08:45:11Z</time>
      </trkpt>
      <trkpt lat="46.13118" lon="6.76099">
        <ele>1638.9545</ele>
        <time>2014-08-31T08:45:16Z</time>
      </trkpt>
      <trkpt lat="46.13114" lon="6.76095">
        <ele>1641.6359</ele>
        <time>2014-08-31T08:45:21Z</time>
      </trkpt>
      <trkpt lat="46.13111" lon="6.76092">
        <ele>1641.6359</ele>
        <time>2014-08-31T08:45:26Z</time>
      </trkpt>
      <trkpt lat="46.13106" lon="6.76092">
        <ele>1641.6359</ele>
        <time>2014-08-31T08:45:31Z</time>
      </trkpt>
      <trkpt lat="46.13102" lon="6.76092">
        <ele>1644.3265</ele>
        <time>2014-08-31T08:45:36Z</time>
      </trkpt>
      <trkpt lat="46.13098" lon="6.76092">
        <ele>1644.3265</ele>
        <time>2014-08-31T08:45:41Z</time>
      </trkpt>
      <trkpt lat="46.13091" lon="6.76092">
        <ele>1646.8931</ele>
        <time>2014-08-31T08:45:46Z</time>
      </trkpt>
      <trkpt lat="46.13086" lon="6.76092">
        <ele>1646.8931</ele>
        <time>2014-08-31T08:45:51Z</time>
      </trkpt>
      <trkpt lat="46.13082" lon="6.76092">
        <ele>1649.443</ele>
        <time>2014-08-31T08:45:56Z</time>
      </trkpt>
      <trkpt lat="46.13078" lon="6.76091">
        <ele>1649.443</ele>
        <time>2014-08-31T08:46:01Z</time>
      </trkpt>
      <trkpt lat="46.13074" lon="6.76091">
        <ele>1649.443</ele>
        <time>2014-08-31T08:46:06Z</time>
      </trkpt>
      <trkpt lat="46.13068" lon="6.76092">
        <ele>1651.932</ele>
        <time>2014-08-31T08:46:11Z</time>
      </trkpt>
      <trkpt lat="46.13066" lon="6.76093">
        <ele>1651.932</ele>
        <time>2014-08-31T08:46:16Z</time>
      </trkpt>
      <trkpt lat="46.13064" lon="6.76094">
        <ele>1651.932</ele>
        <time>2014-08-31T08:46:21Z</time>
      </trkpt>
      <trkpt lat="46.13064" lon="6.76094">
        <ele>1651.932</ele>
        <time>2014-08-31T08:46:26Z</time>
      </trkpt>
      <trkpt lat="46.13064" lon="6.76095">
        <ele>1651.932</ele>
        <time>2014-08-31T08:46:31Z</time>
      </trkpt>
      <trkpt lat="46.13064" lon="6.76094">
        <ele>1651.932</ele>
        <time>2014-08-31T08:46:36Z</time>
      </trkpt>
      <trkpt lat="46.13064" lon="6.76092">
        <ele>1651.932</ele>
        <time>2014-08-31T08:46:41Z</time>
      </trkpt>
      <trkpt lat="46.13063" lon="6.76088">
        <ele>1654.1749</ele>
        <time>2014-08-31T08:46:46Z</time>
      </trkpt>
      <trkpt lat="46.13062" lon="6.76086">
        <ele>1654.1749</ele>
        <time>2014-08-31T08:46:51Z</time>
      </trkpt>
      <trkpt lat="46.13062" lon="6.76086">
        <ele>1654.1749</ele>
        <time>2014-08-31T08:46:56Z</time>
      </trkpt>
      <trkpt lat="46.13062" lon="6.76085">
        <ele>1654.1749</ele>
        <time>2014-08-31T08:47:01Z</time>
      </trkpt>
      <trkpt lat="46.13063" lon="6.76085">
        <ele>1654.1749</ele>
        <time>2014-08-31T08:47:06Z</time>
      </trkpt>
      <trkpt lat="46.13062" lon="6.76086">
        <ele>1654.1749</ele>
        <time>2014-08-31T08:47:11Z</time>
      </trkpt>
      <trkpt lat="46.13062" lon="6.76086">
        <ele>1654.1749</ele>
        <time>2014-08-31T08:47:16Z</time>
      </trkpt>
      <trkpt lat="46.13062" lon="6.76085">
        <ele>1654.1749</ele>
        <time>2014-08-31T08:47:21Z</time>
      </trkpt>
      <trkpt lat="46.13061" lon="6.76085">
        <ele>1654.1749</ele>
        <time>2014-08-31T08:47:26Z</time>
      </trkpt>
      <trkpt lat="46.13062" lon="6.76083">
        <ele>1654.1749</ele>
        <time>2014-08-31T08:47:31Z</time>
      </trkpt>
      <trkpt lat="46.13062" lon="6.76083">
        <ele>1654.1749</ele>
        <time>2014-08-31T08:47:36Z</time>
      </trkpt>
      <trkpt lat="46.13062" lon="6.76083">
        <ele>1654.1749</ele>
        <time>2014-08-31T08:47:41Z</time>
      </trkpt>
      <trkpt lat="46.13062" lon="6.76084">
        <ele>1654.1749</ele>
        <time>2014-08-31T08:47:46Z</time>
      </trkpt>
      <trkpt lat="46.13063" lon="6.76084">
        <ele>1654.1749</ele>
        <time>2014-08-31T08:47:51Z</time>
      </trkpt>
      <trkpt lat="46.13063" lon="6.76085">
        <ele>1656.347</ele>
        <time>2014-08-31T08:47:56Z</time>
      </trkpt>
      <trkpt lat="46.13063" lon="6.76087">
        <ele>1656.347</ele>
        <time>2014-08-31T08:48:01Z</time>
      </trkpt>
      <trkpt lat="46.13063" lon="6.76088">
        <ele>1656.347</ele>
        <time>2014-08-31T08:48:06Z</time>
      </trkpt>
      <trkpt lat="46.13063" lon="6.76089">
        <ele>1656.347</ele>
        <time>2014-08-31T08:48:11Z</time>
      </trkpt>
      <trkpt lat="46.13064" lon="6.76088">
        <ele>1656.347</ele>
        <time>2014-08-31T08:48:16Z</time>
      </trkpt>
      <trkpt lat="46.13063" lon="6.76086">
        <ele>1656.347</ele>
        <time>2014-08-31T08:48:21Z</time>
      </trkpt>
      <trkpt lat="46.13063" lon="6.76084">
        <ele>1656.347</ele>
        <time>2014-08-31T08:48:26Z</time>
      </trkpt>
      <trkpt lat="46.13064" lon="6.76083">
        <ele>1656.347</ele>
        <time>2014-08-31T08:48:31Z</time>
      </trkpt>
      <trkpt lat="46.13064" lon="6.7608">
        <ele>1658.3081</ele>
        <time>2014-08-31T08:48:36Z</time>
      </trkpt>
      <trkpt lat="46.13065" lon="6.76079">
        <ele>1658.3081</ele>
        <time>2014-08-31T08:48:41Z</time>
      </trkpt>
      <trkpt lat="46.13065" lon="6.76078">
        <ele>1658.3081</ele>
        <time>2014-08-31T08:48:46Z</time>
      </trkpt>
      <trkpt lat="46.13064" lon="6.76078">
        <ele>1658.3081</ele>
        <time>2014-08-31T08:48:51Z</time>
      </trkpt>
      <trkpt lat="46.13064" lon="6.76077">
        <ele>1658.3081</ele>
        <time>2014-08-31T08:48:56Z</time>
      </trkpt>
      <trkpt lat="46.13064" lon="6.76077">
        <ele>1658.3081</ele>
        <time>2014-08-31T08:49:01Z</time>
      </trkpt>
      <trkpt lat="46.13064" lon="6.76077">
        <ele>1658.3081</ele>
        <time>2014-08-31T08:49:06Z</time>
      </trkpt>
      <trkpt lat="46.13064" lon="6.76077">
        <ele>1658.3081</ele>
        <time>2014-08-31T08:49:11Z</time>
      </trkpt>
      <trkpt lat="46.13064" lon="6.76078">
        <ele>1658.3081</ele>
        <time>2014-08-31T08:49:16Z</time>
      </trkpt>
      <trkpt lat="46.13064" lon="6.76077">
        <ele>1658.3081</ele>
        <time>2014-08-31T08:49:21Z</time>
      </trkpt>
      <trkpt lat="46.13064" lon="6.76078">
        <ele>1658.3081</ele>
        <time>2014-08-31T08:49:26Z</time>
      </trkpt>
      <trkpt lat="46.13064" lon="6.76078">
        <ele>1658.3081</ele>
        <time>2014-08-31T08:49:31Z</time>
      </trkpt>
      <trkpt lat="46.13064" lon="6.76079">
        <ele>1658.3081</ele>
        <time>2014-08-31T08:49:36Z</time>
      </trkpt>
      <trkpt lat="46.13063" lon="6.7608">
        <ele>1658.3081</ele>
        <time>2014-08-31T08:49:41Z</time>
      </trkpt>
      <trkpt lat="46.13063" lon="6.7608">
        <ele>1658.3081</ele>
        <time>2014-08-31T08:49:46Z</time>
      </trkpt>
      <trkpt lat="46.13063" lon="6.76082">
        <ele>1658.3081</ele>
        <time>2014-08-31T08:49:51Z</time>
      </trkpt>
      <trkpt lat="46.13062" lon="6.76084">
        <ele>1658.3081</ele>
        <time>2014-08-31T08:49:56Z</time>
      </trkpt>
      <trkpt lat="46.13062" lon="6.76085">
        <ele>1658.3081</ele>
        <time>2014-08-31T08:50:01Z</time>
      </trkpt>
      <trkpt lat="46.13061" lon="6.76086">
        <ele>1660.1307</ele>
        <time>2014-08-31T08:50:06Z</time>
      </trkpt>
      <trkpt lat="46.1306" lon="6.76086">
        <ele>1660.1307</ele>
        <time>2014-08-31T08:50:11Z</time>
      </trkpt>
      <trkpt lat="46.1306" lon="6.76086">
        <ele>1660.1307</ele>
        <time>2014-08-31T08:50:16Z</time>
      </trkpt>
      <trkpt lat="46.1306" lon="6.76087">
        <ele>1660.1307</ele>
        <time>2014-08-31T08:50:21Z</time>
      </trkpt>
      <trkpt lat="46.1306" lon="6.76087">
        <ele>1660.1307</ele>
        <time>2014-08-31T08:50:26Z</time>
      </trkpt>
      <trkpt lat="46.1306" lon="6.76087">
        <ele>1660.1307</ele>
        <time>2014-08-31T08:50:31Z</time>
      </trkpt>
      <trkpt lat="46.1306" lon="6.76087">
        <ele>1660.1307</ele>
        <time>2014-08-31T08:50:36Z</time>
      </trkpt>
      <trkpt lat="46.13059" lon="6.76088">
        <ele>1660.1307</ele>
        <time>2014-08-31T08:50:41Z</time>
      </trkpt>
      <trkpt lat="46.1306" lon="6.76089">
        <ele>1660.1307</ele>
        <time>2014-08-31T08:50:46Z</time>
      </trkpt>
      <trkpt lat="46.1306" lon="6.7609">
        <ele>1660.1307</ele>
        <time>2014-08-31T08:50:51Z</time>
      </trkpt>
      <trkpt lat="46.1306" lon="6.7609">
        <ele>1660.1307</ele>
        <time>2014-08-31T08:50:56Z</time>
      </trkpt>
      <trkpt lat="46.1306" lon="6.76092">
        <ele>1660.1307</ele>
        <time>2014-08-31T08:51:01Z</time>
      </trkpt>
      <trkpt lat="46.1306" lon="6.76092">
        <ele>1660.1307</ele>
        <time>2014-08-31T08:51:06Z</time>
      </trkpt>
      <trkpt lat="46.1306" lon="6.76092">
        <ele>1660.1307</ele>
        <time>2014-08-31T08:51:11Z</time>
      </trkpt>
      <trkpt lat="46.1306" lon="6.76091">
        <ele>1660.1307</ele>
        <time>2014-08-31T08:51:16Z</time>
      </trkpt>
      <trkpt lat="46.13061" lon="6.76089">
        <ele>1660.1307</ele>
        <time>2014-08-31T08:51:21Z</time>
      </trkpt>
      <trkpt lat="46.13061" lon="6.76088">
        <ele>1660.1307</ele>
        <time>2014-08-31T08:51:26Z</time>
      </trkpt>
      <trkpt lat="46.13062" lon="6.76087">
        <ele>1661.969</ele>
        <time>2014-08-31T08:51:31Z</time>
      </trkpt>
      <trkpt lat="46.13062" lon="6.76086">
        <ele>1661.969</ele>
        <time>2014-08-31T08:51:36Z</time>
      </trkpt>
      <trkpt lat="46.13062" lon="6.76085">
        <ele>1661.969</ele>
        <time>2014-08-31T08:51:41Z</time>
      </trkpt>
      <trkpt lat="46.13062" lon="6.76085">
        <ele>1661.969</ele>
        <time>2014-08-31T08:51:46Z</time>
      </trkpt>
      <trkpt lat="46.13062" lon="6.76084">
        <ele>1661.969</ele>
        <time>2014-08-31T08:51:51Z</time>
      </trkpt>
      <trkpt lat="46.13062" lon="6.76084">
        <ele>1661.969</ele>
        <time>2014-08-31T08:51:56Z</time>
      </trkpt>
      <trkpt lat="46.13061" lon="6.76084">
        <ele>1661.969</ele>
        <time>2014-08-31T08:52:01Z</time>
      </trkpt>
      <trkpt lat="46.13061" lon="6.76085">
        <ele>1661.969</ele>
        <time>2014-08-31T08:52:06Z</time>
      </trkpt>
      <trkpt lat="46.1306" lon="6.76085">
        <ele>1661.969</ele>
        <time>2014-08-31T08:52:11Z</time>
      </trkpt>
      <trkpt lat="46.13059" lon="6.76086">
        <ele>1661.969</ele>
        <time>2014-08-31T08:52:16Z</time>
      </trkpt>
      <trkpt lat="46.13059" lon="6.76087">
        <ele>1661.969</ele>
        <time>2014-08-31T08:52:21Z</time>
      </trkpt>
      <trkpt lat="46.13058" lon="6.76087">
        <ele>1661.969</ele>
        <time>2014-08-31T08:52:26Z</time>
      </trkpt>
      <trkpt lat="46.13058" lon="6.76088">
        <ele>1661.969</ele>
        <time>2014-08-31T08:52:31Z</time>
      </trkpt>
      <trkpt lat="46.13058" lon="6.76088">
        <ele>1661.969</ele>
        <time>2014-08-31T08:52:36Z</time>
      </trkpt>
      <trkpt lat="46.13059" lon="6.76087">
        <ele>1661.969</ele>
        <time>2014-08-31T08:52:41Z</time>
      </trkpt>
      <trkpt lat="46.13059" lon="6.76086">
        <ele>1661.969</ele>
        <time>2014-08-31T08:52:46Z</time>
      </trkpt>
      <trkpt lat="46.1306" lon="6.76086">
        <ele>1663.7498</ele>
        <time>2014-08-31T08:52:51Z</time>
      </trkpt>
      <trkpt lat="46.1306" lon="6.76086">
        <ele>1663.7498</ele>
        <time>2014-08-31T08:52:56Z</time>
      </trkpt>
      <trkpt lat="46.1306" lon="6.76087">
        <ele>1663.7498</ele>
        <time>2014-08-31T08:53:01Z</time>
      </trkpt>
      <trkpt lat="46.1306" lon="6.76087">
        <ele>1663.7498</ele>
        <time>2014-08-31T08:53:06Z</time>
      </trkpt>
      <trkpt lat="46.1306" lon="6.76087">
        <ele>1663.7498</ele>
        <time>2014-08-31T08:53:11Z</time>
      </trkpt>
      <trkpt lat="46.1306" lon="6.76086">
        <ele>1663.7498</ele>
        <time>2014-08-31T08:53:16Z</time>
      </trkpt>
      <trkpt lat="46.13061" lon="6.76086">
        <ele>1663.7498</ele>
        <time>2014-08-31T08:53:21Z</time>
      </trkpt>
      <trkpt lat="46.13061" lon="6.76085">
        <ele>1663.7498</ele>
        <time>2014-08-31T08:53:26Z</time>
      </trkpt>
      <trkpt lat="46.13061" lon="6.76084">
        <ele>1663.7498</ele>
        <time>2014-08-31T08:53:31Z</time>
      </trkpt>
      <trkpt lat="46.13062" lon="6.76084">
        <ele>1663.7498</ele>
        <time>2014-08-31T08:53:36Z</time>
      </trkpt>
      <trkpt lat="46.13062" lon="6.76084">
        <ele>1663.7498</ele>
        <time>2014-08-31T08:53:41Z</time>
      </trkpt>
      <trkpt lat="46.13062" lon="6.76083">
        <ele>1663.7498</ele>
        <time>2014-08-31T08:53:46Z</time>
      </trkpt>
      <trkpt lat="46.13063" lon="6.76083">
        <ele>1663.7498</ele>
        <time>2014-08-31T08:53:51Z</time>
      </trkpt>
      <trkpt lat="46.13063" lon="6.76083">
        <ele>1663.7498</ele>
        <time>2014-08-31T08:53:56Z</time>
      </trkpt>
      <trkpt lat="46.13063" lon="6.76084">
        <ele>1663.7498</ele>
        <time>2014-08-31T08:54:01Z</time>
      </trkpt>
      <trkpt lat="46.13062" lon="6.76084">
        <ele>1663.7498</ele>
        <time>2014-08-31T08:54:06Z</time>
      </trkpt>
      <trkpt lat="46.13062" lon="6.76084">
        <ele>1663.7498</ele>
        <time>2014-08-31T08:54:11Z</time>
      </trkpt>
      <trkpt lat="46.13063" lon="6.76083">
        <ele>1663.7498</ele>
        <time>2014-08-31T08:54:16Z</time>
      </trkpt>
      <trkpt lat="46.13063" lon="6.76083">
        <ele>1663.7498</ele>
        <time>2014-08-31T08:54:21Z</time>
      </trkpt>
      <trkpt lat="46.13063" lon="6.76084">
        <ele>1663.7498</ele>
        <time>2014-08-31T08:54:26Z</time>
      </trkpt>
      <trkpt lat="46.13063" lon="6.76084">
        <ele>1663.7498</ele>
        <time>2014-08-31T08:54:31Z</time>
      </trkpt>
      <trkpt lat="46.13063" lon="6.76084">
        <ele>1663.7498</ele>
        <time>2014-08-31T08:54:36Z</time>
      </trkpt>
      <trkpt lat="46.13063" lon="6.76084">
        <ele>1663.7498</ele>
        <time>2014-08-31T08:54:41Z</time>
      </trkpt>
      <trkpt lat="46.13063" lon="6.76083">
        <ele>1663.7498</ele>
        <time>2014-08-31T08:54:46Z</time>
      </trkpt>
      <trkpt lat="46.13063" lon="6.76083">
        <ele>1663.7498</ele>
        <time>2014-08-31T08:54:51Z</time>
      </trkpt>
      <trkpt lat="46.13063" lon="6.76083">
        <ele>1663.7498</ele>
        <time>2014-08-31T08:54:56Z</time>
      </trkpt>
      <trkpt lat="46.13063" lon="6.76083">
        <ele>1663.7498</ele>
        <time>2014-08-31T08:55:01Z</time>
      </trkpt>
      <trkpt lat="46.13063" lon="6.76083">
        <ele>1663.7498</ele>
        <time>2014-08-31T08:55:06Z</time>
      </trkpt>
      <trkpt lat="46.13062" lon="6.76083">
        <ele>1663.7498</ele>
        <time>2014-08-31T08:55:11Z</time>
      </trkpt>
      <trkpt lat="46.13062" lon="6.76083">
        <ele>1663.7498</ele>
        <time>2014-08-31T08:55:16Z</time>
      </trkpt>
      <trkpt lat="46.13062" lon="6.76083">
        <ele>1665.4482</ele>
        <time>2014-08-31T08:55:21Z</time>
      </trkpt>
      <trkpt lat="46.13062" lon="6.76083">
        <ele>1665.4482</ele>
        <time>2014-08-31T08:55:26Z</time>
      </trkpt>
      <trkpt lat="46.13062" lon="6.76083">
        <ele>1665.4482</ele>
        <time>2014-08-31T08:55:31Z</time>
      </trkpt>
      <trkpt lat="46.13061" lon="6.76083">
        <ele>1665.4482</ele>
        <time>2014-08-31T08:55:36Z</time>
      </trkpt>
      <trkpt lat="46.1306" lon="6.76084">
        <ele>1665.4482</ele>
        <time>2014-08-31T08:55:41Z</time>
      </trkpt>
      <trkpt lat="46.1306" lon="6.76084">
        <ele>1665.4482</ele>
        <time>2014-08-31T08:55:46Z</time>
      </trkpt>
      <trkpt lat="46.1306" lon="6.76084">
        <ele>1665.4482</ele>
        <time>2014-08-31T08:55:51Z</time>
      </trkpt>
      <trkpt lat="46.1306" lon="6.76084">
        <ele>1665.4482</ele>
        <time>2014-08-31T08:55:56Z</time>
      </trkpt>
      <trkpt lat="46.13061" lon="6.76084">
        <ele>1665.4482</ele>
        <time>2014-08-31T08:56:01Z</time>
      </trkpt>
      <trkpt lat="46.13061" lon="6.76084">
        <ele>1665.4482</ele>
        <time>2014-08-31T08:56:06Z</time>
      </trkpt>
      <trkpt lat="46.1306" lon="6.76084">
        <ele>1665.4482</ele>
        <time>2014-08-31T08:56:11Z</time>
      </trkpt>
      <trkpt lat="46.13061" lon="6.76083">
        <ele>1665.4482</ele>
        <time>2014-08-31T08:56:16Z</time>
      </trkpt>
      <trkpt lat="46.13061" lon="6.76081">
        <ele>1665.4482</ele>
        <time>2014-08-31T08:56:21Z</time>
      </trkpt>
      <trkpt lat="46.13062" lon="6.76081">
        <ele>1665.4482</ele>
        <time>2014-08-31T08:56:26Z</time>
      </trkpt>
      <trkpt lat="46.13062" lon="6.76081">
        <ele>1665.4482</ele>
        <time>2014-08-31T08:56:31Z</time>
      </trkpt>
      <trkpt lat="46.13062" lon="6.76081">
        <ele>1665.4482</ele>
        <time>2014-08-31T08:56:36Z</time>
      </trkpt>
      <trkpt lat="46.13062" lon="6.76083">
        <ele>1665.4482</ele>
        <time>2014-08-31T08:56:41Z</time>
      </trkpt>
      <trkpt lat="46.13062" lon="6.76084">
        <ele>1667.0276</ele>
        <time>2014-08-31T08:56:46Z</time>
      </trkpt>
      <trkpt lat="46.13062" lon="6.76084">
        <ele>1667.0276</ele>
        <time>2014-08-31T08:56:51Z</time>
      </trkpt>
      <trkpt lat="46.13062" lon="6.76084">
        <ele>1667.0276</ele>
        <time>2014-08-31T08:56:56Z</time>
      </trkpt>
      <trkpt lat="46.13063" lon="6.76084">
        <ele>1667.0276</ele>
        <time>2014-08-31T08:57:01Z</time>
      </trkpt>
      <trkpt lat="46.13063" lon="6.76084">
        <ele>1667.0276</ele>
        <time>2014-08-31T08:57:06Z</time>
      </trkpt>
      <trkpt lat="46.13062" lon="6.76086">
        <ele>1667.0276</ele>
        <time>2014-08-31T08:57:11Z</time>
      </trkpt>
      <trkpt lat="46.13058" lon="6.76089">
        <ele>1667.0276</ele>
        <time>2014-08-31T08:57:16Z</time>
      </trkpt>
      <trkpt lat="46.13052" lon="6.76092">
        <ele>1668.3533</ele>
        <time>2014-08-31T08:57:21Z</time>
      </trkpt>
      <trkpt lat="46.13046" lon="6.76093">
        <ele>1668.3533</ele>
        <time>2014-08-31T08:57:26Z</time>
      </trkpt>
      <trkpt lat="46.1304" lon="6.76095">
        <ele>1669.4164</ele>
        <time>2014-08-31T08:57:31Z</time>
      </trkpt>
      <trkpt lat="46.13035" lon="6.76099">
        <ele>1669.4164</ele>
        <time>2014-08-31T08:57:36Z</time>
      </trkpt>
      <trkpt lat="46.13032" lon="6.76101">
        <ele>1669.4164</ele>
        <time>2014-08-31T08:57:41Z</time>
      </trkpt>
      <trkpt lat="46.13032" lon="6.76102">
        <ele>1670.2673</ele>
        <time>2014-08-31T08:57:46Z</time>
      </trkpt>
      <trkpt lat="46.1303" lon="6.76102">
        <ele>1670.2673</ele>
        <time>2014-08-31T08:57:51Z</time>
      </trkpt>
      <trkpt lat="46.13029" lon="6.76102">
        <ele>1670.2673</ele>
        <time>2014-08-31T08:57:56Z</time>
      </trkpt>
      <trkpt lat="46.13028" lon="6.76102">
        <ele>1670.2673</ele>
        <time>2014-08-31T08:58:01Z</time>
      </trkpt>
      <trkpt lat="46.13027" lon="6.76101">
        <ele>1670.2673</ele>
        <time>2014-08-31T08:58:06Z</time>
      </trkpt>
      <trkpt lat="46.13026" lon="6.76102">
        <ele>1670.2673</ele>
        <time>2014-08-31T08:58:11Z</time>
      </trkpt>
      <trkpt lat="46.13023" lon="6.76103">
        <ele>1670.2673</ele>
        <time>2014-08-31T08:58:16Z</time>
      </trkpt>
      <trkpt lat="46.13023" lon="6.76104">
        <ele>1670.8811</ele>
        <time>2014-08-31T08:58:21Z</time>
      </trkpt>
      <trkpt lat="46.13022" lon="6.76104">
        <ele>1670.8811</ele>
        <time>2014-08-31T08:58:26Z</time>
      </trkpt>
      <trkpt lat="46.1302" lon="6.76104">
        <ele>1670.8811</ele>
        <time>2014-08-31T08:58:31Z</time>
      </trkpt>
      <trkpt lat="46.13017" lon="6.76103">
        <ele>1670.8811</ele>
        <time>2014-08-31T08:58:36Z</time>
      </trkpt>
      <trkpt lat="46.13013" lon="6.76101">
        <ele>1671.2643</ele>
        <time>2014-08-31T08:58:41Z</time>
      </trkpt>
      <trkpt lat="46.13011" lon="6.761">
        <ele>1671.2643</ele>
        <time>2014-08-31T08:58:46Z</time>
      </trkpt>
      <trkpt lat="46.13011" lon="6.76099">
        <ele>1671.2643</ele>
        <time>2014-08-31T08:58:51Z</time>
      </trkpt>
      <trkpt lat="46.13008" lon="6.76098">
        <ele>1671.2643</ele>
        <time>2014-08-31T08:58:56Z</time>
      </trkpt>
      <trkpt lat="46.13003" lon="6.76097">
        <ele>1671.4523</ele>
        <time>2014-08-31T08:59:01Z</time>
      </trkpt>
      <trkpt lat="46.12996" lon="6.76095">
        <ele>1671.4523</ele>
        <time>2014-08-31T08:59:06Z</time>
      </trkpt>
      <trkpt lat="46.12989" lon="6.76094">
        <ele>1671.4784</ele>
        <time>2014-08-31T08:59:11Z</time>
      </trkpt>
      <trkpt lat="46.12984" lon="6.76093">
        <ele>1671.4784</ele>
        <time>2014-08-31T08:59:16Z</time>
      </trkpt>
      <trkpt lat="46.12979" lon="6.76091">
        <ele>1671.3595</ele>
        <time>2014-08-31T08:59:21Z</time>
      </trkpt>
      <trkpt lat="46.12975" lon="6.7609">
        <ele>1671.3595</ele>
        <time>2014-08-31T08:59:26Z</time>
      </trkpt>
      <trkpt lat="46.1297" lon="6.76088">
        <ele>1671.0974</ele>
        <time>2014-08-31T08:59:31Z</time>
      </trkpt>
      <trkpt lat="46.12964" lon="6.76086">
        <ele>1671.0974</ele>
        <time>2014-08-31T08:59:36Z</time>
      </trkpt>
      <trkpt lat="46.12959" lon="6.76084">
        <ele>1670.7084</ele>
        <time>2014-08-31T08:59:41Z</time>
      </trkpt>
      <trkpt lat="46.12953" lon="6.76082">
        <ele>1670.7084</ele>
        <time>2014-08-31T08:59:46Z</time>
      </trkpt>
      <trkpt lat="46.12947" lon="6.76079">
        <ele>1670.1931</ele>
        <time>2014-08-31T08:59:51Z</time>
      </trkpt>
      <trkpt lat="46.1294" lon="6.76077">
        <ele>1670.1931</ele>
        <time>2014-08-31T08:59:56Z</time>
      </trkpt>
      <trkpt lat="46.12936" lon="6.76077">
        <ele>1669.5818</ele>
        <time>2014-08-31T09:00:01Z</time>
      </trkpt>
      <trkpt lat="46.12935" lon="6.76077">
        <ele>1669.5818</ele>
        <time>2014-08-31T09:00:06Z</time>
      </trkpt>
      <trkpt lat="46.12933" lon="6.76077">
        <ele>1669.5818</ele>
        <time>2014-08-31T09:00:11Z</time>
      </trkpt>
      <trkpt lat="46.12932" lon="6.76078">
        <ele>1669.5818</ele>
        <time>2014-08-31T09:00:16Z</time>
      </trkpt>
      <trkpt lat="46.1293" lon="6.76078">
        <ele>1669.5818</ele>
        <time>2014-08-31T09:00:21Z</time>
      </trkpt>
      <trkpt lat="46.12929" lon="6.76078">
        <ele>1669.5818</ele>
        <time>2014-08-31T09:00:26Z</time>
      </trkpt>
      <trkpt lat="46.12928" lon="6.76078">
        <ele>1669.5818</ele>
        <time>2014-08-31T09:00:31Z</time>
      </trkpt>
      <trkpt lat="46.12927" lon="6.76076">
        <ele>1668.9456</ele>
        <time>2014-08-31T09:00:36Z</time>
      </trkpt>
      <trkpt lat="46.12924" lon="6.76072">
        <ele>1668.9456</ele>
        <time>2014-08-31T09:00:41Z</time>
      </trkpt>
      <trkpt lat="46.12921" lon="6.76069">
        <ele>1668.9456</ele>
        <time>2014-08-31T09:00:46Z</time>
      </trkpt>
      <trkpt lat="46.12915" lon="6.76063">
        <ele>1668.1918</ele>
        <time>2014-08-31T09:00:51Z</time>
      </trkpt>
      <trkpt lat="46.12911" lon="6.76058">
        <ele>1668.1918</ele>
        <time>2014-08-31T09:00:56Z</time>
      </trkpt>
      <trkpt lat="46.12908" lon="6.76054">
        <ele>1667.3789</ele>
        <time>2014-08-31T09:01:01Z</time>
      </trkpt>
      <trkpt lat="46.12906" lon="6.76052">
        <ele>1667.3789</ele>
        <time>2014-08-31T09:01:06Z</time>
      </trkpt>
      <trkpt lat="46.12906" lon="6.76051">
        <ele>1667.3789</ele>
        <time>2014-08-31T09:01:11Z</time>
      </trkpt>
      <trkpt lat="46.12906" lon="6.76051">
        <ele>1667.3789</ele>
        <time>2014-08-31T09:01:16Z</time>
      </trkpt>
      <trkpt lat="46.12905" lon="6.76051">
        <ele>1667.3789</ele>
        <time>2014-08-31T09:01:21Z</time>
      </trkpt>
      <trkpt lat="46.12903" lon="6.76048">
        <ele>1667.3789</ele>
        <time>2014-08-31T09:01:26Z</time>
      </trkpt>
      <trkpt lat="46.12899" lon="6.76044">
        <ele>1666.4749</ele>
        <time>2014-08-31T09:01:31Z</time>
      </trkpt>
      <trkpt lat="46.12895" lon="6.76039">
        <ele>1666.4749</ele>
        <time>2014-08-31T09:01:36Z</time>
      </trkpt>
      <trkpt lat="46.12892" lon="6.76033">
        <ele>1665.5363</ele>
        <time>2014-08-31T09:01:41Z</time>
      </trkpt>
      <trkpt lat="46.12888" lon="6.76027">
        <ele>1665.5363</ele>
        <time>2014-08-31T09:01:46Z</time>
      </trkpt>
      <trkpt lat="46.12884" lon="6.76021">
        <ele>1664.5579</ele>
        <time>2014-08-31T09:01:51Z</time>
      </trkpt>
      <trkpt lat="46.12878" lon="6.76014">
        <ele>1664.5579</ele>
        <time>2014-08-31T09:01:56Z</time>
      </trkpt>
      <trkpt lat="46.12874" lon="6.76006">
        <ele>1663.5496</ele>
        <time>2014-08-31T09:02:01Z</time>
      </trkpt>
      <trkpt lat="46.12869" lon="6.76">
        <ele>1663.5496</ele>
        <time>2014-08-31T09:02:06Z</time>
      </trkpt>
      <trkpt lat="46.12863" lon="6.75995">
        <ele>1662.5343</ele>
        <time>2014-08-31T09:02:11Z</time>
      </trkpt>
      <trkpt lat="46.12858" lon="6.75991">
        <ele>1662.5343</ele>
        <time>2014-08-31T09:02:16Z</time>
      </trkpt>
      <trkpt lat="46.12854" lon="6.75987">
        <ele>1661.5192</ele>
        <time>2014-08-31T09:02:21Z</time>
      </trkpt>
      <trkpt lat="46.12849" lon="6.75982">
        <ele>1661.5192</ele>
        <time>2014-08-31T09:02:26Z</time>
      </trkpt>
      <trkpt lat="46.12844" lon="6.75978">
        <ele>1660.4961</ele>
        <time>2014-08-31T09:02:31Z</time>
      </trkpt>
      <trkpt lat="46.12839" lon="6.75974">
        <ele>1660.4961</ele>
        <time>2014-08-31T09:02:36Z</time>
      </trkpt>
      <trkpt lat="46.12833" lon="6.75971">
        <ele>1659.4573</ele>
        <time>2014-08-31T09:02:41Z</time>
      </trkpt>
      <trkpt lat="46.12827" lon="6.75968">
        <ele>1659.4573</ele>
        <time>2014-08-31T09:02:46Z</time>
      </trkpt>
      <trkpt lat="46.12821" lon="6.75966">
        <ele>1658.4242</ele>
        <time>2014-08-31T09:02:51Z</time>
      </trkpt>
      <trkpt lat="46.12816" lon="6.75963">
        <ele>1658.4242</ele>
        <time>2014-08-31T09:02:56Z</time>
      </trkpt>
      <trkpt lat="46.1281" lon="6.75959">
        <ele>1657.4022</ele>
        <time>2014-08-31T09:03:01Z</time>
      </trkpt>
      <trkpt lat="46.12804" lon="6.75954">
        <ele>1657.4022</ele>
        <time>2014-08-31T09:03:06Z</time>
      </trkpt>
      <trkpt lat="46.128" lon="6.75949">
        <ele>1656.396</ele>
        <time>2014-08-31T09:03:11Z</time>
      </trkpt>
      <trkpt lat="46.12796" lon="6.75943">
        <ele>1656.396</ele>
        <time>2014-08-31T09:03:16Z</time>
      </trkpt>
      <trkpt lat="46.12793" lon="6.75937">
        <ele>1655.381</ele>
        <time>2014-08-31T09:03:21Z</time>
      </trkpt>
      <trkpt lat="46.1279" lon="6.7593">
        <ele>1655.381</ele>
        <time>2014-08-31T09:03:26Z</time>
      </trkpt>
      <trkpt lat="46.12787" lon="6.75923">
        <ele>1654.3484</ele>
        <time>2014-08-31T09:03:31Z</time>
      </trkpt>
      <trkpt lat="46.12783" lon="6.75915">
        <ele>1654.3484</ele>
        <time>2014-08-31T09:03:36Z</time>
      </trkpt>
      <trkpt lat="46.12778" lon="6.75907">
        <ele>1653.3046</ele>
        <time>2014-08-31T09:03:41Z</time>
      </trkpt>
      <trkpt lat="46.12775" lon="6.759">
        <ele>1653.3046</ele>
        <time>2014-08-31T09:03:46Z</time>
      </trkpt>
      <trkpt lat="46.12772" lon="6.75892">
        <ele>1652.2983</ele>
        <time>2014-08-31T09:03:51Z</time>
      </trkpt>
      <trkpt lat="46.12769" lon="6.75886">
        <ele>1652.2983</ele>
        <time>2014-08-31T09:03:56Z</time>
      </trkpt>
      <trkpt lat="46.12766" lon="6.75883">
        <ele>1651.3026</ele>
        <time>2014-08-31T09:04:01Z</time>
      </trkpt>
      <trkpt lat="46.12761" lon="6.75878">
        <ele>1651.3026</ele>
        <time>2014-08-31T09:04:06Z</time>
      </trkpt>
      <trkpt lat="46.12756" lon="6.75872">
        <ele>1650.3208</ele>
        <time>2014-08-31T09:04:11Z</time>
      </trkpt>
      <trkpt lat="46.12751" lon="6.75866">
        <ele>1650.3208</ele>
        <time>2014-08-31T09:04:16Z</time>
      </trkpt>
      <trkpt lat="46.12747" lon="6.75859">
        <ele>1649.327</ele>
        <time>2014-08-31T09:04:21Z</time>
      </trkpt>
      <trkpt lat="46.12742" lon="6.75854">
        <ele>1649.327</ele>
        <time>2014-08-31T09:04:26Z</time>
      </trkpt>
      <trkpt lat="46.12737" lon="6.75846">
        <ele>1648.3407</ele>
        <time>2014-08-31T09:04:31Z</time>
      </trkpt>
      <trkpt lat="46.12736" lon="6.75845">
        <ele>1648.3407</ele>
        <time>2014-08-31T09:04:36Z</time>
      </trkpt>
      <trkpt lat="46.12735" lon="6.7584">
        <ele>1648.3407</ele>
        <time>2014-08-31T09:04:41Z</time>
      </trkpt>
      <trkpt lat="46.12731" lon="6.75835">
        <ele>1647.3215</ele>
        <time>2014-08-31T09:04:46Z</time>
      </trkpt>
      <trkpt lat="46.12726" lon="6.75828">
        <ele>1647.3215</ele>
        <time>2014-08-31T09:04:51Z</time>
      </trkpt>
      <trkpt lat="46.12721" lon="6.75822">
        <ele>1646.3331</ele>
        <time>2014-08-31T09:04:56Z</time>
      </trkpt>
      <trkpt lat="46.12716" lon="6.75817">
        <ele>1646.3331</ele>
        <time>2014-08-31T09:05:01Z</time>
      </trkpt>
      <trkpt lat="46.12711" lon="6.75813">
        <ele>1645.3622</ele>
        <time>2014-08-31T09:05:06Z</time>
      </trkpt>
      <trkpt lat="46.12706" lon="6.7581">
        <ele>1645.3622</ele>
        <time>2014-08-31T09:05:11Z</time>
      </trkpt>
      <trkpt lat="46.12701" lon="6.75807">
        <ele>1644.4105</ele>
        <time>2014-08-31T09:05:16Z</time>
      </trkpt>
      <trkpt lat="46.12695" lon="6.75804">
        <ele>1644.4105</ele>
        <time>2014-08-31T09:05:21Z</time>
      </trkpt>
      <trkpt lat="46.1269" lon="6.75799">
        <ele>1643.4795</ele>
        <time>2014-08-31T09:05:26Z</time>
      </trkpt>
      <trkpt lat="46.12686" lon="6.75797">
        <ele>1643.4795</ele>
        <time>2014-08-31T09:05:31Z</time>
      </trkpt>
      <trkpt lat="46.12685" lon="6.75796">
        <ele>1643.4795</ele>
        <time>2014-08-31T09:05:36Z</time>
      </trkpt>
      <trkpt lat="46.12684" lon="6.75796">
        <ele>1643.4795</ele>
        <time>2014-08-31T09:05:41Z</time>
      </trkpt>
      <trkpt lat="46.12684" lon="6.75795">
        <ele>1643.4795</ele>
        <time>2014-08-31T09:05:46Z</time>
      </trkpt>
      <trkpt lat="46.12682" lon="6.75794">
        <ele>1642.4694</ele>
        <time>2014-08-31T09:05:51Z</time>
      </trkpt>
      <trkpt lat="46.12678" lon="6.75791">
        <ele>1642.4694</ele>
        <time>2014-08-31T09:05:56Z</time>
      </trkpt>
      <trkpt lat="46.12676" lon="6.7579">
        <ele>1642.4694</ele>
        <time>2014-08-31T09:06:01Z</time>
      </trkpt>
      <trkpt lat="46.12673" lon="6.75788">
        <ele>1641.4606</ele>
        <time>2014-08-31T09:06:06Z</time>
      </trkpt>
      <trkpt lat="46.12668" lon="6.75784">
        <ele>1641.4606</ele>
        <time>2014-08-31T09:06:11Z</time>
      </trkpt>
      <trkpt lat="46.12661" lon="6.7578">
        <ele>1640.4844</ele>
        <time>2014-08-31T09:06:16Z</time>
      </trkpt>
      <trkpt lat="46.12656" lon="6.75777">
        <ele>1640.4844</ele>
        <time>2014-08-31T09:06:21Z</time>
      </trkpt>
      <trkpt lat="46.12652" lon="6.75773">
        <ele>1639.5264</ele>
        <time>2014-08-31T09:06:26Z</time>
      </trkpt>
      <trkpt lat="46.12649" lon="6.75766">
        <ele>1639.5264</ele>
        <time>2014-08-31T09:06:31Z</time>
      </trkpt>
      <trkpt lat="46.12648" lon="6.75758">
        <ele>1638.5728</ele>
        <time>2014-08-31T09:06:36Z</time>
      </trkpt>
      <trkpt lat="46.12648" lon="6.7575">
        <ele>1638.5728</ele>
        <time>2014-08-31T09:06:41Z</time>
      </trkpt>
      <trkpt lat="46.12647" lon="6.75743">
        <ele>1637.6395</ele>
        <time>2014-08-31T09:06:46Z</time>
      </trkpt>
      <trkpt lat="46.12646" lon="6.75736">
        <ele>1637.6395</ele>
        <time>2014-08-31T09:06:51Z</time>
      </trkpt>
      <trkpt lat="46.12643" lon="6.75729">
        <ele>1636.7125</ele>
        <time>2014-08-31T09:06:56Z</time>
      </trkpt>
      <trkpt lat="46.12641" lon="6.75723">
        <ele>1636.7125</ele>
        <time>2014-08-31T09:07:01Z</time>
      </trkpt>
      <trkpt lat="46.12638" lon="6.75717">
        <ele>1635.7928</ele>
        <time>2014-08-31T09:07:06Z</time>
      </trkpt>
      <trkpt lat="46.12635" lon="6.7571">
        <ele>1635.7928</ele>
        <time>2014-08-31T09:07:11Z</time>
      </trkpt>
      <trkpt lat="46.12633" lon="6.75704">
        <ele>1634.8813</ele>
        <time>2014-08-31T09:07:16Z</time>
      </trkpt>
      <trkpt lat="46.1263" lon="6.75698">
        <ele>1634.8813</ele>
        <time>2014-08-31T09:07:21Z</time>
      </trkpt>
      <trkpt lat="46.12628" lon="6.75692">
        <ele>1633.9641</ele>
        <time>2014-08-31T09:07:26Z</time>
      </trkpt>
      <trkpt lat="46.12625" lon="6.75687">
        <ele>1633.9641</ele>
        <time>2014-08-31T09:07:31Z</time>
      </trkpt>
      <trkpt lat="46.12621" lon="6.75681">
        <ele>1633.043</ele>
        <time>2014-08-31T09:07:36Z</time>
      </trkpt>
      <trkpt lat="46.12617" lon="6.75674">
        <ele>1633.043</ele>
        <time>2014-08-31T09:07:41Z</time>
      </trkpt>
      <trkpt lat="46.12614" lon="6.75668">
        <ele>1632.1191</ele>
        <time>2014-08-31T09:07:46Z</time>
      </trkpt>
      <trkpt lat="46.12611" lon="6.7566">
        <ele>1632.1191</ele>
        <time>2014-08-31T09:07:51Z</time>
      </trkpt>
      <trkpt lat="46.12608" lon="6.75654">
        <ele>1631.1938</ele>
        <time>2014-08-31T09:07:56Z</time>
      </trkpt>
      <trkpt lat="46.12605" lon="6.75647">
        <ele>1631.1938</ele>
        <time>2014-08-31T09:08:01Z</time>
      </trkpt>
      <trkpt lat="46.12601" lon="6.75642">
        <ele>1630.2823</ele>
        <time>2014-08-31T09:08:06Z</time>
      </trkpt>
      <trkpt lat="46.12599" lon="6.75636">
        <ele>1630.2823</ele>
        <time>2014-08-31T09:08:11Z</time>
      </trkpt>
      <trkpt lat="46.12597" lon="6.75629">
        <ele>1629.3701</ele>
        <time>2014-08-31T09:08:16Z</time>
      </trkpt>
      <trkpt lat="46.12593" lon="6.75619">
        <ele>1629.3701</ele>
        <time>2014-08-31T09:08:21Z</time>
      </trkpt>
      <trkpt lat="46.12591" lon="6.75611">
        <ele>1628.4432</ele>
        <time>2014-08-31T09:08:26Z</time>
      </trkpt>
      <trkpt lat="46.12589" lon="6.75603">
        <ele>1628.4432</ele>
        <time>2014-08-31T09:08:31Z</time>
      </trkpt>
      <trkpt lat="46.12587" lon="6.75598">
        <ele>1627.518</ele>
        <time>2014-08-31T09:08:36Z</time>
      </trkpt>
      <trkpt lat="46.12585" lon="6.75592">
        <ele>1627.518</ele>
        <time>2014-08-31T09:08:41Z</time>
      </trkpt>
      <trkpt lat="46.12581" lon="6.75587">
        <ele>1626.5657</ele>
        <time>2014-08-31T09:08:46Z</time>
      </trkpt>
      <trkpt lat="46.12577" lon="6.75582">
        <ele>1626.5657</ele>
        <time>2014-08-31T09:08:51Z</time>
      </trkpt>
      <trkpt lat="46.12573" lon="6.75576">
        <ele>1625.6034</ele>
        <time>2014-08-31T09:08:56Z</time>
      </trkpt>
      <trkpt lat="46.12568" lon="6.75572">
        <ele>1625.6034</ele>
        <time>2014-08-31T09:09:01Z</time>
      </trkpt>
      <trkpt lat="46.12563" lon="6.75568">
        <ele>1624.6322</ele>
        <time>2014-08-31T09:09:06Z</time>
      </trkpt>
      <trkpt lat="46.12559" lon="6.75565">
        <ele>1624.6322</ele>
        <time>2014-08-31T09:09:11Z</time>
      </trkpt>
      <trkpt lat="46.12558" lon="6.75564">
        <ele>1624.6322</ele>
        <time>2014-08-31T09:09:16Z</time>
      </trkpt>
      <trkpt lat="46.12557" lon="6.75564">
        <ele>1624.6322</ele>
        <time>2014-08-31T09:09:21Z</time>
      </trkpt>
      <trkpt lat="46.12555" lon="6.75565">
        <ele>1623.5381</ele>
        <time>2014-08-31T09:09:26Z</time>
      </trkpt>
      <trkpt lat="46.12552" lon="6.75566">
        <ele>1623.5381</ele>
        <time>2014-08-31T09:09:31Z</time>
      </trkpt>
      <trkpt lat="46.1255" lon="6.75566">
        <ele>1623.5381</ele>
        <time>2014-08-31T09:09:36Z</time>
      </trkpt>
      <trkpt lat="46.1255" lon="6.75565">
        <ele>1623.5381</ele>
        <time>2014-08-31T09:09:41Z</time>
      </trkpt>
      <trkpt lat="46.12549" lon="6.75562">
        <ele>1623.5381</ele>
        <time>2014-08-31T09:09:46Z</time>
      </trkpt>
      <trkpt lat="46.12546" lon="6.7556">
        <ele>1622.3306</ele>
        <time>2014-08-31T09:09:51Z</time>
      </trkpt>
      <trkpt lat="46.12541" lon="6.75557">
        <ele>1622.3306</ele>
        <time>2014-08-31T09:09:56Z</time>
      </trkpt>
      <trkpt lat="46.12541" lon="6.75556">
        <ele>1622.3306</ele>
        <time>2014-08-31T09:10:01Z</time>
      </trkpt>
      <trkpt lat="46.12541" lon="6.75556">
        <ele>1622.3306</ele>
        <time>2014-08-31T09:10:06Z</time>
      </trkpt>
      <trkpt lat="46.1254" lon="6.75555">
        <ele>1622.3306</ele>
        <time>2014-08-31T09:10:11Z</time>
      </trkpt>
      <trkpt lat="46.12537" lon="6.75551">
        <ele>1620.9614</ele>
        <time>2014-08-31T09:10:16Z</time>
      </trkpt>
      <trkpt lat="46.12533" lon="6.75546">
        <ele>1620.9614</ele>
        <time>2014-08-31T09:10:21Z</time>
      </trkpt>
      <trkpt lat="46.12529" lon="6.75542">
        <ele>1619.6311</ele>
        <time>2014-08-31T09:10:26Z</time>
      </trkpt>
      <trkpt lat="46.12525" lon="6.75538">
        <ele>1619.6311</ele>
        <time>2014-08-31T09:10:31Z</time>
      </trkpt>
      <trkpt lat="46.12521" lon="6.75533">
        <ele>1618.3236</ele>
        <time>2014-08-31T09:10:36Z</time>
      </trkpt>
      <trkpt lat="46.12516" lon="6.75527">
        <ele>1618.3236</ele>
        <time>2014-08-31T09:10:41Z</time>
      </trkpt>
      <trkpt lat="46.12511" lon="6.75522">
        <ele>1617.0526</ele>
        <time>2014-08-31T09:10:46Z</time>
      </trkpt>
      <trkpt lat="46.12507" lon="6.75518">
        <ele>1617.0526</ele>
        <time>2014-08-31T09:10:51Z</time>
      </trkpt>
      <trkpt lat="46.12503" lon="6.75514">
        <ele>1615.8021</ele>
        <time>2014-08-31T09:10:56Z</time>
      </trkpt>
      <trkpt lat="46.12498" lon="6.75511">
        <ele>1615.8021</ele>
        <time>2014-08-31T09:11:01Z</time>
      </trkpt>
      <trkpt lat="46.12494" lon="6.75508">
        <ele>1614.5568</ele>
        <time>2014-08-31T09:11:06Z</time>
      </trkpt>
      <trkpt lat="46.1249" lon="6.75505">
        <ele>1614.5568</ele>
        <time>2014-08-31T09:11:11Z</time>
      </trkpt>
      <trkpt lat="46.12487" lon="6.75501">
        <ele>1614.5568</ele>
        <time>2014-08-31T09:11:16Z</time>
      </trkpt>
      <trkpt lat="46.12484" lon="6.75498">
        <ele>1613.2449</ele>
        <time>2014-08-31T09:11:21Z</time>
      </trkpt>
      <trkpt lat="46.12481" lon="6.75494">
        <ele>1613.2449</ele>
        <time>2014-08-31T09:11:26Z</time>
      </trkpt>
      <trkpt lat="46.12478" lon="6.7549">
        <ele>1613.2449</ele>
        <time>2014-08-31T09:11:31Z</time>
      </trkpt>
      <trkpt lat="46.12478" lon="6.75491">
        <ele>1613.2449</ele>
        <time>2014-08-31T09:11:36Z</time>
      </trkpt>
      <trkpt lat="46.12476" lon="6.75492">
        <ele>1611.8003</ele>
        <time>2014-08-31T09:11:41Z</time>
      </trkpt>
      <trkpt lat="46.12475" lon="6.75492">
        <ele>1611.8003</ele>
        <time>2014-08-31T09:11:46Z</time>
      </trkpt>
      <trkpt lat="46.12474" lon="6.75492">
        <ele>1611.8003</ele>
        <time>2014-08-31T09:11:51Z</time>
      </trkpt>
      <trkpt lat="46.12474" lon="6.75491">
        <ele>1611.8003</ele>
        <time>2014-08-31T09:11:56Z</time>
      </trkpt>
      <trkpt lat="46.12474" lon="6.75491">
        <ele>1611.8003</ele>
        <time>2014-08-31T09:12:01Z</time>
      </trkpt>
      <trkpt lat="46.12474" lon="6.7549">
        <ele>1611.8003</ele>
        <time>2014-08-31T09:12:06Z</time>
      </trkpt>
      <trkpt lat="46.12473" lon="6.75491">
        <ele>1611.8003</ele>
        <time>2014-08-31T09:12:11Z</time>
      </trkpt>
      <trkpt lat="46.12473" lon="6.7549">
        <ele>1611.8003</ele>
        <time>2014-08-31T09:12:16Z</time>
      </trkpt>
      <trkpt lat="46.12473" lon="6.75489">
        <ele>1611.8003</ele>
        <time>2014-08-31T09:12:21Z</time>
      </trkpt>
      <trkpt lat="46.12474" lon="6.75488">
        <ele>1611.8003</ele>
        <time>2014-08-31T09:12:26Z</time>
      </trkpt>
      <trkpt lat="46.12474" lon="6.75488">
        <ele>1611.8003</ele>
        <time>2014-08-31T09:12:31Z</time>
      </trkpt>
      <trkpt lat="46.12474" lon="6.75488">
        <ele>1611.8003</ele>
        <time>2014-08-31T09:12:36Z</time>
      </trkpt>
      <trkpt lat="46.12475" lon="6.75487">
        <ele>1611.8003</ele>
        <time>2014-08-31T09:12:41Z</time>
      </trkpt>
      <trkpt lat="46.12475" lon="6.75486">
        <ele>1611.8003</ele>
        <time>2014-08-31T09:12:46Z</time>
      </trkpt>
      <trkpt lat="46.12475" lon="6.75486">
        <ele>1611.8003</ele>
        <time>2014-08-31T09:12:51Z</time>
      </trkpt>
      <trkpt lat="46.12476" lon="6.75485">
        <ele>1609.6141</ele>
        <time>2014-08-31T09:12:56Z</time>
      </trkpt>
      <trkpt lat="46.12475" lon="6.75485">
        <ele>1609.6141</ele>
        <time>2014-08-31T09:13:01Z</time>
      </trkpt>
      <trkpt lat="46.12474" lon="6.75485">
        <ele>1609.6141</ele>
        <time>2014-08-31T09:13:06Z</time>
      </trkpt>
      <trkpt lat="46.12474" lon="6.75484">
        <ele>1609.6141</ele>
        <time>2014-08-31T09:13:11Z</time>
      </trkpt>
      <trkpt lat="46.12474" lon="6.75484">
        <ele>1609.6141</ele>
        <time>2014-08-31T09:13:16Z</time>
      </trkpt>
      <trkpt lat="46.12474" lon="6.75485">
        <ele>1609.6141</ele>
        <time>2014-08-31T09:13:21Z</time>
      </trkpt>
      <trkpt lat="46.12474" lon="6.75485">
        <ele>1609.6141</ele>
        <time>2014-08-31T09:13:26Z</time>
      </trkpt>
      <trkpt lat="46.12474" lon="6.75485">
        <ele>1609.6141</ele>
        <time>2014-08-31T09:13:31Z</time>
      </trkpt>
      <trkpt lat="46.12475" lon="6.75485">
        <ele>1609.6141</ele>
        <time>2014-08-31T09:13:36Z</time>
      </trkpt>
      <trkpt lat="46.12474" lon="6.75485">
        <ele>1609.6141</ele>
        <time>2014-08-31T09:13:41Z</time>
      </trkpt>
      <trkpt lat="46.12474" lon="6.75485">
        <ele>1609.6141</ele>
        <time>2014-08-31T09:13:46Z</time>
      </trkpt>
      <trkpt lat="46.12473" lon="6.75484">
        <ele>1609.6141</ele>
        <time>2014-08-31T09:13:51Z</time>
      </trkpt>
      <trkpt lat="46.12471" lon="6.75482">
        <ele>1607.0178</ele>
        <time>2014-08-31T09:13:56Z</time>
      </trkpt>
      <trkpt lat="46.12467" lon="6.75479">
        <ele>1607.0178</ele>
        <time>2014-08-31T09:14:01Z</time>
      </trkpt>
      <trkpt lat="46.12462" lon="6.75475">
        <ele>1604.5647</ele>
        <time>2014-08-31T09:14:06Z</time>
      </trkpt>
      <trkpt lat="46.12457" lon="6.75471">
        <ele>1604.5647</ele>
        <time>2014-08-31T09:14:11Z</time>
      </trkpt>
      <trkpt lat="46.12452" lon="6.75466">
        <ele>1602.2625</ele>
        <time>2014-08-31T09:14:16Z</time>
      </trkpt>
      <trkpt lat="46.12449" lon="6.75463">
        <ele>1602.2625</ele>
        <time>2014-08-31T09:14:21Z</time>
      </trkpt>
      <trkpt lat="46.12445" lon="6.7546">
        <ele>1602.2625</ele>
        <time>2014-08-31T09:14:26Z</time>
      </trkpt>
      <trkpt lat="46.12439" lon="6.75457">
        <ele>1600.0599</ele>
        <time>2014-08-31T09:14:31Z</time>
      </trkpt>
      <trkpt lat="46.12434" lon="6.75453">
        <ele>1600.0599</ele>
        <time>2014-08-31T09:14:36Z</time>
      </trkpt>
      <trkpt lat="46.1243" lon="6.7545">
        <ele>1598.0107</ele>
        <time>2014-08-31T09:14:41Z</time>
      </trkpt>
      <trkpt lat="46.12425" lon="6.75447">
        <ele>1598.0107</ele>
        <time>2014-08-31T09:14:46Z</time>
      </trkpt>
      <trkpt lat="46.12419" lon="6.75442">
        <ele>1596.0913</ele>
        <time>2014-08-31T09:14:51Z</time>
      </trkpt>
      <trkpt lat="46.12412" lon="6.75437">
        <ele>1596.0913</ele>
        <time>2014-08-31T09:14:56Z</time>
      </trkpt>
      <trkpt lat="46.12407" lon="6.75433">
        <ele>1594.3088</ele>
        <time>2014-08-31T09:15:01Z</time>
      </trkpt>
      <trkpt lat="46.12401" lon="6.75431">
        <ele>1594.3088</ele>
        <time>2014-08-31T09:15:06Z</time>
      </trkpt>
      <trkpt lat="46.12398" lon="6.75428">
        <ele>1592.6548</ele>
        <time>2014-08-31T09:15:11Z</time>
      </trkpt>
      <trkpt lat="46.12394" lon="6.75425">
        <ele>1592.6548</ele>
        <time>2014-08-31T09:15:16Z</time>
      </trkpt>
      <trkpt lat="46.12389" lon="6.75421">
        <ele>1591.1062</ele>
        <time>2014-08-31T09:15:21Z</time>
      </trkpt>
      <trkpt lat="46.12384" lon="6.75418">
        <ele>1591.1062</ele>
        <time>2014-08-31T09:15:26Z</time>
      </trkpt>
      <trkpt lat="46.1238" lon="6.75415">
        <ele>1589.6564</ele>
        <time>2014-08-31T09:15:31Z</time>
      </trkpt>
      <trkpt lat="46.12376" lon="6.75412">
        <ele>1589.6564</ele>
        <time>2014-08-31T09:15:36Z</time>
      </trkpt>
      <trkpt lat="46.12373" lon="6.75408">
        <ele>1589.6564</ele>
        <time>2014-08-31T09:15:41Z</time>
      </trkpt>
      <trkpt lat="46.12368" lon="6.75404">
        <ele>1588.2118</ele>
        <time>2014-08-31T09:15:46Z</time>
      </trkpt>
      <trkpt lat="46.12364" lon="6.75401">
        <ele>1588.2118</ele>
        <time>2014-08-31T09:15:51Z</time>
      </trkpt>
      <trkpt lat="46.1236" lon="6.75396">
        <ele>1586.8445</ele>
        <time>2014-08-31T09:15:56Z</time>
      </trkpt>
      <trkpt lat="46.12356" lon="6.75391">
        <ele>1586.8445</ele>
        <time>2014-08-31T09:16:01Z</time>
      </trkpt>
      <trkpt lat="46.12352" lon="6.75386">
        <ele>1585.549</ele>
        <time>2014-08-31T09:16:06Z</time>
      </trkpt>
      <trkpt lat="46.12349" lon="6.7538">
        <ele>1585.549</ele>
        <time>2014-08-31T09:16:11Z</time>
      </trkpt>
      <trkpt lat="46.12345" lon="6.75374">
        <ele>1584.3195</ele>
        <time>2014-08-31T09:16:16Z</time>
      </trkpt>
      <trkpt lat="46.12341" lon="6.75369">
        <ele>1584.3195</ele>
        <time>2014-08-31T09:16:21Z</time>
      </trkpt>
      <trkpt lat="46.12337" lon="6.75365">
        <ele>1583.1365</ele>
        <time>2014-08-31T09:16:26Z</time>
      </trkpt>
      <trkpt lat="46.12333" lon="6.75362">
        <ele>1583.1365</ele>
        <time>2014-08-31T09:16:31Z</time>
      </trkpt>
      <trkpt lat="46.12327" lon="6.7536">
        <ele>1581.9958</ele>
        <time>2014-08-31T09:16:36Z</time>
      </trkpt>
      <trkpt lat="46.12322" lon="6.75359">
        <ele>1581.9958</ele>
        <time>2014-08-31T09:16:41Z</time>
      </trkpt>
      <trkpt lat="46.12318" lon="6.75357">
        <ele>1580.8793</ele>
        <time>2014-08-31T09:16:46Z</time>
      </trkpt>
      <trkpt lat="46.12313" lon="6.75355">
        <ele>1580.8793</ele>
        <time>2014-08-31T09:16:51Z</time>
      </trkpt>
      <trkpt lat="46.12309" lon="6.75351">
        <ele>1579.7986</ele>
        <time>2014-08-31T09:16:56Z</time>
      </trkpt>
      <trkpt lat="46.12305" lon="6.75348">
        <ele>1579.7986</ele>
        <time>2014-08-31T09:17:01Z</time>
      </trkpt>
      <trkpt lat="46.12302" lon="6.75346">
        <ele>1579.7986</ele>
        <time>2014-08-31T09:17:06Z</time>
      </trkpt>
      <trkpt lat="46.12298" lon="6.75345">
        <ele>1578.649</ele>
        <time>2014-08-31T09:17:11Z</time>
      </trkpt>
      <trkpt lat="46.12293" lon="6.75342">
        <ele>1578.649</ele>
        <time>2014-08-31T09:17:16Z</time>
      </trkpt>
      <trkpt lat="46.12288" lon="6.7534">
        <ele>1577.5215</ele>
        <time>2014-08-31T09:17:21Z</time>
      </trkpt>
      <trkpt lat="46.12282" lon="6.75336">
        <ele>1577.5215</ele>
        <time>2014-08-31T09:17:26Z</time>
      </trkpt>
      <trkpt lat="46.12281" lon="6.75335">
        <ele>1577.5215</ele>
        <time>2014-08-31T09:17:31Z</time>
      </trkpt>
      <trkpt lat="46.1228" lon="6.75335">
        <ele>1576.3411</ele>
        <time>2014-08-31T09:17:36Z</time>
      </trkpt>
      <trkpt lat="46.12279" lon="6.75334">
        <ele>1576.3411</ele>
        <time>2014-08-31T09:17:41Z</time>
      </trkpt>
      <trkpt lat="46.12279" lon="6.75333">
        <ele>1576.3411</ele>
        <time>2014-08-31T09:17:46Z</time>
      </trkpt>
      <trkpt lat="46.12278" lon="6.75332">
        <ele>1576.3411</ele>
        <time>2014-08-31T09:17:51Z</time>
      </trkpt>
      <trkpt lat="46.12278" lon="6.75331">
        <ele>1576.3411</ele>
        <time>2014-08-31T09:17:56Z</time>
      </trkpt>
      <trkpt lat="46.12277" lon="6.7533">
        <ele>1576.3411</ele>
        <time>2014-08-31T09:18:01Z</time>
      </trkpt>
      <trkpt lat="46.12274" lon="6.75327">
        <ele>1576.3411</ele>
        <time>2014-08-31T09:18:06Z</time>
      </trkpt>
      <trkpt lat="46.1227" lon="6.75323">
        <ele>1574.7941</ele>
        <time>2014-08-31T09:18:11Z</time>
      </trkpt>
      <trkpt lat="46.12266" lon="6.75317">
        <ele>1574.7941</ele>
        <time>2014-08-31T09:18:16Z</time>
      </trkpt>
      <trkpt lat="46.12263" lon="6.7531">
        <ele>1573.2965</ele>
        <time>2014-08-31T09:18:21Z</time>
      </trkpt>
      <trkpt lat="46.12261" lon="6.75303">
        <ele>1573.2965</ele>
        <time>2014-08-31T09:18:26Z</time>
      </trkpt>
      <trkpt lat="46.1226" lon="6.75296">
        <ele>1571.8593</ele>
        <time>2014-08-31T09:18:31Z</time>
      </trkpt>
      <trkpt lat="46.12257" lon="6.75291">
        <ele>1571.8593</ele>
        <time>2014-08-31T09:18:36Z</time>
      </trkpt>
      <trkpt lat="46.12252" lon="6.75286">
        <ele>1570.4633</ele>
        <time>2014-08-31T09:18:41Z</time>
      </trkpt>
      <trkpt lat="46.12247" lon="6.75283">
        <ele>1570.4633</ele>
        <time>2014-08-31T09:18:46Z</time>
      </trkpt>
      <trkpt lat="46.12242" lon="6.75281">
        <ele>1569.1053</ele>
        <time>2014-08-31T09:18:51Z</time>
      </trkpt>
      <trkpt lat="46.12237" lon="6.75279">
        <ele>1569.1053</ele>
        <time>2014-08-31T09:18:56Z</time>
      </trkpt>
      <trkpt lat="46.12232" lon="6.75277">
        <ele>1567.768</ele>
        <time>2014-08-31T09:19:01Z</time>
      </trkpt>
      <trkpt lat="46.12226" lon="6.75274">
        <ele>1567.768</ele>
        <time>2014-08-31T09:19:06Z</time>
      </trkpt>
      <trkpt lat="46.12221" lon="6.75271">
        <ele>1566.4634</ele>
        <time>2014-08-31T09:19:11Z</time>
      </trkpt>
      <trkpt lat="46.12215" lon="6.75267">
        <ele>1566.4634</ele>
        <time>2014-08-31T09:19:16Z</time>
      </trkpt>
      <trkpt lat="46.12211" lon="6.75264">
        <ele>1565.1743</ele>
        <time>2014-08-31T09:19:21Z</time>
      </trkpt>
      <trkpt lat="46.12206" lon="6.75261">
        <ele>1565.1743</ele>
        <time>2014-08-31T09:19:26Z</time>
      </trkpt>
      <trkpt lat="46.12202" lon="6.75257">
        <ele>1563.8989</ele>
        <time>2014-08-31T09:19:31Z</time>
      </trkpt>
      <trkpt lat="46.12197" lon="6.75252">
        <ele>1563.8989</ele>
        <time>2014-08-31T09:19:36Z</time>
      </trkpt>
      <trkpt lat="46.12194" lon="6.75248">
        <ele>1562.6647</ele>
        <time>2014-08-31T09:19:41Z</time>
      </trkpt>
      <trkpt lat="46.12189" lon="6.75243">
        <ele>1562.6647</ele>
        <time>2014-08-31T09:19:46Z</time>
      </trkpt>
      <trkpt lat="46.12184" lon="6.75239">
        <ele>1561.4099</ele>
        <time>2014-08-31T09:19:51Z</time>
      </trkpt>
      <trkpt lat="46.12179" lon="6.75235">
        <ele>1561.4099</ele>
        <time>2014-08-31T09:19:56Z</time>
      </trkpt>
      <trkpt lat="46.12175" lon="6.7523">
        <ele>1560.1643</ele>
        <time>2014-08-31T09:20:01Z</time>
      </trkpt>
      <trkpt lat="46.12171" lon="6.75225">
        <ele>1560.1643</ele>
        <time>2014-08-31T09:20:06Z</time>
      </trkpt>
      <trkpt lat="46.12165" lon="6.7522">
        <ele>1558.9265</ele>
        <time>2014-08-31T09:20:11Z</time>
      </trkpt>
      <trkpt lat="46.1216" lon="6.75215">
        <ele>1558.9265</ele>
        <time>2014-08-31T09:20:16Z</time>
      </trkpt>
      <trkpt lat="46.12155" lon="6.7521">
        <ele>1557.6952</ele>
        <time>2014-08-31T09:20:21Z</time>
      </trkpt>
      <trkpt lat="46.12151" lon="6.75204">
        <ele>1557.6952</ele>
        <time>2014-08-31T09:20:26Z</time>
      </trkpt>
      <trkpt lat="46.12147" lon="6.75199">
        <ele>1556.4692</ele>
        <time>2014-08-31T09:20:31Z</time>
      </trkpt>
      <trkpt lat="46.12144" lon="6.75193">
        <ele>1556.4692</ele>
        <time>2014-08-31T09:20:36Z</time>
      </trkpt>
      <trkpt lat="46.12142" lon="6.75187">
        <ele>1555.233</ele>
        <time>2014-08-31T09:20:41Z</time>
      </trkpt>
      <trkpt lat="46.1214" lon="6.75181">
        <ele>1555.233</ele>
        <time>2014-08-31T09:20:46Z</time>
      </trkpt>
      <trkpt lat="46.12137" lon="6.75176">
        <ele>1555.233</ele>
        <time>2014-08-31T09:20:51Z</time>
      </trkpt>
      <trkpt lat="46.12135" lon="6.7517">
        <ele>1553.8857</ele>
        <time>2014-08-31T09:20:56Z</time>
      </trkpt>
      <trkpt lat="46.12132" lon="6.75164">
        <ele>1553.8857</ele>
        <time>2014-08-31T09:21:01Z</time>
      </trkpt>
      <trkpt lat="46.12131" lon="6.75158">
        <ele>1552.5361</ele>
        <time>2014-08-31T09:21:06Z</time>
      </trkpt>
      <trkpt lat="46.12132" lon="6.75153">
        <ele>1552.5361</ele>
        <time>2014-08-31T09:21:11Z</time>
      </trkpt>
      <trkpt lat="46.1213" lon="6.75146">
        <ele>1552.5361</ele>
        <time>2014-08-31T09:21:16Z</time>
      </trkpt>
      <trkpt lat="46.12132" lon="6.7514">
        <ele>1551.0974</ele>
        <time>2014-08-31T09:21:21Z</time>
      </trkpt>
      <trkpt lat="46.12131" lon="6.75133">
        <ele>1551.0974</ele>
        <time>2014-08-31T09:21:26Z</time>
      </trkpt>
      <trkpt lat="46.1213" lon="6.75124">
        <ele>1549.6625</ele>
        <time>2014-08-31T09:21:31Z</time>
      </trkpt>
      <trkpt lat="46.12126" lon="6.7512">
        <ele>1549.6625</ele>
        <time>2014-08-31T09:21:36Z</time>
      </trkpt>
      <trkpt lat="46.12123" lon="6.75119">
        <ele>1549.6625</ele>
        <time>2014-08-31T09:21:41Z</time>
      </trkpt>
      <trkpt lat="46.1212" lon="6.75119">
        <ele>1548.1447</ele>
        <time>2014-08-31T09:21:46Z</time>
      </trkpt>
      <trkpt lat="46.12113" lon="6.75117">
        <ele>1548.1447</ele>
        <time>2014-08-31T09:21:51Z</time>
      </trkpt>
      <trkpt lat="46.12104" lon="6.75116">
        <ele>1546.6366</ele>
        <time>2014-08-31T09:21:56Z</time>
      </trkpt>
      <trkpt lat="46.121" lon="6.75117">
        <ele>1546.6366</ele>
        <time>2014-08-31T09:22:01Z</time>
      </trkpt>
      <trkpt lat="46.12097" lon="6.75117">
        <ele>1546.6366</ele>
        <time>2014-08-31T09:22:06Z</time>
      </trkpt>
      <trkpt lat="46.12095" lon="6.75115">
        <ele>1545.0656</ele>
        <time>2014-08-31T09:22:11Z</time>
      </trkpt>
      <trkpt lat="46.12091" lon="6.75111">
        <ele>1545.0656</ele>
        <time>2014-08-31T09:22:16Z</time>
      </trkpt>
      <trkpt lat="46.12088" lon="6.75107">
        <ele>1543.5231</ele>
        <time>2014-08-31T09:22:21Z</time>
      </trkpt>
      <trkpt lat="46.12085" lon="6.75102">
        <ele>1543.5231</ele>
        <time>2014-08-31T09:22:26Z</time>
      </trkpt>
      <trkpt lat="46.12082" lon="6.75095">
        <ele>1541.9785</ele>
        <time>2014-08-31T09:22:31Z</time>
      </trkpt>
      <trkpt lat="46.12081" lon="6.75088">
        <ele>1541.9785</ele>
        <time>2014-08-31T09:22:36Z</time>
      </trkpt>
      <trkpt lat="46.12082" lon="6.75082">
        <ele>1540.4465</ele>
        <time>2014-08-31T09:22:41Z</time>
      </trkpt>
      <trkpt lat="46.12083" lon="6.75074">
        <ele>1540.4465</ele>
        <time>2014-08-31T09:22:46Z</time>
      </trkpt>
      <trkpt lat="46.12083" lon="6.75064">
        <ele>1538.7103</ele>
        <time>2014-08-31T09:22:51Z</time>
      </trkpt>
      <trkpt lat="46.12084" lon="6.75051">
        <ele>1538.7103</ele>
        <time>2014-08-31T09:22:56Z</time>
      </trkpt>
      <trkpt lat="46.12084" lon="6.75042">
        <ele>1535.1573</ele>
        <time>2014-08-31T09:23:01Z</time>
      </trkpt>
      <trkpt lat="46.12086" lon="6.75033">
        <ele>1535.1573</ele>
        <time>2014-08-31T09:23:06Z</time>
      </trkpt>
      <trkpt lat="46.12087" lon="6.75026">
        <ele>1530.2438</ele>
        <time>2014-08-31T09:23:11Z</time>
      </trkpt>
      <trkpt lat="46.12087" lon="6.75019">
        <ele>1530.2438</ele>
        <time>2014-08-31T09:23:16Z</time>
      </trkpt>
      <trkpt lat="46.12087" lon="6.75011">
        <ele>1524.3533</ele>
        <time>2014-08-31T09:23:21Z</time>
      </trkpt>
      <trkpt lat="46.12084" lon="6.75004">
        <ele>1524.3533</ele>
        <time>2014-08-31T09:23:26Z</time>
      </trkpt>
      <trkpt lat="46.12085" lon="6.74999">
        <ele>1517.887</ele>
        <time>2014-08-31T09:23:31Z</time>
      </trkpt>
      <trkpt lat="46.12085" lon="6.74992">
        <ele>1517.887</ele>
        <time>2014-08-31T09:23:36Z</time>
      </trkpt>
      <trkpt lat="46.12086" lon="6.74985">
        <ele>1511.2612</ele>
        <time>2014-08-31T09:23:41Z</time>
      </trkpt>
      <trkpt lat="46.12087" lon="6.74973">
        <ele>1511.2612</ele>
        <time>2014-08-31T09:23:46Z</time>
      </trkpt>
      <trkpt lat="46.12087" lon="6.74963">
        <ele>1504.5022</ele>
        <time>2014-08-31T09:23:51Z</time>
      </trkpt>
      <trkpt lat="46.12088" lon="6.74955">
        <ele>1504.5022</ele>
        <time>2014-08-31T09:23:56Z</time>
      </trkpt>
      <trkpt lat="46.12089" lon="6.74949">
        <ele>1497.8068</ele>
        <time>2014-08-31T09:24:01Z</time>
      </trkpt>
      <trkpt lat="46.12089" lon="6.74943">
        <ele>1497.8068</ele>
        <time>2014-08-31T09:24:06Z</time>
      </trkpt>
      <trkpt lat="46.12088" lon="6.74935">
        <ele>1491.1703</ele>
        <time>2014-08-31T09:24:11Z</time>
      </trkpt>
      <trkpt lat="46.12088" lon="6.74929">
        <ele>1491.1703</ele>
        <time>2014-08-31T09:24:16Z</time>
      </trkpt>
      <trkpt lat="46.12086" lon="6.74924">
        <ele>1491.1703</ele>
        <time>2014-08-31T09:24:21Z</time>
      </trkpt>
      <trkpt lat="46.12083" lon="6.74918">
        <ele>1484.184</ele>
        <time>2014-08-31T09:24:26Z</time>
      </trkpt>
      <trkpt lat="46.1208" lon="6.74913">
        <ele>1484.184</ele>
        <time>2014-08-31T09:24:31Z</time>
      </trkpt>
      <trkpt lat="46.12077" lon="6.7491">
        <ele>1484.184</ele>
        <time>2014-08-31T09:24:36Z</time>
      </trkpt>
      <trkpt lat="46.12076" lon="6.749">
        <ele>1476.9313</ele>
        <time>2014-08-31T09:24:41Z</time>
      </trkpt>
      <trkpt lat="46.12073" lon="6.74894">
        <ele>1476.9313</ele>
        <time>2014-08-31T09:24:46Z</time>
      </trkpt>
      <trkpt lat="46.12072" lon="6.74887">
        <ele>1469.8505</ele>
        <time>2014-08-31T09:24:51Z</time>
      </trkpt>
      <trkpt lat="46.12071" lon="6.74882">
        <ele>1469.8505</ele>
        <time>2014-08-31T09:24:56Z</time>
      </trkpt>
      <trkpt lat="46.12071" lon="6.74873">
        <ele>1462.9427</ele>
        <time>2014-08-31T09:25:01Z</time>
      </trkpt>
      <trkpt lat="46.1207" lon="6.74868">
        <ele>1462.9427</ele>
        <time>2014-08-31T09:25:06Z</time>
      </trkpt>
      <trkpt lat="46.12069" lon="6.7486">
        <ele>1456.3245</ele>
        <time>2014-08-31T09:25:11Z</time>
      </trkpt>
      <trkpt lat="46.12068" lon="6.74852">
        <ele>1456.3245</ele>
        <time>2014-08-31T09:25:16Z</time>
      </trkpt>
      <trkpt lat="46.12068" lon="6.74849">
        <ele>1456.3245</ele>
        <time>2014-08-31T09:25:21Z</time>
      </trkpt>
      <trkpt lat="46.12069" lon="6.74842">
        <ele>1449.799</ele>
        <time>2014-08-31T09:25:26Z</time>
      </trkpt>
      <trkpt lat="46.12069" lon="6.74834">
        <ele>1449.799</ele>
        <time>2014-08-31T09:25:31Z</time>
      </trkpt>
      <trkpt lat="46.12069" lon="6.74826">
        <ele>1443.6018</ele>
        <time>2014-08-31T09:25:36Z</time>
      </trkpt>
      <trkpt lat="46.12069" lon="6.74824">
        <ele>1443.6018</ele>
        <time>2014-08-31T09:25:41Z</time>
      </trkpt>
      <trkpt lat="46.12069" lon="6.74825">
        <ele>1443.6018</ele>
        <time>2014-08-31T09:25:46Z</time>
      </trkpt>
      <trkpt lat="46.12069" lon="6.74825">
        <ele>1443.6018</ele>
        <time>2014-08-31T09:25:51Z</time>
      </trkpt>
      <trkpt lat="46.12069" lon="6.74826">
        <ele>1443.6018</ele>
        <time>2014-08-31T09:25:56Z</time>
      </trkpt>
      <trkpt lat="46.1207" lon="6.74827">
        <ele>1443.6018</ele>
        <time>2014-08-31T09:26:01Z</time>
      </trkpt>
      <trkpt lat="46.12071" lon="6.74828">
        <ele>1443.6018</ele>
        <time>2014-08-31T09:26:06Z</time>
      </trkpt>
      <trkpt lat="46.12071" lon="6.74829">
        <ele>1443.6018</ele>
        <time>2014-08-31T09:26:11Z</time>
      </trkpt>
      <trkpt lat="46.1207" lon="6.74829">
        <ele>1443.6018</ele>
        <time>2014-08-31T09:26:16Z</time>
      </trkpt>
      <trkpt lat="46.12062" lon="6.74828">
        <ele>1437.2582</ele>
        <time>2014-08-31T09:26:21Z</time>
      </trkpt>
      <trkpt lat="46.12057" lon="6.74829">
        <ele>1437.2582</ele>
        <time>2014-08-31T09:26:26Z</time>
      </trkpt>
      <trkpt lat="46.12049" lon="6.74832">
        <ele>1431.2649</ele>
        <time>2014-08-31T09:26:31Z</time>
      </trkpt>
      <trkpt lat="46.12046" lon="6.74833">
        <ele>1431.2649</ele>
        <time>2014-08-31T09:26:36Z</time>
      </trkpt>
      <trkpt lat="46.12039" lon="6.74832">
        <ele>1425.9222</ele>
        <time>2014-08-31T09:26:41Z</time>
      </trkpt>
      <trkpt lat="46.12037" lon="6.74831">
        <ele>1425.9222</ele>
        <time>2014-08-31T09:26:46Z</time>
      </trkpt>
      <trkpt lat="46.12032" lon="6.7483">
        <ele>1425.9222</ele>
        <time>2014-08-31T09:26:51Z</time>
      </trkpt>
      <trkpt lat="46.12028" lon="6.74829">
        <ele>1421.0165</ele>
        <time>2014-08-31T09:26:56Z</time>
      </trkpt>
      <trkpt lat="46.12023" lon="6.7483">
        <ele>1421.0165</ele>
        <time>2014-08-31T09:27:01Z</time>
      </trkpt>
      <trkpt lat="46.12019" lon="6.74832">
        <ele>1416.6508</ele>
        <time>2014-08-31T09:27:06Z</time>
      </trkpt>
      <trkpt lat="46.12015" lon="6.74831">
        <ele>1416.6508</ele>
        <time>2014-08-31T09:27:11Z</time>
      </trkpt>
      <trkpt lat="46.12011" lon="6.74835">
        <ele>1416.6508</ele>
        <time>2014-08-31T09:27:16Z</time>
      </trkpt>
      <trkpt lat="46.12006" lon="6.74837">
        <ele>1412.7599</ele>
        <time>2014-08-31T09:27:21Z</time>
      </trkpt>
      <trkpt lat="46.12001" lon="6.74834">
        <ele>1412.7599</ele>
        <time>2014-08-31T09:27:26Z</time>
      </trkpt>
      <trkpt lat="46.11997" lon="6.74829">
        <ele>1409.2534</ele>
        <time>2014-08-31T09:27:31Z</time>
      </trkpt>
      <trkpt lat="46.11993" lon="6.74823">
        <ele>1409.2534</ele>
        <time>2014-08-31T09:27:36Z</time>
      </trkpt>
      <trkpt lat="46.1199" lon="6.74818">
        <ele>1406.1467</ele>
        <time>2014-08-31T09:27:41Z</time>
      </trkpt>
      <trkpt lat="46.11988" lon="6.74815">
        <ele>1406.1467</ele>
        <time>2014-08-31T09:27:46Z</time>
      </trkpt>
      <trkpt lat="46.11984" lon="6.7481">
        <ele>1406.1467</ele>
        <time>2014-08-31T09:27:51Z</time>
      </trkpt>
      <trkpt lat="46.11983" lon="6.74805">
        <ele>1403.078</ele>
        <time>2014-08-31T09:27:56Z</time>
      </trkpt>
      <trkpt lat="46.11982" lon="6.74798">
        <ele>1403.078</ele>
        <time>2014-08-31T09:28:01Z</time>
      </trkpt>
      <trkpt lat="46.11981" lon="6.74792">
        <ele>1400.1155</ele>
        <time>2014-08-31T09:28:06Z</time>
      </trkpt>
      <trkpt lat="46.1198" lon="6.74789">
        <ele>1400.1155</ele>
        <time>2014-08-31T09:28:11Z</time>
      </trkpt>
      <trkpt lat="46.11978" lon="6.74782">
        <ele>1400.1155</ele>
        <time>2014-08-31T09:28:16Z</time>
      </trkpt>
      <trkpt lat="46.11979" lon="6.74775">
        <ele>1397.1339</ele>
        <time>2014-08-31T09:28:21Z</time>
      </trkpt>
      <trkpt lat="46.11979" lon="6.74766">
        <ele>1397.1339</ele>
        <time>2014-08-31T09:28:26Z</time>
      </trkpt>
      <trkpt lat="46.11979" lon="6.74759">
        <ele>1394.2339</ele>
        <time>2014-08-31T09:28:31Z</time>
      </trkpt>
      <trkpt lat="46.11978" lon="6.74755">
        <ele>1394.2339</ele>
        <time>2014-08-31T09:28:36Z</time>
      </trkpt>
      <trkpt lat="46.11978" lon="6.74749">
        <ele>1394.2339</ele>
        <time>2014-08-31T09:28:41Z</time>
      </trkpt>
      <trkpt lat="46.11975" lon="6.74743">
        <ele>1391.2772</ele>
        <time>2014-08-31T09:28:46Z</time>
      </trkpt>
      <trkpt lat="46.11972" lon="6.74733">
        <ele>1391.2772</ele>
        <time>2014-08-31T09:28:51Z</time>
      </trkpt>
      <trkpt lat="46.1197" lon="6.74726">
        <ele>1388.4386</ele>
        <time>2014-08-31T09:28:56Z</time>
      </trkpt>
      <trkpt lat="46.11967" lon="6.7472">
        <ele>1388.4386</ele>
        <time>2014-08-31T09:29:01Z</time>
      </trkpt>
      <trkpt lat="46.11964" lon="6.74717">
        <ele>1385.793</ele>
        <time>2014-08-31T09:29:06Z</time>
      </trkpt>
      <trkpt lat="46.1196" lon="6.74711">
        <ele>1385.793</ele>
        <time>2014-08-31T09:29:11Z</time>
      </trkpt>
      <trkpt lat="46.11957" lon="6.74707">
        <ele>1383.3658</ele>
        <time>2014-08-31T09:29:16Z</time>
      </trkpt>
      <trkpt lat="46.11953" lon="6.74702">
        <ele>1383.3658</ele>
        <time>2014-08-31T09:29:21Z</time>
      </trkpt>
      <trkpt lat="46.1195" lon="6.74695">
        <ele>1381.1079</ele>
        <time>2014-08-31T09:29:26Z</time>
      </trkpt>
      <trkpt lat="46.11948" lon="6.74685">
        <ele>1381.1079</ele>
        <time>2014-08-31T09:29:31Z</time>
      </trkpt>
      <trkpt lat="46.11948" lon="6.74678">
        <ele>1379.0454</ele>
        <time>2014-08-31T09:29:36Z</time>
      </trkpt>
      <trkpt lat="46.1195" lon="6.7467">
        <ele>1379.0454</ele>
        <time>2014-08-31T09:29:41Z</time>
      </trkpt>
      <trkpt lat="46.1195" lon="6.74666">
        <ele>1379.0454</ele>
        <time>2014-08-31T09:29:46Z</time>
      </trkpt>
      <trkpt lat="46.11953" lon="6.74657">
        <ele>1376.9277</ele>
        <time>2014-08-31T09:29:51Z</time>
      </trkpt>
      <trkpt lat="46.11956" lon="6.74648">
        <ele>1376.9277</ele>
        <time>2014-08-31T09:29:56Z</time>
      </trkpt>
      <trkpt lat="46.11956" lon="6.74643">
        <ele>1374.8834</ele>
        <time>2014-08-31T09:30:01Z</time>
      </trkpt>
      <trkpt lat="46.11955" lon="6.74638">
        <ele>1374.8834</ele>
        <time>2014-08-31T09:30:06Z</time>
      </trkpt>
      <trkpt lat="46.11953" lon="6.74629">
        <ele>1372.8295</ele>
        <time>2014-08-31T09:30:11Z</time>
      </trkpt>
      <trkpt lat="46.11949" lon="6.74623">
        <ele>1372.8295</ele>
        <time>2014-08-31T09:30:16Z</time>
      </trkpt>
      <trkpt lat="46.11948" lon="6.74615">
        <ele>1370.9194</ele>
        <time>2014-08-31T09:30:21Z</time>
      </trkpt>
      <trkpt lat="46.11948" lon="6.74609">
        <ele>1370.9194</ele>
        <time>2014-08-31T09:30:26Z</time>
      </trkpt>
      <trkpt lat="46.11949" lon="6.74601">
        <ele>1369.0505</ele>
        <time>2014-08-31T09:30:31Z</time>
      </trkpt>
      <trkpt lat="46.11948" lon="6.74599">
        <ele>1369.0505</ele>
        <time>2014-08-31T09:30:36Z</time>
      </trkpt>
      <trkpt lat="46.11946" lon="6.74593">
        <ele>1369.0505</ele>
        <time>2014-08-31T09:30:41Z</time>
      </trkpt>
      <trkpt lat="46.11946" lon="6.74588">
        <ele>1366.9253</ele>
        <time>2014-08-31T09:30:46Z</time>
      </trkpt>
      <trkpt lat="46.11946" lon="6.74582">
        <ele>1366.9253</ele>
        <time>2014-08-31T09:30:51Z</time>
      </trkpt>
      <trkpt lat="46.11947" lon="6.74579">
        <ele>1366.9253</ele>
        <time>2014-08-31T09:30:56Z</time>
      </trkpt>
      <trkpt lat="46.11946" lon="6.74573">
        <ele>1364.8745</ele>
        <time>2014-08-31T09:31:01Z</time>
      </trkpt>
      <trkpt lat="46.11951" lon="6.74562">
        <ele>1364.8745</ele>
        <time>2014-08-31T09:31:06Z</time>
      </trkpt>
      <trkpt lat="46.11955" lon="6.7455">
        <ele>1362.9016</ele>
        <time>2014-08-31T09:31:11Z</time>
      </trkpt>
      <trkpt lat="46.11956" lon="6.74541">
        <ele>1362.9016</ele>
        <time>2014-08-31T09:31:16Z</time>
      </trkpt>
      <trkpt lat="46.11956" lon="6.74533">
        <ele>1361.0961</ele>
        <time>2014-08-31T09:31:21Z</time>
      </trkpt>
      <trkpt lat="46.11957" lon="6.74522">
        <ele>1361.0961</ele>
        <time>2014-08-31T09:31:26Z</time>
      </trkpt>
      <trkpt lat="46.11957" lon="6.74514">
        <ele>1359.3246</ele>
        <time>2014-08-31T09:31:31Z</time>
      </trkpt>
      <trkpt lat="46.11957" lon="6.7451">
        <ele>1359.3246</ele>
        <time>2014-08-31T09:31:36Z</time>
      </trkpt>
      <trkpt lat="46.11956" lon="6.74503">
        <ele>1359.3246</ele>
        <time>2014-08-31T09:31:41Z</time>
      </trkpt>
      <trkpt lat="46.11954" lon="6.74496">
        <ele>1357.4489</ele>
        <time>2014-08-31T09:31:46Z</time>
      </trkpt>
      <trkpt lat="46.11951" lon="6.74491">
        <ele>1357.4489</ele>
        <time>2014-08-31T09:31:51Z</time>
      </trkpt>
      <trkpt lat="46.11949" lon="6.74487">
        <ele>1357.4489</ele>
        <time>2014-08-31T09:31:56Z</time>
      </trkpt>
      <trkpt lat="46.11947" lon="6.74477">
        <ele>1355.4567</ele>
        <time>2014-08-31T09:32:01Z</time>
      </trkpt>
      <trkpt lat="46.11945" lon="6.74468">
        <ele>1355.4567</ele>
        <time>2014-08-31T09:32:06Z</time>
      </trkpt>
      <trkpt lat="46.11943" lon="6.7446">
        <ele>1353.5818</ele>
        <time>2014-08-31T09:32:11Z</time>
      </trkpt>
      <trkpt lat="46.11941" lon="6.74453">
        <ele>1353.5818</ele>
        <time>2014-08-31T09:32:16Z</time>
      </trkpt>
      <trkpt lat="46.11939" lon="6.74448">
        <ele>1351.8683</ele>
        <time>2014-08-31T09:32:21Z</time>
      </trkpt>
      <trkpt lat="46.11935" lon="6.74439">
        <ele>1351.8683</ele>
        <time>2014-08-31T09:32:26Z</time>
      </trkpt>
      <trkpt lat="46.11933" lon="6.74435">
        <ele>1350.2262</ele>
        <time>2014-08-31T09:32:31Z</time>
      </trkpt>
      <trkpt lat="46.11929" lon="6.74429">
        <ele>1350.2262</ele>
        <time>2014-08-31T09:32:36Z</time>
      </trkpt>
      <trkpt lat="46.11926" lon="6.74424">
        <ele>1348.7169</ele>
        <time>2014-08-31T09:32:41Z</time>
      </trkpt>
      <trkpt lat="46.11921" lon="6.74418">
        <ele>1348.7169</ele>
        <time>2014-08-31T09:32:46Z</time>
      </trkpt>
      <trkpt lat="46.11918" lon="6.74412">
        <ele>1347.3102</ele>
        <time>2014-08-31T09:32:51Z</time>
      </trkpt>
      <trkpt lat="46.11915" lon="6.74406">
        <ele>1347.3102</ele>
        <time>2014-08-31T09:32:56Z</time>
      </trkpt>
      <trkpt lat="46.11912" lon="6.74399">
        <ele>1345.9491</ele>
        <time>2014-08-31T09:33:01Z</time>
      </trkpt>
      <trkpt lat="46.11909" lon="6.74394">
        <ele>1345.9491</ele>
        <time>2014-08-31T09:33:06Z</time>
      </trkpt>
      <trkpt lat="46.11904" lon="6.7439">
        <ele>1344.509</ele>
        <time>2014-08-31T09:33:11Z</time>
      </trkpt>
      <trkpt lat="46.11902" lon="6.74387">
        <ele>1344.509</ele>
        <time>2014-08-31T09:33:16Z</time>
      </trkpt>
      <trkpt lat="46.11897" lon="6.74384">
        <ele>1344.509</ele>
        <time>2014-08-31T09:33:21Z</time>
      </trkpt>
      <trkpt lat="46.11893" lon="6.74378">
        <ele>1342.8893</ele>
        <time>2014-08-31T09:33:26Z</time>
      </trkpt>
      <trkpt lat="46.11888" lon="6.74373">
        <ele>1342.8893</ele>
        <time>2014-08-31T09:33:31Z</time>
      </trkpt>
      <trkpt lat="46.11886" lon="6.74367">
        <ele>1341.3284</ele>
        <time>2014-08-31T09:33:36Z</time>
      </trkpt>
      <trkpt lat="46.11887" lon="6.74359">
        <ele>1341.3284</ele>
        <time>2014-08-31T09:33:41Z</time>
      </trkpt>
      <trkpt lat="46.11888" lon="6.74352">
        <ele>1339.8461</ele>
        <time>2014-08-31T09:33:46Z</time>
      </trkpt>
      <trkpt lat="46.11894" lon="6.74342">
        <ele>1338.561</ele>
        <time>2014-08-31T09:33:51Z</time>
      </trkpt>
      <trkpt lat="46.11898" lon="6.74337">
        <ele>1338.561</ele>
        <time>2014-08-31T09:33:56Z</time>
      </trkpt>
      <trkpt lat="46.11899" lon="6.74331">
        <ele>1337.3815</ele>
        <time>2014-08-31T09:34:01Z</time>
      </trkpt>
      <trkpt lat="46.11903" lon="6.74325">
        <ele>1337.3815</ele>
        <time>2014-08-31T09:34:06Z</time>
      </trkpt>
      <trkpt lat="46.11907" lon="6.74318">
        <ele>1336.2362</ele>
        <time>2014-08-31T09:34:11Z</time>
      </trkpt>
      <trkpt lat="46.11911" lon="6.74314">
        <ele>1336.2362</ele>
        <time>2014-08-31T09:34:16Z</time>
      </trkpt>
      <trkpt lat="46.11912" lon="6.74307">
        <ele>1335.175</ele>
        <time>2014-08-31T09:34:21Z</time>
      </trkpt>
      <trkpt lat="46.11913" lon="6.74301">
        <ele>1335.175</ele>
        <time>2014-08-31T09:34:26Z</time>
      </trkpt>
      <trkpt lat="46.11913" lon="6.74295">
        <ele>1335.175</ele>
        <time>2014-08-31T09:34:31Z</time>
      </trkpt>
      <trkpt lat="46.11913" lon="6.74288">
        <ele>1333.653</ele>
        <time>2014-08-31T09:34:36Z</time>
      </trkpt>
      <trkpt lat="46.11913" lon="6.74282">
        <ele>1333.653</ele>
        <time>2014-08-31T09:34:41Z</time>
      </trkpt>
      <trkpt lat="46.11914" lon="6.74274">
        <ele>1332.017</ele>
        <time>2014-08-31T09:34:46Z</time>
      </trkpt>
      <trkpt lat="46.11913" lon="6.74269">
        <ele>1332.017</ele>
        <time>2014-08-31T09:34:51Z</time>
      </trkpt>
      <trkpt lat="46.11913" lon="6.74256">
        <ele>1330.2861</ele>
        <time>2014-08-31T09:34:56Z</time>
      </trkpt>
      <trkpt lat="46.11915" lon="6.74248">
        <ele>1330.2861</ele>
        <time>2014-08-31T09:35:01Z</time>
      </trkpt>
      <trkpt lat="46.11917" lon="6.74241">
        <ele>1328.4789</ele>
        <time>2014-08-31T09:35:06Z</time>
      </trkpt>
      <trkpt lat="46.11918" lon="6.74235">
        <ele>1328.4789</ele>
        <time>2014-08-31T09:35:11Z</time>
      </trkpt>
      <trkpt lat="46.11922" lon="6.74229">
        <ele>1326.8141</ele>
        <time>2014-08-31T09:35:16Z</time>
      </trkpt>
      <trkpt lat="46.11927" lon="6.74218">
        <ele>1325.4658</ele>
        <time>2014-08-31T09:35:21Z</time>
      </trkpt>
      <trkpt lat="46.11929" lon="6.74209">
        <ele>1325.4658</ele>
        <time>2014-08-31T09:35:26Z</time>
      </trkpt>
      <trkpt lat="46.1193" lon="6.74203">
        <ele>1324.2632</ele>
        <time>2014-08-31T09:35:31Z</time>
      </trkpt>
      <trkpt lat="46.11927" lon="6.74198">
        <ele>1324.2632</ele>
        <time>2014-08-31T09:35:36Z</time>
      </trkpt>
      <trkpt lat="46.11921" lon="6.74194">
        <ele>1323.0471</ele>
        <time>2014-08-31T09:35:41Z</time>
      </trkpt>
      <trkpt lat="46.11917" lon="6.74193">
        <ele>1323.0471</ele>
        <time>2014-08-31T09:35:46Z</time>
      </trkpt>
      <trkpt lat="46.11913" lon="6.74188">
        <ele>1321.8585</ele>
        <time>2014-08-31T09:35:51Z</time>
      </trkpt>
      <trkpt lat="46.11907" lon="6.7418">
        <ele>1321.8585</ele>
        <time>2014-08-31T09:35:56Z</time>
      </trkpt>
      <trkpt lat="46.11905" lon="6.74175">
        <ele>1320.6195</ele>
        <time>2014-08-31T09:36:01Z</time>
      </trkpt>
      <trkpt lat="46.11902" lon="6.74167">
        <ele>1320.6195</ele>
        <time>2014-08-31T09:36:06Z</time>
      </trkpt>
      <trkpt lat="46.11901" lon="6.7416">
        <ele>1319.4889</ele>
        <time>2014-08-31T09:36:11Z</time>
      </trkpt>
      <trkpt lat="46.11899" lon="6.74154">
        <ele>1319.4889</ele>
        <time>2014-08-31T09:36:16Z</time>
      </trkpt>
      <trkpt lat="46.11896" lon="6.7415">
        <ele>1319.4889</ele>
        <time>2014-08-31T09:36:21Z</time>
      </trkpt>
      <trkpt lat="46.11895" lon="6.74146">
        <ele>1318.3114</ele>
        <time>2014-08-31T09:36:26Z</time>
      </trkpt>
      <trkpt lat="46.11892" lon="6.74138">
        <ele>1318.3114</ele>
        <time>2014-08-31T09:36:31Z</time>
      </trkpt>
      <trkpt lat="46.11891" lon="6.74132">
        <ele>1316.8566</ele>
        <time>2014-08-31T09:36:36Z</time>
      </trkpt>
      <trkpt lat="46.11889" lon="6.74125">
        <ele>1316.8566</ele>
        <time>2014-08-31T09:36:41Z</time>
      </trkpt>
      <trkpt lat="46.11886" lon="6.74118">
        <ele>1315.2722</ele>
        <time>2014-08-31T09:36:46Z</time>
      </trkpt>
      <trkpt lat="46.11883" lon="6.74109">
        <ele>1315.2722</ele>
        <time>2014-08-31T09:36:51Z</time>
      </trkpt>
      <trkpt lat="46.11882" lon="6.74102">
        <ele>1313.7104</ele>
        <time>2014-08-31T09:36:56Z</time>
      </trkpt>
      <trkpt lat="46.1188" lon="6.74096">
        <ele>1313.7104</ele>
        <time>2014-08-31T09:37:01Z</time>
      </trkpt>
      <trkpt lat="46.1188" lon="6.7409">
        <ele>1313.7104</ele>
        <time>2014-08-31T09:37:06Z</time>
      </trkpt>
      <trkpt lat="46.11879" lon="6.74084">
        <ele>1311.966</ele>
        <time>2014-08-31T09:37:11Z</time>
      </trkpt>
      <trkpt lat="46.1188" lon="6.74076">
        <ele>1311.966</ele>
        <time>2014-08-31T09:37:16Z</time>
      </trkpt>
      <trkpt lat="46.1188" lon="6.7407">
        <ele>1310.1521</ele>
        <time>2014-08-31T09:37:21Z</time>
      </trkpt>
      <trkpt lat="46.11882" lon="6.74064">
        <ele>1310.1521</ele>
        <time>2014-08-31T09:37:26Z</time>
      </trkpt>
      <trkpt lat="46.11882" lon="6.74057">
        <ele>1308.187</ele>
        <time>2014-08-31T09:37:31Z</time>
      </trkpt>
      <trkpt lat="46.11881" lon="6.74051">
        <ele>1308.187</ele>
        <time>2014-08-31T09:37:36Z</time>
      </trkpt>
      <trkpt lat="46.11882" lon="6.74044">
        <ele>1306.0814</ele>
        <time>2014-08-31T09:37:41Z</time>
      </trkpt>
      <trkpt lat="46.1188" lon="6.74035">
        <ele>1306.0814</ele>
        <time>2014-08-31T09:37:46Z</time>
      </trkpt>
      <trkpt lat="46.11879" lon="6.74035">
        <ele>1306.0814</ele>
        <time>2014-08-31T09:37:51Z</time>
      </trkpt>
      <trkpt lat="46.11877" lon="6.74031">
        <ele>1303.9327</ele>
        <time>2014-08-31T09:37:56Z</time>
      </trkpt>
      <trkpt lat="46.11878" lon="6.74022">
        <ele>1303.9327</ele>
        <time>2014-08-31T09:38:01Z</time>
      </trkpt>
      <trkpt lat="46.11882" lon="6.74016">
        <ele>1302.0328</ele>
        <time>2014-08-31T09:38:06Z</time>
      </trkpt>
      <trkpt lat="46.11882" lon="6.74016">
        <ele>1302.0328</ele>
        <time>2014-08-31T09:38:11Z</time>
      </trkpt>
      <trkpt lat="46.11882" lon="6.74018">
        <ele>1302.0328</ele>
        <time>2014-08-31T09:38:36Z</time>
      </trkpt>
      <trkpt lat="46.11882" lon="6.74018">
        <ele>1302.0328</ele>
        <time>2014-08-31T09:38:41Z</time>
      </trkpt>
      <trkpt lat="46.11883" lon="6.74018">
        <ele>1302.0328</ele>
        <time>2014-08-31T09:39:31Z</time>
      </trkpt>
      <trkpt lat="46.11887" lon="6.74013">
        <ele>1302.0328</ele>
        <time>2014-08-31T09:39:36Z</time>
      </trkpt>
      <trkpt lat="46.11888" lon="6.74004">
        <ele>1299.5708</ele>
        <time>2014-08-31T09:39:41Z</time>
      </trkpt>
      <trkpt lat="46.11884" lon="6.74001">
        <ele>1299.5708</ele>
        <time>2014-08-31T09:39:46Z</time>
      </trkpt>
      <trkpt lat="46.1188" lon="6.74001">
        <ele>1299.5708</ele>
        <time>2014-08-31T09:39:51Z</time>
      </trkpt>
      <trkpt lat="46.11873" lon="6.74005">
        <ele>1297.1661</ele>
        <time>2014-08-31T09:39:56Z</time>
      </trkpt>
      <trkpt lat="46.11869" lon="6.7401">
        <ele>1297.1661</ele>
        <time>2014-08-31T09:40:01Z</time>
      </trkpt>
      <trkpt lat="46.11862" lon="6.74017">
        <ele>1294.7008</ele>
        <time>2014-08-31T09:40:06Z</time>
      </trkpt>
      <trkpt lat="46.11856" lon="6.74023">
        <ele>1294.7008</ele>
        <time>2014-08-31T09:40:11Z</time>
      </trkpt>
      <trkpt lat="46.1185" lon="6.74032">
        <ele>1292.2677</ele>
        <time>2014-08-31T09:40:16Z</time>
      </trkpt>
      <trkpt lat="46.11845" lon="6.74037">
        <ele>1292.2677</ele>
        <time>2014-08-31T09:40:21Z</time>
      </trkpt>
      <trkpt lat="46.11841" lon="6.74047">
        <ele>1290.0967</ele>
        <time>2014-08-31T09:40:26Z</time>
      </trkpt>
      <trkpt lat="46.11836" lon="6.74056">
        <ele>1290.0967</ele>
        <time>2014-08-31T09:40:31Z</time>
      </trkpt>
      <trkpt lat="46.11832" lon="6.74062">
        <ele>1288.1841</ele>
        <time>2014-08-31T09:40:36Z</time>
      </trkpt>
      <trkpt lat="46.11828" lon="6.74066">
        <ele>1288.1841</ele>
        <time>2014-08-31T09:40:41Z</time>
      </trkpt>
      <trkpt lat="46.11824" lon="6.74068">
        <ele>1286.3671</ele>
        <time>2014-08-31T09:40:46Z</time>
      </trkpt>
      <trkpt lat="46.11818" lon="6.74072">
        <ele>1286.3671</ele>
        <time>2014-08-31T09:40:51Z</time>
      </trkpt>
      <trkpt lat="46.11811" lon="6.74071">
        <ele>1284.6823</ele>
        <time>2014-08-31T09:40:56Z</time>
      </trkpt>
      <trkpt lat="46.11806" lon="6.7407">
        <ele>1284.6823</ele>
        <time>2014-08-31T09:41:01Z</time>
      </trkpt>
      <trkpt lat="46.118" lon="6.74067">
        <ele>1283.1627</ele>
        <time>2014-08-31T09:41:06Z</time>
      </trkpt>
      <trkpt lat="46.11798" lon="6.74067">
        <ele>1283.1627</ele>
        <time>2014-08-31T09:41:11Z</time>
      </trkpt>
      <trkpt lat="46.11795" lon="6.74068">
        <ele>1283.1627</ele>
        <time>2014-08-31T09:41:16Z</time>
      </trkpt>
      <trkpt lat="46.11792" lon="6.74075">
        <ele>1281.7816</ele>
        <time>2014-08-31T09:41:21Z</time>
      </trkpt>
      <trkpt lat="46.11786" lon="6.74081">
        <ele>1281.7816</ele>
        <time>2014-08-31T09:41:26Z</time>
      </trkpt>
      <trkpt lat="46.11785" lon="6.7409">
        <ele>1280.47</ele>
        <time>2014-08-31T09:41:31Z</time>
      </trkpt>
      <trkpt lat="46.11781" lon="6.74093">
        <ele>1280.47</ele>
        <time>2014-08-31T09:41:36Z</time>
      </trkpt>
      <trkpt lat="46.11773" lon="6.74099">
        <ele>1279.2504</ele>
        <time>2014-08-31T09:41:41Z</time>
      </trkpt>
      <trkpt lat="46.11765" lon="6.74104">
        <ele>1279.2504</ele>
        <time>2014-08-31T09:41:46Z</time>
      </trkpt>
      <trkpt lat="46.11758" lon="6.74104">
        <ele>1277.9707</ele>
        <time>2014-08-31T09:41:51Z</time>
      </trkpt>
      <trkpt lat="46.11754" lon="6.74101">
        <ele>1277.9707</ele>
        <time>2014-08-31T09:41:56Z</time>
      </trkpt>
      <trkpt lat="46.11752" lon="6.74101">
        <ele>1277.9707</ele>
        <time>2014-08-31T09:42:01Z</time>
      </trkpt>
      <trkpt lat="46.11749" lon="6.74099">
        <ele>1276.807</ele>
        <time>2014-08-31T09:42:06Z</time>
      </trkpt>
      <trkpt lat="46.11746" lon="6.74101">
        <ele>1276.807</ele>
        <time>2014-08-31T09:42:11Z</time>
      </trkpt>
      <trkpt lat="46.11746" lon="6.74101">
        <ele>1276.807</ele>
        <time>2014-08-31T09:42:16Z</time>
      </trkpt>
      <trkpt lat="46.1174" lon="6.74103">
        <ele>1275.8073</ele>
        <time>2014-08-31T09:42:36Z</time>
      </trkpt>
      <trkpt lat="46.11738" lon="6.74105">
        <ele>1275.8073</ele>
        <time>2014-08-31T09:42:41Z</time>
      </trkpt>
      <trkpt lat="46.11738" lon="6.74105">
        <ele>1275.8073</ele>
        <time>2014-08-31T09:42:46Z</time>
      </trkpt>
      <trkpt lat="46.11731" lon="6.74125">
        <ele>1274.6257</ele>
        <time>2014-08-31T09:42:56Z</time>
      </trkpt>
      <trkpt lat="46.11723" lon="6.74135">
        <ele>1273.5197</ele>
        <time>2014-08-31T09:43:01Z</time>
      </trkpt>
      <trkpt lat="46.11719" lon="6.7414">
        <ele>1273.5197</ele>
        <time>2014-08-31T09:43:06Z</time>
      </trkpt>
      <trkpt lat="46.11713" lon="6.74146">
        <ele>1272.4243</ele>
        <time>2014-08-31T09:43:11Z</time>
      </trkpt>
      <trkpt lat="46.11708" lon="6.74152">
        <ele>1272.4243</ele>
        <time>2014-08-31T09:43:16Z</time>
      </trkpt>
      <trkpt lat="46.117" lon="6.74164">
        <ele>1271.3086</ele>
        <time>2014-08-31T09:43:21Z</time>
      </trkpt>
      <trkpt lat="46.11695" lon="6.74168">
        <ele>1271.3086</ele>
        <time>2014-08-31T09:43:26Z</time>
      </trkpt>
      <trkpt lat="46.1169" lon="6.74177">
        <ele>1270.2014</ele>
        <time>2014-08-31T09:43:31Z</time>
      </trkpt>
      <trkpt lat="46.11687" lon="6.74185">
        <ele>1270.2014</ele>
        <time>2014-08-31T09:43:36Z</time>
      </trkpt>
      <trkpt lat="46.11686" lon="6.74194">
        <ele>1268.8126</ele>
        <time>2014-08-31T09:43:41Z</time>
      </trkpt>
      <trkpt lat="46.11685" lon="6.74197">
        <ele>1268.8126</ele>
        <time>2014-08-31T09:43:46Z</time>
      </trkpt>
      <trkpt lat="46.11685" lon="6.74202">
        <ele>1268.8126</ele>
        <time>2014-08-31T09:43:51Z</time>
      </trkpt>
      <trkpt lat="46.11684" lon="6.74212">
        <ele>1266.9462</ele>
        <time>2014-08-31T09:43:56Z</time>
      </trkpt>
      <trkpt lat="46.11683" lon="6.74221">
        <ele>1266.9462</ele>
        <time>2014-08-31T09:44:01Z</time>
      </trkpt>
      <trkpt lat="46.1168" lon="6.74233">
        <ele>1264.7821</ele>
        <time>2014-08-31T09:44:06Z</time>
      </trkpt>
      <trkpt lat="46.11678" lon="6.74242">
        <ele>1264.7821</ele>
        <time>2014-08-31T09:44:11Z</time>
      </trkpt>
      <trkpt lat="46.11672" lon="6.74247">
        <ele>1262.6323</ele>
        <time>2014-08-31T09:44:16Z</time>
      </trkpt>
      <trkpt lat="46.11668" lon="6.74247">
        <ele>1262.6323</ele>
        <time>2014-08-31T09:44:21Z</time>
      </trkpt>
      <trkpt lat="46.11663" lon="6.74242">
        <ele>1260.6702</ele>
        <time>2014-08-31T09:44:26Z</time>
      </trkpt>
      <trkpt lat="46.11657" lon="6.74224">
        <ele>1258.8977</ele>
        <time>2014-08-31T09:44:31Z</time>
      </trkpt>
      <trkpt lat="46.11655" lon="6.74218">
        <ele>1258.8977</ele>
        <time>2014-08-31T09:44:36Z</time>
      </trkpt>
      <trkpt lat="46.11654" lon="6.74212">
        <ele>1258.8977</ele>
        <time>2014-08-31T09:44:41Z</time>
      </trkpt>
      <trkpt lat="46.11649" lon="6.74205">
        <ele>1256.9557</ele>
        <time>2014-08-31T09:44:46Z</time>
      </trkpt>
      <trkpt lat="46.11644" lon="6.74199">
        <ele>1256.9557</ele>
        <time>2014-08-31T09:44:51Z</time>
      </trkpt>
      <trkpt lat="46.1164" lon="6.74196">
        <ele>1255.002</ele>
        <time>2014-08-31T09:44:56Z</time>
      </trkpt>
      <trkpt lat="46.11635" lon="6.74196">
        <ele>1255.002</ele>
        <time>2014-08-31T09:45:01Z</time>
      </trkpt>
      <trkpt lat="46.1163" lon="6.74195">
        <ele>1253.2113</ele>
        <time>2014-08-31T09:45:06Z</time>
      </trkpt>
      <trkpt lat="46.11623" lon="6.74197">
        <ele>1253.2113</ele>
        <time>2014-08-31T09:45:11Z</time>
      </trkpt>
      <trkpt lat="46.11614" lon="6.74202">
        <ele>1251.7601</ele>
        <time>2014-08-31T09:45:16Z</time>
      </trkpt>
      <trkpt lat="46.11609" lon="6.74204">
        <ele>1251.7601</ele>
        <time>2014-08-31T09:45:21Z</time>
      </trkpt>
      <trkpt lat="46.11601" lon="6.74207">
        <ele>1250.5223</ele>
        <time>2014-08-31T09:45:26Z</time>
      </trkpt>
      <trkpt lat="46.11593" lon="6.74215">
        <ele>1249.6399</ele>
        <time>2014-08-31T09:45:31Z</time>
      </trkpt>
      <trkpt lat="46.11591" lon="6.74222">
        <ele>1249.6399</ele>
        <time>2014-08-31T09:45:36Z</time>
      </trkpt>
      <trkpt lat="46.11587" lon="6.74233">
        <ele>1248.8544</ele>
        <time>2014-08-31T09:45:41Z</time>
      </trkpt>
      <trkpt lat="46.11583" lon="6.74239">
        <ele>1248.8544</ele>
        <time>2014-08-31T09:45:46Z</time>
      </trkpt>
      <trkpt lat="46.1158" lon="6.74248">
        <ele>1247.9982</ele>
        <time>2014-08-31T09:45:51Z</time>
      </trkpt>
      <trkpt lat="46.11577" lon="6.74255">
        <ele>1247.9982</ele>
        <time>2014-08-31T09:45:56Z</time>
      </trkpt>
      <trkpt lat="46.11575" lon="6.74262">
        <ele>1247.3629</ele>
        <time>2014-08-31T09:46:01Z</time>
      </trkpt>
      <trkpt lat="46.11571" lon="6.74273">
        <ele>1247.3629</ele>
        <time>2014-08-31T09:46:06Z</time>
      </trkpt>
      <trkpt lat="46.11569" lon="6.74276">
        <ele>1246.7856</ele>
        <time>2014-08-31T09:46:11Z</time>
      </trkpt>
      <trkpt lat="46.11565" lon="6.74282">
        <ele>1246.7856</ele>
        <time>2014-08-31T09:46:16Z</time>
      </trkpt>
      <trkpt lat="46.11564" lon="6.74285">
        <ele>1246.7856</ele>
        <time>2014-08-31T09:46:21Z</time>
      </trkpt>
      <trkpt lat="46.11559" lon="6.74286">
        <ele>1246.0148</ele>
        <time>2014-08-31T09:46:26Z</time>
      </trkpt>
      <trkpt lat="46.11554" lon="6.74285">
        <ele>1246.0148</ele>
        <time>2014-08-31T09:46:31Z</time>
      </trkpt>
      <trkpt lat="46.1155" lon="6.74285">
        <ele>1246.0148</ele>
        <time>2014-08-31T09:46:36Z</time>
      </trkpt>
      <trkpt lat="46.11549" lon="6.74284">
        <ele>1245.0048</ele>
        <time>2014-08-31T09:46:41Z</time>
      </trkpt>
      <trkpt lat="46.11545" lon="6.74284">
        <ele>1245.0048</ele>
        <time>2014-08-31T09:46:46Z</time>
      </trkpt>
      <trkpt lat="46.11544" lon="6.74284">
        <ele>1245.0048</ele>
        <time>2014-08-31T09:46:51Z</time>
      </trkpt>
      <trkpt lat="46.11538" lon="6.74283">
        <ele>1243.8872</ele>
        <time>2014-08-31T09:46:56Z</time>
      </trkpt>
      <trkpt lat="46.11535" lon="6.74278">
        <ele>1243.8872</ele>
        <time>2014-08-31T09:47:01Z</time>
      </trkpt>
      <trkpt lat="46.11526" lon="6.74276">
        <ele>1243.0725</ele>
        <time>2014-08-31T09:47:06Z</time>
      </trkpt>
      <trkpt lat="46.11521" lon="6.74279">
        <ele>1243.0725</ele>
        <time>2014-08-31T09:47:11Z</time>
      </trkpt>
      <trkpt lat="46.11518" lon="6.74279">
        <ele>1243.0725</ele>
        <time>2014-08-31T09:47:16Z</time>
      </trkpt>
      <trkpt lat="46.11516" lon="6.74279">
        <ele>1242.1332</ele>
        <time>2014-08-31T09:47:21Z</time>
      </trkpt>
      <trkpt lat="46.1151" lon="6.74281">
        <ele>1242.1332</ele>
        <time>2014-08-31T09:47:26Z</time>
      </trkpt>
      <trkpt lat="46.11505" lon="6.74284">
        <ele>1241.005</ele>
        <time>2014-08-31T09:47:31Z</time>
      </trkpt>
      <trkpt lat="46.11499" lon="6.74284">
        <ele>1241.005</ele>
        <time>2014-08-31T09:47:36Z</time>
      </trkpt>
      <trkpt lat="46.11492" lon="6.74284">
        <ele>1239.6578</ele>
        <time>2014-08-31T09:47:41Z</time>
      </trkpt>
      <trkpt lat="46.11488" lon="6.74281">
        <ele>1239.6578</ele>
        <time>2014-08-31T09:47:46Z</time>
      </trkpt>
      <trkpt lat="46.11486" lon="6.74282">
        <ele>1239.6578</ele>
        <time>2014-08-31T09:47:51Z</time>
      </trkpt>
      <trkpt lat="46.11482" lon="6.74285">
        <ele>1238.0787</ele>
        <time>2014-08-31T09:47:56Z</time>
      </trkpt>
      <trkpt lat="46.11481" lon="6.74287">
        <ele>1238.0787</ele>
        <time>2014-08-31T09:48:01Z</time>
      </trkpt>
      <trkpt lat="46.11481" lon="6.74287">
        <ele>1238.0787</ele>
        <time>2014-08-31T09:48:06Z</time>
      </trkpt>
      <trkpt lat="46.11479" lon="6.74288">
        <ele>1238.0787</ele>
        <time>2014-08-31T09:48:11Z</time>
      </trkpt>
      <trkpt lat="46.11476" lon="6.74289">
        <ele>1238.0787</ele>
        <time>2014-08-31T09:48:16Z</time>
      </trkpt>
      <trkpt lat="46.11474" lon="6.74288">
        <ele>1238.0787</ele>
        <time>2014-08-31T09:48:21Z</time>
      </trkpt>
      <trkpt lat="46.11474" lon="6.74287">
        <ele>1236.4293</ele>
        <time>2014-08-31T09:48:26Z</time>
      </trkpt>
      <trkpt lat="46.11473" lon="6.74288">
        <ele>1236.4293</ele>
        <time>2014-08-31T09:48:31Z</time>
      </trkpt>
      <trkpt lat="46.11473" lon="6.74289">
        <ele>1236.4293</ele>
        <time>2014-08-31T09:48:36Z</time>
      </trkpt>
      <trkpt lat="46.11472" lon="6.74289">
        <ele>1236.4293</ele>
        <time>2014-08-31T09:48:41Z</time>
      </trkpt>
      <trkpt lat="46.11471" lon="6.7429">
        <ele>1236.4293</ele>
        <time>2014-08-31T09:48:46Z</time>
      </trkpt>
      <trkpt lat="46.11471" lon="6.7429">
        <ele>1236.4293</ele>
        <time>2014-08-31T09:48:51Z</time>
      </trkpt>
      <trkpt lat="46.11471" lon="6.7429">
        <ele>1236.4293</ele>
        <time>2014-08-31T09:48:56Z</time>
      </trkpt>
      <trkpt lat="46.11469" lon="6.74288">
        <ele>1236.4293</ele>
        <time>2014-08-31T09:49:06Z</time>
      </trkpt>
      <trkpt lat="46.11469" lon="6.74287">
        <ele>1236.4293</ele>
        <time>2014-08-31T09:49:11Z</time>
      </trkpt>
      <trkpt lat="46.11468" lon="6.74286">
        <ele>1236.4293</ele>
        <time>2014-08-31T09:49:16Z</time>
      </trkpt>
      <trkpt lat="46.11468" lon="6.74286">
        <ele>1236.4293</ele>
        <time>2014-08-31T09:49:21Z</time>
      </trkpt>
      <trkpt lat="46.11464" lon="6.74285">
        <ele>1232.9574</ele>
        <time>2014-08-31T09:49:31Z</time>
      </trkpt>
      <trkpt lat="46.11464" lon="6.74285">
        <ele>1232.9574</ele>
        <time>2014-08-31T09:49:36Z</time>
      </trkpt>
      <trkpt lat="46.1146" lon="6.74279">
        <ele>1232.9574</ele>
        <time>2014-08-31T09:49:41Z</time>
      </trkpt>
      <trkpt lat="46.11455" lon="6.74273">
        <ele>1229.6185</ele>
        <time>2014-08-31T09:49:46Z</time>
      </trkpt>
      <trkpt lat="46.11451" lon="6.74267">
        <ele>1229.6185</ele>
        <time>2014-08-31T09:49:51Z</time>
      </trkpt>
      <trkpt lat="46.11449" lon="6.74263">
        <ele>1226.5094</ele>
        <time>2014-08-31T09:49:56Z</time>
      </trkpt>
      <trkpt lat="46.11447" lon="6.74261">
        <ele>1226.5094</ele>
        <time>2014-08-31T09:50:01Z</time>
      </trkpt>
      <trkpt lat="46.11445" lon="6.74255">
        <ele>1226.5094</ele>
        <time>2014-08-31T09:50:06Z</time>
      </trkpt>
      <trkpt lat="46.11445" lon="6.7425">
        <ele>1223.5315</ele>
        <time>2014-08-31T09:50:11Z</time>
      </trkpt>
      <trkpt lat="46.11445" lon="6.7425">
        <ele>1223.5315</ele>
        <time>2014-08-31T09:50:16Z</time>
      </trkpt>
      <trkpt lat="46.11444" lon="6.74247">
        <ele>1223.5315</ele>
        <time>2014-08-31T09:51:01Z</time>
      </trkpt>
      <trkpt lat="46.11444" lon="6.74247">
        <ele>1223.5315</ele>
        <time>2014-08-31T09:51:06Z</time>
      </trkpt>
      <trkpt lat="46.11443" lon="6.74247">
        <ele>1223.5315</ele>
        <time>2014-08-31T09:51:16Z</time>
      </trkpt>
      <trkpt lat="46.11441" lon="6.74246">
        <ele>1223.5315</ele>
        <time>2014-08-31T09:51:21Z</time>
      </trkpt>
      <trkpt lat="46.11431" lon="6.7424">
        <ele>1219.5411</ele>
        <time>2014-08-31T09:51:26Z</time>
      </trkpt>
      <trkpt lat="46.11425" lon="6.74235">
        <ele>1219.5411</ele>
        <time>2014-08-31T09:51:31Z</time>
      </trkpt>
      <trkpt lat="46.11421" lon="6.74231">
        <ele>1215.672</ele>
        <time>2014-08-31T09:51:36Z</time>
      </trkpt>
      <trkpt lat="46.11418" lon="6.74232">
        <ele>1215.672</ele>
        <time>2014-08-31T09:51:41Z</time>
      </trkpt>
      <trkpt lat="46.11418" lon="6.74232">
        <ele>1215.672</ele>
        <time>2014-08-31T09:51:46Z</time>
      </trkpt>
      <trkpt lat="46.11414" lon="6.74222">
        <ele>1211.3457</ele>
        <time>2014-08-31T09:52:06Z</time>
      </trkpt>
      <trkpt lat="46.11412" lon="6.74216">
        <ele>1211.3457</ele>
        <time>2014-08-31T09:52:11Z</time>
      </trkpt>
      <trkpt lat="46.11405" lon="6.74211">
        <ele>1207.0938</ele>
        <time>2014-08-31T09:52:16Z</time>
      </trkpt>
      <trkpt lat="46.114" lon="6.74211">
        <ele>1207.0938</ele>
        <time>2014-08-31T09:52:21Z</time>
      </trkpt>
      <trkpt lat="46.11394" lon="6.74208">
        <ele>1202.616</ele>
        <time>2014-08-31T09:52:26Z</time>
      </trkpt>
      <trkpt lat="46.11392" lon="6.74207">
        <ele>1202.616</ele>
        <time>2014-08-31T09:52:31Z</time>
      </trkpt>
      <trkpt lat="46.11386" lon="6.74205">
        <ele>1202.616</ele>
        <time>2014-08-31T09:52:36Z</time>
      </trkpt>
      <trkpt lat="46.11379" lon="6.74206">
        <ele>1197.8075</ele>
        <time>2014-08-31T09:52:41Z</time>
      </trkpt>
      <trkpt lat="46.11377" lon="6.74206">
        <ele>1197.8075</ele>
        <time>2014-08-31T09:52:46Z</time>
      </trkpt>
      <trkpt lat="46.11376" lon="6.74207">
        <ele>1197.8075</ele>
        <time>2014-08-31T09:52:51Z</time>
      </trkpt>
      <trkpt lat="46.11372" lon="6.74208">
        <ele>1197.8075</ele>
        <time>2014-08-31T09:52:56Z</time>
      </trkpt>
      <trkpt lat="46.11361" lon="6.74207">
        <ele>1192.9324</ele>
        <time>2014-08-31T09:53:01Z</time>
      </trkpt>
      <trkpt lat="46.11355" lon="6.74211">
        <ele>1192.9324</ele>
        <time>2014-08-31T09:53:06Z</time>
      </trkpt>
      <trkpt lat="46.11346" lon="6.74216">
        <ele>1188.3506</ele>
        <time>2014-08-31T09:53:11Z</time>
      </trkpt>
      <trkpt lat="46.11341" lon="6.74218">
        <ele>1188.3506</ele>
        <time>2014-08-31T09:53:16Z</time>
      </trkpt>
      <trkpt lat="46.11337" lon="6.74219">
        <ele>1184.1206</ele>
        <time>2014-08-31T09:53:21Z</time>
      </trkpt>
      <trkpt lat="46.11334" lon="6.74218">
        <ele>1184.1206</ele>
        <time>2014-08-31T09:53:26Z</time>
      </trkpt>
      <trkpt lat="46.1133" lon="6.74221">
        <ele>1184.1206</ele>
        <time>2014-08-31T09:53:31Z</time>
      </trkpt>
      <trkpt lat="46.11326" lon="6.74225">
        <ele>1179.7771</ele>
        <time>2014-08-31T09:53:36Z</time>
      </trkpt>
      <trkpt lat="46.11323" lon="6.74233">
        <ele>1179.7771</ele>
        <time>2014-08-31T09:53:41Z</time>
      </trkpt>
      <trkpt lat="46.11319" lon="6.74239">
        <ele>1175.6238</ele>
        <time>2014-08-31T09:53:46Z</time>
      </trkpt>
      <trkpt lat="46.11317" lon="6.74241">
        <ele>1175.6238</ele>
        <time>2014-08-31T09:53:51Z</time>
      </trkpt>
      <trkpt lat="46.11315" lon="6.74238">
        <ele>1175.6238</ele>
        <time>2014-08-31T09:53:56Z</time>
      </trkpt>
      <trkpt lat="46.11312" lon="6.74239">
        <ele>1175.6238</ele>
        <time>2014-08-31T09:54:01Z</time>
      </trkpt>
      <trkpt lat="46.11306" lon="6.74245">
        <ele>1171.4224</ele>
        <time>2014-08-31T09:54:06Z</time>
      </trkpt>
      <trkpt lat="46.11302" lon="6.74245">
        <ele>1171.4224</ele>
        <time>2014-08-31T09:54:11Z</time>
      </trkpt>
      <trkpt lat="46.113" lon="6.74247">
        <ele>1171.4224</ele>
        <time>2014-08-31T09:54:16Z</time>
      </trkpt>
      <trkpt lat="46.11299" lon="6.74248">
        <ele>1171.4224</ele>
        <time>2014-08-31T09:54:21Z</time>
      </trkpt>
      <trkpt lat="46.11299" lon="6.74249">
        <ele>1171.4224</ele>
        <time>2014-08-31T09:54:26Z</time>
      </trkpt>
      <trkpt lat="46.11298" lon="6.74249">
        <ele>1166.9092</ele>
        <time>2014-08-31T09:54:31Z</time>
      </trkpt>
      <trkpt lat="46.11298" lon="6.74251">
        <ele>1166.9092</ele>
        <time>2014-08-31T09:54:36Z</time>
      </trkpt>
      <trkpt lat="46.11298" lon="6.74251">
        <ele>1166.9092</ele>
        <time>2014-08-31T09:54:41Z</time>
      </trkpt>
      <trkpt lat="46.11295" lon="6.74252">
        <ele>1166.9092</ele>
        <time>2014-08-31T09:54:46Z</time>
      </trkpt>
      <trkpt lat="46.11292" lon="6.74255">
        <ele>1166.9092</ele>
        <time>2014-08-31T09:54:51Z</time>
      </trkpt>
      <trkpt lat="46.11289" lon="6.74257">
        <ele>1161.8835</ele>
        <time>2014-08-31T09:54:56Z</time>
      </trkpt>
      <trkpt lat="46.11284" lon="6.74261">
        <ele>1161.8835</ele>
        <time>2014-08-31T09:55:01Z</time>
      </trkpt>
      <trkpt lat="46.11283" lon="6.74262">
        <ele>1161.8835</ele>
        <time>2014-08-31T09:55:06Z</time>
      </trkpt>
      <trkpt lat="46.1128" lon="6.74264">
        <ele>1156.9391</ele>
        <time>2014-08-31T09:55:11Z</time>
      </trkpt>
      <trkpt lat="46.1128" lon="6.74264">
        <ele>1156.9391</ele>
        <time>2014-08-31T09:55:16Z</time>
      </trkpt>
      <trkpt lat="46.11276" lon="6.74268">
        <ele>1156.9391</ele>
        <time>2014-08-31T09:55:21Z</time>
      </trkpt>
      <trkpt lat="46.11273" lon="6.74275">
        <ele>1152.3225</ele>
        <time>2014-08-31T09:55:26Z</time>
      </trkpt>
      <trkpt lat="46.1127" lon="6.74274">
        <ele>1152.3225</ele>
        <time>2014-08-31T09:55:31Z</time>
      </trkpt>
      <trkpt lat="46.11267" lon="6.74274">
        <ele>1152.3225</ele>
        <time>2014-08-31T09:55:36Z</time>
      </trkpt>
      <trkpt lat="46.11263" lon="6.74277">
        <ele>1147.8436</ele>
        <time>2014-08-31T09:55:41Z</time>
      </trkpt>
      <trkpt lat="46.1126" lon="6.74277">
        <ele>1147.8436</ele>
        <time>2014-08-31T09:55:46Z</time>
      </trkpt>
      <trkpt lat="46.11257" lon="6.7428">
        <ele>1147.8436</ele>
        <time>2014-08-31T09:55:51Z</time>
      </trkpt>
      <trkpt lat="46.11255" lon="6.74282">
        <ele>1143.4553</ele>
        <time>2014-08-31T09:55:56Z</time>
      </trkpt>
      <trkpt lat="46.11252" lon="6.74281">
        <ele>1143.4553</ele>
        <time>2014-08-31T09:56:01Z</time>
      </trkpt>
      <trkpt lat="46.11249" lon="6.74284">
        <ele>1143.4553</ele>
        <time>2014-08-31T09:56:06Z</time>
      </trkpt>
      <trkpt lat="46.11244" lon="6.74283">
        <ele>1138.9978</ele>
        <time>2014-08-31T09:56:11Z</time>
      </trkpt>
      <trkpt lat="46.11241" lon="6.7428">
        <ele>1138.9978</ele>
        <time>2014-08-31T09:56:16Z</time>
      </trkpt>
      <trkpt lat="46.11237" lon="6.74278">
        <ele>1138.9978</ele>
        <time>2014-08-31T09:56:21Z</time>
      </trkpt>
      <trkpt lat="46.11234" lon="6.74275">
        <ele>1134.6693</ele>
        <time>2014-08-31T09:56:26Z</time>
      </trkpt>
      <trkpt lat="46.11225" lon="6.74272">
        <ele>1130.5662</ele>
        <time>2014-08-31T09:56:31Z</time>
      </trkpt>
      <trkpt lat="46.11219" lon="6.74282">
        <ele>1130.5662</ele>
        <time>2014-08-31T09:56:36Z</time>
      </trkpt>
      <trkpt lat="46.11216" lon="6.74282">
        <ele>1126.4597</ele>
        <time>2014-08-31T09:56:41Z</time>
      </trkpt>
      <trkpt lat="46.11212" lon="6.74284">
        <ele>1126.4597</ele>
        <time>2014-08-31T09:56:46Z</time>
      </trkpt>
      <trkpt lat="46.11206" lon="6.74286">
        <ele>1122.4264</ele>
        <time>2014-08-31T09:56:51Z</time>
      </trkpt>
      <trkpt lat="46.11203" lon="6.74288">
        <ele>1122.4264</ele>
        <time>2014-08-31T09:56:56Z</time>
      </trkpt>
      <trkpt lat="46.112" lon="6.74288">
        <ele>1122.4264</ele>
        <time>2014-08-31T09:57:01Z</time>
      </trkpt>
      <trkpt lat="46.11199" lon="6.74289">
        <ele>1122.4264</ele>
        <time>2014-08-31T09:57:06Z</time>
      </trkpt>
      <trkpt lat="46.11201" lon="6.74297">
        <ele>1117.9312</ele>
        <time>2014-08-31T09:57:11Z</time>
      </trkpt>
      <trkpt lat="46.11201" lon="6.74302">
        <ele>1117.9312</ele>
        <time>2014-08-31T09:57:16Z</time>
      </trkpt>
      <trkpt lat="46.11202" lon="6.74307">
        <ele>1117.9312</ele>
        <time>2014-08-31T09:57:21Z</time>
      </trkpt>
      <trkpt lat="46.11202" lon="6.74315">
        <ele>1113.7185</ele>
        <time>2014-08-31T09:57:26Z</time>
      </trkpt>
      <trkpt lat="46.11203" lon="6.74323">
        <ele>1113.7185</ele>
        <time>2014-08-31T09:57:31Z</time>
      </trkpt>
      <trkpt lat="46.11201" lon="6.74329">
        <ele>1109.6561</ele>
        <time>2014-08-31T09:57:36Z</time>
      </trkpt>
      <trkpt lat="46.11199" lon="6.74333">
        <ele>1109.6561</ele>
        <time>2014-08-31T09:57:41Z</time>
      </trkpt>
      <trkpt lat="46.11198" lon="6.7434">
        <ele>1109.6561</ele>
        <time>2014-08-31T09:57:46Z</time>
      </trkpt>
      <trkpt lat="46.11197" lon="6.74347">
        <ele>1105.3612</ele>
        <time>2014-08-31T09:57:51Z</time>
      </trkpt>
      <trkpt lat="46.11197" lon="6.74353">
        <ele>1105.3612</ele>
        <time>2014-08-31T09:57:56Z</time>
      </trkpt>
      <trkpt lat="46.11197" lon="6.7436">
        <ele>1105.3612</ele>
        <time>2014-08-31T09:58:01Z</time>
      </trkpt>
      <trkpt lat="46.11196" lon="6.74362">
        <ele>1101.1571</ele>
        <time>2014-08-31T09:58:06Z</time>
      </trkpt>
      <trkpt lat="46.11196" lon="6.74364">
        <ele>1101.1571</ele>
        <time>2014-08-31T09:58:11Z</time>
      </trkpt>
      <trkpt lat="46.11196" lon="6.74368">
        <ele>1101.1571</ele>
        <time>2014-08-31T09:58:16Z</time>
      </trkpt>
      <trkpt lat="46.11195" lon="6.7437">
        <ele>1101.1571</ele>
        <time>2014-08-31T09:58:21Z</time>
      </trkpt>
      <trkpt lat="46.1119" lon="6.74374">
        <ele>1097.0255</ele>
        <time>2014-08-31T09:58:26Z</time>
      </trkpt>
      <trkpt lat="46.11185" lon="6.7437">
        <ele>1097.0255</ele>
        <time>2014-08-31T09:58:31Z</time>
      </trkpt>
      <trkpt lat="46.11181" lon="6.74365">
        <ele>1093.1224</ele>
        <time>2014-08-31T09:58:36Z</time>
      </trkpt>
      <trkpt lat="46.11179" lon="6.74362">
        <ele>1093.1224</ele>
        <time>2014-08-31T09:58:41Z</time>
      </trkpt>
      <trkpt lat="46.11174" lon="6.74355">
        <ele>1089.4904</ele>
        <time>2014-08-31T09:58:46Z</time>
      </trkpt>
      <trkpt lat="46.1117" lon="6.74355">
        <ele>1089.4904</ele>
        <time>2014-08-31T09:58:51Z</time>
      </trkpt>
      <trkpt lat="46.11166" lon="6.74352">
        <ele>1089.4904</ele>
        <time>2014-08-31T09:58:56Z</time>
      </trkpt>
      <trkpt lat="46.11165" lon="6.74352">
        <ele>1085.9087</ele>
        <time>2014-08-31T09:59:01Z</time>
      </trkpt>
      <trkpt lat="46.11163" lon="6.74347">
        <ele>1085.9087</ele>
        <time>2014-08-31T09:59:06Z</time>
      </trkpt>
      <trkpt lat="46.11161" lon="6.74342">
        <ele>1085.9087</ele>
        <time>2014-08-31T09:59:11Z</time>
      </trkpt>
      <trkpt lat="46.1116" lon="6.7434">
        <ele>1082.9218</ele>
        <time>2014-08-31T09:59:16Z</time>
      </trkpt>
      <trkpt lat="46.1116" lon="6.7434">
        <ele>1082.9218</ele>
        <time>2014-08-31T09:59:21Z</time>
      </trkpt>
      <trkpt lat="46.11159" lon="6.74333">
        <ele>1082.9218</ele>
        <time>2014-08-31T09:59:26Z</time>
      </trkpt>
      <trkpt lat="46.11159" lon="6.74331">
        <ele>1082.9218</ele>
        <time>2014-08-31T09:59:31Z</time>
      </trkpt>
      <trkpt lat="46.11157" lon="6.74329">
        <ele>1082.9218</ele>
        <time>2014-08-31T09:59:36Z</time>
      </trkpt>
      <trkpt lat="46.11155" lon="6.74325">
        <ele>1080.283</ele>
        <time>2014-08-31T09:59:41Z</time>
      </trkpt>
      <trkpt lat="46.11155" lon="6.74319">
        <ele>1080.283</ele>
        <time>2014-08-31T09:59:46Z</time>
      </trkpt>
      <trkpt lat="46.11155" lon="6.74317">
        <ele>1080.283</ele>
        <time>2014-08-31T09:59:51Z</time>
      </trkpt>
      <trkpt lat="46.11153" lon="6.74304">
        <ele>1077.8634</ele>
        <time>2014-08-31T09:59:56Z</time>
      </trkpt>
      <trkpt lat="46.11153" lon="6.74304">
        <ele>1077.8634</ele>
        <time>2014-08-31T10:00:01Z</time>
      </trkpt>
      <trkpt lat="46.11151" lon="6.74302">
        <ele>1077.8634</ele>
        <time>2014-08-31T10:00:06Z</time>
      </trkpt>
      <trkpt lat="46.11151" lon="6.7429">
        <ele>1075.5286</ele>
        <time>2014-08-31T10:00:11Z</time>
      </trkpt>
      <trkpt lat="46.11147" lon="6.7428">
        <ele>1075.5286</ele>
        <time>2014-08-31T10:00:16Z</time>
      </trkpt>
      <trkpt lat="46.11147" lon="6.74277">
        <ele>1073.269</ele>
        <time>2014-08-31T10:00:21Z</time>
      </trkpt>
      <trkpt lat="46.11145" lon="6.74274">
        <ele>1073.269</ele>
        <time>2014-08-31T10:00:26Z</time>
      </trkpt>
      <trkpt lat="46.11142" lon="6.74267">
        <ele>1073.269</ele>
        <time>2014-08-31T10:00:31Z</time>
      </trkpt>
      <trkpt lat="46.11138" lon="6.74253">
        <ele>1070.9313</ele>
        <time>2014-08-31T10:00:36Z</time>
      </trkpt>
      <trkpt lat="46.11138" lon="6.74253">
        <ele>1070.9313</ele>
        <time>2014-08-31T10:00:41Z</time>
      </trkpt>
      <trkpt lat="46.11138" lon="6.74253">
        <ele>1070.9313</ele>
        <time>2014-08-31T10:00:46Z</time>
      </trkpt>
      <trkpt lat="46.11138" lon="6.74253">
        <ele>1070.9313</ele>
        <time>2014-08-31T10:00:51Z</time>
      </trkpt>
      <trkpt lat="46.11138" lon="6.74253">
        <ele>1070.9313</ele>
        <time>2014-08-31T10:00:56Z</time>
      </trkpt>
      <trkpt lat="46.11137" lon="6.74251">
        <ele>1070.9313</ele>
        <time>2014-08-31T10:01:06Z</time>
      </trkpt>
      <trkpt lat="46.11136" lon="6.74249">
        <ele>1070.9313</ele>
        <time>2014-08-31T10:01:11Z</time>
      </trkpt>
      <trkpt lat="46.11136" lon="6.74249">
        <ele>1070.9313</ele>
        <time>2014-08-31T10:01:16Z</time>
      </trkpt>
      <trkpt lat="46.11132" lon="6.74245">
        <ele>1070.9313</ele>
        <time>2014-08-31T10:04:16Z</time>
      </trkpt>
      <trkpt lat="46.11132" lon="6.74245">
        <ele>1070.9313</ele>
        <time>2014-08-31T10:04:21Z</time>
      </trkpt>
      <trkpt lat="46.11132" lon="6.74245">
        <ele>1070.9313</ele>
        <time>2014-08-31T10:04:26Z</time>
      </trkpt>
      <trkpt lat="46.11132" lon="6.74245">
        <ele>1070.9313</ele>
        <time>2014-08-31T10:04:41Z</time>
      </trkpt>
      <trkpt lat="46.11132" lon="6.74245">
        <ele>1070.9313</ele>
        <time>2014-08-31T10:04:46Z</time>
      </trkpt>
      <trkpt lat="46.11132" lon="6.74245">
        <ele>1070.9313</ele>
        <time>2014-08-31T10:05:06Z</time>
      </trkpt>
      <trkpt lat="46.11132" lon="6.74245">
        <ele>1070.9313</ele>
        <time>2014-08-31T10:05:11Z</time>
      </trkpt>
      <trkpt lat="46.11131" lon="6.74244">
        <ele>1068.2004</ele>
        <time>2014-08-31T10:06:31Z</time>
      </trkpt>
      <trkpt lat="46.11127" lon="6.7424">
        <ele>1068.2004</ele>
        <time>2014-08-31T10:06:36Z</time>
      </trkpt>
      <trkpt lat="46.11117" lon="6.7423">
        <ele>1065.3766</ele>
        <time>2014-08-31T10:06:41Z</time>
      </trkpt>
      <trkpt lat="46.11116" lon="6.74229">
        <ele>1065.3766</ele>
        <time>2014-08-31T10:06:46Z</time>
      </trkpt>
      <trkpt lat="46.11112" lon="6.74225">
        <ele>1065.3766</ele>
        <time>2014-08-31T10:06:51Z</time>
      </trkpt>
      <trkpt lat="46.11102" lon="6.74215">
        <ele>1062.6086</ele>
        <time>2014-08-31T10:06:56Z</time>
      </trkpt>
      <trkpt lat="46.11096" lon="6.74213">
        <ele>1062.6086</ele>
        <time>2014-08-31T10:07:01Z</time>
      </trkpt>
      <trkpt lat="46.11092" lon="6.74213">
        <ele>1060.2213</ele>
        <time>2014-08-31T10:07:06Z</time>
      </trkpt>
      <trkpt lat="46.11089" lon="6.74213">
        <ele>1060.2213</ele>
        <time>2014-08-31T10:07:11Z</time>
      </trkpt>
      <trkpt lat="46.11088" lon="6.74212">
        <ele>1060.2213</ele>
        <time>2014-08-31T10:07:16Z</time>
      </trkpt>
      <trkpt lat="46.11083" lon="6.7421">
        <ele>1058.0679</ele>
        <time>2014-08-31T10:07:21Z</time>
      </trkpt>
      <trkpt lat="46.11073" lon="6.74207">
        <ele>1056.2854</ele>
        <time>2014-08-31T10:07:26Z</time>
      </trkpt>
      <trkpt lat="46.11064" lon="6.7421">
        <ele>1054.7549</ele>
        <time>2014-08-31T10:07:31Z</time>
      </trkpt>
      <trkpt lat="46.11064" lon="6.7421">
        <ele>1054.7549</ele>
        <time>2014-08-31T10:07:36Z</time>
      </trkpt>
      <trkpt lat="46.11061" lon="6.74211">
        <ele>1054.7549</ele>
        <time>2014-08-31T10:07:41Z</time>
      </trkpt>
      <trkpt lat="46.11057" lon="6.74213">
        <ele>1054.7549</ele>
        <time>2014-08-31T10:07:46Z</time>
      </trkpt>
      <trkpt lat="46.11049" lon="6.74216">
        <ele>1052.8899</ele>
        <time>2014-08-31T10:07:51Z</time>
      </trkpt>
      <trkpt lat="46.11046" lon="6.74217">
        <ele>1052.8899</ele>
        <time>2014-08-31T10:07:56Z</time>
      </trkpt>
      <trkpt lat="46.11041" lon="6.7422">
        <ele>1052.8899</ele>
        <time>2014-08-31T10:08:01Z</time>
      </trkpt>
      <trkpt lat="46.11039" lon="6.74226">
        <ele>1050.7245</ele>
        <time>2014-08-31T10:08:06Z</time>
      </trkpt>
      <trkpt lat="46.11034" lon="6.74233">
        <ele>1050.7245</ele>
        <time>2014-08-31T10:08:11Z</time>
      </trkpt>
      <trkpt lat="46.11028" lon="6.7424">
        <ele>1048.5648</ele>
        <time>2014-08-31T10:08:16Z</time>
      </trkpt>
      <trkpt lat="46.11024" lon="6.74247">
        <ele>1048.5648</ele>
        <time>2014-08-31T10:08:21Z</time>
      </trkpt>
      <trkpt lat="46.11022" lon="6.74251">
        <ele>1046.1615</ele>
        <time>2014-08-31T10:08:26Z</time>
      </trkpt>
      <trkpt lat="46.11019" lon="6.7426">
        <ele>1046.1615</ele>
        <time>2014-08-31T10:08:31Z</time>
      </trkpt>
      <trkpt lat="46.11019" lon="6.74261">
        <ele>1046.1615</ele>
        <time>2014-08-31T10:08:36Z</time>
      </trkpt>
      <trkpt lat="46.11017" lon="6.74264">
        <ele>1043.7166</ele>
        <time>2014-08-31T10:08:41Z</time>
      </trkpt>
      <trkpt lat="46.11014" lon="6.74271">
        <ele>1043.7166</ele>
        <time>2014-08-31T10:08:46Z</time>
      </trkpt>
      <trkpt lat="46.1101" lon="6.74278">
        <ele>1041.4606</ele>
        <time>2014-08-31T10:08:51Z</time>
      </trkpt>
      <trkpt lat="46.11001" lon="6.74287">
        <ele>1039.4192</ele>
        <time>2014-08-31T10:08:56Z</time>
      </trkpt>
      <trkpt lat="46.10996" lon="6.74291">
        <ele>1039.4192</ele>
        <time>2014-08-31T10:09:01Z</time>
      </trkpt>
      <trkpt lat="46.10992" lon="6.74297">
        <ele>1037.5294</ele>
        <time>2014-08-31T10:09:06Z</time>
      </trkpt>
      <trkpt lat="46.10985" lon="6.74303">
        <ele>1037.5294</ele>
        <time>2014-08-31T10:09:11Z</time>
      </trkpt>
      <trkpt lat="46.1098" lon="6.7431">
        <ele>1035.8191</ele>
        <time>2014-08-31T10:09:16Z</time>
      </trkpt>
      <trkpt lat="46.10975" lon="6.74312">
        <ele>1035.8191</ele>
        <time>2014-08-31T10:09:21Z</time>
      </trkpt>
      <trkpt lat="46.10969" lon="6.74316">
        <ele>1034.1692</ele>
        <time>2014-08-31T10:09:26Z</time>
      </trkpt>
      <trkpt lat="46.10966" lon="6.74319">
        <ele>1034.1692</ele>
        <time>2014-08-31T10:09:31Z</time>
      </trkpt>
      <trkpt lat="46.10961" lon="6.7432">
        <ele>1032.6136</ele>
        <time>2014-08-31T10:09:36Z</time>
      </trkpt>
      <trkpt lat="46.10957" lon="6.74322">
        <ele>1032.6136</ele>
        <time>2014-08-31T10:09:41Z</time>
      </trkpt>
      <trkpt lat="46.1095" lon="6.74327">
        <ele>1030.982</ele>
        <time>2014-08-31T10:09:46Z</time>
      </trkpt>
      <trkpt lat="46.10946" lon="6.7433">
        <ele>1030.982</ele>
        <time>2014-08-31T10:09:51Z</time>
      </trkpt>
      <trkpt lat="46.10939" lon="6.74334">
        <ele>1029.16</ele>
        <time>2014-08-31T10:09:56Z</time>
      </trkpt>
      <trkpt lat="46.10934" lon="6.74338">
        <ele>1029.16</ele>
        <time>2014-08-31T10:10:01Z</time>
      </trkpt>
      <trkpt lat="46.10929" lon="6.74344">
        <ele>1027.1575</ele>
        <time>2014-08-31T10:10:06Z</time>
      </trkpt>
      <trkpt lat="46.10925" lon="6.74347">
        <ele>1027.1575</ele>
        <time>2014-08-31T10:10:11Z</time>
      </trkpt>
      <trkpt lat="46.1092" lon="6.74349">
        <ele>1025.4021</ele>
        <time>2014-08-31T10:10:16Z</time>
      </trkpt>
      <trkpt lat="46.10913" lon="6.74352">
        <ele>1025.4021</ele>
        <time>2014-08-31T10:10:21Z</time>
      </trkpt>
      <trkpt lat="46.10908" lon="6.74353">
        <ele>1023.6556</ele>
        <time>2014-08-31T10:10:26Z</time>
      </trkpt>
      <trkpt lat="46.10905" lon="6.74355">
        <ele>1023.6556</ele>
        <time>2014-08-31T10:10:31Z</time>
      </trkpt>
      <trkpt lat="46.10903" lon="6.74353">
        <ele>1023.6556</ele>
        <time>2014-08-31T10:10:36Z</time>
      </trkpt>
      <trkpt lat="46.10897" lon="6.74358">
        <ele>1021.9568</ele>
        <time>2014-08-31T10:10:41Z</time>
      </trkpt>
      <trkpt lat="46.10892" lon="6.74358">
        <ele>1021.9568</ele>
        <time>2014-08-31T10:10:46Z</time>
      </trkpt>
      <trkpt lat="46.10885" lon="6.74361">
        <ele>1020.55756</ele>
        <time>2014-08-31T10:10:51Z</time>
      </trkpt>
      <trkpt lat="46.10879" lon="6.74365">
        <ele>1020.55756</ele>
        <time>2014-08-31T10:10:56Z</time>
      </trkpt>
      <trkpt lat="46.10875" lon="6.74367">
        <ele>1019.54663</ele>
        <time>2014-08-31T10:11:01Z</time>
      </trkpt>
      <trkpt lat="46.10873" lon="6.74367">
        <ele>1019.54663</ele>
        <time>2014-08-31T10:11:06Z</time>
      </trkpt>
      <trkpt lat="46.10871" lon="6.74369">
        <ele>1019.54663</ele>
        <time>2014-08-31T10:11:11Z</time>
      </trkpt>
      <trkpt lat="46.10862" lon="6.74372">
        <ele>1018.472</ele>
        <time>2014-08-31T10:11:16Z</time>
      </trkpt>
      <trkpt lat="46.10854" lon="6.74376">
        <ele>1018.472</ele>
        <time>2014-08-31T10:11:21Z</time>
      </trkpt>
      <trkpt lat="46.10848" lon="6.74379">
        <ele>1017.5493</ele>
        <time>2014-08-31T10:11:26Z</time>
      </trkpt>
      <trkpt lat="46.10839" lon="6.74385">
        <ele>1016.8916</ele>
        <time>2014-08-31T10:11:31Z</time>
      </trkpt>
      <trkpt lat="46.10833" lon="6.74389">
        <ele>1016.8916</ele>
        <time>2014-08-31T10:11:36Z</time>
      </trkpt>
      <trkpt lat="46.10828" lon="6.74393">
        <ele>1016.3724</ele>
        <time>2014-08-31T10:11:41Z</time>
      </trkpt>
      <trkpt lat="46.10825" lon="6.74398">
        <ele>1016.3724</ele>
        <time>2014-08-31T10:11:46Z</time>
      </trkpt>
      <trkpt lat="46.10823" lon="6.74407">
        <ele>1015.8887</ele>
        <time>2014-08-31T10:11:51Z</time>
      </trkpt>
      <trkpt lat="46.1082" lon="6.74414">
        <ele>1015.8887</ele>
        <time>2014-08-31T10:11:56Z</time>
      </trkpt>
      <trkpt lat="46.1082" lon="6.7442">
        <ele>1015.2587</ele>
        <time>2014-08-31T10:12:01Z</time>
      </trkpt>
      <trkpt lat="46.10821" lon="6.74421">
        <ele>1015.2587</ele>
        <time>2014-08-31T10:12:06Z</time>
      </trkpt>
      <trkpt lat="46.10822" lon="6.74427">
        <ele>1015.2587</ele>
        <time>2014-08-31T10:12:11Z</time>
      </trkpt>
      <trkpt lat="46.10823" lon="6.74442">
        <ele>1014.3579</ele>
        <time>2014-08-31T10:12:16Z</time>
      </trkpt>
      <trkpt lat="46.10825" lon="6.74453">
        <ele>1014.3579</ele>
        <time>2014-08-31T10:12:21Z</time>
      </trkpt>
      <trkpt lat="46.10819" lon="6.7447">
        <ele>1013.63367</ele>
        <time>2014-08-31T10:12:26Z</time>
      </trkpt>
      <trkpt lat="46.10816" lon="6.74475">
        <ele>1013.63367</ele>
        <time>2014-08-31T10:12:31Z</time>
      </trkpt>
      <trkpt lat="46.1081" lon="6.74478">
        <ele>1013.0392</ele>
        <time>2014-08-31T10:12:36Z</time>
      </trkpt>
      <trkpt lat="46.10805" lon="6.74482">
        <ele>1013.0392</ele>
        <time>2014-08-31T10:12:41Z</time>
      </trkpt>
      <trkpt lat="46.10804" lon="6.74482">
        <ele>1013.0392</ele>
        <time>2014-08-31T10:12:46Z</time>
      </trkpt>
      <trkpt lat="46.10801" lon="6.74481">
        <ele>1012.70374</ele>
        <time>2014-08-31T10:12:51Z</time>
      </trkpt>
      <trkpt lat="46.10792" lon="6.74479">
        <ele>1012.47284</ele>
        <time>2014-08-31T10:12:56Z</time>
      </trkpt>
      <trkpt lat="46.10788" lon="6.74478">
        <ele>1012.47284</ele>
        <time>2014-08-31T10:13:01Z</time>
      </trkpt>
      <trkpt lat="46.10787" lon="6.74477">
        <ele>1012.47284</ele>
        <time>2014-08-31T10:13:06Z</time>
      </trkpt>
      <trkpt lat="46.10785" lon="6.74476">
        <ele>1012.47284</ele>
        <time>2014-08-31T10:13:11Z</time>
      </trkpt>
      <trkpt lat="46.10775" lon="6.74472">
        <ele>1011.7565</ele>
        <time>2014-08-31T10:13:16Z</time>
      </trkpt>
      <trkpt lat="46.10767" lon="6.74471">
        <ele>1011.7565</ele>
        <time>2014-08-31T10:13:21Z</time>
      </trkpt>
      <trkpt lat="46.10758" lon="6.7447">
        <ele>1011.03265</ele>
        <time>2014-08-31T10:13:26Z</time>
      </trkpt>
      <trkpt lat="46.10753" lon="6.74472">
        <ele>1011.03265</ele>
        <time>2014-08-31T10:13:31Z</time>
      </trkpt>
      <trkpt lat="46.10749" lon="6.74474">
        <ele>1010.0672</ele>
        <time>2014-08-31T10:13:36Z</time>
      </trkpt>
      <trkpt lat="46.10747" lon="6.74477">
        <ele>1010.0672</ele>
        <time>2014-08-31T10:13:41Z</time>
      </trkpt>
      <trkpt lat="46.10744" lon="6.74479">
        <ele>1010.0672</ele>
        <time>2014-08-31T10:13:46Z</time>
      </trkpt>
      <trkpt lat="46.10734" lon="6.7448">
        <ele>1009.0908</ele>
        <time>2014-08-31T10:13:51Z</time>
      </trkpt>
      <trkpt lat="46.10731" lon="6.7448">
        <ele>1009.0908</ele>
        <time>2014-08-31T10:13:56Z</time>
      </trkpt>
      <trkpt lat="46.10725" lon="6.7448">
        <ele>1009.0908</ele>
        <time>2014-08-31T10:14:01Z</time>
      </trkpt>
      <trkpt lat="46.1072" lon="6.74482">
        <ele>1008.6776</ele>
        <time>2014-08-31T10:14:06Z</time>
      </trkpt>
      <trkpt lat="46.1072" lon="6.74482">
        <ele>1008.6776</ele>
        <time>2014-08-31T10:14:11Z</time>
      </trkpt>
      <trkpt lat="46.1072" lon="6.74482">
        <ele>1008.6776</ele>
        <time>2014-08-31T10:14:31Z</time>
      </trkpt>
      <trkpt lat="46.1072" lon="6.74482">
        <ele>1008.6776</ele>
        <time>2014-08-31T10:14:36Z</time>
      </trkpt>
      <trkpt lat="46.10719" lon="6.74481">
        <ele>1008.6776</ele>
        <time>2014-08-31T10:14:41Z</time>
      </trkpt>
      <trkpt lat="46.10719" lon="6.74481">
        <ele>1008.6776</ele>
        <time>2014-08-31T10:14:46Z</time>
      </trkpt>
      <trkpt lat="46.10719" lon="6.7448">
        <ele>1008.6776</ele>
        <time>2014-08-31T10:15:16Z</time>
      </trkpt>
      <trkpt lat="46.10719" lon="6.7448">
        <ele>1008.6776</ele>
        <time>2014-08-31T10:15:21Z</time>
      </trkpt>
      <trkpt lat="46.1072" lon="6.7448">
        <ele>1008.6776</ele>
        <time>2014-08-31T10:16:11Z</time>
      </trkpt>
      <trkpt lat="46.1072" lon="6.7448">
        <ele>1008.6776</ele>
        <time>2014-08-31T10:16:16Z</time>
      </trkpt>
      <trkpt lat="46.1072" lon="6.74475">
        <ele>1008.6776</ele>
        <time>2014-08-31T10:16:36Z</time>
      </trkpt>
      <trkpt lat="46.1072" lon="6.74475">
        <ele>1008.6776</ele>
        <time>2014-08-31T10:16:41Z</time>
      </trkpt>
      <trkpt lat="46.10716" lon="6.74472">
        <ele>1008.81055</ele>
        <time>2014-08-31T10:16:56Z</time>
      </trkpt>
      <trkpt lat="46.10716" lon="6.74472">
        <ele>1008.81055</ele>
        <time>2014-08-31T10:17:01Z</time>
      </trkpt>
      <trkpt lat="46.10716" lon="6.74455">
        <ele>1009.1844</ele>
        <time>2014-08-31T10:17:06Z</time>
      </trkpt>
      <trkpt lat="46.1072" lon="6.74444">
        <ele>1009.1844</ele>
        <time>2014-08-31T10:17:11Z</time>
      </trkpt>
      <trkpt lat="46.10721" lon="6.74433">
        <ele>1009.41473</ele>
        <time>2014-08-31T10:17:16Z</time>
      </trkpt>
      <trkpt lat="46.10721" lon="6.7443">
        <ele>1009.41473</ele>
        <time>2014-08-31T10:17:21Z</time>
      </trkpt>
      <trkpt lat="46.10721" lon="6.7443">
        <ele>1009.41473</ele>
        <time>2014-08-31T10:17:26Z</time>
      </trkpt>
      <trkpt lat="46.1072" lon="6.74431">
        <ele>1009.41473</ele>
        <time>2014-08-31T10:17:31Z</time>
      </trkpt>
      <trkpt lat="46.10719" lon="6.74429">
        <ele>1009.41473</ele>
        <time>2014-08-31T10:17:36Z</time>
      </trkpt>
      <trkpt lat="46.10718" lon="6.74429">
        <ele>1009.41473</ele>
        <time>2014-08-31T10:17:41Z</time>
      </trkpt>
      <trkpt lat="46.10718" lon="6.74429">
        <ele>1009.41473</ele>
        <time>2014-08-31T10:17:46Z</time>
      </trkpt>
      <trkpt lat="46.10717" lon="6.7443">
        <ele>1009.41473</ele>
        <time>2014-08-31T10:17:51Z</time>
      </trkpt>
      <trkpt lat="46.10716" lon="6.7443">
        <ele>1009.41473</ele>
        <time>2014-08-31T10:17:56Z</time>
      </trkpt>
      <trkpt lat="46.10716" lon="6.74429">
        <ele>1009.002</ele>
        <time>2014-08-31T10:18:01Z</time>
      </trkpt>
      <trkpt lat="46.10712" lon="6.74428">
        <ele>1009.002</ele>
        <time>2014-08-31T10:18:06Z</time>
      </trkpt>
      <trkpt lat="46.10711" lon="6.74428">
        <ele>1009.002</ele>
        <time>2014-08-31T10:18:11Z</time>
      </trkpt>
      <trkpt lat="46.1071" lon="6.74428">
        <ele>1009.002</ele>
        <time>2014-08-31T10:18:21Z</time>
      </trkpt>
      <trkpt lat="46.1071" lon="6.74428">
        <ele>1009.002</ele>
        <time>2014-08-31T10:18:26Z</time>
      </trkpt>
      <trkpt lat="46.10707" lon="6.74417">
        <ele>1007.8601</ele>
        <time>2014-08-31T10:18:31Z</time>
      </trkpt>
      <trkpt lat="46.10707" lon="6.74416">
        <ele>1007.8601</ele>
        <time>2014-08-31T10:18:36Z</time>
      </trkpt>
      <trkpt lat="46.10707" lon="6.74416">
        <ele>1007.8601</ele>
        <time>2014-08-31T10:18:41Z</time>
      </trkpt>
      <trkpt lat="46.10706" lon="6.74412">
        <ele>1007.8601</ele>
        <time>2014-08-31T10:18:46Z</time>
      </trkpt>
      <trkpt lat="46.10705" lon="6.74412">
        <ele>1007.8601</ele>
        <time>2014-08-31T10:18:51Z</time>
      </trkpt>
      <trkpt lat="46.10705" lon="6.74412">
        <ele>1007.8601</ele>
        <time>2014-08-31T10:18:56Z</time>
      </trkpt>
      <trkpt lat="46.107" lon="6.74411">
        <ele>1006.6751</ele>
        <time>2014-08-31T10:19:01Z</time>
      </trkpt>
      <trkpt lat="46.107" lon="6.74411">
        <ele>1006.6751</ele>
        <time>2014-08-31T10:19:06Z</time>
      </trkpt>
      <trkpt lat="46.10699" lon="6.74411">
        <ele>1006.6751</ele>
        <time>2014-08-31T10:19:11Z</time>
      </trkpt>
      <trkpt lat="46.10699" lon="6.74411">
        <ele>1006.6751</ele>
        <time>2014-08-31T10:19:16Z</time>
      </trkpt>
      <trkpt lat="46.10692" lon="6.74411">
        <ele>1006.6751</ele>
        <time>2014-08-31T10:19:26Z</time>
      </trkpt>
      <trkpt lat="46.1068" lon="6.74408">
        <ele>1006.1551</ele>
        <time>2014-08-31T10:19:31Z</time>
      </trkpt>
      <trkpt lat="46.10675" lon="6.74406">
        <ele>1006.1551</ele>
        <time>2014-08-31T10:19:36Z</time>
      </trkpt>
      <trkpt lat="46.10667" lon="6.74403">
        <ele>1005.77277</ele>
        <time>2014-08-31T10:19:41Z</time>
      </trkpt>
      <trkpt lat="46.10657" lon="6.744">
        <ele>1005.486</ele>
        <time>2014-08-31T10:19:46Z</time>
      </trkpt>
      <trkpt lat="46.1065" lon="6.74394">
        <ele>1005.486</ele>
        <time>2014-08-31T10:19:51Z</time>
      </trkpt>
      <trkpt lat="46.10648" lon="6.74392">
        <ele>1005.2558</ele>
        <time>2014-08-31T10:19:56Z</time>
      </trkpt>
      <trkpt lat="46.10644" lon="6.74388">
        <ele>1005.2558</ele>
        <time>2014-08-31T10:20:01Z</time>
      </trkpt>
      <trkpt lat="46.1064" lon="6.74388">
        <ele>1005.2558</ele>
        <time>2014-08-31T10:20:06Z</time>
      </trkpt>
      <trkpt lat="46.10639" lon="6.74388">
        <ele>1005.1756</ele>
        <time>2014-08-31T10:20:11Z</time>
      </trkpt>
      <trkpt lat="46.10635" lon="6.74384">
        <ele>1005.1756</ele>
        <time>2014-08-31T10:20:16Z</time>
      </trkpt>
      <trkpt lat="46.10622" lon="6.74382">
        <ele>1005.21643</ele>
        <time>2014-08-31T10:20:21Z</time>
      </trkpt>
      <trkpt lat="46.10612" lon="6.74382">
        <ele>1005.337</ele>
        <time>2014-08-31T10:20:26Z</time>
      </trkpt>
      <trkpt lat="46.10608" lon="6.74382">
        <ele>1005.337</ele>
        <time>2014-08-31T10:20:31Z</time>
      </trkpt>
      <trkpt lat="46.10606" lon="6.74383">
        <ele>1005.337</ele>
        <time>2014-08-31T10:20:36Z</time>
      </trkpt>
      <trkpt lat="46.10598" lon="6.74386">
        <ele>1005.2105</ele>
        <time>2014-08-31T10:20:41Z</time>
      </trkpt>
      <trkpt lat="46.10593" lon="6.74387">
        <ele>1005.2105</ele>
        <time>2014-08-31T10:20:46Z</time>
      </trkpt>
      <trkpt lat="46.1059" lon="6.74387">
        <ele>1005.2105</ele>
        <time>2014-08-31T10:20:51Z</time>
      </trkpt>
      <trkpt lat="46.10588" lon="6.74383">
        <ele>1004.6505</ele>
        <time>2014-08-31T10:20:56Z</time>
      </trkpt>
      <trkpt lat="46.10588" lon="6.74383">
        <ele>1004.6505</ele>
        <time>2014-08-31T10:21:01Z</time>
      </trkpt>
      <trkpt lat="46.10587" lon="6.74382">
        <ele>1004.6505</ele>
        <time>2014-08-31T10:21:06Z</time>
      </trkpt>
      <trkpt lat="46.10584" lon="6.7438">
        <ele>1004.6505</ele>
        <time>2014-08-31T10:21:11Z</time>
      </trkpt>
      <trkpt lat="46.10581" lon="6.74379">
        <ele>1004.6505</ele>
        <time>2014-08-31T10:21:16Z</time>
      </trkpt>
      <trkpt lat="46.10576" lon="6.74379">
        <ele>1003.31256</ele>
        <time>2014-08-31T10:21:21Z</time>
      </trkpt>
      <trkpt lat="46.10573" lon="6.7438">
        <ele>1003.31256</ele>
        <time>2014-08-31T10:21:26Z</time>
      </trkpt>
      <trkpt lat="46.10568" lon="6.74381">
        <ele>1003.31256</ele>
        <time>2014-08-31T10:21:31Z</time>
      </trkpt>
      <trkpt lat="46.10563" lon="6.74376">
        <ele>1001.9752</ele>
        <time>2014-08-31T10:21:36Z</time>
      </trkpt>
      <trkpt lat="46.10562" lon="6.74376">
        <ele>1001.9752</ele>
        <time>2014-08-31T10:21:41Z</time>
      </trkpt>
      <trkpt lat="46.10555" lon="6.74372">
        <ele>1000.6393</ele>
        <time>2014-08-31T10:21:46Z</time>
      </trkpt>
      <trkpt lat="46.10553" lon="6.74372">
        <ele>1000.6393</ele>
        <time>2014-08-31T10:21:51Z</time>
      </trkpt>
      <trkpt lat="46.10551" lon="6.74373">
        <ele>1000.6393</ele>
        <time>2014-08-31T10:21:56Z</time>
      </trkpt>
      <trkpt lat="46.10551" lon="6.74373">
        <ele>1000.6393</ele>
        <time>2014-08-31T10:22:01Z</time>
      </trkpt>
      <trkpt lat="46.10543" lon="6.74382">
        <ele>998.9454</ele>
        <time>2014-08-31T10:22:06Z</time>
      </trkpt>
      <trkpt lat="46.10543" lon="6.74382">
        <ele>998.9454</ele>
        <time>2014-08-31T10:22:11Z</time>
      </trkpt>
      <trkpt lat="46.10541" lon="6.74381">
        <ele>998.9454</ele>
        <time>2014-08-31T10:22:21Z</time>
      </trkpt>
      <trkpt lat="46.10539" lon="6.74382">
        <ele>998.9454</ele>
        <time>2014-08-31T10:22:26Z</time>
      </trkpt>
      <trkpt lat="46.10527" lon="6.74388">
        <ele>997.10925</ele>
        <time>2014-08-31T10:22:31Z</time>
      </trkpt>
      <trkpt lat="46.10515" lon="6.74388">
        <ele>995.389</ele>
        <time>2014-08-31T10:22:36Z</time>
      </trkpt>
      <trkpt lat="46.10515" lon="6.74388">
        <ele>995.389</ele>
        <time>2014-08-31T10:22:41Z</time>
      </trkpt>
      <trkpt lat="46.1051" lon="6.74391">
        <ele>995.389</ele>
        <time>2014-08-31T10:22:46Z</time>
      </trkpt>
      <trkpt lat="46.10502" lon="6.74395">
        <ele>993.6199</ele>
        <time>2014-08-31T10:22:51Z</time>
      </trkpt>
      <trkpt lat="46.10499" lon="6.74395">
        <ele>993.6199</ele>
        <time>2014-08-31T10:22:56Z</time>
      </trkpt>
      <trkpt lat="46.10493" lon="6.74394">
        <ele>991.92334</ele>
        <time>2014-08-31T10:23:01Z</time>
      </trkpt>
      <trkpt lat="46.1049" lon="6.74395">
        <ele>991.92334</ele>
        <time>2014-08-31T10:23:06Z</time>
      </trkpt>
      <trkpt lat="46.10483" lon="6.74396">
        <ele>989.9074</ele>
        <time>2014-08-31T10:23:11Z</time>
      </trkpt>
      <trkpt lat="46.10467" lon="6.74398">
        <ele>987.82947</ele>
        <time>2014-08-31T10:23:16Z</time>
      </trkpt>
      <trkpt lat="46.10463" lon="6.74396">
        <ele>987.82947</ele>
        <time>2014-08-31T10:23:21Z</time>
      </trkpt>
      <trkpt lat="46.10458" lon="6.74394">
        <ele>985.6255</ele>
        <time>2014-08-31T10:23:26Z</time>
      </trkpt>
      <trkpt lat="46.10455" lon="6.74392">
        <ele>985.6255</ele>
        <time>2014-08-31T10:23:31Z</time>
      </trkpt>
      <trkpt lat="46.10451" lon="6.74387">
        <ele>985.6255</ele>
        <time>2014-08-31T10:23:36Z</time>
      </trkpt>
      <trkpt lat="46.10451" lon="6.74387">
        <ele>985.6255</ele>
        <time>2014-08-31T10:23:41Z</time>
      </trkpt>
      <trkpt lat="46.10442" lon="6.74389">
        <ele>983.107</ele>
        <time>2014-08-31T10:23:46Z</time>
      </trkpt>
      <trkpt lat="46.10435" lon="6.74389">
        <ele>983.107</ele>
        <time>2014-08-31T10:23:51Z</time>
      </trkpt>
      <trkpt lat="46.10433" lon="6.74388">
        <ele>983.107</ele>
        <time>2014-08-31T10:23:56Z</time>
      </trkpt>
      <trkpt lat="46.10428" lon="6.74385">
        <ele>980.63324</ele>
        <time>2014-08-31T10:24:01Z</time>
      </trkpt>
      <trkpt lat="46.10423" lon="6.74383">
        <ele>980.63324</ele>
        <time>2014-08-31T10:24:06Z</time>
      </trkpt>
      <trkpt lat="46.10413" lon="6.74384">
        <ele>978.1912</ele>
        <time>2014-08-31T10:24:11Z</time>
      </trkpt>
      <trkpt lat="46.10406" lon="6.74383">
        <ele>978.1912</ele>
        <time>2014-08-31T10:24:16Z</time>
      </trkpt>
      <trkpt lat="46.10406" lon="6.74383">
        <ele>978.1912</ele>
        <time>2014-08-31T10:24:21Z</time>
      </trkpt>
      <trkpt lat="46.10405" lon="6.74382">
        <ele>978.1912</ele>
        <time>2014-08-31T10:24:26Z</time>
      </trkpt>
      <trkpt lat="46.10403" lon="6.74381">
        <ele>975.73987</ele>
        <time>2014-08-31T10:24:31Z</time>
      </trkpt>
      <trkpt lat="46.10402" lon="6.7438">
        <ele>975.73987</ele>
        <time>2014-08-31T10:24:36Z</time>
      </trkpt>
      <trkpt lat="46.10399" lon="6.74379">
        <ele>975.73987</ele>
        <time>2014-08-31T10:24:41Z</time>
      </trkpt>
      <trkpt lat="46.10393" lon="6.74376">
        <ele>973.3565</ele>
        <time>2014-08-31T10:24:46Z</time>
      </trkpt>
      <trkpt lat="46.1039" lon="6.74374">
        <ele>973.3565</ele>
        <time>2014-08-31T10:24:51Z</time>
      </trkpt>
      <trkpt lat="46.10387" lon="6.7437">
        <ele>973.3565</ele>
        <time>2014-08-31T10:24:56Z</time>
      </trkpt>
      <trkpt lat="46.10387" lon="6.74361">
        <ele>970.8387</ele>
        <time>2014-08-31T10:25:01Z</time>
      </trkpt>
      <trkpt lat="46.10383" lon="6.74352">
        <ele>970.8387</ele>
        <time>2014-08-31T10:25:06Z</time>
      </trkpt>
      <trkpt lat="46.10381" lon="6.74347">
        <ele>968.1287</ele>
        <time>2014-08-31T10:25:11Z</time>
      </trkpt>
      <trkpt lat="46.10381" lon="6.7434">
        <ele>968.1287</ele>
        <time>2014-08-31T10:25:16Z</time>
      </trkpt>
      <trkpt lat="46.1038" lon="6.74337">
        <ele>968.1287</ele>
        <time>2014-08-31T10:25:21Z</time>
      </trkpt>
      <trkpt lat="46.10382" lon="6.74332">
        <ele>964.8713</ele>
        <time>2014-08-31T10:25:26Z</time>
      </trkpt>
      <trkpt lat="46.10383" lon="6.7433">
        <ele>964.8713</ele>
        <time>2014-08-31T10:25:31Z</time>
      </trkpt>
      <trkpt lat="46.10383" lon="6.7433">
        <ele>964.8713</ele>
        <time>2014-08-31T10:25:36Z</time>
      </trkpt>
      <trkpt lat="46.10384" lon="6.74328">
        <ele>964.8713</ele>
        <time>2014-08-31T10:25:51Z</time>
      </trkpt>
      <trkpt lat="46.10385" lon="6.74327">
        <ele>964.8713</ele>
        <time>2014-08-31T10:25:56Z</time>
      </trkpt>
      <trkpt lat="46.10385" lon="6.74325">
        <ele>964.8713</ele>
        <time>2014-08-31T10:26:01Z</time>
      </trkpt>
      <trkpt lat="46.10385" lon="6.74325">
        <ele>964.8713</ele>
        <time>2014-08-31T10:26:06Z</time>
      </trkpt>
      <trkpt lat="46.10385" lon="6.74322">
        <ele>962.82635</ele>
        <time>2014-08-31T10:26:11Z</time>
      </trkpt>
      <trkpt lat="46.10386" lon="6.7432">
        <ele>960.7815</ele>
        <time>2014-08-31T10:26:16Z</time>
      </trkpt>
      <trkpt lat="46.10385" lon="6.74319">
        <ele>960.7815</ele>
        <time>2014-08-31T10:26:21Z</time>
      </trkpt>
      <trkpt lat="46.10384" lon="6.74319">
        <ele>960.7815</ele>
        <time>2014-08-31T10:26:26Z</time>
      </trkpt>
      <trkpt lat="46.10383" lon="6.74318">
        <ele>960.7815</ele>
        <time>2014-08-31T10:26:31Z</time>
      </trkpt>
      <trkpt lat="46.10382" lon="6.74318">
        <ele>960.7815</ele>
        <time>2014-08-31T10:26:36Z</time>
      </trkpt>
      <trkpt lat="46.10383" lon="6.74314">
        <ele>960.7815</ele>
        <time>2014-08-31T10:26:41Z</time>
      </trkpt>
      <trkpt lat="46.10383" lon="6.74314">
        <ele>960.7815</ele>
        <time>2014-08-31T10:26:46Z</time>
      </trkpt>
      <trkpt lat="46.10384" lon="6.74312">
        <ele>956.7652</ele>
        <time>2014-08-31T10:26:51Z</time>
      </trkpt>
      <trkpt lat="46.10383" lon="6.74311">
        <ele>956.7652</ele>
        <time>2014-08-31T10:26:56Z</time>
      </trkpt>
      <trkpt lat="46.10382" lon="6.74311">
        <ele>956.7652</ele>
        <time>2014-08-31T10:27:01Z</time>
      </trkpt>
      <trkpt lat="46.10382" lon="6.7431">
        <ele>956.7652</ele>
        <time>2014-08-31T10:27:06Z</time>
      </trkpt>
      <trkpt lat="46.10377" lon="6.74307">
        <ele>956.7652</ele>
        <time>2014-08-31T10:27:11Z</time>
      </trkpt>
      <trkpt lat="46.10369" lon="6.74306">
        <ele>952.5228</ele>
        <time>2014-08-31T10:27:16Z</time>
      </trkpt>
      <trkpt lat="46.10366" lon="6.74306">
        <ele>952.5228</ele>
        <time>2014-08-31T10:27:21Z</time>
      </trkpt>
      <trkpt lat="46.10366" lon="6.74306">
        <ele>952.5228</ele>
        <time>2014-08-31T10:27:26Z</time>
      </trkpt>
      <trkpt lat="46.10365" lon="6.74306">
        <ele>952.5228</ele>
        <time>2014-08-31T10:27:31Z</time>
      </trkpt>
      <trkpt lat="46.10363" lon="6.74305">
        <ele>952.5228</ele>
        <time>2014-08-31T10:27:41Z</time>
      </trkpt>
      <trkpt lat="46.10363" lon="6.74305">
        <ele>952.5228</ele>
        <time>2014-08-31T10:27:46Z</time>
      </trkpt>
      <trkpt lat="46.10363" lon="6.74299">
        <ele>947.5611</ele>
        <time>2014-08-31T10:27:56Z</time>
      </trkpt>
      <trkpt lat="46.10362" lon="6.74298">
        <ele>947.5611</ele>
        <time>2014-08-31T10:28:01Z</time>
      </trkpt>
      <trkpt lat="46.1036" lon="6.74298">
        <ele>947.5611</ele>
        <time>2014-08-31T10:28:06Z</time>
      </trkpt>
      <trkpt lat="46.10358" lon="6.74298">
        <ele>947.5611</ele>
        <time>2014-08-31T10:28:11Z</time>
      </trkpt>
      <trkpt lat="46.10357" lon="6.74299">
        <ele>947.5611</ele>
        <time>2014-08-31T10:28:16Z</time>
      </trkpt>
      <trkpt lat="46.10356" lon="6.74299">
        <ele>947.5611</ele>
        <time>2014-08-31T10:28:21Z</time>
      </trkpt>
      <trkpt lat="46.10354" lon="6.743">
        <ele>942.43365</ele>
        <time>2014-08-31T10:28:26Z</time>
      </trkpt>
      <trkpt lat="46.10354" lon="6.743">
        <ele>942.43365</ele>
        <time>2014-08-31T10:28:31Z</time>
      </trkpt>
      <trkpt lat="46.1035" lon="6.74305">
        <ele>942.43365</ele>
        <time>2014-08-31T10:28:41Z</time>
      </trkpt>
      <trkpt lat="46.10349" lon="6.74307">
        <ele>942.43365</ele>
        <time>2014-08-31T10:28:46Z</time>
      </trkpt>
      <trkpt lat="46.10342" lon="6.74312">
        <ele>937.1638</ele>
        <time>2014-08-31T10:28:51Z</time>
      </trkpt>
      <trkpt lat="46.10342" lon="6.74311">
        <ele>937.1638</ele>
        <time>2014-08-31T10:28:56Z</time>
      </trkpt>
      <trkpt lat="46.10338" lon="6.74305">
        <ele>937.1638</ele>
        <time>2014-08-31T10:29:01Z</time>
      </trkpt>
      <trkpt lat="46.10335" lon="6.74296">
        <ele>931.81665</ele>
        <time>2014-08-31T10:29:06Z</time>
      </trkpt>
      <trkpt lat="46.10332" lon="6.74287">
        <ele>931.81665</ele>
        <time>2014-08-31T10:29:11Z</time>
      </trkpt>
      <trkpt lat="46.10329" lon="6.74285">
        <ele>926.5532</ele>
        <time>2014-08-31T10:29:16Z</time>
      </trkpt>
      <trkpt lat="46.10329" lon="6.74284">
        <ele>926.5532</ele>
        <time>2014-08-31T10:29:21Z</time>
      </trkpt>
      <trkpt lat="46.10326" lon="6.74285">
        <ele>926.5532</ele>
        <time>2014-08-31T10:29:41Z</time>
      </trkpt>
      <trkpt lat="46.10323" lon="6.74285">
        <ele>926.5532</ele>
        <time>2014-08-31T10:29:46Z</time>
      </trkpt>
      <trkpt lat="46.10322" lon="6.74285">
        <ele>926.5532</ele>
        <time>2014-08-31T10:29:51Z</time>
      </trkpt>
      <trkpt lat="46.10319" lon="6.74285">
        <ele>922.7041</ele>
        <time>2014-08-31T10:29:56Z</time>
      </trkpt>
      <trkpt lat="46.10314" lon="6.74286">
        <ele>922.7041</ele>
        <time>2014-08-31T10:30:01Z</time>
      </trkpt>
      <trkpt lat="46.10304" lon="6.7429">
        <ele>919.6965</ele>
        <time>2014-08-31T10:30:06Z</time>
      </trkpt>
      <trkpt lat="46.103" lon="6.74288">
        <ele>919.6965</ele>
        <time>2014-08-31T10:30:11Z</time>
      </trkpt>
      <trkpt lat="46.10295" lon="6.74285">
        <ele>916.99713</ele>
        <time>2014-08-31T10:30:16Z</time>
      </trkpt>
      <trkpt lat="46.10292" lon="6.74285">
        <ele>916.99713</ele>
        <time>2014-08-31T10:30:21Z</time>
      </trkpt>
      <trkpt lat="46.10292" lon="6.74285">
        <ele>916.99713</ele>
        <time>2014-08-31T10:30:26Z</time>
      </trkpt>
      <trkpt lat="46.10291" lon="6.74286">
        <ele>916.99713</ele>
        <time>2014-08-31T10:30:31Z</time>
      </trkpt>
      <trkpt lat="46.10285" lon="6.74284">
        <ele>914.51434</ele>
        <time>2014-08-31T10:30:36Z</time>
      </trkpt>
      <trkpt lat="46.1028" lon="6.74286">
        <ele>914.51434</ele>
        <time>2014-08-31T10:30:41Z</time>
      </trkpt>
      <trkpt lat="46.10259" lon="6.74296">
        <ele>912.42163</ele>
        <time>2014-08-31T10:30:46Z</time>
      </trkpt>
      <trkpt lat="46.10252" lon="6.74296">
        <ele>912.42163</ele>
        <time>2014-08-31T10:30:51Z</time>
      </trkpt>
      <trkpt lat="46.10246" lon="6.74293">
        <ele>910.54706</ele>
        <time>2014-08-31T10:30:56Z</time>
      </trkpt>
      <trkpt lat="46.10234" lon="6.74289">
        <ele>908.91797</ele>
        <time>2014-08-31T10:31:01Z</time>
      </trkpt>
      <trkpt lat="46.10232" lon="6.74289">
        <ele>908.91797</ele>
        <time>2014-08-31T10:31:06Z</time>
      </trkpt>
      <trkpt lat="46.10229" lon="6.74291">
        <ele>908.91797</ele>
        <time>2014-08-31T10:31:11Z</time>
      </trkpt>
      <trkpt lat="46.10228" lon="6.74291">
        <ele>908.91797</ele>
        <time>2014-08-31T10:31:16Z</time>
      </trkpt>
      <trkpt lat="46.10226" lon="6.74285">
        <ele>907.21277</ele>
        <time>2014-08-31T10:31:21Z</time>
      </trkpt>
      <trkpt lat="46.10224" lon="6.74282">
        <ele>907.21277</ele>
        <time>2014-08-31T10:31:26Z</time>
      </trkpt>
      <trkpt lat="46.10222" lon="6.74282">
        <ele>907.21277</ele>
        <time>2014-08-31T10:31:31Z</time>
      </trkpt>
      <trkpt lat="46.10216" lon="6.74283">
        <ele>905.6092</ele>
        <time>2014-08-31T10:31:36Z</time>
      </trkpt>
      <trkpt lat="46.10206" lon="6.74284">
        <ele>904.2715</ele>
        <time>2014-08-31T10:31:41Z</time>
      </trkpt>
      <trkpt lat="46.10201" lon="6.74285">
        <ele>904.2715</ele>
        <time>2014-08-31T10:31:46Z</time>
      </trkpt>
      <trkpt lat="46.10197" lon="6.74285">
        <ele>904.2715</ele>
        <time>2014-08-31T10:31:51Z</time>
      </trkpt>
      <trkpt lat="46.10193" lon="6.74285">
        <ele>903.077</ele>
        <time>2014-08-31T10:31:56Z</time>
      </trkpt>
      <trkpt lat="46.10172" lon="6.74285">
        <ele>902.0127</ele>
        <time>2014-08-31T10:32:01Z</time>
      </trkpt>
      <trkpt lat="46.10166" lon="6.74282">
        <ele>902.0127</ele>
        <time>2014-08-31T10:32:06Z</time>
      </trkpt>
      <trkpt lat="46.1016" lon="6.74279">
        <ele>900.9217</ele>
        <time>2014-08-31T10:32:11Z</time>
      </trkpt>
      <trkpt lat="46.10152" lon="6.74278">
        <ele>900.9217</ele>
        <time>2014-08-31T10:32:16Z</time>
      </trkpt>
      <trkpt lat="46.10149" lon="6.74277">
        <ele>899.83167</ele>
        <time>2014-08-31T10:32:21Z</time>
      </trkpt>
      <trkpt lat="46.10146" lon="6.74277">
        <ele>899.83167</ele>
        <time>2014-08-31T10:32:26Z</time>
      </trkpt>
      <trkpt lat="46.1014" lon="6.74275">
        <ele>898.7681</ele>
        <time>2014-08-31T10:32:31Z</time>
      </trkpt>
      <trkpt lat="46.10137" lon="6.74273">
        <ele>898.7681</ele>
        <time>2014-08-31T10:32:36Z</time>
      </trkpt>
      <trkpt lat="46.10132" lon="6.74273">
        <ele>898.7681</ele>
        <time>2014-08-31T10:32:41Z</time>
      </trkpt>
      <trkpt lat="46.10124" lon="6.74266">
        <ele>897.39435</ele>
        <time>2014-08-31T10:32:46Z</time>
      </trkpt>
      <trkpt lat="46.10122" lon="6.74266">
        <ele>897.39435</ele>
        <time>2014-08-31T10:32:51Z</time>
      </trkpt>
      <trkpt lat="46.10121" lon="6.74262">
        <ele>897.39435</ele>
        <time>2014-08-31T10:32:56Z</time>
      </trkpt>
      <trkpt lat="46.10121" lon="6.74262">
        <ele>897.39435</ele>
        <time>2014-08-31T10:33:01Z</time>
      </trkpt>
      <trkpt lat="46.10117" lon="6.74265">
        <ele>895.5432</ele>
        <time>2014-08-31T10:33:06Z</time>
      </trkpt>
      <trkpt lat="46.10119" lon="6.74271">
        <ele>895.5432</ele>
        <time>2014-08-31T10:33:11Z</time>
      </trkpt>
      <trkpt lat="46.10121" lon="6.74284">
        <ele>893.66656</ele>
        <time>2014-08-31T10:33:16Z</time>
      </trkpt>
      <trkpt lat="46.10122" lon="6.74288">
        <ele>893.66656</ele>
        <time>2014-08-31T10:33:21Z</time>
      </trkpt>
      <trkpt lat="46.10122" lon="6.7429">
        <ele>893.66656</ele>
        <time>2014-08-31T10:33:26Z</time>
      </trkpt>
      <trkpt lat="46.10122" lon="6.7429">
        <ele>893.66656</ele>
        <time>2014-08-31T10:33:31Z</time>
      </trkpt>
      <trkpt lat="46.10121" lon="6.7429">
        <ele>893.66656</ele>
        <time>2014-08-31T10:33:36Z</time>
      </trkpt>
      <trkpt lat="46.10118" lon="6.74289">
        <ele>893.66656</ele>
        <time>2014-08-31T10:33:41Z</time>
      </trkpt>
      <trkpt lat="46.10117" lon="6.74286">
        <ele>891.57764</ele>
        <time>2014-08-31T10:33:46Z</time>
      </trkpt>
      <trkpt lat="46.10116" lon="6.74282">
        <ele>891.57764</ele>
        <time>2014-08-31T10:33:51Z</time>
      </trkpt>
      <trkpt lat="46.10114" lon="6.7428">
        <ele>891.57764</ele>
        <time>2014-08-31T10:33:56Z</time>
      </trkpt>
      <trkpt lat="46.1011" lon="6.74283">
        <ele>889.91125</ele>
        <time>2014-08-31T10:34:01Z</time>
      </trkpt>
      <trkpt lat="46.10107" lon="6.74288">
        <ele>889.91125</ele>
        <time>2014-08-31T10:34:06Z</time>
      </trkpt>
      <trkpt lat="46.10108" lon="6.74289">
        <ele>889.91125</ele>
        <time>2014-08-31T10:34:11Z</time>
      </trkpt>
      <trkpt lat="46.10114" lon="6.74287">
        <ele>888.76416</ele>
        <time>2014-08-31T10:34:16Z</time>
      </trkpt>
      <trkpt lat="46.10115" lon="6.74286">
        <ele>888.76416</ele>
        <time>2014-08-31T10:34:21Z</time>
      </trkpt>
      <trkpt lat="46.10115" lon="6.74288">
        <ele>888.76416</ele>
        <time>2014-08-31T10:34:26Z</time>
      </trkpt>
      <trkpt lat="46.1012" lon="6.74293">
        <ele>888.76416</ele>
        <time>2014-08-31T10:34:31Z</time>
      </trkpt>
      <trkpt lat="46.10127" lon="6.74296">
        <ele>887.8788</ele>
        <time>2014-08-31T10:34:36Z</time>
      </trkpt>
      <trkpt lat="46.10129" lon="6.74303">
        <ele>887.8788</ele>
        <time>2014-08-31T10:34:41Z</time>
      </trkpt>
      <trkpt lat="46.10133" lon="6.74305">
        <ele>886.8717</ele>
        <time>2014-08-31T10:34:46Z</time>
      </trkpt>
      <trkpt lat="46.10136" lon="6.74307">
        <ele>886.8717</ele>
        <time>2014-08-31T10:34:51Z</time>
      </trkpt>
      <trkpt lat="46.10138" lon="6.7431">
        <ele>886.8717</ele>
        <time>2014-08-31T10:34:56Z</time>
      </trkpt>
      <trkpt lat="46.10138" lon="6.74312">
        <ele>886.8717</ele>
        <time>2014-08-31T10:35:01Z</time>
      </trkpt>
      <trkpt lat="46.10138" lon="6.74313">
        <ele>886.8717</ele>
        <time>2014-08-31T10:35:06Z</time>
      </trkpt>
      <trkpt lat="46.10135" lon="6.74312">
        <ele>885.6761</ele>
        <time>2014-08-31T10:35:11Z</time>
      </trkpt>
      <trkpt lat="46.10133" lon="6.74314">
        <ele>885.6761</ele>
        <time>2014-08-31T10:35:16Z</time>
      </trkpt>
      <trkpt lat="46.10129" lon="6.74317">
        <ele>885.6761</ele>
        <time>2014-08-31T10:35:21Z</time>
      </trkpt>
      <trkpt lat="46.10129" lon="6.74317">
        <ele>885.6761</ele>
        <time>2014-08-31T10:35:26Z</time>
      </trkpt>
      <trkpt lat="46.10129" lon="6.74323">
        <ele>884.17303</ele>
        <time>2014-08-31T10:35:31Z</time>
      </trkpt>
      <trkpt lat="46.10126" lon="6.74329">
        <ele>884.17303</ele>
        <time>2014-08-31T10:35:36Z</time>
      </trkpt>
      <trkpt lat="46.10124" lon="6.74329">
        <ele>884.17303</ele>
        <time>2014-08-31T10:35:41Z</time>
      </trkpt>
      <trkpt lat="46.10119" lon="6.74328">
        <ele>882.8873</ele>
        <time>2014-08-31T10:35:46Z</time>
      </trkpt>
      <trkpt lat="46.10112" lon="6.74329">
        <ele>882.8873</ele>
        <time>2014-08-31T10:35:51Z</time>
      </trkpt>
      <trkpt lat="46.10112" lon="6.74329">
        <ele>882.8873</ele>
        <time>2014-08-31T10:35:56Z</time>
      </trkpt>
      <trkpt lat="46.10108" lon="6.74327">
        <ele>882.0164</ele>
        <time>2014-08-31T10:36:01Z</time>
      </trkpt>
      <trkpt lat="46.10106" lon="6.74325">
        <ele>882.0164</ele>
        <time>2014-08-31T10:36:06Z</time>
      </trkpt>
      <trkpt lat="46.10103" lon="6.74325">
        <ele>882.0164</ele>
        <time>2014-08-31T10:36:11Z</time>
      </trkpt>
      <trkpt lat="46.10101" lon="6.74325">
        <ele>882.0164</ele>
        <time>2014-08-31T10:36:16Z</time>
      </trkpt>
      <trkpt lat="46.10098" lon="6.74325">
        <ele>881.2377</ele>
        <time>2014-08-31T10:36:21Z</time>
      </trkpt>
      <trkpt lat="46.10092" lon="6.74326">
        <ele>881.2377</ele>
        <time>2014-08-31T10:36:26Z</time>
      </trkpt>
      <trkpt lat="46.1009" lon="6.74327">
        <ele>881.2377</ele>
        <time>2014-08-31T10:36:31Z</time>
      </trkpt>
      <trkpt lat="46.10086" lon="6.74325">
        <ele>880.49695</ele>
        <time>2014-08-31T10:36:36Z</time>
      </trkpt>
      <trkpt lat="46.10084" lon="6.74325">
        <ele>880.49695</ele>
        <time>2014-08-31T10:36:41Z</time>
      </trkpt>
      <trkpt lat="46.10081" lon="6.74322">
        <ele>880.49695</ele>
        <time>2014-08-31T10:36:46Z</time>
      </trkpt>
      <trkpt lat="46.10071" lon="6.74322">
        <ele>879.5712</ele>
        <time>2014-08-31T10:36:51Z</time>
      </trkpt>
      <trkpt lat="46.10055" lon="6.74325">
        <ele>878.62897</ele>
        <time>2014-08-31T10:36:56Z</time>
      </trkpt>
      <trkpt lat="46.10049" lon="6.74325">
        <ele>878.62897</ele>
        <time>2014-08-31T10:37:01Z</time>
      </trkpt>
      <trkpt lat="46.10048" lon="6.74325">
        <ele>878.62897</ele>
        <time>2014-08-31T10:37:06Z</time>
      </trkpt>
      <trkpt lat="46.10041" lon="6.74321">
        <ele>877.63916</ele>
        <time>2014-08-31T10:37:11Z</time>
      </trkpt>
      <trkpt lat="46.10038" lon="6.74322">
        <ele>877.63916</ele>
        <time>2014-08-31T10:37:16Z</time>
      </trkpt>
      <trkpt lat="46.1003" lon="6.74318">
        <ele>876.68854</ele>
        <time>2014-08-31T10:37:21Z</time>
      </trkpt>
      <trkpt lat="46.10024" lon="6.74319">
        <ele>876.68854</ele>
        <time>2014-08-31T10:37:26Z</time>
      </trkpt>
      <trkpt lat="46.10021" lon="6.74319">
        <ele>876.68854</ele>
        <time>2014-08-31T10:37:31Z</time>
      </trkpt>
      <trkpt lat="46.10021" lon="6.74319">
        <ele>876.68854</ele>
        <time>2014-08-31T10:37:36Z</time>
      </trkpt>
      <trkpt lat="46.1001" lon="6.74318">
        <ele>875.64124</ele>
        <time>2014-08-31T10:37:41Z</time>
      </trkpt>
      <trkpt lat="46.09993" lon="6.7431">
        <ele>874.7608</ele>
        <time>2014-08-31T10:37:46Z</time>
      </trkpt>
      <trkpt lat="46.09992" lon="6.7431">
        <ele>874.7608</ele>
        <time>2014-08-31T10:37:51Z</time>
      </trkpt>
      <trkpt lat="46.09989" lon="6.7431">
        <ele>874.7608</ele>
        <time>2014-08-31T10:37:56Z</time>
      </trkpt>
      <trkpt lat="46.09983" lon="6.74308">
        <ele>873.90204</ele>
        <time>2014-08-31T10:38:01Z</time>
      </trkpt>
      <trkpt lat="46.09975" lon="6.74307">
        <ele>873.90204</ele>
        <time>2014-08-31T10:38:06Z</time>
      </trkpt>
      <trkpt lat="46.09971" lon="6.74303">
        <ele>873.2186</ele>
        <time>2014-08-31T10:38:11Z</time>
      </trkpt>
      <trkpt lat="46.09969" lon="6.74302">
        <ele>873.2186</ele>
        <time>2014-08-31T10:38:16Z</time>
      </trkpt>
      <trkpt lat="46.09963" lon="6.743">
        <ele>873.2186</ele>
        <time>2014-08-31T10:38:21Z</time>
      </trkpt>
      <trkpt lat="46.09962" lon="6.743">
        <ele>872.521</ele>
        <time>2014-08-31T10:38:26Z</time>
      </trkpt>
      <trkpt lat="46.09961" lon="6.74297">
        <ele>872.521</ele>
        <time>2014-08-31T10:38:31Z</time>
      </trkpt>
      <trkpt lat="46.09961" lon="6.74297">
        <ele>872.521</ele>
        <time>2014-08-31T10:38:36Z</time>
      </trkpt>
      <trkpt lat="46.0996" lon="6.74293">
        <ele>872.521</ele>
        <time>2014-08-31T10:38:51Z</time>
      </trkpt>
      <trkpt lat="46.09953" lon="6.74288">
        <ele>871.66266</ele>
        <time>2014-08-31T10:38:56Z</time>
      </trkpt>
      <trkpt lat="46.0995" lon="6.74289">
        <ele>871.66266</ele>
        <time>2014-08-31T10:39:01Z</time>
      </trkpt>
      <trkpt lat="46.09944" lon="6.74287">
        <ele>871.66266</ele>
        <time>2014-08-31T10:39:06Z</time>
      </trkpt>
      <trkpt lat="46.09939" lon="6.74285">
        <ele>870.62354</ele>
        <time>2014-08-31T10:39:11Z</time>
      </trkpt>
      <trkpt lat="46.09932" lon="6.74278">
        <ele>870.62354</ele>
        <time>2014-08-31T10:39:16Z</time>
      </trkpt>
      <trkpt lat="46.09932" lon="6.74278">
        <ele>870.62354</ele>
        <time>2014-08-31T10:39:21Z</time>
      </trkpt>
      <trkpt lat="46.09926" lon="6.74275">
        <ele>869.674</ele>
        <time>2014-08-31T10:39:26Z</time>
      </trkpt>
      <trkpt lat="46.09924" lon="6.74276">
        <ele>869.674</ele>
        <time>2014-08-31T10:39:31Z</time>
      </trkpt>
      <trkpt lat="46.09919" lon="6.74272">
        <ele>869.674</ele>
        <time>2014-08-31T10:39:36Z</time>
      </trkpt>
      <trkpt lat="46.09918" lon="6.74272">
        <ele>869.674</ele>
        <time>2014-08-31T10:39:41Z</time>
      </trkpt>
      <trkpt lat="46.09912" lon="6.74267">
        <ele>868.73285</ele>
        <time>2014-08-31T10:39:46Z</time>
      </trkpt>
      <trkpt lat="46.09902" lon="6.74263">
        <ele>867.91235</ele>
        <time>2014-08-31T10:39:51Z</time>
      </trkpt>
      <trkpt lat="46.09899" lon="6.74264">
        <ele>867.91235</ele>
        <time>2014-08-31T10:39:56Z</time>
      </trkpt>
      <trkpt lat="46.09898" lon="6.74264">
        <ele>867.91235</ele>
        <time>2014-08-31T10:40:01Z</time>
      </trkpt>
      <trkpt lat="46.09898" lon="6.74261">
        <ele>867.91235</ele>
        <time>2014-08-31T10:40:06Z</time>
      </trkpt>
      <trkpt lat="46.09892" lon="6.7426">
        <ele>866.71094</ele>
        <time>2014-08-31T10:40:11Z</time>
      </trkpt>
      <trkpt lat="46.09889" lon="6.74261">
        <ele>866.71094</ele>
        <time>2014-08-31T10:40:16Z</time>
      </trkpt>
      <trkpt lat="46.09886" lon="6.74261">
        <ele>866.71094</ele>
        <time>2014-08-31T10:40:21Z</time>
      </trkpt>
      <trkpt lat="46.09881" lon="6.7426">
        <ele>865.24164</ele>
        <time>2014-08-31T10:40:26Z</time>
      </trkpt>
      <trkpt lat="46.09881" lon="6.74259">
        <ele>865.24164</ele>
        <time>2014-08-31T10:40:31Z</time>
      </trkpt>
      <trkpt lat="46.09879" lon="6.74257">
        <ele>865.24164</ele>
        <time>2014-08-31T10:40:36Z</time>
      </trkpt>
      <trkpt lat="46.0987" lon="6.74258">
        <ele>863.6387</ele>
        <time>2014-08-31T10:40:41Z</time>
      </trkpt>
      <trkpt lat="46.09863" lon="6.74258">
        <ele>863.6387</ele>
        <time>2014-08-31T10:40:46Z</time>
      </trkpt>
      <trkpt lat="46.09863" lon="6.74258">
        <ele>863.6387</ele>
        <time>2014-08-31T10:40:51Z</time>
      </trkpt>
      <trkpt lat="46.09852" lon="6.74251">
        <ele>861.7532</ele>
        <time>2014-08-31T10:40:56Z</time>
      </trkpt>
      <trkpt lat="46.09845" lon="6.74252">
        <ele>861.7532</ele>
        <time>2014-08-31T10:41:01Z</time>
      </trkpt>
      <trkpt lat="46.09839" lon="6.74247">
        <ele>859.8083</ele>
        <time>2014-08-31T10:41:06Z</time>
      </trkpt>
      <trkpt lat="46.0983" lon="6.74245">
        <ele>858.0688</ele>
        <time>2014-08-31T10:41:11Z</time>
      </trkpt>
      <trkpt lat="46.09825" lon="6.74246">
        <ele>858.0688</ele>
        <time>2014-08-31T10:41:16Z</time>
      </trkpt>
      <trkpt lat="46.09815" lon="6.74247">
        <ele>856.6496</ele>
        <time>2014-08-31T10:41:21Z</time>
      </trkpt>
      <trkpt lat="46.09806" lon="6.74243">
        <ele>855.46924</ele>
        <time>2014-08-31T10:41:26Z</time>
      </trkpt>
      <trkpt lat="46.09801" lon="6.74244">
        <ele>855.46924</ele>
        <time>2014-08-31T10:41:31Z</time>
      </trkpt>
      <trkpt lat="46.09799" lon="6.74244">
        <ele>855.46924</ele>
        <time>2014-08-31T10:41:36Z</time>
      </trkpt>
      <trkpt lat="46.09794" lon="6.74241">
        <ele>854.4946</ele>
        <time>2014-08-31T10:41:41Z</time>
      </trkpt>
      <trkpt lat="46.0979" lon="6.7424">
        <ele>854.4946</ele>
        <time>2014-08-31T10:41:46Z</time>
      </trkpt>
      <trkpt lat="46.09785" lon="6.74239">
        <ele>853.65155</ele>
        <time>2014-08-31T10:41:51Z</time>
      </trkpt>
      <trkpt lat="46.09784" lon="6.74238">
        <ele>853.65155</ele>
        <time>2014-08-31T10:41:56Z</time>
      </trkpt>
      <trkpt lat="46.09777" lon="6.74239">
        <ele>853.65155</ele>
        <time>2014-08-31T10:42:01Z</time>
      </trkpt>
      <trkpt lat="46.09773" lon="6.74241">
        <ele>852.3952</ele>
        <time>2014-08-31T10:42:06Z</time>
      </trkpt>
      <trkpt lat="46.0977" lon="6.74237">
        <ele>852.3952</ele>
        <time>2014-08-31T10:42:11Z</time>
      </trkpt>
      <trkpt lat="46.09769" lon="6.74234">
        <ele>852.3952</ele>
        <time>2014-08-31T10:42:16Z</time>
      </trkpt>
      <trkpt lat="46.09764" lon="6.74232">
        <ele>850.8851</ele>
        <time>2014-08-31T10:42:21Z</time>
      </trkpt>
      <trkpt lat="46.09759" lon="6.74232">
        <ele>850.8851</ele>
        <time>2014-08-31T10:42:26Z</time>
      </trkpt>
      <trkpt lat="46.09758" lon="6.74229">
        <ele>850.8851</ele>
        <time>2014-08-31T10:42:31Z</time>
      </trkpt>
      <trkpt lat="46.09753" lon="6.74231">
        <ele>848.8517</ele>
        <time>2014-08-31T10:42:36Z</time>
      </trkpt>
      <trkpt lat="46.09754" lon="6.7423">
        <ele>848.8517</ele>
        <time>2014-08-31T10:42:41Z</time>
      </trkpt>
      <trkpt lat="46.09751" lon="6.74235">
        <ele>848.8517</ele>
        <time>2014-08-31T10:42:46Z</time>
      </trkpt>
      <trkpt lat="46.09749" lon="6.74242">
        <ele>846.7098</ele>
        <time>2014-08-31T10:42:51Z</time>
      </trkpt>
      <trkpt lat="46.09745" lon="6.74253">
        <ele>846.7098</ele>
        <time>2014-08-31T10:42:56Z</time>
      </trkpt>
      <trkpt lat="46.09739" lon="6.74259">
        <ele>844.67114</ele>
        <time>2014-08-31T10:43:01Z</time>
      </trkpt>
      <trkpt lat="46.09737" lon="6.74264">
        <ele>844.67114</ele>
        <time>2014-08-31T10:43:06Z</time>
      </trkpt>
      <trkpt lat="46.09735" lon="6.74271">
        <ele>842.8739</ele>
        <time>2014-08-31T10:43:11Z</time>
      </trkpt>
      <trkpt lat="46.09733" lon="6.74275">
        <ele>842.8739</ele>
        <time>2014-08-31T10:43:16Z</time>
      </trkpt>
      <trkpt lat="46.0973" lon="6.7428">
        <ele>842.8739</ele>
        <time>2014-08-31T10:43:21Z</time>
      </trkpt>
      <trkpt lat="46.09729" lon="6.74282">
        <ele>841.1719</ele>
        <time>2014-08-31T10:43:26Z</time>
      </trkpt>
      <trkpt lat="46.09724" lon="6.74285">
        <ele>841.1719</ele>
        <time>2014-08-31T10:43:31Z</time>
      </trkpt>
      <trkpt lat="46.09724" lon="6.74285">
        <ele>841.1719</ele>
        <time>2014-08-31T10:43:36Z</time>
      </trkpt>
      <trkpt lat="46.09722" lon="6.74283">
        <ele>841.1719</ele>
        <time>2014-08-31T10:43:41Z</time>
      </trkpt>
      <trkpt lat="46.09719" lon="6.74284">
        <ele>839.64526</ele>
        <time>2014-08-31T10:43:46Z</time>
      </trkpt>
      <trkpt lat="46.09715" lon="6.74282">
        <ele>839.64526</ele>
        <time>2014-08-31T10:43:51Z</time>
      </trkpt>
      <trkpt lat="46.09714" lon="6.74275">
        <ele>838.23834</ele>
        <time>2014-08-31T10:43:56Z</time>
      </trkpt>
      <trkpt lat="46.09707" lon="6.74272">
        <ele>838.23834</ele>
        <time>2014-08-31T10:44:01Z</time>
      </trkpt>
      <trkpt lat="46.09696" lon="6.74269">
        <ele>836.928</ele>
        <time>2014-08-31T10:44:06Z</time>
      </trkpt>
      <trkpt lat="46.09691" lon="6.74268">
        <ele>836.928</ele>
        <time>2014-08-31T10:44:11Z</time>
      </trkpt>
      <trkpt lat="46.0969" lon="6.74269">
        <ele>836.928</ele>
        <time>2014-08-31T10:44:16Z</time>
      </trkpt>
      <trkpt lat="46.09689" lon="6.74269">
        <ele>836.928</ele>
        <time>2014-08-31T10:44:21Z</time>
      </trkpt>
      <trkpt lat="46.09685" lon="6.74265">
        <ele>835.59155</ele>
        <time>2014-08-31T10:44:26Z</time>
      </trkpt>
      <trkpt lat="46.09683" lon="6.74266">
        <ele>835.59155</ele>
        <time>2014-08-31T10:44:31Z</time>
      </trkpt>
      <trkpt lat="46.09676" lon="6.74271">
        <ele>834.1876</ele>
        <time>2014-08-31T10:44:36Z</time>
      </trkpt>
      <trkpt lat="46.09669" lon="6.74273">
        <ele>834.1876</ele>
        <time>2014-08-31T10:44:41Z</time>
      </trkpt>
      <trkpt lat="46.09656" lon="6.74276">
        <ele>832.923</ele>
        <time>2014-08-31T10:44:46Z</time>
      </trkpt>
      <trkpt lat="46.0965" lon="6.74273">
        <ele>832.923</ele>
        <time>2014-08-31T10:44:51Z</time>
      </trkpt>
      <trkpt lat="46.09641" lon="6.74275">
        <ele>831.74384</ele>
        <time>2014-08-31T10:44:56Z</time>
      </trkpt>
      <trkpt lat="46.09636" lon="6.74272">
        <ele>831.74384</ele>
        <time>2014-08-31T10:45:01Z</time>
      </trkpt>
      <trkpt lat="46.09635" lon="6.74263">
        <ele>830.72986</ele>
        <time>2014-08-31T10:45:06Z</time>
      </trkpt>
      <trkpt lat="46.09631" lon="6.74263">
        <ele>830.72986</ele>
        <time>2014-08-31T10:45:11Z</time>
      </trkpt>
      <trkpt lat="46.0963" lon="6.74255">
        <ele>829.9832</ele>
        <time>2014-08-31T10:45:16Z</time>
      </trkpt>
      <trkpt lat="46.09632" lon="6.74247">
        <ele>829.9832</ele>
        <time>2014-08-31T10:45:21Z</time>
      </trkpt>
      <trkpt lat="46.09633" lon="6.74237">
        <ele>829.43933</ele>
        <time>2014-08-31T10:45:26Z</time>
      </trkpt>
      <trkpt lat="46.0963" lon="6.74235">
        <ele>829.43933</ele>
        <time>2014-08-31T10:45:31Z</time>
      </trkpt>
      <trkpt lat="46.09622" lon="6.74235">
        <ele>829.19635</ele>
        <time>2014-08-31T10:45:36Z</time>
      </trkpt>
      <trkpt lat="46.09618" lon="6.74235">
        <ele>829.19635</ele>
        <time>2014-08-31T10:45:41Z</time>
      </trkpt>
      <trkpt lat="46.09614" lon="6.74235">
        <ele>829.19635</ele>
        <time>2014-08-31T10:45:46Z</time>
      </trkpt>
      <trkpt lat="46.09607" lon="6.74235">
        <ele>828.9984</ele>
        <time>2014-08-31T10:45:51Z</time>
      </trkpt>
      <trkpt lat="46.09593" lon="6.74226">
        <ele>828.9544</ele>
        <time>2014-08-31T10:45:56Z</time>
      </trkpt>
      <trkpt lat="46.09588" lon="6.74227">
        <ele>828.9544</ele>
        <time>2014-08-31T10:46:01Z</time>
      </trkpt>
      <trkpt lat="46.09576" lon="6.74224">
        <ele>828.99176</ele>
        <time>2014-08-31T10:46:06Z</time>
      </trkpt>
      <trkpt lat="46.09572" lon="6.74224">
        <ele>828.99176</ele>
        <time>2014-08-31T10:46:11Z</time>
      </trkpt>
      <trkpt lat="46.09565" lon="6.74222">
        <ele>829.02875</ele>
        <time>2014-08-31T10:46:16Z</time>
      </trkpt>
      <trkpt lat="46.09557" lon="6.74222">
        <ele>829.02875</ele>
        <time>2014-08-31T10:46:21Z</time>
      </trkpt>
      <trkpt lat="46.09552" lon="6.74218">
        <ele>829.2201</ele>
        <time>2014-08-31T10:46:26Z</time>
      </trkpt>
      <trkpt lat="46.09549" lon="6.74219">
        <ele>829.2201</ele>
        <time>2014-08-31T10:46:31Z</time>
      </trkpt>
      <trkpt lat="46.09547" lon="6.74215">
        <ele>829.2201</ele>
        <time>2014-08-31T10:46:36Z</time>
      </trkpt>
      <trkpt lat="46.09547" lon="6.74215">
        <ele>829.2201</ele>
        <time>2014-08-31T10:46:41Z</time>
      </trkpt>
      <trkpt lat="46.09547" lon="6.74213">
        <ele>829.2201</ele>
        <time>2014-08-31T10:46:46Z</time>
      </trkpt>
      <trkpt lat="46.09545" lon="6.7421">
        <ele>828.93085</ele>
        <time>2014-08-31T10:46:51Z</time>
      </trkpt>
      <trkpt lat="46.09539" lon="6.74209">
        <ele>828.93085</ele>
        <time>2014-08-31T10:46:56Z</time>
      </trkpt>
      <trkpt lat="46.09528" lon="6.74198">
        <ele>828.22235</ele>
        <time>2014-08-31T10:47:01Z</time>
      </trkpt>
      <trkpt lat="46.09526" lon="6.74196">
        <ele>828.22235</ele>
        <time>2014-08-31T10:47:06Z</time>
      </trkpt>
      <trkpt lat="46.09522" lon="6.74195">
        <ele>828.22235</ele>
        <time>2014-08-31T10:47:11Z</time>
      </trkpt>
      <trkpt lat="46.09515" lon="6.74187">
        <ele>827.614</ele>
        <time>2014-08-31T10:47:16Z</time>
      </trkpt>
      <trkpt lat="46.09507" lon="6.74186">
        <ele>827.614</ele>
        <time>2014-08-31T10:47:21Z</time>
      </trkpt>
      <trkpt lat="46.09503" lon="6.74186">
        <ele>827.2698</ele>
        <time>2014-08-31T10:47:26Z</time>
      </trkpt>
      <trkpt lat="46.095" lon="6.74189">
        <ele>827.082</ele>
        <time>2014-08-31T10:47:31Z</time>
      </trkpt>
      <trkpt lat="46.0949" lon="6.74187">
        <ele>826.89417</ele>
        <time>2014-08-31T10:47:36Z</time>
      </trkpt>
      <trkpt lat="46.09482" lon="6.74189">
        <ele>826.89417</ele>
        <time>2014-08-31T10:47:41Z</time>
      </trkpt>
      <trkpt lat="46.09479" lon="6.74188">
        <ele>826.5018</ele>
        <time>2014-08-31T10:47:46Z</time>
      </trkpt>
      <trkpt lat="46.0947" lon="6.74185">
        <ele>826.5018</ele>
        <time>2014-08-31T10:47:51Z</time>
      </trkpt>
      <trkpt lat="46.09464" lon="6.74184">
        <ele>826.10614</ele>
        <time>2014-08-31T10:47:56Z</time>
      </trkpt>
      <trkpt lat="46.09455" lon="6.74182">
        <ele>825.5759</ele>
        <time>2014-08-31T10:48:01Z</time>
      </trkpt>
      <trkpt lat="46.09449" lon="6.74182">
        <ele>825.5759</ele>
        <time>2014-08-31T10:48:06Z</time>
      </trkpt>
      <trkpt lat="46.09443" lon="6.7418">
        <ele>825.3774</ele>
        <time>2014-08-31T10:48:11Z</time>
      </trkpt>
      <trkpt lat="46.09441" lon="6.74183">
        <ele>825.1789</ele>
        <time>2014-08-31T10:48:16Z</time>
      </trkpt>
      <trkpt lat="46.09437" lon="6.74181">
        <ele>825.1789</ele>
        <time>2014-08-31T10:48:21Z</time>
      </trkpt>
      <trkpt lat="46.09435" lon="6.74178">
        <ele>825.1789</ele>
        <time>2014-08-31T10:48:26Z</time>
      </trkpt>
      <trkpt lat="46.09432" lon="6.74171">
        <ele>824.6441</ele>
        <time>2014-08-31T10:48:31Z</time>
      </trkpt>
      <trkpt lat="46.0943" lon="6.74169">
        <ele>824.6441</ele>
        <time>2014-08-31T10:48:36Z</time>
      </trkpt>
      <trkpt lat="46.0943" lon="6.7417">
        <ele>824.6441</ele>
        <time>2014-08-31T10:48:41Z</time>
      </trkpt>
      <trkpt lat="46.0943" lon="6.74171">
        <ele>824.6441</ele>
        <time>2014-08-31T10:48:46Z</time>
      </trkpt>
      <trkpt lat="46.09432" lon="6.74172">
        <ele>824.6441</ele>
        <time>2014-08-31T10:48:51Z</time>
      </trkpt>
      <trkpt lat="46.09433" lon="6.74174">
        <ele>824.6441</ele>
        <time>2014-08-31T10:48:56Z</time>
      </trkpt>
      <trkpt lat="46.09432" lon="6.74174">
        <ele>824.6441</ele>
        <time>2014-08-31T10:49:01Z</time>
      </trkpt>
      <trkpt lat="46.09431" lon="6.74173">
        <ele>824.6441</ele>
        <time>2014-08-31T10:49:06Z</time>
      </trkpt>
      <trkpt lat="46.0943" lon="6.74173">
        <ele>823.1157</ele>
        <time>2014-08-31T10:49:11Z</time>
      </trkpt>
      <trkpt lat="46.09431" lon="6.74168">
        <ele>823.1157</ele>
        <time>2014-08-31T10:49:16Z</time>
      </trkpt>
      <trkpt lat="46.09424" lon="6.74166">
        <ele>821.6193</ele>
        <time>2014-08-31T10:49:21Z</time>
      </trkpt>
      <trkpt lat="46.09423" lon="6.74163">
        <ele>821.6193</ele>
        <time>2014-08-31T10:49:26Z</time>
      </trkpt>
      <trkpt lat="46.09421" lon="6.74161">
        <ele>821.6193</ele>
        <time>2014-08-31T10:49:31Z</time>
      </trkpt>
      <trkpt lat="46.09416" lon="6.74158">
        <ele>820.05316</ele>
        <time>2014-08-31T10:49:36Z</time>
      </trkpt>
      <trkpt lat="46.09413" lon="6.74157">
        <ele>820.05316</ele>
        <time>2014-08-31T10:49:41Z</time>
      </trkpt>
      <trkpt lat="46.09406" lon="6.74158">
        <ele>818.2656</ele>
        <time>2014-08-31T10:49:46Z</time>
      </trkpt>
      <trkpt lat="46.09406" lon="6.74152">
        <ele>818.2656</ele>
        <time>2014-08-31T10:49:51Z</time>
      </trkpt>
      <trkpt lat="46.09403" lon="6.74148">
        <ele>818.2656</ele>
        <time>2014-08-31T10:49:56Z</time>
      </trkpt>
      <trkpt lat="46.094" lon="6.74145">
        <ele>816.1169</ele>
        <time>2014-08-31T10:50:01Z</time>
      </trkpt>
      <trkpt lat="46.09391" lon="6.74146">
        <ele>816.1169</ele>
        <time>2014-08-31T10:50:06Z</time>
      </trkpt>
      <trkpt lat="46.09386" lon="6.74145">
        <ele>813.63684</ele>
        <time>2014-08-31T10:50:11Z</time>
      </trkpt>
      <trkpt lat="46.09379" lon="6.74142">
        <ele>813.63684</ele>
        <time>2014-08-31T10:50:16Z</time>
      </trkpt>
      <trkpt lat="46.09373" lon="6.74143">
        <ele>811.04156</ele>
        <time>2014-08-31T10:50:21Z</time>
      </trkpt>
      <trkpt lat="46.09363" lon="6.74144">
        <ele>808.50287</ele>
        <time>2014-08-31T10:50:26Z</time>
      </trkpt>
      <trkpt lat="46.09361" lon="6.74144">
        <ele>808.50287</ele>
        <time>2014-08-31T10:50:31Z</time>
      </trkpt>
      <trkpt lat="46.09355" lon="6.74139">
        <ele>805.86255</ele>
        <time>2014-08-31T10:50:36Z</time>
      </trkpt>
      <trkpt lat="46.0935" lon="6.74132">
        <ele>805.86255</ele>
        <time>2014-08-31T10:50:41Z</time>
      </trkpt>
      <trkpt lat="46.09344" lon="6.74127">
        <ele>803.5508</ele>
        <time>2014-08-31T10:50:46Z</time>
      </trkpt>
      <trkpt lat="46.0934" lon="6.74126">
        <ele>803.5508</ele>
        <time>2014-08-31T10:50:51Z</time>
      </trkpt>
      <trkpt lat="46.09336" lon="6.74126">
        <ele>801.38885</ele>
        <time>2014-08-31T10:50:56Z</time>
      </trkpt>
      <trkpt lat="46.09331" lon="6.74124">
        <ele>801.38885</ele>
        <time>2014-08-31T10:51:01Z</time>
      </trkpt>
      <trkpt lat="46.09324" lon="6.74117">
        <ele>799.2393</ele>
        <time>2014-08-31T10:51:06Z</time>
      </trkpt>
      <trkpt lat="46.09321" lon="6.74115">
        <ele>799.2393</ele>
        <time>2014-08-31T10:51:11Z</time>
      </trkpt>
      <trkpt lat="46.09317" lon="6.74114">
        <ele>799.2393</ele>
        <time>2014-08-31T10:51:16Z</time>
      </trkpt>
      <trkpt lat="46.09311" lon="6.74112">
        <ele>797.36414</ele>
        <time>2014-08-31T10:51:21Z</time>
      </trkpt>
      <trkpt lat="46.09302" lon="6.74104">
        <ele>795.7311</ele>
        <time>2014-08-31T10:51:26Z</time>
      </trkpt>
      <trkpt lat="46.09298" lon="6.74104">
        <ele>795.7311</ele>
        <time>2014-08-31T10:51:31Z</time>
      </trkpt>
      <trkpt lat="46.09295" lon="6.74106">
        <ele>795.7311</ele>
        <time>2014-08-31T10:51:36Z</time>
      </trkpt>
      <trkpt lat="46.09294" lon="6.74108">
        <ele>795.7311</ele>
        <time>2014-08-31T10:51:41Z</time>
      </trkpt>
      <trkpt lat="46.09292" lon="6.7411">
        <ele>793.9495</ele>
        <time>2014-08-31T10:51:46Z</time>
      </trkpt>
      <trkpt lat="46.09287" lon="6.74109">
        <ele>793.9495</ele>
        <time>2014-08-31T10:51:51Z</time>
      </trkpt>
      <trkpt lat="46.09277" lon="6.74107">
        <ele>792.2486</ele>
        <time>2014-08-31T10:51:56Z</time>
      </trkpt>
      <trkpt lat="46.0927" lon="6.74106">
        <ele>792.2486</ele>
        <time>2014-08-31T10:52:01Z</time>
      </trkpt>
      <trkpt lat="46.09263" lon="6.74098">
        <ele>790.6098</ele>
        <time>2014-08-31T10:52:06Z</time>
      </trkpt>
      <trkpt lat="46.0926" lon="6.74099">
        <ele>790.6098</ele>
        <time>2014-08-31T10:52:11Z</time>
      </trkpt>
      <trkpt lat="46.09256" lon="6.74098">
        <ele>790.6098</ele>
        <time>2014-08-31T10:52:16Z</time>
      </trkpt>
      <trkpt lat="46.09254" lon="6.74094">
        <ele>789.0157</ele>
        <time>2014-08-31T10:52:21Z</time>
      </trkpt>
      <trkpt lat="46.09252" lon="6.74088">
        <ele>789.0157</ele>
        <time>2014-08-31T10:52:26Z</time>
      </trkpt>
      <trkpt lat="46.09248" lon="6.74084">
        <ele>787.46436</ele>
        <time>2014-08-31T10:52:31Z</time>
      </trkpt>
      <trkpt lat="46.09247" lon="6.74078">
        <ele>787.46436</ele>
        <time>2014-08-31T10:52:36Z</time>
      </trkpt>
      <trkpt lat="46.0924" lon="6.74071">
        <ele>785.853</ele>
        <time>2014-08-31T10:52:41Z</time>
      </trkpt>
      <trkpt lat="46.09234" lon="6.7407">
        <ele>785.853</ele>
        <time>2014-08-31T10:52:46Z</time>
      </trkpt>
      <trkpt lat="46.0923" lon="6.74065">
        <ele>784.15857</ele>
        <time>2014-08-31T10:52:51Z</time>
      </trkpt>
      <trkpt lat="46.09223" lon="6.74064">
        <ele>784.15857</ele>
        <time>2014-08-31T10:52:56Z</time>
      </trkpt>
      <trkpt lat="46.09218" lon="6.7406">
        <ele>782.3021</ele>
        <time>2014-08-31T10:53:01Z</time>
      </trkpt>
      <trkpt lat="46.09212" lon="6.74051">
        <ele>782.3021</ele>
        <time>2014-08-31T10:53:06Z</time>
      </trkpt>
      <trkpt lat="46.09209" lon="6.74042">
        <ele>780.4992</ele>
        <time>2014-08-31T10:53:11Z</time>
      </trkpt>
      <trkpt lat="46.09206" lon="6.74038">
        <ele>780.4992</ele>
        <time>2014-08-31T10:53:16Z</time>
      </trkpt>
      <trkpt lat="46.09201" lon="6.74035">
        <ele>778.8196</ele>
        <time>2014-08-31T10:53:21Z</time>
      </trkpt>
      <trkpt lat="46.09199" lon="6.74023">
        <ele>778.8196</ele>
        <time>2014-08-31T10:53:26Z</time>
      </trkpt>
      <trkpt lat="46.09196" lon="6.74017">
        <ele>777.2699</ele>
        <time>2014-08-31T10:53:31Z</time>
      </trkpt>
      <trkpt lat="46.09194" lon="6.7401">
        <ele>777.2699</ele>
        <time>2014-08-31T10:53:36Z</time>
      </trkpt>
      <trkpt lat="46.09194" lon="6.73999">
        <ele>775.7549</ele>
        <time>2014-08-31T10:53:41Z</time>
      </trkpt>
      <trkpt lat="46.0919" lon="6.73995">
        <ele>775.7549</ele>
        <time>2014-08-31T10:53:46Z</time>
      </trkpt>
      <trkpt lat="46.09185" lon="6.73994">
        <ele>774.25836</ele>
        <time>2014-08-31T10:53:51Z</time>
      </trkpt>
      <trkpt lat="46.09181" lon="6.73989">
        <ele>774.25836</ele>
        <time>2014-08-31T10:53:56Z</time>
      </trkpt>
      <trkpt lat="46.09175" lon="6.7399">
        <ele>772.82263</ele>
        <time>2014-08-31T10:54:01Z</time>
      </trkpt>
      <trkpt lat="46.09167" lon="6.73986">
        <ele>772.82263</ele>
        <time>2014-08-31T10:54:06Z</time>
      </trkpt>
      <trkpt lat="46.09158" lon="6.73981">
        <ele>771.3284</ele>
        <time>2014-08-31T10:54:11Z</time>
      </trkpt>
      <trkpt lat="46.0915" lon="6.73974">
        <ele>769.9822</ele>
        <time>2014-08-31T10:54:16Z</time>
      </trkpt>
      <trkpt lat="46.09145" lon="6.73971">
        <ele>769.9822</ele>
        <time>2014-08-31T10:54:21Z</time>
      </trkpt>
      <trkpt lat="46.09141" lon="6.73974">
        <ele>768.74414</ele>
        <time>2014-08-31T10:54:26Z</time>
      </trkpt>
      <trkpt lat="46.0914" lon="6.73973">
        <ele>768.74414</ele>
        <time>2014-08-31T10:54:31Z</time>
      </trkpt>
      <trkpt lat="46.09134" lon="6.73974">
        <ele>768.74414</ele>
        <time>2014-08-31T10:54:36Z</time>
      </trkpt>
      <trkpt lat="46.09131" lon="6.73972">
        <ele>767.5484</ele>
        <time>2014-08-31T10:54:41Z</time>
      </trkpt>
      <trkpt lat="46.09129" lon="6.73972">
        <ele>767.5484</ele>
        <time>2014-08-31T10:54:46Z</time>
      </trkpt>
      <trkpt lat="46.09121" lon="6.73975">
        <ele>766.39136</ele>
        <time>2014-08-31T10:54:51Z</time>
      </trkpt>
      <trkpt lat="46.09119" lon="6.73974">
        <ele>766.39136</ele>
        <time>2014-08-31T10:54:56Z</time>
      </trkpt>
      <trkpt lat="46.09111" lon="6.73975">
        <ele>765.41364</ele>
        <time>2014-08-31T10:55:01Z</time>
      </trkpt>
      <trkpt lat="46.09105" lon="6.73976">
        <ele>765.41364</ele>
        <time>2014-08-31T10:55:06Z</time>
      </trkpt>
      <trkpt lat="46.09101" lon="6.73973">
        <ele>764.5287</ele>
        <time>2014-08-31T10:55:11Z</time>
      </trkpt>
      <trkpt lat="46.09101" lon="6.73968">
        <ele>764.5287</ele>
        <time>2014-08-31T10:55:16Z</time>
      </trkpt>
      <trkpt lat="46.09101" lon="6.73967">
        <ele>764.5287</ele>
        <time>2014-08-31T10:55:21Z</time>
      </trkpt>
      <trkpt lat="46.09102" lon="6.73968">
        <ele>764.5287</ele>
        <time>2014-08-31T10:55:26Z</time>
      </trkpt>
      <trkpt lat="46.09103" lon="6.73968">
        <ele>764.5287</ele>
        <time>2014-08-31T10:55:31Z</time>
      </trkpt>
      <trkpt lat="46.09103" lon="6.73968">
        <ele>764.5287</ele>
        <time>2014-08-31T10:55:36Z</time>
      </trkpt>
      <trkpt lat="46.09102" lon="6.73969">
        <ele>764.5287</ele>
        <time>2014-08-31T10:55:41Z</time>
      </trkpt>
      <trkpt lat="46.09102" lon="6.73967">
        <ele>763.6995</ele>
        <time>2014-08-31T10:55:46Z</time>
      </trkpt>
      <trkpt lat="46.09101" lon="6.73967">
        <ele>763.6995</ele>
        <time>2014-08-31T10:55:51Z</time>
      </trkpt>
      <trkpt lat="46.09102" lon="6.73966">
        <ele>763.6995</ele>
        <time>2014-08-31T10:55:56Z</time>
      </trkpt>
      <trkpt lat="46.09101" lon="6.73965">
        <ele>763.6995</ele>
        <time>2014-08-31T10:56:01Z</time>
      </trkpt>
      <trkpt lat="46.09098" lon="6.73959">
        <ele>763.6995</ele>
        <time>2014-08-31T10:56:06Z</time>
      </trkpt>
      <trkpt lat="46.09092" lon="6.73952">
        <ele>762.978</ele>
        <time>2014-08-31T10:56:11Z</time>
      </trkpt>
      <trkpt lat="46.09081" lon="6.73945">
        <ele>762.48395</ele>
        <time>2014-08-31T10:56:16Z</time>
      </trkpt>
      <trkpt lat="46.09074" lon="6.73944">
        <ele>762.48395</ele>
        <time>2014-08-31T10:56:21Z</time>
      </trkpt>
      <trkpt lat="46.09068" lon="6.73942">
        <ele>762.2556</ele>
        <time>2014-08-31T10:56:26Z</time>
      </trkpt>
      <trkpt lat="46.09058" lon="6.73942">
        <ele>762.227</ele>
        <time>2014-08-31T10:56:31Z</time>
      </trkpt>
      <trkpt lat="46.09052" lon="6.73938">
        <ele>762.227</ele>
        <time>2014-08-31T10:56:36Z</time>
      </trkpt>
      <trkpt lat="46.09047" lon="6.73932">
        <ele>762.3795</ele>
        <time>2014-08-31T10:56:41Z</time>
      </trkpt>
      <trkpt lat="46.09044" lon="6.73919">
        <ele>762.3795</ele>
        <time>2014-08-31T10:56:46Z</time>
      </trkpt>
      <trkpt lat="46.09042" lon="6.73913">
        <ele>762.79626</ele>
        <time>2014-08-31T10:56:51Z</time>
      </trkpt>
      <trkpt lat="46.0904" lon="6.73907">
        <ele>762.79626</ele>
        <time>2014-08-31T10:56:56Z</time>
      </trkpt>
      <trkpt lat="46.09038" lon="6.73897">
        <ele>763.3232</ele>
        <time>2014-08-31T10:57:01Z</time>
      </trkpt>
      <trkpt lat="46.09035" lon="6.7389">
        <ele>763.3232</ele>
        <time>2014-08-31T10:57:06Z</time>
      </trkpt>
      <trkpt lat="46.09034" lon="6.73887">
        <ele>763.3232</ele>
        <time>2014-08-31T10:57:11Z</time>
      </trkpt>
      <trkpt lat="46.09029" lon="6.7388">
        <ele>763.7738</ele>
        <time>2014-08-31T10:57:16Z</time>
      </trkpt>
      <trkpt lat="46.09027" lon="6.73876">
        <ele>763.7738</ele>
        <time>2014-08-31T10:57:21Z</time>
      </trkpt>
      <trkpt lat="46.09021" lon="6.73865">
        <ele>764.17755</ele>
        <time>2014-08-31T10:57:26Z</time>
      </trkpt>
      <trkpt lat="46.09018" lon="6.73858">
        <ele>764.17755</ele>
        <time>2014-08-31T10:57:31Z</time>
      </trkpt>
      <trkpt lat="46.09012" lon="6.73853">
        <ele>764.8211</ele>
        <time>2014-08-31T10:57:36Z</time>
      </trkpt>
      <trkpt lat="46.09012" lon="6.73852">
        <ele>764.8211</ele>
        <time>2014-08-31T10:57:41Z</time>
      </trkpt>
      <trkpt lat="46.09014" lon="6.73848">
        <ele>764.8211</ele>
        <time>2014-08-31T10:57:46Z</time>
      </trkpt>
      <trkpt lat="46.09014" lon="6.73848">
        <ele>764.8211</ele>
        <time>2014-08-31T10:57:51Z</time>
      </trkpt>
      <trkpt lat="46.09019" lon="6.73843">
        <ele>765.3212</ele>
        <time>2014-08-31T10:58:16Z</time>
      </trkpt>
      <trkpt lat="46.09021" lon="6.7384">
        <ele>765.3212</ele>
        <time>2014-08-31T10:58:21Z</time>
      </trkpt>
      <trkpt lat="46.09022" lon="6.73837">
        <ele>765.3212</ele>
        <time>2014-08-31T10:58:26Z</time>
      </trkpt>
      <trkpt lat="46.09022" lon="6.73837">
        <ele>765.3212</ele>
        <time>2014-08-31T10:58:31Z</time>
      </trkpt>
      <trkpt lat="46.09023" lon="6.73837">
        <ele>765.3212</ele>
        <time>2014-08-31T10:58:46Z</time>
      </trkpt>
      <trkpt lat="46.09027" lon="6.73832">
        <ele>765.4817</ele>
        <time>2014-08-31T10:58:51Z</time>
      </trkpt>
      <trkpt lat="46.09031" lon="6.73826">
        <ele>765.4817</ele>
        <time>2014-08-31T10:58:56Z</time>
      </trkpt>
      <trkpt lat="46.09033" lon="6.7382">
        <ele>765.72705</ele>
        <time>2014-08-31T10:59:01Z</time>
      </trkpt>
      <trkpt lat="46.09033" lon="6.73813">
        <ele>765.72705</ele>
        <time>2014-08-31T10:59:06Z</time>
      </trkpt>
      <trkpt lat="46.09031" lon="6.73809">
        <ele>765.72705</ele>
        <time>2014-08-31T10:59:11Z</time>
      </trkpt>
      <trkpt lat="46.09028" lon="6.73802">
        <ele>766.16223</ele>
        <time>2014-08-31T10:59:16Z</time>
      </trkpt>
      <trkpt lat="46.09027" lon="6.73792">
        <ele>766.16223</ele>
        <time>2014-08-31T10:59:21Z</time>
      </trkpt>
      <trkpt lat="46.09025" lon="6.73786">
        <ele>766.6392</ele>
        <time>2014-08-31T10:59:26Z</time>
      </trkpt>
      <trkpt lat="46.09022" lon="6.73781">
        <ele>766.6392</ele>
        <time>2014-08-31T10:59:31Z</time>
      </trkpt>
      <trkpt lat="46.09017" lon="6.73783">
        <ele>767.2657</ele>
        <time>2014-08-31T10:59:36Z</time>
      </trkpt>
      <trkpt lat="46.09016" lon="6.73782">
        <ele>767.2657</ele>
        <time>2014-08-31T10:59:41Z</time>
      </trkpt>
      <trkpt lat="46.09014" lon="6.7378">
        <ele>767.2657</ele>
        <time>2014-08-31T10:59:46Z</time>
      </trkpt>
      <trkpt lat="46.09004" lon="6.73775">
        <ele>768.2132</ele>
        <time>2014-08-31T10:59:51Z</time>
      </trkpt>
      <trkpt lat="46.08999" lon="6.73773">
        <ele>768.2132</ele>
        <time>2014-08-31T10:59:56Z</time>
      </trkpt>
      <trkpt lat="46.08992" lon="6.7377">
        <ele>769.1644</ele>
        <time>2014-08-31T11:00:01Z</time>
      </trkpt>
      <trkpt lat="46.08993" lon="6.73768">
        <ele>769.1644</ele>
        <time>2014-08-31T11:00:06Z</time>
      </trkpt>
      <trkpt lat="46.08993" lon="6.73767">
        <ele>769.1644</ele>
        <time>2014-08-31T11:00:11Z</time>
      </trkpt>
      <trkpt lat="46.08993" lon="6.73767">
        <ele>769.1644</ele>
        <time>2014-08-31T11:00:16Z</time>
      </trkpt>
      <trkpt lat="46.08992" lon="6.73767">
        <ele>769.1644</ele>
        <time>2014-08-31T11:00:21Z</time>
      </trkpt>
      <trkpt lat="46.08991" lon="6.73766">
        <ele>769.1644</ele>
        <time>2014-08-31T11:00:26Z</time>
      </trkpt>
      <trkpt lat="46.08991" lon="6.73766">
        <ele>769.1644</ele>
        <time>2014-08-31T11:00:31Z</time>
      </trkpt>
      <trkpt lat="46.0899" lon="6.73765">
        <ele>769.1644</ele>
        <time>2014-08-31T11:01:21Z</time>
      </trkpt>
      <trkpt lat="46.08989" lon="6.73765">
        <ele>769.1644</ele>
        <time>2014-08-31T11:01:26Z</time>
      </trkpt>
      <trkpt lat="46.08989" lon="6.73765">
        <ele>769.1644</ele>
        <time>2014-08-31T11:01:31Z</time>
      </trkpt>
      <trkpt lat="46.0899" lon="6.73762">
        <ele>770.70447</ele>
        <time>2014-08-31T11:01:46Z</time>
      </trkpt>
      <trkpt lat="46.08989" lon="6.73763">
        <ele>770.70447</ele>
        <time>2014-08-31T11:01:51Z</time>
      </trkpt>
      <trkpt lat="46.08993" lon="6.73768">
        <ele>770.70447</ele>
        <time>2014-08-31T11:01:56Z</time>
      </trkpt>
      <trkpt lat="46.08999" lon="6.73779">
        <ele>772.077</ele>
        <time>2014-08-31T11:02:01Z</time>
      </trkpt>
      <trkpt lat="46.09002" lon="6.73786">
        <ele>772.077</ele>
        <time>2014-08-31T11:02:06Z</time>
      </trkpt>
      <trkpt lat="46.09004" lon="6.73791">
        <ele>773.5186</ele>
        <time>2014-08-31T11:02:11Z</time>
      </trkpt>
      <trkpt lat="46.0901" lon="6.73796">
        <ele>773.5186</ele>
        <time>2014-08-31T11:02:16Z</time>
      </trkpt>
      <trkpt lat="46.09012" lon="6.73794">
        <ele>774.91693</ele>
        <time>2014-08-31T11:02:21Z</time>
      </trkpt>
      <trkpt lat="46.09014" lon="6.73793">
        <ele>774.91693</ele>
        <time>2014-08-31T11:02:26Z</time>
      </trkpt>
      <trkpt lat="46.09014" lon="6.73793">
        <ele>774.91693</ele>
        <time>2014-08-31T11:02:31Z</time>
      </trkpt>
      <trkpt lat="46.09016" lon="6.73794">
        <ele>774.91693</ele>
        <time>2014-08-31T11:02:36Z</time>
      </trkpt>
      <trkpt lat="46.09019" lon="6.73801">
        <ele>776.24023</ele>
        <time>2014-08-31T11:02:41Z</time>
      </trkpt>
      <trkpt lat="46.09023" lon="6.73807">
        <ele>776.24023</ele>
        <time>2014-08-31T11:02:46Z</time>
      </trkpt>
      <trkpt lat="46.09025" lon="6.73814">
        <ele>777.373</ele>
        <time>2014-08-31T11:02:51Z</time>
      </trkpt>
      <trkpt lat="46.09028" lon="6.73821">
        <ele>777.373</ele>
        <time>2014-08-31T11:02:56Z</time>
      </trkpt>
      <trkpt lat="46.09031" lon="6.73832">
        <ele>778.3531</ele>
        <time>2014-08-31T11:03:01Z</time>
      </trkpt>
      <trkpt lat="46.09031" lon="6.73841">
        <ele>778.3531</ele>
        <time>2014-08-31T11:03:06Z</time>
      </trkpt>
      <trkpt lat="46.09031" lon="6.73847">
        <ele>779.3603</ele>
        <time>2014-08-31T11:03:11Z</time>
      </trkpt>
      <trkpt lat="46.09026" lon="6.73855">
        <ele>779.3603</ele>
        <time>2014-08-31T11:03:16Z</time>
      </trkpt>
      <trkpt lat="46.09022" lon="6.73859">
        <ele>780.31616</ele>
        <time>2014-08-31T11:03:21Z</time>
      </trkpt>
      <trkpt lat="46.09015" lon="6.73865">
        <ele>780.31616</ele>
        <time>2014-08-31T11:03:26Z</time>
      </trkpt>
      <trkpt lat="46.09012" lon="6.73866">
        <ele>781.2061</ele>
        <time>2014-08-31T11:03:31Z</time>
      </trkpt>
      <trkpt lat="46.09012" lon="6.73865">
        <ele>781.2061</ele>
        <time>2014-08-31T11:03:36Z</time>
      </trkpt>
      <trkpt lat="46.09007" lon="6.73867">
        <ele>781.2061</ele>
        <time>2014-08-31T11:03:41Z</time>
      </trkpt>
      <trkpt lat="46.08998" lon="6.73859">
        <ele>781.98816</ele>
        <time>2014-08-31T11:03:46Z</time>
      </trkpt>
      <trkpt lat="46.0899" lon="6.73852">
        <ele>782.65265</ele>
        <time>2014-08-31T11:03:51Z</time>
      </trkpt>
      <trkpt lat="46.08984" lon="6.73847">
        <ele>782.65265</ele>
        <time>2014-08-31T11:03:56Z</time>
      </trkpt>
      <trkpt lat="46.08977" lon="6.73844">
        <ele>783.16235</ele>
        <time>2014-08-31T11:04:01Z</time>
      </trkpt>
      <trkpt lat="46.0897" lon="6.7384">
        <ele>783.16235</ele>
        <time>2014-08-31T11:04:06Z</time>
      </trkpt>
      <trkpt lat="46.08964" lon="6.73841">
        <ele>783.6418</ele>
        <time>2014-08-31T11:04:11Z</time>
      </trkpt>
      <trkpt lat="46.08958" lon="6.73839">
        <ele>783.6418</ele>
        <time>2014-08-31T11:04:16Z</time>
      </trkpt>
      <trkpt lat="46.08952" lon="6.73833">
        <ele>784.09143</ele>
        <time>2014-08-31T11:04:21Z</time>
      </trkpt>
      <trkpt lat="46.08949" lon="6.7383">
        <ele>784.09143</ele>
        <time>2014-08-31T11:04:26Z</time>
      </trkpt>
      <trkpt lat="46.08944" lon="6.73831">
        <ele>784.49744</ele>
        <time>2014-08-31T11:04:31Z</time>
      </trkpt>
      <trkpt lat="46.08936" lon="6.73832">
        <ele>784.49744</ele>
        <time>2014-08-31T11:04:36Z</time>
      </trkpt>
      <trkpt lat="46.08929" lon="6.73831">
        <ele>784.7176</ele>
        <time>2014-08-31T11:04:41Z</time>
      </trkpt>
      <trkpt lat="46.08923" lon="6.73831">
        <ele>784.7176</ele>
        <time>2014-08-31T11:04:46Z</time>
      </trkpt>
      <trkpt lat="46.08915" lon="6.73831">
        <ele>784.664</ele>
        <time>2014-08-31T11:04:51Z</time>
      </trkpt>
      <trkpt lat="46.08906" lon="6.7383">
        <ele>784.57324</ele>
        <time>2014-08-31T11:04:56Z</time>
      </trkpt>
      <trkpt lat="46.089" lon="6.73829">
        <ele>784.57324</ele>
        <time>2014-08-31T11:05:01Z</time>
      </trkpt>
      <trkpt lat="46.08892" lon="6.73827">
        <ele>784.434</ele>
        <time>2014-08-31T11:05:06Z</time>
      </trkpt>
      <trkpt lat="46.08888" lon="6.73828">
        <ele>784.434</ele>
        <time>2014-08-31T11:05:11Z</time>
      </trkpt>
      <trkpt lat="46.08885" lon="6.73828">
        <ele>784.434</ele>
        <time>2014-08-31T11:05:16Z</time>
      </trkpt>
      <trkpt lat="46.0888" lon="6.73828">
        <ele>784.1065</ele>
        <time>2014-08-31T11:05:21Z</time>
      </trkpt>
      <trkpt lat="46.08874" lon="6.73826">
        <ele>784.1065</ele>
        <time>2014-08-31T11:05:26Z</time>
      </trkpt>
      <trkpt lat="46.08867" lon="6.73823">
        <ele>783.67786</ele>
        <time>2014-08-31T11:05:31Z</time>
      </trkpt>
      <trkpt lat="46.08861" lon="6.7382">
        <ele>783.67786</ele>
        <time>2014-08-31T11:05:36Z</time>
      </trkpt>
      <trkpt lat="46.08855" lon="6.73814">
        <ele>783.1285</ele>
        <time>2014-08-31T11:05:41Z</time>
      </trkpt>
      <trkpt lat="46.08848" lon="6.73804">
        <ele>782.6134</ele>
        <time>2014-08-31T11:05:46Z</time>
      </trkpt>
      <trkpt lat="46.08843" lon="6.73795">
        <ele>782.6134</ele>
        <time>2014-08-31T11:05:51Z</time>
      </trkpt>
      <trkpt lat="46.08838" lon="6.73787">
        <ele>782.21857</ele>
        <time>2014-08-31T11:05:56Z</time>
      </trkpt>
      <trkpt lat="46.08831" lon="6.73784">
        <ele>782.21857</ele>
        <time>2014-08-31T11:06:01Z</time>
      </trkpt>
      <trkpt lat="46.08825" lon="6.73782">
        <ele>781.8794</ele>
        <time>2014-08-31T11:06:06Z</time>
      </trkpt>
      <trkpt lat="46.08818" lon="6.7378">
        <ele>781.8794</ele>
        <time>2014-08-31T11:06:11Z</time>
      </trkpt>
      <trkpt lat="46.0881" lon="6.73775">
        <ele>781.507</ele>
        <time>2014-08-31T11:06:16Z</time>
      </trkpt>
      <trkpt lat="46.08804" lon="6.73771">
        <ele>781.507</ele>
        <time>2014-08-31T11:06:21Z</time>
      </trkpt>
      <trkpt lat="46.088" lon="6.73769">
        <ele>781.1776</ele>
        <time>2014-08-31T11:06:26Z</time>
      </trkpt>
      <trkpt lat="46.08794" lon="6.73765">
        <ele>781.1776</ele>
        <time>2014-08-31T11:06:31Z</time>
      </trkpt>
      <trkpt lat="46.08788" lon="6.73762">
        <ele>780.81775</ele>
        <time>2014-08-31T11:06:36Z</time>
      </trkpt>
      <trkpt lat="46.08782" lon="6.73757">
        <ele>780.81775</ele>
        <time>2014-08-31T11:06:41Z</time>
      </trkpt>
      <trkpt lat="46.08776" lon="6.73751">
        <ele>780.51794</ele>
        <time>2014-08-31T11:06:46Z</time>
      </trkpt>
      <trkpt lat="46.08772" lon="6.73744">
        <ele>780.51794</ele>
        <time>2014-08-31T11:06:51Z</time>
      </trkpt>
      <trkpt lat="46.08765" lon="6.73741">
        <ele>780.3763</ele>
        <time>2014-08-31T11:06:56Z</time>
      </trkpt>
      <trkpt lat="46.08761" lon="6.73737">
        <ele>780.3763</ele>
        <time>2014-08-31T11:07:01Z</time>
      </trkpt>
      <trkpt lat="46.08756" lon="6.73736">
        <ele>780.195</ele>
        <time>2014-08-31T11:07:06Z</time>
      </trkpt>
      <trkpt lat="46.08747" lon="6.73733">
        <ele>780.195</ele>
        <time>2014-08-31T11:07:11Z</time>
      </trkpt>
      <trkpt lat="46.08744" lon="6.73732">
        <ele>779.9784</ele>
        <time>2014-08-31T11:07:16Z</time>
      </trkpt>
      <trkpt lat="46.08739" lon="6.73729">
        <ele>779.9784</ele>
        <time>2014-08-31T11:07:21Z</time>
      </trkpt>
      <trkpt lat="46.08731" lon="6.73723">
        <ele>779.65845</ele>
        <time>2014-08-31T11:07:26Z</time>
      </trkpt>
      <trkpt lat="46.08728" lon="6.73721">
        <ele>779.65845</ele>
        <time>2014-08-31T11:07:31Z</time>
      </trkpt>
      <trkpt lat="46.08721" lon="6.73718">
        <ele>779.1579</ele>
        <time>2014-08-31T11:07:36Z</time>
      </trkpt>
      <trkpt lat="46.08715" lon="6.73713">
        <ele>779.1579</ele>
        <time>2014-08-31T11:07:41Z</time>
      </trkpt>
      <trkpt lat="46.0871" lon="6.7371">
        <ele>778.5499</ele>
        <time>2014-08-31T11:07:46Z</time>
      </trkpt>
      <trkpt lat="46.08706" lon="6.73705">
        <ele>778.5499</ele>
        <time>2014-08-31T11:07:51Z</time>
      </trkpt>
      <trkpt lat="46.08704" lon="6.73696">
        <ele>777.81604</ele>
        <time>2014-08-31T11:07:56Z</time>
      </trkpt>
      <trkpt lat="46.08701" lon="6.73686">
        <ele>777.81604</ele>
        <time>2014-08-31T11:08:01Z</time>
      </trkpt>
      <trkpt lat="46.08701" lon="6.73673">
        <ele>776.9972</ele>
        <time>2014-08-31T11:08:06Z</time>
      </trkpt>
      <trkpt lat="46.08702" lon="6.73668">
        <ele>776.9972</ele>
        <time>2014-08-31T11:08:11Z</time>
      </trkpt>
      <trkpt lat="46.08702" lon="6.7366">
        <ele>776.9972</ele>
        <time>2014-08-31T11:08:16Z</time>
      </trkpt>
      <trkpt lat="46.08701" lon="6.73652">
        <ele>775.9873</ele>
        <time>2014-08-31T11:08:21Z</time>
      </trkpt>
      <trkpt lat="46.08697" lon="6.73643">
        <ele>775.9873</ele>
        <time>2014-08-31T11:08:26Z</time>
      </trkpt>
      <trkpt lat="46.08694" lon="6.73632">
        <ele>774.96246</ele>
        <time>2014-08-31T11:08:31Z</time>
      </trkpt>
      <trkpt lat="46.0869" lon="6.73622">
        <ele>774.96246</ele>
        <time>2014-08-31T11:08:36Z</time>
      </trkpt>
      <trkpt lat="46.08686" lon="6.7361">
        <ele>774.1146</ele>
        <time>2014-08-31T11:08:41Z</time>
      </trkpt>
      <trkpt lat="46.08682" lon="6.73603">
        <ele>774.1146</ele>
        <time>2014-08-31T11:08:46Z</time>
      </trkpt>
      <trkpt lat="46.08679" lon="6.73598">
        <ele>773.39056</ele>
        <time>2014-08-31T11:08:51Z</time>
      </trkpt>
      <trkpt lat="46.08676" lon="6.7359">
        <ele>773.39056</ele>
        <time>2014-08-31T11:08:56Z</time>
      </trkpt>
      <trkpt lat="46.08673" lon="6.73584">
        <ele>772.6972</ele>
        <time>2014-08-31T11:09:01Z</time>
      </trkpt>
      <trkpt lat="46.08667" lon="6.73579">
        <ele>772.6972</ele>
        <time>2014-08-31T11:09:06Z</time>
      </trkpt>
      <trkpt lat="46.08663" lon="6.73573">
        <ele>772.0492</ele>
        <time>2014-08-31T11:09:11Z</time>
      </trkpt>
      <trkpt lat="46.08657" lon="6.73563">
        <ele>771.63275</ele>
        <time>2014-08-31T11:09:16Z</time>
      </trkpt>
      <trkpt lat="46.08652" lon="6.73558">
        <ele>771.63275</ele>
        <time>2014-08-31T11:09:21Z</time>
      </trkpt>
      <trkpt lat="46.08649" lon="6.73554">
        <ele>771.30273</ele>
        <time>2014-08-31T11:09:26Z</time>
      </trkpt>
      <trkpt lat="46.08645" lon="6.73549">
        <ele>771.30273</ele>
        <time>2014-08-31T11:09:31Z</time>
      </trkpt>
      <trkpt lat="46.08643" lon="6.73546">
        <ele>771.30273</ele>
        <time>2014-08-31T11:09:36Z</time>
      </trkpt>
      <trkpt lat="46.08637" lon="6.73538">
        <ele>771.3133</ele>
        <time>2014-08-31T11:09:41Z</time>
      </trkpt>
      <trkpt lat="46.08632" lon="6.7353">
        <ele>771.3133</ele>
        <time>2014-08-31T11:09:46Z</time>
      </trkpt>
      <trkpt lat="46.08631" lon="6.73529">
        <ele>771.3133</ele>
        <time>2014-08-31T11:09:51Z</time>
      </trkpt>
      <trkpt lat="46.08626" lon="6.73526">
        <ele>771.2362</ele>
        <time>2014-08-31T11:09:56Z</time>
      </trkpt>
      <trkpt lat="46.08615" lon="6.73512">
        <ele>771.12146</ele>
        <time>2014-08-31T11:10:01Z</time>
      </trkpt>
      <trkpt lat="46.08609" lon="6.73499">
        <ele>770.9435</ele>
        <time>2014-08-31T11:10:06Z</time>
      </trkpt>
      <trkpt lat="46.08606" lon="6.73494">
        <ele>770.9435</ele>
        <time>2014-08-31T11:10:11Z</time>
      </trkpt>
      <trkpt lat="46.08604" lon="6.7349">
        <ele>770.9435</ele>
        <time>2014-08-31T11:10:16Z</time>
      </trkpt>
      <trkpt lat="46.08598" lon="6.73484">
        <ele>770.376</ele>
        <time>2014-08-31T11:10:21Z</time>
      </trkpt>
      <trkpt lat="46.08593" lon="6.73473">
        <ele>770.376</ele>
        <time>2014-08-31T11:10:26Z</time>
      </trkpt>
      <trkpt lat="46.08588" lon="6.73468">
        <ele>769.85266</ele>
        <time>2014-08-31T11:10:31Z</time>
      </trkpt>
      <trkpt lat="46.08584" lon="6.73465">
        <ele>769.85266</ele>
        <time>2014-08-31T11:10:36Z</time>
      </trkpt>
      <trkpt lat="46.08581" lon="6.73462">
        <ele>769.85266</ele>
        <time>2014-08-31T11:10:41Z</time>
      </trkpt>
      <trkpt lat="46.0858" lon="6.73461">
        <ele>769.415</ele>
        <time>2014-08-31T11:10:46Z</time>
      </trkpt>
      <trkpt lat="46.08573" lon="6.73452">
        <ele>769.00006</ele>
        <time>2014-08-31T11:10:51Z</time>
      </trkpt>
      <trkpt lat="46.08567" lon="6.73445">
        <ele>769.00006</ele>
        <time>2014-08-31T11:10:56Z</time>
      </trkpt>
      <trkpt lat="46.08561" lon="6.7344">
        <ele>768.4488</ele>
        <time>2014-08-31T11:11:01Z</time>
      </trkpt>
      <trkpt lat="46.08556" lon="6.73437">
        <ele>768.4488</ele>
        <time>2014-08-31T11:11:06Z</time>
      </trkpt>
      <trkpt lat="46.08553" lon="6.73434">
        <ele>768.4488</ele>
        <time>2014-08-31T11:11:11Z</time>
      </trkpt>
      <trkpt lat="46.08548" lon="6.7343">
        <ele>767.59955</ele>
        <time>2014-08-31T11:11:16Z</time>
      </trkpt>
      <trkpt lat="46.08538" lon="6.73421">
        <ele>766.6925</ele>
        <time>2014-08-31T11:11:21Z</time>
      </trkpt>
      <trkpt lat="46.08531" lon="6.7342">
        <ele>766.6925</ele>
        <time>2014-08-31T11:11:26Z</time>
      </trkpt>
      <trkpt lat="46.08527" lon="6.73417">
        <ele>765.8351</ele>
        <time>2014-08-31T11:11:31Z</time>
      </trkpt>
      <trkpt lat="46.08522" lon="6.73413">
        <ele>765.8351</ele>
        <time>2014-08-31T11:11:36Z</time>
      </trkpt>
      <trkpt lat="46.08516" lon="6.73411">
        <ele>765.1265</ele>
        <time>2014-08-31T11:11:41Z</time>
      </trkpt>
      <trkpt lat="46.08511" lon="6.73406">
        <ele>765.1265</ele>
        <time>2014-08-31T11:11:46Z</time>
      </trkpt>
      <trkpt lat="46.08507" lon="6.73398">
        <ele>764.44214</ele>
        <time>2014-08-31T11:11:51Z</time>
      </trkpt>
      <trkpt lat="46.08503" lon="6.73391">
        <ele>764.44214</ele>
        <time>2014-08-31T11:11:56Z</time>
      </trkpt>
      <trkpt lat="46.08502" lon="6.7339">
        <ele>764.44214</ele>
        <time>2014-08-31T11:12:01Z</time>
      </trkpt>
      <trkpt lat="46.08505" lon="6.73389">
        <ele>763.5366</ele>
        <time>2014-08-31T11:12:21Z</time>
      </trkpt>
      <trkpt lat="46.08505" lon="6.73389">
        <ele>763.5366</ele>
        <time>2014-08-31T11:12:26Z</time>
      </trkpt>
      <trkpt lat="46.08502" lon="6.734">
        <ele>763.5366</ele>
        <time>2014-08-31T11:14:16Z</time>
      </trkpt>
      <trkpt lat="46.08505" lon="6.7341">
        <ele>762.1832</ele>
        <time>2014-08-31T11:14:21Z</time>
      </trkpt>
      <trkpt lat="46.08506" lon="6.73414">
        <ele>762.1832</ele>
        <time>2014-08-31T11:14:26Z</time>
      </trkpt>
      <trkpt lat="46.08506" lon="6.73415">
        <ele>762.1832</ele>
        <time>2014-08-31T11:14:31Z</time>
      </trkpt>
      <trkpt lat="46.08506" lon="6.73415">
        <ele>762.1832</ele>
        <time>2014-08-31T11:14:36Z</time>
      </trkpt>
      <trkpt lat="46.08506" lon="6.73414">
        <ele>762.1832</ele>
        <time>2014-08-31T11:14:41Z</time>
      </trkpt>
      <trkpt lat="46.08507" lon="6.73415">
        <ele>762.1832</ele>
        <time>2014-08-31T11:14:46Z</time>
      </trkpt>
      <trkpt lat="46.08507" lon="6.73415">
        <ele>762.1832</ele>
        <time>2014-08-31T11:14:51Z</time>
      </trkpt>
      <trkpt lat="46.08507" lon="6.73416">
        <ele>762.1832</ele>
        <time>2014-08-31T11:14:56Z</time>
      </trkpt>
      <trkpt lat="46.08507" lon="6.73416">
        <ele>762.1832</ele>
        <time>2014-08-31T11:15:01Z</time>
      </trkpt>
      <trkpt lat="46.08508" lon="6.73412">
        <ele>760.5046</ele>
        <time>2014-08-31T11:15:41Z</time>
      </trkpt>
      <trkpt lat="46.08508" lon="6.73411">
        <ele>760.5046</ele>
        <time>2014-08-31T11:15:46Z</time>
      </trkpt>
      <trkpt lat="46.08508" lon="6.7341">
        <ele>760.5046</ele>
        <time>2014-08-31T11:15:51Z</time>
      </trkpt>
      <trkpt lat="46.08508" lon="6.73409">
        <ele>760.5046</ele>
        <time>2014-08-31T11:15:56Z</time>
      </trkpt>
      <trkpt lat="46.08508" lon="6.7341">
        <ele>760.5046</ele>
        <time>2014-08-31T11:16:01Z</time>
      </trkpt>
      <trkpt lat="46.08505" lon="6.73407">
        <ele>760.5046</ele>
        <time>2014-08-31T11:17:11Z</time>
      </trkpt>
      <trkpt lat="46.08504" lon="6.73407">
        <ele>760.5046</ele>
        <time>2014-08-31T11:17:16Z</time>
      </trkpt>
      <trkpt lat="46.08499" lon="6.73406">
        <ele>758.8888</ele>
        <time>2014-08-31T11:17:21Z</time>
      </trkpt>
      <trkpt lat="46.08495" lon="6.73409">
        <ele>758.8888</ele>
        <time>2014-08-31T11:17:26Z</time>
      </trkpt>
      <trkpt lat="46.08491" lon="6.73418">
        <ele>757.191</ele>
        <time>2014-08-31T11:17:31Z</time>
      </trkpt>
      <trkpt lat="46.08487" lon="6.73423">
        <ele>757.191</ele>
        <time>2014-08-31T11:17:36Z</time>
      </trkpt>
      <trkpt lat="46.08483" lon="6.73426">
        <ele>755.4211</ele>
        <time>2014-08-31T11:17:41Z</time>
      </trkpt>
      <trkpt lat="46.08479" lon="6.73427">
        <ele>755.4211</ele>
        <time>2014-08-31T11:17:46Z</time>
      </trkpt>
      <trkpt lat="46.08476" lon="6.73427">
        <ele>755.4211</ele>
        <time>2014-08-31T11:17:51Z</time>
      </trkpt>
      <trkpt lat="46.08472" lon="6.73426">
        <ele>753.4156</ele>
        <time>2014-08-31T11:17:56Z</time>
      </trkpt>
      <trkpt lat="46.08467" lon="6.73425">
        <ele>753.4156</ele>
        <time>2014-08-31T11:18:01Z</time>
      </trkpt>
      <trkpt lat="46.08459" lon="6.73422">
        <ele>751.35486</ele>
        <time>2014-08-31T11:18:06Z</time>
      </trkpt>
      <trkpt lat="46.08455" lon="6.73415">
        <ele>751.35486</ele>
        <time>2014-08-31T11:18:11Z</time>
      </trkpt>
      <trkpt lat="46.08452" lon="6.73409">
        <ele>749.3054</ele>
        <time>2014-08-31T11:18:16Z</time>
      </trkpt>
      <trkpt lat="46.08449" lon="6.73404">
        <ele>749.3054</ele>
        <time>2014-08-31T11:18:21Z</time>
      </trkpt>
      <trkpt lat="46.08445" lon="6.73392">
        <ele>747.242</ele>
        <time>2014-08-31T11:18:26Z</time>
      </trkpt>
      <trkpt lat="46.08441" lon="6.73391">
        <ele>747.242</ele>
        <time>2014-08-31T11:18:31Z</time>
      </trkpt>
      <trkpt lat="46.08438" lon="6.73394">
        <ele>747.242</ele>
        <time>2014-08-31T11:18:36Z</time>
      </trkpt>
      <trkpt lat="46.08433" lon="6.73398">
        <ele>744.7956</ele>
        <time>2014-08-31T11:18:41Z</time>
      </trkpt>
      <trkpt lat="46.08429" lon="6.73401">
        <ele>744.7956</ele>
        <time>2014-08-31T11:18:46Z</time>
      </trkpt>
      <trkpt lat="46.08424" lon="6.73404">
        <ele>742.187</ele>
        <time>2014-08-31T11:18:51Z</time>
      </trkpt>
      <trkpt lat="46.08418" lon="6.73406">
        <ele>742.187</ele>
        <time>2014-08-31T11:18:56Z</time>
      </trkpt>
      <trkpt lat="46.08412" lon="6.73405">
        <ele>739.5925</ele>
        <time>2014-08-31T11:19:01Z</time>
      </trkpt>
      <trkpt lat="46.08406" lon="6.73403">
        <ele>739.5925</ele>
        <time>2014-08-31T11:19:06Z</time>
      </trkpt>
      <trkpt lat="46.08399" lon="6.73398">
        <ele>737.0599</ele>
        <time>2014-08-31T11:19:11Z</time>
      </trkpt>
      <trkpt lat="46.084" lon="6.73396">
        <ele>737.0599</ele>
        <time>2014-08-31T11:19:16Z</time>
      </trkpt>
      <trkpt lat="46.084" lon="6.73396">
        <ele>737.0599</ele>
        <time>2014-08-31T11:19:21Z</time>
      </trkpt>
      <trkpt lat="46.084" lon="6.73396">
        <ele>737.0599</ele>
        <time>2014-08-31T11:19:36Z</time>
      </trkpt>
      <trkpt lat="46.08404" lon="6.73397">
        <ele>737.0599</ele>
        <time>2014-08-31T11:19:41Z</time>
      </trkpt>
      <trkpt lat="46.08405" lon="6.73398">
        <ele>737.0599</ele>
        <time>2014-08-31T11:19:46Z</time>
      </trkpt>
      <trkpt lat="46.08404" lon="6.73398">
        <ele>737.0599</ele>
        <time>2014-08-31T11:19:51Z</time>
      </trkpt>
      <trkpt lat="46.08404" lon="6.73398">
        <ele>737.0599</ele>
        <time>2014-08-31T11:19:56Z</time>
      </trkpt>
      <trkpt lat="46.08405" lon="6.73396">
        <ele>737.0599</ele>
        <time>2014-08-31T11:20:11Z</time>
      </trkpt>
      <trkpt lat="46.08405" lon="6.73396">
        <ele>737.0599</ele>
        <time>2014-08-31T11:20:16Z</time>
      </trkpt>
      <trkpt lat="46.08406" lon="6.73396">
        <ele>734.05664</ele>
        <time>2014-08-31T11:20:36Z</time>
      </trkpt>
      <trkpt lat="46.08403" lon="6.73402">
        <ele>734.05664</ele>
        <time>2014-08-31T11:20:41Z</time>
      </trkpt>
      <trkpt lat="46.08399" lon="6.73412">
        <ele>731.14264</ele>
        <time>2014-08-31T11:20:46Z</time>
      </trkpt>
      <trkpt lat="46.08398" lon="6.7342">
        <ele>731.14264</ele>
        <time>2014-08-31T11:20:51Z</time>
      </trkpt>
      <trkpt lat="46.084" lon="6.7343">
        <ele>728.46155</ele>
        <time>2014-08-31T11:20:56Z</time>
      </trkpt>
      <trkpt lat="46.084" lon="6.7344">
        <ele>728.46155</ele>
        <time>2014-08-31T11:21:01Z</time>
      </trkpt>
      <trkpt lat="46.084" lon="6.73448">
        <ele>726.2032</ele>
        <time>2014-08-31T11:21:06Z</time>
      </trkpt>
      <trkpt lat="46.08399" lon="6.73458">
        <ele>726.2032</ele>
        <time>2014-08-31T11:21:11Z</time>
      </trkpt>
      <trkpt lat="46.08399" lon="6.73468">
        <ele>724.38367</ele>
        <time>2014-08-31T11:21:16Z</time>
      </trkpt>
      <trkpt lat="46.08399" lon="6.73476">
        <ele>724.38367</ele>
        <time>2014-08-31T11:21:21Z</time>
      </trkpt>
      <trkpt lat="46.08396" lon="6.73485">
        <ele>722.9733</ele>
        <time>2014-08-31T11:21:26Z</time>
      </trkpt>
      <trkpt lat="46.08395" lon="6.73486">
        <ele>722.9733</ele>
        <time>2014-08-31T11:21:31Z</time>
      </trkpt>
      <trkpt lat="46.08395" lon="6.73486">
        <ele>722.9733</ele>
        <time>2014-08-31T11:21:36Z</time>
      </trkpt>
      <trkpt lat="46.08394" lon="6.73487">
        <ele>722.9733</ele>
        <time>2014-08-31T11:21:41Z</time>
      </trkpt>
      <trkpt lat="46.08394" lon="6.73487">
        <ele>722.9733</ele>
        <time>2014-08-31T11:21:46Z</time>
      </trkpt>
      <trkpt lat="46.08394" lon="6.73487">
        <ele>722.9733</ele>
        <time>2014-08-31T11:21:51Z</time>
      </trkpt>
      <trkpt lat="46.08393" lon="6.73486">
        <ele>722.9733</ele>
        <time>2014-08-31T11:22:01Z</time>
      </trkpt>
      <trkpt lat="46.0839" lon="6.7348">
        <ele>721.4389</ele>
        <time>2014-08-31T11:22:06Z</time>
      </trkpt>
      <trkpt lat="46.08386" lon="6.73468">
        <ele>720.2377</ele>
        <time>2014-08-31T11:22:11Z</time>
      </trkpt>
      <trkpt lat="46.08383" lon="6.73461">
        <ele>720.2377</ele>
        <time>2014-08-31T11:22:16Z</time>
      </trkpt>
      <trkpt lat="46.08381" lon="6.73455">
        <ele>719.30225</ele>
        <time>2014-08-31T11:22:21Z</time>
      </trkpt>
      <trkpt lat="46.08376" lon="6.7345">
        <ele>719.30225</ele>
        <time>2014-08-31T11:22:26Z</time>
      </trkpt>
      <trkpt lat="46.0837" lon="6.73446">
        <ele>718.6558</ele>
        <time>2014-08-31T11:22:31Z</time>
      </trkpt>
      <trkpt lat="46.08367" lon="6.73444">
        <ele>718.6558</ele>
        <time>2014-08-31T11:22:36Z</time>
      </trkpt>
      <trkpt lat="46.08362" lon="6.7344">
        <ele>718.16046</ele>
        <time>2014-08-31T11:22:41Z</time>
      </trkpt>
      <trkpt lat="46.08357" lon="6.73439">
        <ele>718.16046</ele>
        <time>2014-08-31T11:22:46Z</time>
      </trkpt>
      <trkpt lat="46.08356" lon="6.73438">
        <ele>718.16046</ele>
        <time>2014-08-31T11:22:51Z</time>
      </trkpt>
      <trkpt lat="46.0835" lon="6.73436">
        <ele>717.94714</ele>
        <time>2014-08-31T11:22:56Z</time>
      </trkpt>
      <trkpt lat="46.08346" lon="6.73437">
        <ele>717.94714</ele>
        <time>2014-08-31T11:23:01Z</time>
      </trkpt>
      <trkpt lat="46.08346" lon="6.73437">
        <ele>717.94714</ele>
        <time>2014-08-31T11:23:06Z</time>
      </trkpt>
      <trkpt lat="46.08345" lon="6.73435">
        <ele>717.94714</ele>
        <time>2014-08-31T11:23:16Z</time>
      </trkpt>
      <trkpt lat="46.08341" lon="6.73436">
        <ele>717.9058</ele>
        <time>2014-08-31T11:23:21Z</time>
      </trkpt>
      <trkpt lat="46.08335" lon="6.73439">
        <ele>717.9058</ele>
        <time>2014-08-31T11:23:26Z</time>
      </trkpt>
      <trkpt lat="46.08328" lon="6.73441">
        <ele>717.80426</ele>
        <time>2014-08-31T11:23:31Z</time>
      </trkpt>
      <trkpt lat="46.08323" lon="6.73443">
        <ele>717.80426</ele>
        <time>2014-08-31T11:23:36Z</time>
      </trkpt>
      <trkpt lat="46.08319" lon="6.73443">
        <ele>717.52826</ele>
        <time>2014-08-31T11:23:41Z</time>
      </trkpt>
      <trkpt lat="46.08312" lon="6.73445">
        <ele>717.52826</ele>
        <time>2014-08-31T11:23:46Z</time>
      </trkpt>
      <trkpt lat="46.08304" lon="6.73443">
        <ele>717.34717</ele>
        <time>2014-08-31T11:23:51Z</time>
      </trkpt>
      <trkpt lat="46.08298" lon="6.7344">
        <ele>717.34717</ele>
        <time>2014-08-31T11:23:56Z</time>
      </trkpt>
      <trkpt lat="46.08291" lon="6.7344">
        <ele>717.2076</ele>
        <time>2014-08-31T11:24:01Z</time>
      </trkpt>
      <trkpt lat="46.08285" lon="6.73437">
        <ele>717.2076</ele>
        <time>2014-08-31T11:24:06Z</time>
      </trkpt>
      <trkpt lat="46.0828" lon="6.73431">
        <ele>716.95905</ele>
        <time>2014-08-31T11:24:11Z</time>
      </trkpt>
      <trkpt lat="46.08274" lon="6.73426">
        <ele>716.95905</ele>
        <time>2014-08-31T11:24:16Z</time>
      </trkpt>
      <trkpt lat="46.08267" lon="6.73421">
        <ele>716.8515</ele>
        <time>2014-08-31T11:24:21Z</time>
      </trkpt>
      <trkpt lat="46.08262" lon="6.73413">
        <ele>716.8515</ele>
        <time>2014-08-31T11:24:26Z</time>
      </trkpt>
      <trkpt lat="46.08257" lon="6.73408">
        <ele>716.85675</ele>
        <time>2014-08-31T11:24:31Z</time>
      </trkpt>
      <trkpt lat="46.08253" lon="6.73402">
        <ele>716.85675</ele>
        <time>2014-08-31T11:24:36Z</time>
      </trkpt>
      <trkpt lat="46.08248" lon="6.73396">
        <ele>716.84753</ele>
        <time>2014-08-31T11:24:41Z</time>
      </trkpt>
      <trkpt lat="46.08242" lon="6.73392">
        <ele>716.84753</ele>
        <time>2014-08-31T11:24:46Z</time>
      </trkpt>
      <trkpt lat="46.08233" lon="6.73385">
        <ele>717.02295</ele>
        <time>2014-08-31T11:24:51Z</time>
      </trkpt>
      <trkpt lat="46.08225" lon="6.73381">
        <ele>717.37976</ele>
        <time>2014-08-31T11:24:56Z</time>
      </trkpt>
      <trkpt lat="46.08218" lon="6.73376">
        <ele>717.37976</ele>
        <time>2014-08-31T11:25:01Z</time>
      </trkpt>
      <trkpt lat="46.08214" lon="6.73376">
        <ele>717.8711</ele>
        <time>2014-08-31T11:25:06Z</time>
      </trkpt>
      <trkpt lat="46.08208" lon="6.73371">
        <ele>717.8711</ele>
        <time>2014-08-31T11:25:11Z</time>
      </trkpt>
      <trkpt lat="46.08203" lon="6.73369">
        <ele>718.33813</ele>
        <time>2014-08-31T11:25:16Z</time>
      </trkpt>
      <trkpt lat="46.08197" lon="6.73364">
        <ele>718.33813</ele>
        <time>2014-08-31T11:25:21Z</time>
      </trkpt>
      <trkpt lat="46.08193" lon="6.73361">
        <ele>718.76337</ele>
        <time>2014-08-31T11:25:26Z</time>
      </trkpt>
      <trkpt lat="46.08188" lon="6.73354">
        <ele>718.76337</ele>
        <time>2014-08-31T11:25:31Z</time>
      </trkpt>
      <trkpt lat="46.08184" lon="6.7335">
        <ele>719.0444</ele>
        <time>2014-08-31T11:25:36Z</time>
      </trkpt>
      <trkpt lat="46.08178" lon="6.73347">
        <ele>719.0444</ele>
        <time>2014-08-31T11:25:41Z</time>
      </trkpt>
      <trkpt lat="46.08172" lon="6.73344">
        <ele>719.1876</ele>
        <time>2014-08-31T11:25:46Z</time>
      </trkpt>
      <trkpt lat="46.08167" lon="6.73338">
        <ele>719.1876</ele>
        <time>2014-08-31T11:25:51Z</time>
      </trkpt>
      <trkpt lat="46.08161" lon="6.73332">
        <ele>719.3437</ele>
        <time>2014-08-31T11:25:56Z</time>
      </trkpt>
      <trkpt lat="46.08156" lon="6.73327">
        <ele>719.3437</ele>
        <time>2014-08-31T11:26:01Z</time>
      </trkpt>
      <trkpt lat="46.08153" lon="6.73324">
        <ele>719.4647</ele>
        <time>2014-08-31T11:26:06Z</time>
      </trkpt>
      <trkpt lat="46.08149" lon="6.7332">
        <ele>719.4647</ele>
        <time>2014-08-31T11:26:11Z</time>
      </trkpt>
      <trkpt lat="46.08143" lon="6.73311">
        <ele>719.43463</ele>
        <time>2014-08-31T11:26:16Z</time>
      </trkpt>
      <trkpt lat="46.08139" lon="6.73304">
        <ele>719.43463</ele>
        <time>2014-08-31T11:26:21Z</time>
      </trkpt>
      <trkpt lat="46.08135" lon="6.73296">
        <ele>719.3769</ele>
        <time>2014-08-31T11:26:26Z</time>
      </trkpt>
      <trkpt lat="46.08131" lon="6.73288">
        <ele>719.3769</ele>
        <time>2014-08-31T11:26:31Z</time>
      </trkpt>
      <trkpt lat="46.08126" lon="6.73281">
        <ele>719.29083</ele>
        <time>2014-08-31T11:26:36Z</time>
      </trkpt>
      <trkpt lat="46.08121" lon="6.73273">
        <ele>719.29083</ele>
        <time>2014-08-31T11:26:41Z</time>
      </trkpt>
      <trkpt lat="46.08116" lon="6.73267">
        <ele>719.2624</ele>
        <time>2014-08-31T11:26:46Z</time>
      </trkpt>
      <trkpt lat="46.08112" lon="6.73262">
        <ele>719.2624</ele>
        <time>2014-08-31T11:26:51Z</time>
      </trkpt>
      <trkpt lat="46.08107" lon="6.73256">
        <ele>719.19836</ele>
        <time>2014-08-31T11:26:56Z</time>
      </trkpt>
      <trkpt lat="46.08101" lon="6.73251">
        <ele>719.19836</ele>
        <time>2014-08-31T11:27:01Z</time>
      </trkpt>
      <trkpt lat="46.08097" lon="6.73247">
        <ele>719.17096</ele>
        <time>2014-08-31T11:27:06Z</time>
      </trkpt>
      <trkpt lat="46.08092" lon="6.7324">
        <ele>719.17096</ele>
        <time>2014-08-31T11:27:11Z</time>
      </trkpt>
      <trkpt lat="46.08086" lon="6.73236">
        <ele>719.1607</ele>
        <time>2014-08-31T11:27:16Z</time>
      </trkpt>
      <trkpt lat="46.08081" lon="6.73229">
        <ele>719.1607</ele>
        <time>2014-08-31T11:27:21Z</time>
      </trkpt>
      <trkpt lat="46.08078" lon="6.73221">
        <ele>719.12067</ele>
        <time>2014-08-31T11:27:26Z</time>
      </trkpt>
      <trkpt lat="46.08072" lon="6.73217">
        <ele>719.12067</ele>
        <time>2014-08-31T11:27:31Z</time>
      </trkpt>
      <trkpt lat="46.08067" lon="6.73207">
        <ele>719.05096</ele>
        <time>2014-08-31T11:27:36Z</time>
      </trkpt>
      <trkpt lat="46.08064" lon="6.732">
        <ele>719.05096</ele>
        <time>2014-08-31T11:27:41Z</time>
      </trkpt>
      <trkpt lat="46.0806" lon="6.73192">
        <ele>718.8941</ele>
        <time>2014-08-31T11:27:46Z</time>
      </trkpt>
      <trkpt lat="46.08055" lon="6.73187">
        <ele>718.8941</ele>
        <time>2014-08-31T11:27:51Z</time>
      </trkpt>
      <trkpt lat="46.08051" lon="6.7318">
        <ele>718.6981</ele>
        <time>2014-08-31T11:27:56Z</time>
      </trkpt>
      <trkpt lat="46.08048" lon="6.73172">
        <ele>718.6981</ele>
        <time>2014-08-31T11:28:01Z</time>
      </trkpt>
      <trkpt lat="46.08046" lon="6.73165">
        <ele>718.4211</ele>
        <time>2014-08-31T11:28:06Z</time>
      </trkpt>
      <trkpt lat="46.08043" lon="6.73157">
        <ele>718.4211</ele>
        <time>2014-08-31T11:28:11Z</time>
      </trkpt>
      <trkpt lat="46.0804" lon="6.73156">
        <ele>718.4211</ele>
        <time>2014-08-31T11:28:16Z</time>
      </trkpt>
      <trkpt lat="46.08039" lon="6.73159">
        <ele>717.9815</ele>
        <time>2014-08-31T11:28:21Z</time>
      </trkpt>
      <trkpt lat="46.08039" lon="6.73161">
        <ele>717.9815</ele>
        <time>2014-08-31T11:28:26Z</time>
      </trkpt>
      <trkpt lat="46.08039" lon="6.73161">
        <ele>717.9815</ele>
        <time>2014-08-31T11:28:31Z</time>
      </trkpt>
      <trkpt lat="46.08038" lon="6.73161">
        <ele>717.9815</ele>
        <time>2014-08-31T11:29:01Z</time>
      </trkpt>
      <trkpt lat="46.08038" lon="6.73161">
        <ele>717.9815</ele>
        <time>2014-08-31T11:29:06Z</time>
      </trkpt>
      <trkpt lat="46.08036" lon="6.73156">
        <ele>717.9815</ele>
        <time>2014-08-31T11:29:56Z</time>
      </trkpt>
      <trkpt lat="46.08034" lon="6.73149">
        <ele>717.70764</ele>
        <time>2014-08-31T11:30:01Z</time>
      </trkpt>
      <trkpt lat="46.08032" lon="6.7314">
        <ele>717.70764</ele>
        <time>2014-08-31T11:30:06Z</time>
      </trkpt>
      <trkpt lat="46.08031" lon="6.73129">
        <ele>717.3415</ele>
        <time>2014-08-31T11:30:11Z</time>
      </trkpt>
      <trkpt lat="46.08029" lon="6.73121">
        <ele>717.3415</ele>
        <time>2014-08-31T11:30:16Z</time>
      </trkpt>
      <trkpt lat="46.08026" lon="6.73111">
        <ele>716.8315</ele>
        <time>2014-08-31T11:30:21Z</time>
      </trkpt>
      <trkpt lat="46.08023" lon="6.73105">
        <ele>716.8315</ele>
        <time>2014-08-31T11:30:26Z</time>
      </trkpt>
      <trkpt lat="46.08018" lon="6.73098">
        <ele>716.1881</ele>
        <time>2014-08-31T11:30:31Z</time>
      </trkpt>
      <trkpt lat="46.08014" lon="6.73091">
        <ele>716.1881</ele>
        <time>2014-08-31T11:30:36Z</time>
      </trkpt>
      <trkpt lat="46.08009" lon="6.73084">
        <ele>715.5079</ele>
        <time>2014-08-31T11:30:41Z</time>
      </trkpt>
      <trkpt lat="46.08005" lon="6.73079">
        <ele>715.5079</ele>
        <time>2014-08-31T11:30:46Z</time>
      </trkpt>
      <trkpt lat="46.07998" lon="6.73069">
        <ele>714.93805</ele>
        <time>2014-08-31T11:30:51Z</time>
      </trkpt>
      <trkpt lat="46.07994" lon="6.73063">
        <ele>714.93805</ele>
        <time>2014-08-31T11:30:56Z</time>
      </trkpt>
      <trkpt lat="46.07989" lon="6.73057">
        <ele>714.41315</ele>
        <time>2014-08-31T11:31:01Z</time>
      </trkpt>
      <trkpt lat="46.07982" lon="6.7305">
        <ele>714.41315</ele>
        <time>2014-08-31T11:31:06Z</time>
      </trkpt>
      <trkpt lat="46.07976" lon="6.73042">
        <ele>714.0885</ele>
        <time>2014-08-31T11:31:11Z</time>
      </trkpt>
      <trkpt lat="46.07971" lon="6.73035">
        <ele>714.0885</ele>
        <time>2014-08-31T11:31:16Z</time>
      </trkpt>
      <trkpt lat="46.07966" lon="6.73027">
        <ele>713.96344</ele>
        <time>2014-08-31T11:31:21Z</time>
      </trkpt>
      <trkpt lat="46.0796" lon="6.73022">
        <ele>713.96344</ele>
        <time>2014-08-31T11:31:26Z</time>
      </trkpt>
      <trkpt lat="46.07954" lon="6.73016">
        <ele>713.8927</ele>
        <time>2014-08-31T11:31:31Z</time>
      </trkpt>
      <trkpt lat="46.07949" lon="6.73014">
        <ele>713.8927</ele>
        <time>2014-08-31T11:31:36Z</time>
      </trkpt>
      <trkpt lat="46.07944" lon="6.73014">
        <ele>713.85693</ele>
        <time>2014-08-31T11:31:41Z</time>
      </trkpt>
      <trkpt lat="46.07939" lon="6.73012">
        <ele>713.85693</ele>
        <time>2014-08-31T11:31:46Z</time>
      </trkpt>
      <trkpt lat="46.07934" lon="6.73006">
        <ele>713.7372</ele>
        <time>2014-08-31T11:31:51Z</time>
      </trkpt>
      <trkpt lat="46.0793" lon="6.73002">
        <ele>713.7372</ele>
        <time>2014-08-31T11:31:56Z</time>
      </trkpt>
      <trkpt lat="46.07924" lon="6.72996">
        <ele>713.40924</ele>
        <time>2014-08-31T11:32:01Z</time>
      </trkpt>
      <trkpt lat="46.07919" lon="6.7299">
        <ele>713.40924</ele>
        <time>2014-08-31T11:32:06Z</time>
      </trkpt>
      <trkpt lat="46.07913" lon="6.72978">
        <ele>713.06104</ele>
        <time>2014-08-31T11:32:11Z</time>
      </trkpt>
      <trkpt lat="46.07907" lon="6.72969">
        <ele>713.06104</ele>
        <time>2014-08-31T11:32:16Z</time>
      </trkpt>
      <trkpt lat="46.07903" lon="6.72965">
        <ele>712.80945</ele>
        <time>2014-08-31T11:32:21Z</time>
      </trkpt>
      <trkpt lat="46.07897" lon="6.7296">
        <ele>712.80945</ele>
        <time>2014-08-31T11:32:26Z</time>
      </trkpt>
      <trkpt lat="46.07894" lon="6.72958">
        <ele>712.8344</ele>
        <time>2014-08-31T11:32:31Z</time>
      </trkpt>
      <trkpt lat="46.0789" lon="6.72951">
        <ele>712.8344</ele>
        <time>2014-08-31T11:32:36Z</time>
      </trkpt>
      <trkpt lat="46.07885" lon="6.72944">
        <ele>713.0713</ele>
        <time>2014-08-31T11:32:41Z</time>
      </trkpt>
      <trkpt lat="46.07881" lon="6.72941">
        <ele>713.0713</ele>
        <time>2014-08-31T11:32:46Z</time>
      </trkpt>
      <trkpt lat="46.07878" lon="6.72939">
        <ele>713.0713</ele>
        <time>2014-08-31T11:32:51Z</time>
      </trkpt>
      <trkpt lat="46.07872" lon="6.72937">
        <ele>713.25806</ele>
        <time>2014-08-31T11:32:56Z</time>
      </trkpt>
      <trkpt lat="46.07868" lon="6.72935">
        <ele>713.25806</ele>
        <time>2014-08-31T11:33:01Z</time>
      </trkpt>
      <trkpt lat="46.07863" lon="6.72932">
        <ele>713.4834</ele>
        <time>2014-08-31T11:33:06Z</time>
      </trkpt>
      <trkpt lat="46.07857" lon="6.7293">
        <ele>713.4834</ele>
        <time>2014-08-31T11:33:11Z</time>
      </trkpt>
      <trkpt lat="46.07853" lon="6.72927">
        <ele>713.6566</ele>
        <time>2014-08-31T11:33:16Z</time>
      </trkpt>
      <trkpt lat="46.07848" lon="6.72923">
        <ele>713.6566</ele>
        <time>2014-08-31T11:33:21Z</time>
      </trkpt>
      <trkpt lat="46.07843" lon="6.72918">
        <ele>713.98193</ele>
        <time>2014-08-31T11:33:26Z</time>
      </trkpt>
      <trkpt lat="46.07839" lon="6.72915">
        <ele>713.98193</ele>
        <time>2014-08-31T11:33:31Z</time>
      </trkpt>
      <trkpt lat="46.07834" lon="6.7291">
        <ele>714.5042</ele>
        <time>2014-08-31T11:33:36Z</time>
      </trkpt>
      <trkpt lat="46.07824" lon="6.72903">
        <ele>715.10596</ele>
        <time>2014-08-31T11:33:41Z</time>
      </trkpt>
      <trkpt lat="46.0782" lon="6.72898">
        <ele>715.10596</ele>
        <time>2014-08-31T11:33:46Z</time>
      </trkpt>
      <trkpt lat="46.07816" lon="6.72893">
        <ele>715.9086</ele>
        <time>2014-08-31T11:33:51Z</time>
      </trkpt>
      <trkpt lat="46.07813" lon="6.72888">
        <ele>715.9086</ele>
        <time>2014-08-31T11:33:56Z</time>
      </trkpt>
      <trkpt lat="46.07807" lon="6.72883">
        <ele>716.837</ele>
        <time>2014-08-31T11:34:01Z</time>
      </trkpt>
      <trkpt lat="46.07799" lon="6.72876">
        <ele>717.7201</ele>
        <time>2014-08-31T11:34:06Z</time>
      </trkpt>
      <trkpt lat="46.07794" lon="6.72872">
        <ele>717.7201</ele>
        <time>2014-08-31T11:34:11Z</time>
      </trkpt>
      <trkpt lat="46.07787" lon="6.72866">
        <ele>718.76013</ele>
        <time>2014-08-31T11:34:16Z</time>
      </trkpt>
      <trkpt lat="46.07784" lon="6.72862">
        <ele>718.76013</ele>
        <time>2014-08-31T11:34:21Z</time>
      </trkpt>
      <trkpt lat="46.07781" lon="6.72858">
        <ele>718.76013</ele>
        <time>2014-08-31T11:34:26Z</time>
      </trkpt>
      <trkpt lat="46.07777" lon="6.72854">
        <ele>719.5819</ele>
        <time>2014-08-31T11:34:31Z</time>
      </trkpt>
      <trkpt lat="46.07774" lon="6.72846">
        <ele>719.5819</ele>
        <time>2014-08-31T11:34:36Z</time>
      </trkpt>
      <trkpt lat="46.0777" lon="6.7284">
        <ele>720.242</ele>
        <time>2014-08-31T11:34:41Z</time>
      </trkpt>
      <trkpt lat="46.07763" lon="6.72834">
        <ele>720.242</ele>
        <time>2014-08-31T11:34:46Z</time>
      </trkpt>
      <trkpt lat="46.07758" lon="6.72829">
        <ele>720.69257</ele>
        <time>2014-08-31T11:34:51Z</time>
      </trkpt>
      <trkpt lat="46.07753" lon="6.72823">
        <ele>720.69257</ele>
        <time>2014-08-31T11:34:56Z</time>
      </trkpt>
      <trkpt lat="46.07747" lon="6.72815">
        <ele>720.8754</ele>
        <time>2014-08-31T11:35:01Z</time>
      </trkpt>
      <trkpt lat="46.07742" lon="6.7281">
        <ele>720.8754</ele>
        <time>2014-08-31T11:35:06Z</time>
      </trkpt>
      <trkpt lat="46.07736" lon="6.72802">
        <ele>720.9537</ele>
        <time>2014-08-31T11:35:11Z</time>
      </trkpt>
      <trkpt lat="46.0773" lon="6.72796">
        <ele>720.9537</ele>
        <time>2014-08-31T11:35:16Z</time>
      </trkpt>
      <trkpt lat="46.07727" lon="6.72793">
        <ele>720.84827</ele>
        <time>2014-08-31T11:35:21Z</time>
      </trkpt>
      <trkpt lat="46.07722" lon="6.72789">
        <ele>720.84827</ele>
        <time>2014-08-31T11:35:26Z</time>
      </trkpt>
      <trkpt lat="46.07719" lon="6.72787">
        <ele>720.84827</ele>
        <time>2014-08-31T11:35:31Z</time>
      </trkpt>
      <trkpt lat="46.07712" lon="6.72782">
        <ele>720.9044</ele>
        <time>2014-08-31T11:35:36Z</time>
      </trkpt>
      <trkpt lat="46.07705" lon="6.72776">
        <ele>720.9044</ele>
        <time>2014-08-31T11:35:41Z</time>
      </trkpt>
      <trkpt lat="46.07702" lon="6.72773">
        <ele>721.1822</ele>
        <time>2014-08-31T11:35:46Z</time>
      </trkpt>
      <trkpt lat="46.07696" lon="6.72771">
        <ele>721.1822</ele>
        <time>2014-08-31T11:35:51Z</time>
      </trkpt>
      <trkpt lat="46.07692" lon="6.72769">
        <ele>721.5638</ele>
        <time>2014-08-31T11:35:56Z</time>
      </trkpt>
      <trkpt lat="46.07688" lon="6.72764">
        <ele>721.5638</ele>
        <time>2014-08-31T11:36:01Z</time>
      </trkpt>
      <trkpt lat="46.07678" lon="6.72751">
        <ele>721.8887</ele>
        <time>2014-08-31T11:36:06Z</time>
      </trkpt>
      <trkpt lat="46.07668" lon="6.72739">
        <ele>722.21356</ele>
        <time>2014-08-31T11:36:11Z</time>
      </trkpt>
      <trkpt lat="46.07665" lon="6.72737">
        <ele>722.21356</ele>
        <time>2014-08-31T11:36:16Z</time>
      </trkpt>
      <trkpt lat="46.0766" lon="6.72734">
        <ele>723.1967</ele>
        <time>2014-08-31T11:36:21Z</time>
      </trkpt>
      <trkpt lat="46.07656" lon="6.72732">
        <ele>723.1967</ele>
        <time>2014-08-31T11:36:26Z</time>
      </trkpt>
      <trkpt lat="46.07649" lon="6.72728">
        <ele>724.4718</ele>
        <time>2014-08-31T11:36:31Z</time>
      </trkpt>
      <trkpt lat="46.07647" lon="6.72729">
        <ele>724.4718</ele>
        <time>2014-08-31T11:36:36Z</time>
      </trkpt>
      <trkpt lat="46.07644" lon="6.72726">
        <ele>724.4718</ele>
        <time>2014-08-31T11:36:41Z</time>
      </trkpt>
      <trkpt lat="46.07639" lon="6.72724">
        <ele>726.17267</ele>
        <time>2014-08-31T11:36:46Z</time>
      </trkpt>
      <trkpt lat="46.07634" lon="6.72718">
        <ele>726.17267</ele>
        <time>2014-08-31T11:36:51Z</time>
      </trkpt>
      <trkpt lat="46.07633" lon="6.72712">
        <ele>727.9754</ele>
        <time>2014-08-31T11:36:56Z</time>
      </trkpt>
      <trkpt lat="46.07631" lon="6.72706">
        <ele>727.9754</ele>
        <time>2014-08-31T11:37:01Z</time>
      </trkpt>
      <trkpt lat="46.07632" lon="6.72706">
        <ele>727.9754</ele>
        <time>2014-08-31T11:37:06Z</time>
      </trkpt>
      <trkpt lat="46.07632" lon="6.72706">
        <ele>727.9754</ele>
        <time>2014-08-31T11:37:11Z</time>
      </trkpt>
      <trkpt lat="46.07633" lon="6.72708">
        <ele>727.9754</ele>
        <time>2014-08-31T11:37:21Z</time>
      </trkpt>
      <trkpt lat="46.07638" lon="6.72709">
        <ele>729.1474</ele>
        <time>2014-08-31T11:37:26Z</time>
      </trkpt>
      <trkpt lat="46.07644" lon="6.72707">
        <ele>729.1474</ele>
        <time>2014-08-31T11:37:31Z</time>
      </trkpt>
      <trkpt lat="46.07648" lon="6.72707">
        <ele>729.77545</ele>
        <time>2014-08-31T11:37:36Z</time>
      </trkpt>
      <trkpt lat="46.07656" lon="6.72707">
        <ele>729.77545</ele>
        <time>2014-08-31T11:37:41Z</time>
      </trkpt>
      <trkpt lat="46.07663" lon="6.72706">
        <ele>729.9992</ele>
        <time>2014-08-31T11:37:46Z</time>
      </trkpt>
      <trkpt lat="46.07663" lon="6.72706">
        <ele>729.9992</ele>
        <time>2014-08-31T11:37:51Z</time>
      </trkpt>
      <trkpt lat="46.07663" lon="6.72706">
        <ele>729.9992</ele>
        <time>2014-08-31T11:37:56Z</time>
      </trkpt>
      <trkpt lat="46.07663" lon="6.72706">
        <ele>729.9992</ele>
        <time>2014-08-31T11:38:01Z</time>
      </trkpt>
      <trkpt lat="46.07663" lon="6.72706">
        <ele>729.9992</ele>
        <time>2014-08-31T11:38:06Z</time>
      </trkpt>
      <trkpt lat="46.07664" lon="6.72705">
        <ele>729.9992</ele>
        <time>2014-08-31T11:38:11Z</time>
      </trkpt>
      <trkpt lat="46.07664" lon="6.72705">
        <ele>729.9992</ele>
        <time>2014-08-31T11:38:16Z</time>
      </trkpt>
      <trkpt lat="46.07665" lon="6.72706">
        <ele>729.9992</ele>
        <time>2014-08-31T11:38:26Z</time>
      </trkpt>
      <trkpt lat="46.07664" lon="6.72708">
        <ele>729.9992</ele>
        <time>2014-08-31T11:38:31Z</time>
      </trkpt>
      <trkpt lat="46.07664" lon="6.72708">
        <ele>729.9992</ele>
        <time>2014-08-31T11:38:36Z</time>
      </trkpt>
      <trkpt lat="46.07664" lon="6.72708">
        <ele>729.9992</ele>
        <time>2014-08-31T11:38:51Z</time>
      </trkpt>
      <trkpt lat="46.07666" lon="6.72691">
        <ele>705.52246</ele>
        <time>2014-08-31T12:17:22Z</time>
      </trkpt>
      <trkpt lat="46.0766" lon="6.72681">
        <ele>688.2185</ele>
        <time>2014-08-31T12:17:32Z</time>
      </trkpt>
      <trkpt lat="46.07663" lon="6.72697">
        <ele>684.7429</ele>
        <time>2014-08-31T12:17:52Z</time>
      </trkpt>
      <trkpt lat="46.07664" lon="6.72701">
        <ele>684.7429</ele>
        <time>2014-08-31T12:18:12Z</time>
      </trkpt>
      <trkpt lat="46.07664" lon="6.72704">
        <ele>684.7429</ele>
        <time>2014-08-31T12:18:27Z</time>
      </trkpt>
      <trkpt lat="46.07659" lon="6.7271">
        <ele>682.8061</ele>
        <time>2014-08-31T12:18:32Z</time>
      </trkpt>
      <trkpt lat="46.07654" lon="6.7271">
        <ele>682.8061</ele>
        <time>2014-08-31T12:18:37Z</time>
      </trkpt>
      <trkpt lat="46.0765" lon="6.72709">
        <ele>681.46454</ele>
        <time>2014-08-31T12:18:42Z</time>
      </trkpt>
      <trkpt lat="46.0764" lon="6.72704">
        <ele>680.5917</ele>
        <time>2014-08-31T12:18:47Z</time>
      </trkpt>
      <trkpt lat="46.07634" lon="6.72704">
        <ele>680.5917</ele>
        <time>2014-08-31T12:18:52Z</time>
      </trkpt>
      <trkpt lat="46.07634" lon="6.72704">
        <ele>680.5917</ele>
        <time>2014-08-31T12:18:57Z</time>
      </trkpt>
      <trkpt lat="46.07633" lon="6.72706">
        <ele>680.5917</ele>
        <time>2014-08-31T12:19:02Z</time>
      </trkpt>
      <trkpt lat="46.07633" lon="6.72716">
        <ele>680.39996</ele>
        <time>2014-08-31T12:19:07Z</time>
      </trkpt>
      <trkpt lat="46.07632" lon="6.72727">
        <ele>680.39996</ele>
        <time>2014-08-31T12:19:12Z</time>
      </trkpt>
      <trkpt lat="46.07632" lon="6.72733">
        <ele>680.7382</ele>
        <time>2014-08-31T12:19:17Z</time>
      </trkpt>
      <trkpt lat="46.07631" lon="6.72742">
        <ele>680.7382</ele>
        <time>2014-08-31T12:19:22Z</time>
      </trkpt>
      <trkpt lat="46.0763" lon="6.72749">
        <ele>681.81067</ele>
        <time>2014-08-31T12:19:27Z</time>
      </trkpt>
      <trkpt lat="46.07627" lon="6.72756">
        <ele>681.81067</ele>
        <time>2014-08-31T12:19:32Z</time>
      </trkpt>
      <trkpt lat="46.07625" lon="6.72762">
        <ele>683.2565</ele>
        <time>2014-08-31T12:19:37Z</time>
      </trkpt>
      <trkpt lat="46.07624" lon="6.72768">
        <ele>683.2565</ele>
        <time>2014-08-31T12:19:42Z</time>
      </trkpt>
      <trkpt lat="46.07624" lon="6.72769">
        <ele>683.2565</ele>
        <time>2014-08-31T12:19:47Z</time>
      </trkpt>
      <trkpt lat="46.07624" lon="6.72772">
        <ele>683.2565</ele>
        <time>2014-08-31T12:19:52Z</time>
      </trkpt>
      <trkpt lat="46.07625" lon="6.72782">
        <ele>684.7545</ele>
        <time>2014-08-31T12:19:57Z</time>
      </trkpt>
      <trkpt lat="46.07624" lon="6.72786">
        <ele>684.7545</ele>
        <time>2014-08-31T12:20:02Z</time>
      </trkpt>
      <trkpt lat="46.07624" lon="6.72796">
        <ele>686.3529</ele>
        <time>2014-08-31T12:20:07Z</time>
      </trkpt>
      <trkpt lat="46.07622" lon="6.72803">
        <ele>686.3529</ele>
        <time>2014-08-31T12:20:12Z</time>
      </trkpt>
      <trkpt lat="46.07626" lon="6.72816">
        <ele>688.1245</ele>
        <time>2014-08-31T12:20:17Z</time>
      </trkpt>
      <trkpt lat="46.07631" lon="6.72829">
        <ele>690.0212</ele>
        <time>2014-08-31T12:20:22Z</time>
      </trkpt>
      <trkpt lat="46.07633" lon="6.72836">
        <ele>690.0212</ele>
        <time>2014-08-31T12:20:27Z</time>
      </trkpt>
      <trkpt lat="46.07633" lon="6.72837">
        <ele>690.0212</ele>
        <time>2014-08-31T12:20:32Z</time>
      </trkpt>
      <trkpt lat="46.07632" lon="6.72841">
        <ele>690.0212</ele>
        <time>2014-08-31T12:20:37Z</time>
      </trkpt>
      <trkpt lat="46.07631" lon="6.72849">
        <ele>692.3723</ele>
        <time>2014-08-31T12:20:42Z</time>
      </trkpt>
      <trkpt lat="46.07625" lon="6.72857">
        <ele>692.3723</ele>
        <time>2014-08-31T12:20:47Z</time>
      </trkpt>
      <trkpt lat="46.07623" lon="6.72863">
        <ele>694.7903</ele>
        <time>2014-08-31T12:20:52Z</time>
      </trkpt>
      <trkpt lat="46.07623" lon="6.72867">
        <ele>694.7903</ele>
        <time>2014-08-31T12:20:57Z</time>
      </trkpt>
      <trkpt lat="46.07622" lon="6.72875">
        <ele>694.7903</ele>
        <time>2014-08-31T12:21:02Z</time>
      </trkpt>
      <trkpt lat="46.07621" lon="6.72888">
        <ele>697.2038</ele>
        <time>2014-08-31T12:21:07Z</time>
      </trkpt>
      <trkpt lat="46.0762" lon="6.72898">
        <ele>697.2038</ele>
        <time>2014-08-31T12:21:12Z</time>
      </trkpt>
      <trkpt lat="46.07617" lon="6.72904">
        <ele>699.6478</ele>
        <time>2014-08-31T12:21:17Z</time>
      </trkpt>
      <trkpt lat="46.07613" lon="6.72912">
        <ele>699.6478</ele>
        <time>2014-08-31T12:21:22Z</time>
      </trkpt>
      <trkpt lat="46.07613" lon="6.72918">
        <ele>702.0826</ele>
        <time>2014-08-31T12:21:27Z</time>
      </trkpt>
      <trkpt lat="46.07612" lon="6.72921">
        <ele>702.0826</ele>
        <time>2014-08-31T12:21:32Z</time>
      </trkpt>
      <trkpt lat="46.07611" lon="6.72928">
        <ele>702.0826</ele>
        <time>2014-08-31T12:21:37Z</time>
      </trkpt>
      <trkpt lat="46.07609" lon="6.72941">
        <ele>704.47125</ele>
        <time>2014-08-31T12:21:42Z</time>
      </trkpt>
      <trkpt lat="46.07608" lon="6.72944">
        <ele>704.47125</ele>
        <time>2014-08-31T12:21:47Z</time>
      </trkpt>
      <trkpt lat="46.07605" lon="6.72951">
        <ele>704.47125</ele>
        <time>2014-08-31T12:21:52Z</time>
      </trkpt>
      <trkpt lat="46.07602" lon="6.72964">
        <ele>706.79456</ele>
        <time>2014-08-31T12:21:57Z</time>
      </trkpt>
      <trkpt lat="46.076" lon="6.72971">
        <ele>706.79456</ele>
        <time>2014-08-31T12:22:02Z</time>
      </trkpt>
      <trkpt lat="46.07597" lon="6.72979">
        <ele>709.1644</ele>
        <time>2014-08-31T12:22:07Z</time>
      </trkpt>
      <trkpt lat="46.07594" lon="6.72987">
        <ele>709.1644</ele>
        <time>2014-08-31T12:22:12Z</time>
      </trkpt>
      <trkpt lat="46.07592" lon="6.72995">
        <ele>711.3819</ele>
        <time>2014-08-31T12:22:17Z</time>
      </trkpt>
      <trkpt lat="46.07589" lon="6.73001">
        <ele>711.3819</ele>
        <time>2014-08-31T12:22:22Z</time>
      </trkpt>
      <trkpt lat="46.07587" lon="6.73006">
        <ele>713.2777</ele>
        <time>2014-08-31T12:22:27Z</time>
      </trkpt>
      <trkpt lat="46.07585" lon="6.73009">
        <ele>713.2777</ele>
        <time>2014-08-31T12:22:32Z</time>
      </trkpt>
      <trkpt lat="46.07584" lon="6.73012">
        <ele>713.2777</ele>
        <time>2014-08-31T12:22:37Z</time>
      </trkpt>
      <trkpt lat="46.0758" lon="6.73016">
        <ele>714.7682</ele>
        <time>2014-08-31T12:22:42Z</time>
      </trkpt>
      <trkpt lat="46.07574" lon="6.7302">
        <ele>714.7682</ele>
        <time>2014-08-31T12:22:47Z</time>
      </trkpt>
      <trkpt lat="46.0757" lon="6.73025">
        <ele>715.99304</ele>
        <time>2014-08-31T12:22:52Z</time>
      </trkpt>
      <trkpt lat="46.07565" lon="6.73033">
        <ele>715.99304</ele>
        <time>2014-08-31T12:22:57Z</time>
      </trkpt>
      <trkpt lat="46.07564" lon="6.73033">
        <ele>715.99304</ele>
        <time>2014-08-31T12:23:02Z</time>
      </trkpt>
      <trkpt lat="46.07563" lon="6.73035">
        <ele>717.0972</ele>
        <time>2014-08-31T12:23:07Z</time>
      </trkpt>
      <trkpt lat="46.07557" lon="6.7304">
        <ele>717.0972</ele>
        <time>2014-08-31T12:23:12Z</time>
      </trkpt>
      <trkpt lat="46.07553" lon="6.73044">
        <ele>717.9705</ele>
        <time>2014-08-31T12:23:17Z</time>
      </trkpt>
      <trkpt lat="46.0755" lon="6.73046">
        <ele>717.9705</ele>
        <time>2014-08-31T12:23:22Z</time>
      </trkpt>
      <trkpt lat="46.07546" lon="6.73049">
        <ele>717.9705</ele>
        <time>2014-08-31T12:23:27Z</time>
      </trkpt>
      <trkpt lat="46.07542" lon="6.73052">
        <ele>718.55475</ele>
        <time>2014-08-31T12:23:32Z</time>
      </trkpt>
      <trkpt lat="46.07536" lon="6.73059">
        <ele>718.55475</ele>
        <time>2014-08-31T12:23:37Z</time>
      </trkpt>
      <trkpt lat="46.07534" lon="6.73063">
        <ele>718.8835</ele>
        <time>2014-08-31T12:23:42Z</time>
      </trkpt>
      <trkpt lat="46.07533" lon="6.73064">
        <ele>718.8835</ele>
        <time>2014-08-31T12:23:47Z</time>
      </trkpt>
      <trkpt lat="46.07521" lon="6.73072">
        <ele>719.16174</ele>
        <time>2014-08-31T12:23:52Z</time>
      </trkpt>
      <trkpt lat="46.07514" lon="6.73082">
        <ele>719.4211</ele>
        <time>2014-08-31T12:23:57Z</time>
      </trkpt>
      <trkpt lat="46.07504" lon="6.73086">
        <ele>719.7343</ele>
        <time>2014-08-31T12:24:02Z</time>
      </trkpt>
      <trkpt lat="46.075" lon="6.73088">
        <ele>719.7343</ele>
        <time>2014-08-31T12:24:07Z</time>
      </trkpt>
      <trkpt lat="46.07497" lon="6.73087">
        <ele>719.7343</ele>
        <time>2014-08-31T12:24:12Z</time>
      </trkpt>
      <trkpt lat="46.07489" lon="6.73089">
        <ele>720.0102</ele>
        <time>2014-08-31T12:24:17Z</time>
      </trkpt>
      <trkpt lat="46.07486" lon="6.73091">
        <ele>720.0102</ele>
        <time>2014-08-31T12:24:22Z</time>
      </trkpt>
      <trkpt lat="46.07484" lon="6.73092">
        <ele>720.0102</ele>
        <time>2014-08-31T12:24:27Z</time>
      </trkpt>
      <trkpt lat="46.0748" lon="6.73094">
        <ele>720.1501</ele>
        <time>2014-08-31T12:24:32Z</time>
      </trkpt>
      <trkpt lat="46.07475" lon="6.73097">
        <ele>720.1501</ele>
        <time>2014-08-31T12:24:37Z</time>
      </trkpt>
      <trkpt lat="46.07468" lon="6.73104">
        <ele>720.00543</ele>
        <time>2014-08-31T12:24:42Z</time>
      </trkpt>
      <trkpt lat="46.07461" lon="6.73109">
        <ele>720.00543</ele>
        <time>2014-08-31T12:24:47Z</time>
      </trkpt>
      <trkpt lat="46.0746" lon="6.73111">
        <ele>719.7278</ele>
        <time>2014-08-31T12:24:52Z</time>
      </trkpt>
      <trkpt lat="46.07453" lon="6.73114">
        <ele>719.7278</ele>
        <time>2014-08-31T12:24:57Z</time>
      </trkpt>
      <trkpt lat="46.0745" lon="6.73115">
        <ele>719.38586</ele>
        <time>2014-08-31T12:25:02Z</time>
      </trkpt>
      <trkpt lat="46.07443" lon="6.7312">
        <ele>719.38586</ele>
        <time>2014-08-31T12:25:07Z</time>
      </trkpt>
      <trkpt lat="46.07437" lon="6.73123">
        <ele>719.08685</ele>
        <time>2014-08-31T12:25:12Z</time>
      </trkpt>
      <trkpt lat="46.07428" lon="6.73127">
        <ele>718.7283</ele>
        <time>2014-08-31T12:25:17Z</time>
      </trkpt>
      <trkpt lat="46.07422" lon="6.7313">
        <ele>718.7283</ele>
        <time>2014-08-31T12:25:22Z</time>
      </trkpt>
      <trkpt lat="46.07421" lon="6.73131">
        <ele>718.7283</ele>
        <time>2014-08-31T12:25:27Z</time>
      </trkpt>
      <trkpt lat="46.07418" lon="6.73132">
        <ele>717.98486</ele>
        <time>2014-08-31T12:25:32Z</time>
      </trkpt>
      <trkpt lat="46.07415" lon="6.73134">
        <ele>717.98486</ele>
        <time>2014-08-31T12:25:37Z</time>
      </trkpt>
      <trkpt lat="46.07407" lon="6.73134">
        <ele>716.9022</ele>
        <time>2014-08-31T12:25:42Z</time>
      </trkpt>
      <trkpt lat="46.07399" lon="6.73136">
        <ele>716.9022</ele>
        <time>2014-08-31T12:25:47Z</time>
      </trkpt>
      <trkpt lat="46.07394" lon="6.73137">
        <ele>715.6965</ele>
        <time>2014-08-31T12:25:52Z</time>
      </trkpt>
      <trkpt lat="46.07386" lon="6.73144">
        <ele>714.5539</ele>
        <time>2014-08-31T12:25:57Z</time>
      </trkpt>
      <trkpt lat="46.07378" lon="6.73148">
        <ele>714.5539</ele>
        <time>2014-08-31T12:26:02Z</time>
      </trkpt>
      <trkpt lat="46.07372" lon="6.73149">
        <ele>713.61804</ele>
        <time>2014-08-31T12:26:07Z</time>
      </trkpt>
      <trkpt lat="46.07364" lon="6.73151">
        <ele>713.61804</ele>
        <time>2014-08-31T12:26:12Z</time>
      </trkpt>
      <trkpt lat="46.07357" lon="6.73153">
        <ele>712.99255</ele>
        <time>2014-08-31T12:26:17Z</time>
      </trkpt>
      <trkpt lat="46.07355" lon="6.73154">
        <ele>712.99255</ele>
        <time>2014-08-31T12:26:22Z</time>
      </trkpt>
      <trkpt lat="46.07349" lon="6.73156">
        <ele>712.99255</ele>
        <time>2014-08-31T12:26:27Z</time>
      </trkpt>
      <trkpt lat="46.07344" lon="6.7316">
        <ele>712.54193</ele>
        <time>2014-08-31T12:26:32Z</time>
      </trkpt>
      <trkpt lat="46.07339" lon="6.73162">
        <ele>712.54193</ele>
        <time>2014-08-31T12:26:37Z</time>
      </trkpt>
      <trkpt lat="46.07337" lon="6.73164">
        <ele>712.54193</ele>
        <time>2014-08-31T12:26:42Z</time>
      </trkpt>
      <trkpt lat="46.07336" lon="6.73166">
        <ele>711.90967</ele>
        <time>2014-08-31T12:26:47Z</time>
      </trkpt>
      <trkpt lat="46.07326" lon="6.73168">
        <ele>711.1405</ele>
        <time>2014-08-31T12:26:52Z</time>
      </trkpt>
      <trkpt lat="46.07319" lon="6.7317">
        <ele>711.1405</ele>
        <time>2014-08-31T12:26:57Z</time>
      </trkpt>
      <trkpt lat="46.07317" lon="6.7317">
        <ele>710.43475</ele>
        <time>2014-08-31T12:27:02Z</time>
      </trkpt>
      <trkpt lat="46.07312" lon="6.73173">
        <ele>710.43475</ele>
        <time>2014-08-31T12:27:07Z</time>
      </trkpt>
      <trkpt lat="46.07306" lon="6.73175">
        <ele>709.805</ele>
        <time>2014-08-31T12:27:12Z</time>
      </trkpt>
      <trkpt lat="46.07302" lon="6.73179">
        <ele>709.805</ele>
        <time>2014-08-31T12:27:17Z</time>
      </trkpt>
      <trkpt lat="46.07294" lon="6.73184">
        <ele>709.20483</ele>
        <time>2014-08-31T12:27:22Z</time>
      </trkpt>
      <trkpt lat="46.07289" lon="6.73188">
        <ele>709.20483</ele>
        <time>2014-08-31T12:27:27Z</time>
      </trkpt>
      <trkpt lat="46.07283" lon="6.73191">
        <ele>708.62006</ele>
        <time>2014-08-31T12:27:32Z</time>
      </trkpt>
      <trkpt lat="46.07275" lon="6.73194">
        <ele>708.62006</ele>
        <time>2014-08-31T12:27:37Z</time>
      </trkpt>
      <trkpt lat="46.07267" lon="6.73199">
        <ele>708.28235</ele>
        <time>2014-08-31T12:27:42Z</time>
      </trkpt>
      <trkpt lat="46.0726" lon="6.73201">
        <ele>708.28235</ele>
        <time>2014-08-31T12:27:47Z</time>
      </trkpt>
      <trkpt lat="46.07253" lon="6.73206">
        <ele>708.2328</ele>
        <time>2014-08-31T12:27:52Z</time>
      </trkpt>
      <trkpt lat="46.07249" lon="6.73207">
        <ele>708.2328</ele>
        <time>2014-08-31T12:27:57Z</time>
      </trkpt>
      <trkpt lat="46.07248" lon="6.73209">
        <ele>708.2328</ele>
        <time>2014-08-31T12:28:02Z</time>
      </trkpt>
      <trkpt lat="46.07243" lon="6.7321">
        <ele>708.33545</ele>
        <time>2014-08-31T12:28:07Z</time>
      </trkpt>
      <trkpt lat="46.07239" lon="6.73212">
        <ele>708.33545</ele>
        <time>2014-08-31T12:28:12Z</time>
      </trkpt>
      <trkpt lat="46.07236" lon="6.73213">
        <ele>708.33545</ele>
        <time>2014-08-31T12:28:17Z</time>
      </trkpt>
      <trkpt lat="46.0723" lon="6.73218">
        <ele>708.40656</ele>
        <time>2014-08-31T12:28:22Z</time>
      </trkpt>
      <trkpt lat="46.07223" lon="6.7322">
        <ele>708.40656</ele>
        <time>2014-08-31T12:28:27Z</time>
      </trkpt>
      <trkpt lat="46.07212" lon="6.73221">
        <ele>708.65027</ele>
        <time>2014-08-31T12:28:32Z</time>
      </trkpt>
      <trkpt lat="46.07204" lon="6.73224">
        <ele>708.93835</ele>
        <time>2014-08-31T12:28:37Z</time>
      </trkpt>
      <trkpt lat="46.07197" lon="6.73227">
        <ele>708.93835</ele>
        <time>2014-08-31T12:28:42Z</time>
      </trkpt>
      <trkpt lat="46.07191" lon="6.73229">
        <ele>709.4976</ele>
        <time>2014-08-31T12:28:47Z</time>
      </trkpt>
      <trkpt lat="46.07187" lon="6.73229">
        <ele>709.4976</ele>
        <time>2014-08-31T12:28:52Z</time>
      </trkpt>
      <trkpt lat="46.07182" lon="6.73226">
        <ele>710.11957</ele>
        <time>2014-08-31T12:28:57Z</time>
      </trkpt>
      <trkpt lat="46.07177" lon="6.73225">
        <ele>710.11957</ele>
        <time>2014-08-31T12:29:02Z</time>
      </trkpt>
      <trkpt lat="46.07174" lon="6.73222">
        <ele>710.11957</ele>
        <time>2014-08-31T12:29:07Z</time>
      </trkpt>
      <trkpt lat="46.0717" lon="6.73221">
        <ele>710.6972</ele>
        <time>2014-08-31T12:29:12Z</time>
      </trkpt>
      <trkpt lat="46.07167" lon="6.73221">
        <ele>710.6972</ele>
        <time>2014-08-31T12:29:17Z</time>
      </trkpt>
      <trkpt lat="46.07164" lon="6.73219">
        <ele>710.6972</ele>
        <time>2014-08-31T12:29:22Z</time>
      </trkpt>
      <trkpt lat="46.07158" lon="6.73209">
        <ele>711.218</ele>
        <time>2014-08-31T12:29:27Z</time>
      </trkpt>
      <trkpt lat="46.07155" lon="6.73205">
        <ele>711.218</ele>
        <time>2014-08-31T12:29:32Z</time>
      </trkpt>
      <trkpt lat="46.07153" lon="6.73204">
        <ele>711.218</ele>
        <time>2014-08-31T12:29:37Z</time>
      </trkpt>
      <trkpt lat="46.0715" lon="6.73203">
        <ele>711.218</ele>
        <time>2014-08-31T12:29:42Z</time>
      </trkpt>
      <trkpt lat="46.0714" lon="6.73201">
        <ele>711.1517</ele>
        <time>2014-08-31T12:29:47Z</time>
      </trkpt>
      <trkpt lat="46.07125" lon="6.73191">
        <ele>710.9452</ele>
        <time>2014-08-31T12:29:52Z</time>
      </trkpt>
      <trkpt lat="46.0712" lon="6.73193">
        <ele>710.9452</ele>
        <time>2014-08-31T12:29:57Z</time>
      </trkpt>
      <trkpt lat="46.07114" lon="6.73198">
        <ele>710.52325</ele>
        <time>2014-08-31T12:30:02Z</time>
      </trkpt>
      <trkpt lat="46.0711" lon="6.73207">
        <ele>710.52325</ele>
        <time>2014-08-31T12:30:07Z</time>
      </trkpt>
      <trkpt lat="46.07106" lon="6.73214">
        <ele>709.64355</ele>
        <time>2014-08-31T12:30:12Z</time>
      </trkpt>
      <trkpt lat="46.07102" lon="6.73216">
        <ele>709.64355</ele>
        <time>2014-08-31T12:30:17Z</time>
      </trkpt>
      <trkpt lat="46.07097" lon="6.73222">
        <ele>708.3856</ele>
        <time>2014-08-31T12:30:22Z</time>
      </trkpt>
      <trkpt lat="46.07094" lon="6.7323">
        <ele>708.3856</ele>
        <time>2014-08-31T12:30:27Z</time>
      </trkpt>
      <trkpt lat="46.07091" lon="6.73234">
        <ele>706.8673</ele>
        <time>2014-08-31T12:30:32Z</time>
      </trkpt>
      <trkpt lat="46.07086" lon="6.7324">
        <ele>706.8673</ele>
        <time>2014-08-31T12:30:37Z</time>
      </trkpt>
      <trkpt lat="46.07083" lon="6.73245">
        <ele>705.1122</ele>
        <time>2014-08-31T12:30:42Z</time>
      </trkpt>
      <trkpt lat="46.07079" lon="6.73249">
        <ele>705.1122</ele>
        <time>2014-08-31T12:30:47Z</time>
      </trkpt>
      <trkpt lat="46.07075" lon="6.73253">
        <ele>703.1425</ele>
        <time>2014-08-31T12:30:52Z</time>
      </trkpt>
      <trkpt lat="46.07073" lon="6.73255">
        <ele>703.1425</ele>
        <time>2014-08-31T12:30:57Z</time>
      </trkpt>
      <trkpt lat="46.07069" lon="6.73261">
        <ele>700.8067</ele>
        <time>2014-08-31T12:31:02Z</time>
      </trkpt>
      <trkpt lat="46.07064" lon="6.73265">
        <ele>700.8067</ele>
        <time>2014-08-31T12:31:07Z</time>
      </trkpt>
      <trkpt lat="46.07061" lon="6.73271">
        <ele>698.1237</ele>
        <time>2014-08-31T12:31:12Z</time>
      </trkpt>
      <trkpt lat="46.07057" lon="6.73274">
        <ele>698.1237</ele>
        <time>2014-08-31T12:31:17Z</time>
      </trkpt>
      <trkpt lat="46.07054" lon="6.7328">
        <ele>695.0255</ele>
        <time>2014-08-31T12:31:22Z</time>
      </trkpt>
      <trkpt lat="46.07049" lon="6.73284">
        <ele>695.0255</ele>
        <time>2014-08-31T12:31:27Z</time>
      </trkpt>
      <trkpt lat="46.07046" lon="6.73287">
        <ele>691.7095</ele>
        <time>2014-08-31T12:31:32Z</time>
      </trkpt>
      <trkpt lat="46.07043" lon="6.73292">
        <ele>691.7095</ele>
        <time>2014-08-31T12:31:37Z</time>
      </trkpt>
      <trkpt lat="46.07041" lon="6.73296">
        <ele>691.7095</ele>
        <time>2014-08-31T12:31:42Z</time>
      </trkpt>
      <trkpt lat="46.07036" lon="6.73305">
        <ele>688.388</ele>
        <time>2014-08-31T12:31:47Z</time>
      </trkpt>
      <trkpt lat="46.07035" lon="6.7331">
        <ele>688.388</ele>
        <time>2014-08-31T12:31:52Z</time>
      </trkpt>
      <trkpt lat="46.07035" lon="6.73314">
        <ele>688.388</ele>
        <time>2014-08-31T12:31:57Z</time>
      </trkpt>
      <trkpt lat="46.0703" lon="6.73321">
        <ele>686.0069</ele>
        <time>2014-08-31T12:32:02Z</time>
      </trkpt>
      <trkpt lat="46.07023" lon="6.73327">
        <ele>686.0069</ele>
        <time>2014-08-31T12:32:07Z</time>
      </trkpt>
      <trkpt lat="46.07019" lon="6.73332">
        <ele>684.53204</ele>
        <time>2014-08-31T12:32:12Z</time>
      </trkpt>
      <trkpt lat="46.07015" lon="6.73336">
        <ele>684.53204</ele>
        <time>2014-08-31T12:32:17Z</time>
      </trkpt>
      <trkpt lat="46.07006" lon="6.73347">
        <ele>684.1307</ele>
        <time>2014-08-31T12:32:22Z</time>
      </trkpt>
      <trkpt lat="46.06998" lon="6.73354">
        <ele>684.2197</ele>
        <time>2014-08-31T12:32:27Z</time>
      </trkpt>
      <trkpt lat="46.06991" lon="6.73365">
        <ele>684.7619</ele>
        <time>2014-08-31T12:32:32Z</time>
      </trkpt>
      <trkpt lat="46.06983" lon="6.73374">
        <ele>685.9661</ele>
        <time>2014-08-31T12:32:37Z</time>
      </trkpt>
      <trkpt lat="46.0698" lon="6.7338">
        <ele>685.9661</ele>
        <time>2014-08-31T12:32:42Z</time>
      </trkpt>
      <trkpt lat="46.06974" lon="6.73387">
        <ele>688.48517</ele>
        <time>2014-08-31T12:32:47Z</time>
      </trkpt>
      <trkpt lat="46.06967" lon="6.73396">
        <ele>691.4358</ele>
        <time>2014-08-31T12:32:52Z</time>
      </trkpt>
      <trkpt lat="46.06964" lon="6.73401">
        <ele>691.4358</ele>
        <time>2014-08-31T12:32:57Z</time>
      </trkpt>
      <trkpt lat="46.0696" lon="6.73408">
        <ele>695.25214</ele>
        <time>2014-08-31T12:33:02Z</time>
      </trkpt>
      <trkpt lat="46.06956" lon="6.73413">
        <ele>695.25214</ele>
        <time>2014-08-31T12:33:07Z</time>
      </trkpt>
      <trkpt lat="46.06954" lon="6.73417">
        <ele>695.25214</ele>
        <time>2014-08-31T12:33:12Z</time>
      </trkpt>
      <trkpt lat="46.06952" lon="6.73422">
        <ele>699.6854</ele>
        <time>2014-08-31T12:33:17Z</time>
      </trkpt>
      <trkpt lat="46.06949" lon="6.73427">
        <ele>699.6854</ele>
        <time>2014-08-31T12:33:22Z</time>
      </trkpt>
      <trkpt lat="46.06947" lon="6.73433">
        <ele>704.2154</ele>
        <time>2014-08-31T12:33:27Z</time>
      </trkpt>
      <trkpt lat="46.06944" lon="6.73437">
        <ele>704.2154</ele>
        <time>2014-08-31T12:33:32Z</time>
      </trkpt>
      <trkpt lat="46.0694" lon="6.73443">
        <ele>708.70544</ele>
        <time>2014-08-31T12:33:37Z</time>
      </trkpt>
      <trkpt lat="46.06932" lon="6.73452">
        <ele>713.02936</ele>
        <time>2014-08-31T12:33:42Z</time>
      </trkpt>
      <trkpt lat="46.06925" lon="6.7346">
        <ele>717.21484</ele>
        <time>2014-08-31T12:33:47Z</time>
      </trkpt>
      <trkpt lat="46.06922" lon="6.73468">
        <ele>717.21484</ele>
        <time>2014-08-31T12:33:52Z</time>
      </trkpt>
      <trkpt lat="46.06918" lon="6.73472">
        <ele>721.4034</ele>
        <time>2014-08-31T12:33:57Z</time>
      </trkpt>
      <trkpt lat="46.06917" lon="6.73473">
        <ele>721.4034</ele>
        <time>2014-08-31T12:34:02Z</time>
      </trkpt>
      <trkpt lat="46.06915" lon="6.73471">
        <ele>721.4034</ele>
        <time>2014-08-31T12:34:17Z</time>
      </trkpt>
      <trkpt lat="46.06913" lon="6.73474">
        <ele>721.4034</ele>
        <time>2014-08-31T12:34:22Z</time>
      </trkpt>
      <trkpt lat="46.0691" lon="6.73482">
        <ele>724.16986</ele>
        <time>2014-08-31T12:34:27Z</time>
      </trkpt>
      <trkpt lat="46.06907" lon="6.73489">
        <ele>724.16986</ele>
        <time>2014-08-31T12:34:32Z</time>
      </trkpt>
      <trkpt lat="46.06901" lon="6.73498">
        <ele>726.3454</ele>
        <time>2014-08-31T12:34:37Z</time>
      </trkpt>
      <trkpt lat="46.06898" lon="6.73506">
        <ele>726.3454</ele>
        <time>2014-08-31T12:34:42Z</time>
      </trkpt>
      <trkpt lat="46.06896" lon="6.7351">
        <ele>728.5144</ele>
        <time>2014-08-31T12:34:47Z</time>
      </trkpt>
      <trkpt lat="46.06892" lon="6.73517">
        <ele>728.5144</ele>
        <time>2014-08-31T12:34:52Z</time>
      </trkpt>
      <trkpt lat="46.0689" lon="6.73521">
        <ele>730.8873</ele>
        <time>2014-08-31T12:34:57Z</time>
      </trkpt>
      <trkpt lat="46.06886" lon="6.73526">
        <ele>730.8873</ele>
        <time>2014-08-31T12:35:02Z</time>
      </trkpt>
      <trkpt lat="46.06881" lon="6.73534">
        <ele>733.22626</ele>
        <time>2014-08-31T12:35:07Z</time>
      </trkpt>
      <trkpt lat="46.06877" lon="6.73544">
        <ele>733.22626</ele>
        <time>2014-08-31T12:35:12Z</time>
      </trkpt>
      <trkpt lat="46.06875" lon="6.73552">
        <ele>735.5131</ele>
        <time>2014-08-31T12:35:17Z</time>
      </trkpt>
      <trkpt lat="46.06874" lon="6.73554">
        <ele>735.5131</ele>
        <time>2014-08-31T12:35:22Z</time>
      </trkpt>
      <trkpt lat="46.06874" lon="6.73554">
        <ele>735.5131</ele>
        <time>2014-08-31T12:35:27Z</time>
      </trkpt>
      <trkpt lat="46.06874" lon="6.73557">
        <ele>735.5131</ele>
        <time>2014-08-31T12:35:57Z</time>
      </trkpt>
      <trkpt lat="46.0687" lon="6.73561">
        <ele>735.5131</ele>
        <time>2014-08-31T12:36:02Z</time>
      </trkpt>
      <trkpt lat="46.0687" lon="6.73561">
        <ele>735.5131</ele>
        <time>2014-08-31T12:36:07Z</time>
      </trkpt>
      <trkpt lat="46.06867" lon="6.73569">
        <ele>737.3998</ele>
        <time>2014-08-31T12:36:12Z</time>
      </trkpt>
      <trkpt lat="46.06866" lon="6.73573">
        <ele>737.3998</ele>
        <time>2014-08-31T12:36:17Z</time>
      </trkpt>
      <trkpt lat="46.06865" lon="6.73574">
        <ele>737.3998</ele>
        <time>2014-08-31T12:36:22Z</time>
      </trkpt>
      <trkpt lat="46.06861" lon="6.73581">
        <ele>738.623</ele>
        <time>2014-08-31T12:36:27Z</time>
      </trkpt>
      <trkpt lat="46.06857" lon="6.73585">
        <ele>738.623</ele>
        <time>2014-08-31T12:36:32Z</time>
      </trkpt>
      <trkpt lat="46.06852" lon="6.7359">
        <ele>739.3585</ele>
        <time>2014-08-31T12:36:37Z</time>
      </trkpt>
      <trkpt lat="46.06848" lon="6.73595">
        <ele>739.3585</ele>
        <time>2014-08-31T12:36:42Z</time>
      </trkpt>
      <trkpt lat="46.06844" lon="6.736">
        <ele>739.94403</ele>
        <time>2014-08-31T12:36:47Z</time>
      </trkpt>
      <trkpt lat="46.06843" lon="6.736">
        <ele>739.94403</ele>
        <time>2014-08-31T12:36:52Z</time>
      </trkpt>
      <trkpt lat="46.06837" lon="6.73605">
        <ele>739.94403</ele>
        <time>2014-08-31T12:36:57Z</time>
      </trkpt>
      <trkpt lat="46.06836" lon="6.73606">
        <ele>740.3902</ele>
        <time>2014-08-31T12:37:02Z</time>
      </trkpt>
      <trkpt lat="46.06832" lon="6.73607">
        <ele>740.3902</ele>
        <time>2014-08-31T12:37:07Z</time>
      </trkpt>
      <trkpt lat="46.06817" lon="6.73619">
        <ele>740.7219</ele>
        <time>2014-08-31T12:37:12Z</time>
      </trkpt>
      <trkpt lat="46.06801" lon="6.73623">
        <ele>740.9052</ele>
        <time>2014-08-31T12:37:17Z</time>
      </trkpt>
      <trkpt lat="46.068" lon="6.73623">
        <ele>740.9052</ele>
        <time>2014-08-31T12:37:22Z</time>
      </trkpt>
      <trkpt lat="46.06802" lon="6.73622">
        <ele>740.9052</ele>
        <time>2014-08-31T12:37:27Z</time>
      </trkpt>
      <trkpt lat="46.06801" lon="6.73624">
        <ele>740.9052</ele>
        <time>2014-08-31T12:37:32Z</time>
      </trkpt>
      <trkpt lat="46.06798" lon="6.73624">
        <ele>740.9052</ele>
        <time>2014-08-31T12:37:37Z</time>
      </trkpt>
      <trkpt lat="46.06795" lon="6.73627">
        <ele>740.9523</ele>
        <time>2014-08-31T12:37:42Z</time>
      </trkpt>
      <trkpt lat="46.06791" lon="6.73628">
        <ele>740.9523</ele>
        <time>2014-08-31T12:37:47Z</time>
      </trkpt>
      <trkpt lat="46.06784" lon="6.73631">
        <ele>740.9038</ele>
        <time>2014-08-31T12:37:52Z</time>
      </trkpt>
      <trkpt lat="46.0678" lon="6.73633">
        <ele>740.9038</ele>
        <time>2014-08-31T12:37:57Z</time>
      </trkpt>
      <trkpt lat="46.06773" lon="6.73632">
        <ele>740.7979</ele>
        <time>2014-08-31T12:38:02Z</time>
      </trkpt>
      <trkpt lat="46.06767" lon="6.73632">
        <ele>740.7979</ele>
        <time>2014-08-31T12:38:07Z</time>
      </trkpt>
      <trkpt lat="46.06766" lon="6.73633">
        <ele>740.7979</ele>
        <time>2014-08-31T12:38:12Z</time>
      </trkpt>
      <trkpt lat="46.06763" lon="6.73635">
        <ele>740.56934</ele>
        <time>2014-08-31T12:38:17Z</time>
      </trkpt>
      <trkpt lat="46.06763" lon="6.73635">
        <ele>740.56934</ele>
        <time>2014-08-31T12:38:22Z</time>
      </trkpt>
      <trkpt lat="46.06759" lon="6.73634">
        <ele>740.56934</ele>
        <time>2014-08-31T12:38:27Z</time>
      </trkpt>
      <trkpt lat="46.06747" lon="6.73634">
        <ele>739.99945</ele>
        <time>2014-08-31T12:38:32Z</time>
      </trkpt>
      <trkpt lat="46.06742" lon="6.73637">
        <ele>739.99945</ele>
        <time>2014-08-31T12:38:37Z</time>
      </trkpt>
      <trkpt lat="46.06736" lon="6.7364">
        <ele>739.2614</ele>
        <time>2014-08-31T12:38:42Z</time>
      </trkpt>
      <trkpt lat="46.06728" lon="6.73642">
        <ele>739.2614</ele>
        <time>2014-08-31T12:38:47Z</time>
      </trkpt>
      <trkpt lat="46.06723" lon="6.73644">
        <ele>738.3289</ele>
        <time>2014-08-31T12:38:52Z</time>
      </trkpt>
      <trkpt lat="46.06717" lon="6.73648">
        <ele>738.3289</ele>
        <time>2014-08-31T12:38:57Z</time>
      </trkpt>
      <trkpt lat="46.06714" lon="6.73648">
        <ele>737.3366</ele>
        <time>2014-08-31T12:39:02Z</time>
      </trkpt>
      <trkpt lat="46.06708" lon="6.73651">
        <ele>737.3366</ele>
        <time>2014-08-31T12:39:07Z</time>
      </trkpt>
      <trkpt lat="46.06701" lon="6.73652">
        <ele>736.2222</ele>
        <time>2014-08-31T12:39:12Z</time>
      </trkpt>
      <trkpt lat="46.06692" lon="6.73659">
        <ele>735.0147</ele>
        <time>2014-08-31T12:39:17Z</time>
      </trkpt>
      <trkpt lat="46.06688" lon="6.7366">
        <ele>735.0147</ele>
        <time>2014-08-31T12:39:22Z</time>
      </trkpt>
      <trkpt lat="46.06685" lon="6.73662">
        <ele>735.0147</ele>
        <time>2014-08-31T12:39:27Z</time>
      </trkpt>
      <trkpt lat="46.06676" lon="6.73664">
        <ele>733.698</ele>
        <time>2014-08-31T12:39:32Z</time>
      </trkpt>
      <trkpt lat="46.0667" lon="6.73667">
        <ele>733.698</ele>
        <time>2014-08-31T12:39:37Z</time>
      </trkpt>
      <trkpt lat="46.0667" lon="6.73668">
        <ele>733.698</ele>
        <time>2014-08-31T12:39:42Z</time>
      </trkpt>
      <trkpt lat="46.06666" lon="6.73672">
        <ele>731.9117</ele>
        <time>2014-08-31T12:39:47Z</time>
      </trkpt>
      <trkpt lat="46.06658" lon="6.73678">
        <ele>730.00024</ele>
        <time>2014-08-31T12:39:52Z</time>
      </trkpt>
      <trkpt lat="46.06653" lon="6.73681">
        <ele>730.00024</ele>
        <time>2014-08-31T12:39:57Z</time>
      </trkpt>
      <trkpt lat="46.06648" lon="6.73684">
        <ele>727.9374</ele>
        <time>2014-08-31T12:40:02Z</time>
      </trkpt>
      <trkpt lat="46.06646" lon="6.73686">
        <ele>727.9374</ele>
        <time>2014-08-31T12:40:07Z</time>
      </trkpt>
      <trkpt lat="46.06643" lon="6.73688">
        <ele>727.9374</ele>
        <time>2014-08-31T12:40:12Z</time>
      </trkpt>
      <trkpt lat="46.06636" lon="6.73693">
        <ele>726.0738</ele>
        <time>2014-08-31T12:40:17Z</time>
      </trkpt>
      <trkpt lat="46.06627" lon="6.73696">
        <ele>726.0738</ele>
        <time>2014-08-31T12:40:22Z</time>
      </trkpt>
      <trkpt lat="46.06623" lon="6.73701">
        <ele>724.4599</ele>
        <time>2014-08-31T12:40:27Z</time>
      </trkpt>
      <trkpt lat="46.06623" lon="6.73703">
        <ele>724.4599</ele>
        <time>2014-08-31T12:40:32Z</time>
      </trkpt>
      <trkpt lat="46.06621" lon="6.73704">
        <ele>724.4599</ele>
        <time>2014-08-31T12:40:37Z</time>
      </trkpt>
      <trkpt lat="46.06614" lon="6.73707">
        <ele>722.88214</ele>
        <time>2014-08-31T12:40:42Z</time>
      </trkpt>
      <trkpt lat="46.06604" lon="6.73707">
        <ele>721.5173</ele>
        <time>2014-08-31T12:40:47Z</time>
      </trkpt>
      <trkpt lat="46.06596" lon="6.73709">
        <ele>721.5173</ele>
        <time>2014-08-31T12:40:52Z</time>
      </trkpt>
      <trkpt lat="46.06587" lon="6.73708">
        <ele>720.5714</ele>
        <time>2014-08-31T12:40:57Z</time>
      </trkpt>
      <trkpt lat="46.06585" lon="6.73708">
        <ele>720.5714</ele>
        <time>2014-08-31T12:41:02Z</time>
      </trkpt>
      <trkpt lat="46.0658" lon="6.73711">
        <ele>720.5714</ele>
        <time>2014-08-31T12:41:07Z</time>
      </trkpt>
      <trkpt lat="46.06571" lon="6.73712">
        <ele>719.946</ele>
        <time>2014-08-31T12:41:12Z</time>
      </trkpt>
      <trkpt lat="46.06569" lon="6.73714">
        <ele>719.946</ele>
        <time>2014-08-31T12:41:17Z</time>
      </trkpt>
      <trkpt lat="46.06567" lon="6.73715">
        <ele>719.946</ele>
        <time>2014-08-31T12:41:22Z</time>
      </trkpt>
      <trkpt lat="46.06563" lon="6.73717">
        <ele>719.66406</ele>
        <time>2014-08-31T12:41:27Z</time>
      </trkpt>
      <trkpt lat="46.06557" lon="6.73722">
        <ele>719.66406</ele>
        <time>2014-08-31T12:41:32Z</time>
      </trkpt>
      <trkpt lat="46.0655" lon="6.73725">
        <ele>719.5296</ele>
        <time>2014-08-31T12:41:37Z</time>
      </trkpt>
      <trkpt lat="46.06546" lon="6.7373">
        <ele>719.5296</ele>
        <time>2014-08-31T12:41:42Z</time>
      </trkpt>
      <trkpt lat="46.0654" lon="6.73734">
        <ele>719.6199</ele>
        <time>2014-08-31T12:41:47Z</time>
      </trkpt>
      <trkpt lat="46.06537" lon="6.73736">
        <ele>719.6199</ele>
        <time>2014-08-31T12:41:52Z</time>
      </trkpt>
      <trkpt lat="46.06532" lon="6.73738">
        <ele>719.6199</ele>
        <time>2014-08-31T12:41:57Z</time>
      </trkpt>
      <trkpt lat="46.06524" lon="6.73741">
        <ele>719.70306</ele>
        <time>2014-08-31T12:42:02Z</time>
      </trkpt>
      <trkpt lat="46.0652" lon="6.73742">
        <ele>719.70306</ele>
        <time>2014-08-31T12:42:07Z</time>
      </trkpt>
      <trkpt lat="46.06515" lon="6.73745">
        <ele>719.66516</ele>
        <time>2014-08-31T12:42:12Z</time>
      </trkpt>
      <trkpt lat="46.06509" lon="6.73746">
        <ele>719.66516</ele>
        <time>2014-08-31T12:42:17Z</time>
      </trkpt>
      <trkpt lat="46.06502" lon="6.73749">
        <ele>719.45844</ele>
        <time>2014-08-31T12:42:22Z</time>
      </trkpt>
      <trkpt lat="46.06498" lon="6.73753">
        <ele>719.45844</ele>
        <time>2014-08-31T12:42:27Z</time>
      </trkpt>
      <trkpt lat="46.06494" lon="6.73756">
        <ele>718.98126</ele>
        <time>2014-08-31T12:42:32Z</time>
      </trkpt>
      <trkpt lat="46.06492" lon="6.73758">
        <ele>718.98126</ele>
        <time>2014-08-31T12:42:37Z</time>
      </trkpt>
      <trkpt lat="46.06488" lon="6.73758">
        <ele>718.98126</ele>
        <time>2014-08-31T12:42:42Z</time>
      </trkpt>
      <trkpt lat="46.06487" lon="6.73759">
        <ele>718.98126</ele>
        <time>2014-08-31T12:42:47Z</time>
      </trkpt>
      <trkpt lat="46.06485" lon="6.73759">
        <ele>718.1113</ele>
        <time>2014-08-31T12:42:52Z</time>
      </trkpt>
      <trkpt lat="46.06476" lon="6.73763">
        <ele>718.1113</ele>
        <time>2014-08-31T12:42:57Z</time>
      </trkpt>
      <trkpt lat="46.06466" lon="6.7377">
        <ele>717.1256</ele>
        <time>2014-08-31T12:43:02Z</time>
      </trkpt>
      <trkpt lat="46.06461" lon="6.73773">
        <ele>717.1256</ele>
        <time>2014-08-31T12:43:07Z</time>
      </trkpt>
      <trkpt lat="46.06451" lon="6.73774">
        <ele>716.28064</ele>
        <time>2014-08-31T12:43:12Z</time>
      </trkpt>
      <trkpt lat="46.06445" lon="6.73775">
        <ele>716.28064</ele>
        <time>2014-08-31T12:43:17Z</time>
      </trkpt>
      <trkpt lat="46.06436" lon="6.73776">
        <ele>715.62646</ele>
        <time>2014-08-31T12:43:22Z</time>
      </trkpt>
      <trkpt lat="46.06429" lon="6.73781">
        <ele>715.62646</ele>
        <time>2014-08-31T12:43:27Z</time>
      </trkpt>
      <trkpt lat="46.06424" lon="6.73784">
        <ele>715.252</ele>
        <time>2014-08-31T12:43:32Z</time>
      </trkpt>
      <trkpt lat="46.06416" lon="6.73788">
        <ele>715.252</ele>
        <time>2014-08-31T12:43:37Z</time>
      </trkpt>
      <trkpt lat="46.0641" lon="6.73791">
        <ele>715.1667</ele>
        <time>2014-08-31T12:43:42Z</time>
      </trkpt>
      <trkpt lat="46.06407" lon="6.73793">
        <ele>715.1667</ele>
        <time>2014-08-31T12:43:47Z</time>
      </trkpt>
      <trkpt lat="46.06406" lon="6.73794">
        <ele>715.1667</ele>
        <time>2014-08-31T12:43:52Z</time>
      </trkpt>
      <trkpt lat="46.06402" lon="6.73794">
        <ele>715.1667</ele>
        <time>2014-08-31T12:43:57Z</time>
      </trkpt>
      <trkpt lat="46.06398" lon="6.73795">
        <ele>715.2198</ele>
        <time>2014-08-31T12:44:02Z</time>
      </trkpt>
      <trkpt lat="46.06392" lon="6.73799">
        <ele>715.2198</ele>
        <time>2014-08-31T12:44:07Z</time>
      </trkpt>
      <trkpt lat="46.06385" lon="6.73795">
        <ele>715.3721</ele>
        <time>2014-08-31T12:44:12Z</time>
      </trkpt>
      <trkpt lat="46.06379" lon="6.73794">
        <ele>715.3721</ele>
        <time>2014-08-31T12:44:17Z</time>
      </trkpt>
      <trkpt lat="46.06374" lon="6.73794">
        <ele>715.9039</ele>
        <time>2014-08-31T12:44:22Z</time>
      </trkpt>
      <trkpt lat="46.06372" lon="6.73795">
        <ele>715.9039</ele>
        <time>2014-08-31T12:44:27Z</time>
      </trkpt>
      <trkpt lat="46.06363" lon="6.73796">
        <ele>716.43976</ele>
        <time>2014-08-31T12:44:32Z</time>
      </trkpt>
      <trkpt lat="46.06357" lon="6.73797">
        <ele>716.43976</ele>
        <time>2014-08-31T12:44:37Z</time>
      </trkpt>
      <trkpt lat="46.06352" lon="6.73799">
        <ele>717.0641</ele>
        <time>2014-08-31T12:44:42Z</time>
      </trkpt>
      <trkpt lat="46.06346" lon="6.73801">
        <ele>717.0641</ele>
        <time>2014-08-31T12:44:47Z</time>
      </trkpt>
      <trkpt lat="46.06341" lon="6.73804">
        <ele>717.624</ele>
        <time>2014-08-31T12:44:52Z</time>
      </trkpt>
      <trkpt lat="46.06337" lon="6.73804">
        <ele>717.624</ele>
        <time>2014-08-31T12:44:57Z</time>
      </trkpt>
      <trkpt lat="46.06336" lon="6.73804">
        <ele>717.624</ele>
        <time>2014-08-31T12:45:02Z</time>
      </trkpt>
      <trkpt lat="46.06329" lon="6.73806">
        <ele>718.252</ele>
        <time>2014-08-31T12:45:07Z</time>
      </trkpt>
      <trkpt lat="46.06324" lon="6.7381">
        <ele>718.252</ele>
        <time>2014-08-31T12:45:12Z</time>
      </trkpt>
      <trkpt lat="46.06319" lon="6.73813">
        <ele>718.768</ele>
        <time>2014-08-31T12:45:17Z</time>
      </trkpt>
      <trkpt lat="46.06314" lon="6.73818">
        <ele>718.768</ele>
        <time>2014-08-31T12:45:22Z</time>
      </trkpt>
      <trkpt lat="46.06308" lon="6.73822">
        <ele>719.09174</ele>
        <time>2014-08-31T12:45:27Z</time>
      </trkpt>
      <trkpt lat="46.06301" lon="6.73823">
        <ele>719.09174</ele>
        <time>2014-08-31T12:45:32Z</time>
      </trkpt>
      <trkpt lat="46.06296" lon="6.73829">
        <ele>719.32245</ele>
        <time>2014-08-31T12:45:37Z</time>
      </trkpt>
      <trkpt lat="46.06291" lon="6.73829">
        <ele>719.32245</ele>
        <time>2014-08-31T12:45:42Z</time>
      </trkpt>
      <trkpt lat="46.06287" lon="6.73836">
        <ele>719.62427</ele>
        <time>2014-08-31T12:45:47Z</time>
      </trkpt>
      <trkpt lat="46.06284" lon="6.7384">
        <ele>719.62427</ele>
        <time>2014-08-31T12:45:52Z</time>
      </trkpt>
      <trkpt lat="46.06278" lon="6.73847">
        <ele>719.8897</ele>
        <time>2014-08-31T12:45:57Z</time>
      </trkpt>
      <trkpt lat="46.06271" lon="6.73851">
        <ele>719.8897</ele>
        <time>2014-08-31T12:46:02Z</time>
      </trkpt>
      <trkpt lat="46.06268" lon="6.73857">
        <ele>720.12024</ele>
        <time>2014-08-31T12:46:07Z</time>
      </trkpt>
      <trkpt lat="46.06266" lon="6.73862">
        <ele>720.12024</ele>
        <time>2014-08-31T12:46:12Z</time>
      </trkpt>
      <trkpt lat="46.06263" lon="6.73871">
        <ele>720.3605</ele>
        <time>2014-08-31T12:46:17Z</time>
      </trkpt>
      <trkpt lat="46.06261" lon="6.73882">
        <ele>720.3605</ele>
        <time>2014-08-31T12:46:22Z</time>
      </trkpt>
      <trkpt lat="46.0626" lon="6.73897">
        <ele>720.4643</ele>
        <time>2014-08-31T12:46:27Z</time>
      </trkpt>
      <trkpt lat="46.06259" lon="6.73902">
        <ele>720.4643</ele>
        <time>2014-08-31T12:46:32Z</time>
      </trkpt>
      <trkpt lat="46.06259" lon="6.73903">
        <ele>720.4643</ele>
        <time>2014-08-31T12:46:37Z</time>
      </trkpt>
      <trkpt lat="46.06256" lon="6.73911">
        <ele>720.4266</ele>
        <time>2014-08-31T12:46:42Z</time>
      </trkpt>
      <trkpt lat="46.06253" lon="6.73919">
        <ele>720.4266</ele>
        <time>2014-08-31T12:46:47Z</time>
      </trkpt>
      <trkpt lat="46.0625" lon="6.73927">
        <ele>719.98346</ele>
        <time>2014-08-31T12:46:52Z</time>
      </trkpt>
      <trkpt lat="46.06248" lon="6.73934">
        <ele>719.98346</ele>
        <time>2014-08-31T12:46:57Z</time>
      </trkpt>
      <trkpt lat="46.06248" lon="6.73941">
        <ele>719.42487</ele>
        <time>2014-08-31T12:47:02Z</time>
      </trkpt>
      <trkpt lat="46.06244" lon="6.73947">
        <ele>719.42487</ele>
        <time>2014-08-31T12:47:07Z</time>
      </trkpt>
      <trkpt lat="46.06243" lon="6.73949">
        <ele>719.42487</ele>
        <time>2014-08-31T12:47:12Z</time>
      </trkpt>
      <trkpt lat="46.0624" lon="6.73958">
        <ele>718.5874</ele>
        <time>2014-08-31T12:47:17Z</time>
      </trkpt>
      <trkpt lat="46.06239" lon="6.73963">
        <ele>718.5874</ele>
        <time>2014-08-31T12:47:22Z</time>
      </trkpt>
      <trkpt lat="46.06238" lon="6.73966">
        <ele>718.5874</ele>
        <time>2014-08-31T12:47:27Z</time>
      </trkpt>
      <trkpt lat="46.06237" lon="6.73971">
        <ele>717.9834</ele>
        <time>2014-08-31T12:47:32Z</time>
      </trkpt>
      <trkpt lat="46.06234" lon="6.73975">
        <ele>717.9834</ele>
        <time>2014-08-31T12:47:37Z</time>
      </trkpt>
      <trkpt lat="46.06232" lon="6.73978">
        <ele>717.9834</ele>
        <time>2014-08-31T12:47:42Z</time>
      </trkpt>
      <trkpt lat="46.0623" lon="6.73985">
        <ele>718.08685</ele>
        <time>2014-08-31T12:47:47Z</time>
      </trkpt>
      <trkpt lat="46.06226" lon="6.73993">
        <ele>718.08685</ele>
        <time>2014-08-31T12:47:52Z</time>
      </trkpt>
      <trkpt lat="46.06226" lon="6.73993">
        <ele>718.08685</ele>
        <time>2014-08-31T12:47:57Z</time>
      </trkpt>
      <trkpt lat="46.06224" lon="6.73995">
        <ele>718.47034</ele>
        <time>2014-08-31T12:48:02Z</time>
      </trkpt>
      <trkpt lat="46.06222" lon="6.74">
        <ele>718.47034</ele>
        <time>2014-08-31T12:48:07Z</time>
      </trkpt>
      <trkpt lat="46.06221" lon="6.74001">
        <ele>718.47034</ele>
        <time>2014-08-31T12:48:12Z</time>
      </trkpt>
      <trkpt lat="46.06215" lon="6.74009">
        <ele>718.8091</ele>
        <time>2014-08-31T12:48:17Z</time>
      </trkpt>
      <trkpt lat="46.06208" lon="6.74022">
        <ele>719.10486</ele>
        <time>2014-08-31T12:48:22Z</time>
      </trkpt>
      <trkpt lat="46.06207" lon="6.74024">
        <ele>719.10486</ele>
        <time>2014-08-31T12:48:27Z</time>
      </trkpt>
      <trkpt lat="46.06204" lon="6.74029">
        <ele>719.10486</ele>
        <time>2014-08-31T12:48:32Z</time>
      </trkpt>
      <trkpt lat="46.06203" lon="6.7403">
        <ele>719.10486</ele>
        <time>2014-08-31T12:48:37Z</time>
      </trkpt>
      <trkpt lat="46.06201" lon="6.74035">
        <ele>719.7198</ele>
        <time>2014-08-31T12:48:42Z</time>
      </trkpt>
      <trkpt lat="46.062" lon="6.74038">
        <ele>719.7198</ele>
        <time>2014-08-31T12:48:47Z</time>
      </trkpt>
      <trkpt lat="46.06197" lon="6.74041">
        <ele>719.7198</ele>
        <time>2014-08-31T12:48:52Z</time>
      </trkpt>
      <trkpt lat="46.06189" lon="6.74055">
        <ele>720.2248</ele>
        <time>2014-08-31T12:48:57Z</time>
      </trkpt>
      <trkpt lat="46.06186" lon="6.74062">
        <ele>720.2248</ele>
        <time>2014-08-31T12:49:02Z</time>
      </trkpt>
      <trkpt lat="46.06178" lon="6.74073">
        <ele>720.6836</ele>
        <time>2014-08-31T12:49:07Z</time>
      </trkpt>
      <trkpt lat="46.06173" lon="6.74084">
        <ele>720.96826</ele>
        <time>2014-08-31T12:49:12Z</time>
      </trkpt>
      <trkpt lat="46.06166" lon="6.74093">
        <ele>721.047</ele>
        <time>2014-08-31T12:49:17Z</time>
      </trkpt>
      <trkpt lat="46.0616" lon="6.74103">
        <ele>721.047</ele>
        <time>2014-08-31T12:49:22Z</time>
      </trkpt>
      <trkpt lat="46.06157" lon="6.74109">
        <ele>721.064</ele>
        <time>2014-08-31T12:49:27Z</time>
      </trkpt>
      <trkpt lat="46.06155" lon="6.74115">
        <ele>721.064</ele>
        <time>2014-08-31T12:49:32Z</time>
      </trkpt>
      <trkpt lat="46.06152" lon="6.74118">
        <ele>721.064</ele>
        <time>2014-08-31T12:49:37Z</time>
      </trkpt>
      <trkpt lat="46.06146" lon="6.74124">
        <ele>721.09564</ele>
        <time>2014-08-31T12:49:42Z</time>
      </trkpt>
      <trkpt lat="46.06144" lon="6.74129">
        <ele>721.09564</ele>
        <time>2014-08-31T12:49:47Z</time>
      </trkpt>
      <trkpt lat="46.06142" lon="6.74134">
        <ele>721.09564</ele>
        <time>2014-08-31T12:49:52Z</time>
      </trkpt>
      <trkpt lat="46.06139" lon="6.74136">
        <ele>721.4572</ele>
        <time>2014-08-31T12:49:57Z</time>
      </trkpt>
      <trkpt lat="46.06131" lon="6.74147">
        <ele>721.90704</ele>
        <time>2014-08-31T12:50:02Z</time>
      </trkpt>
      <trkpt lat="46.06124" lon="6.74154">
        <ele>721.90704</ele>
        <time>2014-08-31T12:50:07Z</time>
      </trkpt>
      <trkpt lat="46.06121" lon="6.74157">
        <ele>722.3939</ele>
        <time>2014-08-31T12:50:12Z</time>
      </trkpt>
      <trkpt lat="46.06116" lon="6.74161">
        <ele>722.3939</ele>
        <time>2014-08-31T12:50:17Z</time>
      </trkpt>
      <trkpt lat="46.06115" lon="6.74162">
        <ele>722.3939</ele>
        <time>2014-08-31T12:50:22Z</time>
      </trkpt>
      <trkpt lat="46.06113" lon="6.74163">
        <ele>722.8269</ele>
        <time>2014-08-31T12:50:27Z</time>
      </trkpt>
      <trkpt lat="46.06109" lon="6.74162">
        <ele>722.8269</ele>
        <time>2014-08-31T12:50:32Z</time>
      </trkpt>
      <trkpt lat="46.06107" lon="6.74166">
        <ele>722.8269</ele>
        <time>2014-08-31T12:50:37Z</time>
      </trkpt>
      <trkpt lat="46.06105" lon="6.74169">
        <ele>723.26624</ele>
        <time>2014-08-31T12:50:42Z</time>
      </trkpt>
      <trkpt lat="46.06101" lon="6.74176">
        <ele>723.26624</ele>
        <time>2014-08-31T12:50:47Z</time>
      </trkpt>
      <trkpt lat="46.061" lon="6.74182">
        <ele>724.12787</ele>
        <time>2014-08-31T12:50:52Z</time>
      </trkpt>
      <trkpt lat="46.06095" lon="6.7419">
        <ele>724.12787</ele>
        <time>2014-08-31T12:50:57Z</time>
      </trkpt>
      <trkpt lat="46.06095" lon="6.7419">
        <ele>724.12787</ele>
        <time>2014-08-31T12:51:02Z</time>
      </trkpt>
      <trkpt lat="46.06095" lon="6.74193">
        <ele>725.01794</ele>
        <time>2014-08-31T12:51:07Z</time>
      </trkpt>
      <trkpt lat="46.06092" lon="6.74206">
        <ele>725.73004</ele>
        <time>2014-08-31T12:51:12Z</time>
      </trkpt>
      <trkpt lat="46.06089" lon="6.74231">
        <ele>726.2607</ele>
        <time>2014-08-31T12:51:17Z</time>
      </trkpt>
      <trkpt lat="46.06092" lon="6.74241">
        <ele>726.2607</ele>
        <time>2014-08-31T12:51:22Z</time>
      </trkpt>
      <trkpt lat="46.0609" lon="6.74254">
        <ele>726.7802</ele>
        <time>2014-08-31T12:51:27Z</time>
      </trkpt>
      <trkpt lat="46.06085" lon="6.74264">
        <ele>726.7802</ele>
        <time>2014-08-31T12:51:32Z</time>
      </trkpt>
      <trkpt lat="46.0608" lon="6.74271">
        <ele>727.25916</ele>
        <time>2014-08-31T12:51:37Z</time>
      </trkpt>
      <trkpt lat="46.0608" lon="6.74272">
        <ele>727.25916</ele>
        <time>2014-08-31T12:51:42Z</time>
      </trkpt>
      <trkpt lat="46.0608" lon="6.74272">
        <ele>727.25916</ele>
        <time>2014-08-31T12:51:47Z</time>
      </trkpt>
      <trkpt lat="46.06079" lon="6.74275">
        <ele>727.25916</ele>
        <time>2014-08-31T12:52:07Z</time>
      </trkpt>
      <trkpt lat="46.06077" lon="6.74283">
        <ele>727.901</ele>
        <time>2014-08-31T12:52:12Z</time>
      </trkpt>
      <trkpt lat="46.06071" lon="6.74295">
        <ele>728.47595</ele>
        <time>2014-08-31T12:52:17Z</time>
      </trkpt>
      <trkpt lat="46.06069" lon="6.74301">
        <ele>728.47595</ele>
        <time>2014-08-31T12:52:22Z</time>
      </trkpt>
      <trkpt lat="46.06065" lon="6.74307">
        <ele>728.84326</ele>
        <time>2014-08-31T12:52:27Z</time>
      </trkpt>
      <trkpt lat="46.06058" lon="6.74316">
        <ele>729.104</ele>
        <time>2014-08-31T12:52:32Z</time>
      </trkpt>
      <trkpt lat="46.06052" lon="6.74324">
        <ele>729.104</ele>
        <time>2014-08-31T12:52:37Z</time>
      </trkpt>
      <trkpt lat="46.06048" lon="6.74329">
        <ele>729.3374</ele>
        <time>2014-08-31T12:52:42Z</time>
      </trkpt>
      <trkpt lat="46.06044" lon="6.74339">
        <ele>729.3374</ele>
        <time>2014-08-31T12:52:47Z</time>
      </trkpt>
      <trkpt lat="46.06039" lon="6.74347">
        <ele>729.5453</ele>
        <time>2014-08-31T12:52:52Z</time>
      </trkpt>
      <trkpt lat="46.06036" lon="6.74355">
        <ele>729.5453</ele>
        <time>2014-08-31T12:52:57Z</time>
      </trkpt>
      <trkpt lat="46.06033" lon="6.74364">
        <ele>729.8445</ele>
        <time>2014-08-31T12:53:02Z</time>
      </trkpt>
      <trkpt lat="46.06026" lon="6.74372">
        <ele>729.8445</ele>
        <time>2014-08-31T12:53:07Z</time>
      </trkpt>
      <trkpt lat="46.06021" lon="6.7438">
        <ele>730.3864</ele>
        <time>2014-08-31T12:53:12Z</time>
      </trkpt>
      <trkpt lat="46.06017" lon="6.74386">
        <ele>730.3864</ele>
        <time>2014-08-31T12:53:17Z</time>
      </trkpt>
      <trkpt lat="46.06015" lon="6.74389">
        <ele>730.3864</ele>
        <time>2014-08-31T12:53:22Z</time>
      </trkpt>
      <trkpt lat="46.0601" lon="6.74397">
        <ele>730.96484</ele>
        <time>2014-08-31T12:53:27Z</time>
      </trkpt>
      <trkpt lat="46.06007" lon="6.74403">
        <ele>730.96484</ele>
        <time>2014-08-31T12:53:32Z</time>
      </trkpt>
      <trkpt lat="46.06003" lon="6.74412">
        <ele>731.67676</ele>
        <time>2014-08-31T12:53:37Z</time>
      </trkpt>
      <trkpt lat="46.06" lon="6.74419">
        <ele>731.67676</ele>
        <time>2014-08-31T12:53:42Z</time>
      </trkpt>
      <trkpt lat="46.05997" lon="6.74425">
        <ele>732.5254</ele>
        <time>2014-08-31T12:53:47Z</time>
      </trkpt>
      <trkpt lat="46.05993" lon="6.74431">
        <ele>732.5254</ele>
        <time>2014-08-31T12:53:52Z</time>
      </trkpt>
      <trkpt lat="46.0599" lon="6.74439">
        <ele>733.42676</ele>
        <time>2014-08-31T12:53:57Z</time>
      </trkpt>
      <trkpt lat="46.0599" lon="6.74441">
        <ele>733.42676</ele>
        <time>2014-08-31T12:54:02Z</time>
      </trkpt>
      <trkpt lat="46.05987" lon="6.74446">
        <ele>733.42676</ele>
        <time>2014-08-31T12:54:07Z</time>
      </trkpt>
      <trkpt lat="46.05984" lon="6.74449">
        <ele>734.05804</ele>
        <time>2014-08-31T12:54:12Z</time>
      </trkpt>
      <trkpt lat="46.05982" lon="6.74455">
        <ele>734.05804</ele>
        <time>2014-08-31T12:54:17Z</time>
      </trkpt>
      <trkpt lat="46.0598" lon="6.74461">
        <ele>734.35156</ele>
        <time>2014-08-31T12:54:22Z</time>
      </trkpt>
      <trkpt lat="46.05977" lon="6.74469">
        <ele>734.35156</ele>
        <time>2014-08-31T12:54:27Z</time>
      </trkpt>
      <trkpt lat="46.05975" lon="6.7447">
        <ele>734.35156</ele>
        <time>2014-08-31T12:54:32Z</time>
      </trkpt>
      <trkpt lat="46.05972" lon="6.74475">
        <ele>734.2454</ele>
        <time>2014-08-31T12:54:37Z</time>
      </trkpt>
      <trkpt lat="46.05969" lon="6.74481">
        <ele>734.2454</ele>
        <time>2014-08-31T12:54:42Z</time>
      </trkpt>
      <trkpt lat="46.05967" lon="6.74488">
        <ele>734.17365</ele>
        <time>2014-08-31T12:54:47Z</time>
      </trkpt>
      <trkpt lat="46.05962" lon="6.74496">
        <ele>734.17365</ele>
        <time>2014-08-31T12:54:52Z</time>
      </trkpt>
      <trkpt lat="46.05955" lon="6.74508">
        <ele>734.322</ele>
        <time>2014-08-31T12:54:57Z</time>
      </trkpt>
      <trkpt lat="46.05954" lon="6.74512">
        <ele>734.322</ele>
        <time>2014-08-31T12:55:02Z</time>
      </trkpt>
      <trkpt lat="46.0595" lon="6.7452">
        <ele>734.42975</ele>
        <time>2014-08-31T12:55:07Z</time>
      </trkpt>
      <trkpt lat="46.05948" lon="6.74525">
        <ele>734.42975</ele>
        <time>2014-08-31T12:55:12Z</time>
      </trkpt>
      <trkpt lat="46.05944" lon="6.74532">
        <ele>734.4571</ele>
        <time>2014-08-31T12:55:17Z</time>
      </trkpt>
      <trkpt lat="46.05938" lon="6.7454">
        <ele>734.4571</ele>
        <time>2014-08-31T12:55:22Z</time>
      </trkpt>
      <trkpt lat="46.05938" lon="6.7454">
        <ele>734.4571</ele>
        <time>2014-08-31T12:55:27Z</time>
      </trkpt>
      <trkpt lat="46.05935" lon="6.74548">
        <ele>734.29553</ele>
        <time>2014-08-31T12:56:02Z</time>
      </trkpt>
      <trkpt lat="46.05933" lon="6.74552">
        <ele>734.29553</ele>
        <time>2014-08-31T12:56:07Z</time>
      </trkpt>
      <trkpt lat="46.05929" lon="6.74561">
        <ele>734.1188</ele>
        <time>2014-08-31T12:56:12Z</time>
      </trkpt>
      <trkpt lat="46.05925" lon="6.74568">
        <ele>734.1188</ele>
        <time>2014-08-31T12:56:17Z</time>
      </trkpt>
      <trkpt lat="46.05923" lon="6.74577">
        <ele>734.059</ele>
        <time>2014-08-31T12:56:22Z</time>
      </trkpt>
      <trkpt lat="46.05921" lon="6.74581">
        <ele>734.059</ele>
        <time>2014-08-31T12:56:27Z</time>
      </trkpt>
      <trkpt lat="46.05917" lon="6.74581">
        <ele>734.059</ele>
        <time>2014-08-31T12:56:32Z</time>
      </trkpt>
      <trkpt lat="46.05917" lon="6.74581">
        <ele>734.059</ele>
        <time>2014-08-31T12:56:37Z</time>
      </trkpt>
      <trkpt lat="46.05914" lon="6.74577">
        <ele>733.83496</ele>
        <time>2014-08-31T12:56:42Z</time>
      </trkpt>
      <trkpt lat="46.05908" lon="6.74568">
        <ele>733.83496</ele>
        <time>2014-08-31T12:56:47Z</time>
      </trkpt>
      <trkpt lat="46.05903" lon="6.74562">
        <ele>733.4746</ele>
        <time>2014-08-31T12:56:52Z</time>
      </trkpt>
      <trkpt lat="46.05897" lon="6.74555">
        <ele>733.4746</ele>
        <time>2014-08-31T12:56:57Z</time>
      </trkpt>
      <trkpt lat="46.05895" lon="6.74547">
        <ele>733.09076</ele>
        <time>2014-08-31T12:57:02Z</time>
      </trkpt>
      <trkpt lat="46.05892" lon="6.74537">
        <ele>733.09076</ele>
        <time>2014-08-31T12:57:07Z</time>
      </trkpt>
      <trkpt lat="46.05889" lon="6.74528">
        <ele>732.86005</ele>
        <time>2014-08-31T12:57:12Z</time>
      </trkpt>
      <trkpt lat="46.05886" lon="6.7452">
        <ele>732.86005</ele>
        <time>2014-08-31T12:57:17Z</time>
      </trkpt>
      <trkpt lat="46.05884" lon="6.74517">
        <ele>732.7584</ele>
        <time>2014-08-31T12:57:22Z</time>
      </trkpt>
      <trkpt lat="46.05883" lon="6.74516">
        <ele>732.7584</ele>
        <time>2014-08-31T12:57:27Z</time>
      </trkpt>
      <trkpt lat="46.05883" lon="6.74517">
        <ele>732.7584</ele>
        <time>2014-08-31T12:57:32Z</time>
      </trkpt>
      <trkpt lat="46.05883" lon="6.74517">
        <ele>732.7584</ele>
        <time>2014-08-31T12:57:37Z</time>
      </trkpt>
      <trkpt lat="46.05884" lon="6.74519">
        <ele>732.7584</ele>
        <time>2014-08-31T12:57:47Z</time>
      </trkpt>
      <trkpt lat="46.05884" lon="6.74519">
        <ele>732.7584</ele>
        <time>2014-08-31T12:57:52Z</time>
      </trkpt>
      <trkpt lat="46.05884" lon="6.74521">
        <ele>732.7584</ele>
        <time>2014-08-31T12:58:07Z</time>
      </trkpt>
      <trkpt lat="46.05884" lon="6.74521">
        <ele>732.7584</ele>
        <time>2014-08-31T12:58:12Z</time>
      </trkpt>
      <trkpt lat="46.05884" lon="6.74521">
        <ele>732.7584</ele>
        <time>2014-08-31T12:58:17Z</time>
      </trkpt>
      <trkpt lat="46.05884" lon="6.74521">
        <ele>732.7584</ele>
        <time>2014-08-31T12:58:22Z</time>
      </trkpt>
      <trkpt lat="46.05882" lon="6.74522">
        <ele>732.7584</ele>
        <time>2014-08-31T12:58:37Z</time>
      </trkpt>
      <trkpt lat="46.05882" lon="6.74521">
        <ele>732.7584</ele>
        <time>2014-08-31T12:58:42Z</time>
      </trkpt>
      <trkpt lat="46.05882" lon="6.74518">
        <ele>731.82635</ele>
        <time>2014-08-31T12:58:47Z</time>
      </trkpt>
      <trkpt lat="46.05882" lon="6.74515">
        <ele>731.82635</ele>
        <time>2014-08-31T12:58:52Z</time>
      </trkpt>
      <trkpt lat="46.05884" lon="6.74508">
        <ele>731.82635</ele>
        <time>2014-08-31T12:58:57Z</time>
      </trkpt>
      <trkpt lat="46.05885" lon="6.74502">
        <ele>730.67596</ele>
        <time>2014-08-31T12:59:02Z</time>
      </trkpt>
      <trkpt lat="46.05885" lon="6.74496">
        <ele>730.67596</ele>
        <time>2014-08-31T12:59:07Z</time>
      </trkpt>
      <trkpt lat="46.05886" lon="6.7449">
        <ele>730.67596</ele>
        <time>2014-08-31T12:59:12Z</time>
      </trkpt>
      <trkpt lat="46.05885" lon="6.74483">
        <ele>729.8462</ele>
        <time>2014-08-31T12:59:17Z</time>
      </trkpt>
      <trkpt lat="46.05885" lon="6.74474">
        <ele>729.8462</ele>
        <time>2014-08-31T12:59:22Z</time>
      </trkpt>
      <trkpt lat="46.05883" lon="6.74466">
        <ele>729.4463</ele>
        <time>2014-08-31T12:59:27Z</time>
      </trkpt>
      <trkpt lat="46.05881" lon="6.74456">
        <ele>729.4463</ele>
        <time>2014-08-31T12:59:32Z</time>
      </trkpt>
      <trkpt lat="46.05879" lon="6.74452">
        <ele>729.25916</ele>
        <time>2014-08-31T12:59:37Z</time>
      </trkpt>
      <trkpt lat="46.05877" lon="6.74449">
        <ele>729.25916</ele>
        <time>2014-08-31T12:59:42Z</time>
      </trkpt>
      <trkpt lat="46.05873" lon="6.74444">
        <ele>729.25916</ele>
        <time>2014-08-31T12:59:47Z</time>
      </trkpt>
      <trkpt lat="46.05871" lon="6.74441">
        <ele>729.0687</ele>
        <time>2014-08-31T12:59:52Z</time>
      </trkpt>
      <trkpt lat="46.05867" lon="6.74429">
        <ele>728.934</ele>
        <time>2014-08-31T12:59:57Z</time>
      </trkpt>
      <trkpt lat="46.05866" lon="6.74423">
        <ele>728.934</ele>
        <time>2014-08-31T13:00:02Z</time>
      </trkpt>
      <trkpt lat="46.05867" lon="6.74418">
        <ele>728.934</ele>
        <time>2014-08-31T13:00:07Z</time>
      </trkpt>
      <trkpt lat="46.05868" lon="6.74406">
        <ele>729.3707</ele>
        <time>2014-08-31T13:00:12Z</time>
      </trkpt>
      <trkpt lat="46.05869" lon="6.74403">
        <ele>729.3707</ele>
        <time>2014-08-31T13:00:17Z</time>
      </trkpt>
      <trkpt lat="46.05872" lon="6.74395">
        <ele>730.2499</ele>
        <time>2014-08-31T13:00:22Z</time>
      </trkpt>
      <trkpt lat="46.05873" lon="6.74386">
        <ele>730.2499</ele>
        <time>2014-08-31T13:00:27Z</time>
      </trkpt>
      <trkpt lat="46.05875" lon="6.74376">
        <ele>731.46484</ele>
        <time>2014-08-31T13:00:32Z</time>
      </trkpt>
      <trkpt lat="46.05876" lon="6.74374">
        <ele>731.46484</ele>
        <time>2014-08-31T13:00:37Z</time>
      </trkpt>
      <trkpt lat="46.05875" lon="6.74364">
        <ele>731.46484</ele>
        <time>2014-08-31T13:00:42Z</time>
      </trkpt>
      <trkpt lat="46.05872" lon="6.74358">
        <ele>733.56464</ele>
        <time>2014-08-31T13:00:47Z</time>
      </trkpt>
      <trkpt lat="46.05869" lon="6.7435">
        <ele>733.56464</ele>
        <time>2014-08-31T13:00:52Z</time>
      </trkpt>
      <trkpt lat="46.05865" lon="6.74346">
        <ele>735.9888</ele>
        <time>2014-08-31T13:00:57Z</time>
      </trkpt>
      <trkpt lat="46.05864" lon="6.74344">
        <ele>735.9888</ele>
        <time>2014-08-31T13:01:02Z</time>
      </trkpt>
      <trkpt lat="46.05862" lon="6.74345">
        <ele>735.9888</ele>
        <time>2014-08-31T13:01:07Z</time>
      </trkpt>
      <trkpt lat="46.05858" lon="6.74346">
        <ele>735.9888</ele>
        <time>2014-08-31T13:01:12Z</time>
      </trkpt>
      <trkpt lat="46.05853" lon="6.74349">
        <ele>738.01544</ele>
        <time>2014-08-31T13:01:17Z</time>
      </trkpt>
      <trkpt lat="46.05849" lon="6.74353">
        <ele>738.01544</ele>
        <time>2014-08-31T13:01:22Z</time>
      </trkpt>
      <trkpt lat="46.05844" lon="6.7436">
        <ele>739.5678</ele>
        <time>2014-08-31T13:01:27Z</time>
      </trkpt>
      <trkpt lat="46.05841" lon="6.74363">
        <ele>739.5678</ele>
        <time>2014-08-31T13:01:32Z</time>
      </trkpt>
      <trkpt lat="46.05834" lon="6.7437">
        <ele>741.066</ele>
        <time>2014-08-31T13:01:37Z</time>
      </trkpt>
      <trkpt lat="46.05829" lon="6.74378">
        <ele>741.066</ele>
        <time>2014-08-31T13:01:42Z</time>
      </trkpt>
      <trkpt lat="46.05826" lon="6.74381">
        <ele>742.46704</ele>
        <time>2014-08-31T13:01:47Z</time>
      </trkpt>
      <trkpt lat="46.05824" lon="6.74386">
        <ele>742.46704</ele>
        <time>2014-08-31T13:01:52Z</time>
      </trkpt>
      <trkpt lat="46.05819" lon="6.74395">
        <ele>743.9478</ele>
        <time>2014-08-31T13:01:57Z</time>
      </trkpt>
      <trkpt lat="46.05816" lon="6.744">
        <ele>743.9478</ele>
        <time>2014-08-31T13:02:02Z</time>
      </trkpt>
      <trkpt lat="46.0581" lon="6.74407">
        <ele>745.571</ele>
        <time>2014-08-31T13:02:07Z</time>
      </trkpt>
      <trkpt lat="46.05805" lon="6.74412">
        <ele>745.571</ele>
        <time>2014-08-31T13:02:12Z</time>
      </trkpt>
      <trkpt lat="46.058" lon="6.7442">
        <ele>747.3655</ele>
        <time>2014-08-31T13:02:17Z</time>
      </trkpt>
      <trkpt lat="46.05798" lon="6.74429">
        <ele>747.3655</ele>
        <time>2014-08-31T13:02:22Z</time>
      </trkpt>
      <trkpt lat="46.05793" lon="6.74437">
        <ele>749.2569</ele>
        <time>2014-08-31T13:02:27Z</time>
      </trkpt>
      <trkpt lat="46.05788" lon="6.74441">
        <ele>749.2569</ele>
        <time>2014-08-31T13:02:32Z</time>
      </trkpt>
      <trkpt lat="46.05786" lon="6.74444">
        <ele>749.2569</ele>
        <time>2014-08-31T13:02:37Z</time>
      </trkpt>
      <trkpt lat="46.05784" lon="6.74445">
        <ele>751.2049</ele>
        <time>2014-08-31T13:02:42Z</time>
      </trkpt>
      <trkpt lat="46.05779" lon="6.74448">
        <ele>751.2049</ele>
        <time>2014-08-31T13:02:47Z</time>
      </trkpt>
      <trkpt lat="46.05776" lon="6.74455">
        <ele>752.72516</ele>
        <time>2014-08-31T13:02:52Z</time>
      </trkpt>
      <trkpt lat="46.05772" lon="6.74461">
        <ele>752.72516</ele>
        <time>2014-08-31T13:02:57Z</time>
      </trkpt>
      <trkpt lat="46.0577" lon="6.74467">
        <ele>754.11975</ele>
        <time>2014-08-31T13:03:02Z</time>
      </trkpt>
      <trkpt lat="46.05767" lon="6.74473">
        <ele>754.11975</ele>
        <time>2014-08-31T13:03:07Z</time>
      </trkpt>
      <trkpt lat="46.05763" lon="6.74477">
        <ele>755.2655</ele>
        <time>2014-08-31T13:03:12Z</time>
      </trkpt>
      <trkpt lat="46.05764" lon="6.74478">
        <ele>755.2655</ele>
        <time>2014-08-31T13:03:17Z</time>
      </trkpt>
      <trkpt lat="46.05762" lon="6.7448">
        <ele>755.2655</ele>
        <time>2014-08-31T13:03:27Z</time>
      </trkpt>
      <trkpt lat="46.0576" lon="6.74485">
        <ele>755.2655</ele>
        <time>2014-08-31T13:03:32Z</time>
      </trkpt>
      <trkpt lat="46.05757" lon="6.7449">
        <ele>756.07776</ele>
        <time>2014-08-31T13:03:37Z</time>
      </trkpt>
      <trkpt lat="46.05756" lon="6.74497">
        <ele>756.07776</ele>
        <time>2014-08-31T13:03:42Z</time>
      </trkpt>
      <trkpt lat="46.05754" lon="6.74504">
        <ele>756.63776</ele>
        <time>2014-08-31T13:03:47Z</time>
      </trkpt>
      <trkpt lat="46.05753" lon="6.74511">
        <ele>756.63776</ele>
        <time>2014-08-31T13:03:52Z</time>
      </trkpt>
      <trkpt lat="46.0575" lon="6.74517">
        <ele>757.0359</ele>
        <time>2014-08-31T13:03:57Z</time>
      </trkpt>
      <trkpt lat="46.05745" lon="6.74524">
        <ele>757.0359</ele>
        <time>2014-08-31T13:04:02Z</time>
      </trkpt>
      <trkpt lat="46.05741" lon="6.74532">
        <ele>757.4574</ele>
        <time>2014-08-31T13:04:07Z</time>
      </trkpt>
      <trkpt lat="46.05738" lon="6.74538">
        <ele>757.4574</ele>
        <time>2014-08-31T13:04:12Z</time>
      </trkpt>
      <trkpt lat="46.05734" lon="6.74544">
        <ele>757.97296</ele>
        <time>2014-08-31T13:04:17Z</time>
      </trkpt>
      <trkpt lat="46.05731" lon="6.74552">
        <ele>757.97296</ele>
        <time>2014-08-31T13:04:22Z</time>
      </trkpt>
      <trkpt lat="46.05726" lon="6.74561">
        <ele>758.8209</ele>
        <time>2014-08-31T13:04:27Z</time>
      </trkpt>
      <trkpt lat="46.05723" lon="6.74569">
        <ele>758.8209</ele>
        <time>2014-08-31T13:04:32Z</time>
      </trkpt>
      <trkpt lat="46.0572" lon="6.74576">
        <ele>759.9041</ele>
        <time>2014-08-31T13:04:37Z</time>
      </trkpt>
      <trkpt lat="46.05715" lon="6.74583">
        <ele>759.9041</ele>
        <time>2014-08-31T13:04:42Z</time>
      </trkpt>
      <trkpt lat="46.05714" lon="6.74588">
        <ele>761.3048</ele>
        <time>2014-08-31T13:04:47Z</time>
      </trkpt>
      <trkpt lat="46.05712" lon="6.74592">
        <ele>761.3048</ele>
        <time>2014-08-31T13:04:52Z</time>
      </trkpt>
      <trkpt lat="46.05708" lon="6.74598">
        <ele>762.9256</ele>
        <time>2014-08-31T13:04:57Z</time>
      </trkpt>
      <trkpt lat="46.05703" lon="6.74604">
        <ele>762.9256</ele>
        <time>2014-08-31T13:05:02Z</time>
      </trkpt>
      <trkpt lat="46.05701" lon="6.7461">
        <ele>764.3442</ele>
        <time>2014-08-31T13:05:07Z</time>
      </trkpt>
      <trkpt lat="46.05698" lon="6.74614">
        <ele>764.3442</ele>
        <time>2014-08-31T13:05:12Z</time>
      </trkpt>
      <trkpt lat="46.05694" lon="6.74617">
        <ele>764.3442</ele>
        <time>2014-08-31T13:05:17Z</time>
      </trkpt>
      <trkpt lat="46.0569" lon="6.74621">
        <ele>765.0112</ele>
        <time>2014-08-31T13:05:22Z</time>
      </trkpt>
      <trkpt lat="46.05688" lon="6.74631">
        <ele>765.0112</ele>
        <time>2014-08-31T13:05:27Z</time>
      </trkpt>
      <trkpt lat="46.05685" lon="6.74637">
        <ele>765.2992</ele>
        <time>2014-08-31T13:05:32Z</time>
      </trkpt>
      <trkpt lat="46.05682" lon="6.74643">
        <ele>765.2992</ele>
        <time>2014-08-31T13:05:37Z</time>
      </trkpt>
      <trkpt lat="46.05679" lon="6.74649">
        <ele>765.4102</ele>
        <time>2014-08-31T13:05:42Z</time>
      </trkpt>
      <trkpt lat="46.05675" lon="6.74656">
        <ele>765.4102</ele>
        <time>2014-08-31T13:05:47Z</time>
      </trkpt>
      <trkpt lat="46.05672" lon="6.7466">
        <ele>765.4166</ele>
        <time>2014-08-31T13:05:52Z</time>
      </trkpt>
      <trkpt lat="46.05668" lon="6.7467">
        <ele>765.4166</ele>
        <time>2014-08-31T13:05:57Z</time>
      </trkpt>
      <trkpt lat="46.05666" lon="6.74677">
        <ele>765.29944</ele>
        <time>2014-08-31T13:06:02Z</time>
      </trkpt>
      <trkpt lat="46.05663" lon="6.74685">
        <ele>765.29944</ele>
        <time>2014-08-31T13:06:07Z</time>
      </trkpt>
      <trkpt lat="46.05661" lon="6.74693">
        <ele>765.2144</ele>
        <time>2014-08-31T13:06:12Z</time>
      </trkpt>
      <trkpt lat="46.05655" lon="6.74703">
        <ele>765.1905</ele>
        <time>2014-08-31T13:06:17Z</time>
      </trkpt>
      <trkpt lat="46.05651" lon="6.74709">
        <ele>765.1905</ele>
        <time>2014-08-31T13:06:22Z</time>
      </trkpt>
      <trkpt lat="46.05649" lon="6.74713">
        <ele>765.58575</ele>
        <time>2014-08-31T13:06:27Z</time>
      </trkpt>
      <trkpt lat="46.05648" lon="6.74717">
        <ele>765.58575</ele>
        <time>2014-08-31T13:06:32Z</time>
      </trkpt>
      <trkpt lat="46.05648" lon="6.74718">
        <ele>765.58575</ele>
        <time>2014-08-31T13:06:37Z</time>
      </trkpt>
      <trkpt lat="46.05647" lon="6.7472">
        <ele>765.58575</ele>
        <time>2014-08-31T13:06:47Z</time>
      </trkpt>
      <trkpt lat="46.05647" lon="6.7472">
        <ele>765.58575</ele>
        <time>2014-08-31T13:06:52Z</time>
      </trkpt>
      <trkpt lat="46.05646" lon="6.74718">
        <ele>765.58575</ele>
        <time>2014-08-31T13:07:22Z</time>
      </trkpt>
      <trkpt lat="46.05646" lon="6.74718">
        <ele>765.58575</ele>
        <time>2014-08-31T13:07:27Z</time>
      </trkpt>
      <trkpt lat="46.05646" lon="6.74716">
        <ele>765.58575</ele>
        <time>2014-08-31T13:07:37Z</time>
      </trkpt>
      <trkpt lat="46.05644" lon="6.7472">
        <ele>767.3216</ele>
        <time>2014-08-31T13:07:42Z</time>
      </trkpt>
      <trkpt lat="46.05645" lon="6.74725">
        <ele>767.3216</ele>
        <time>2014-08-31T13:07:47Z</time>
      </trkpt>
      <trkpt lat="46.05645" lon="6.74729">
        <ele>767.3216</ele>
        <time>2014-08-31T13:07:52Z</time>
      </trkpt>
      <trkpt lat="46.05645" lon="6.74736">
        <ele>768.72626</ele>
        <time>2014-08-31T13:07:57Z</time>
      </trkpt>
      <trkpt lat="46.05642" lon="6.74737">
        <ele>768.72626</ele>
        <time>2014-08-31T13:08:02Z</time>
      </trkpt>
      <trkpt lat="46.05641" lon="6.74749">
        <ele>769.8367</ele>
        <time>2014-08-31T13:08:07Z</time>
      </trkpt>
      <trkpt lat="46.05641" lon="6.74749">
        <ele>769.8367</ele>
        <time>2014-08-31T13:08:12Z</time>
      </trkpt>
      <trkpt lat="46.0564" lon="6.74758">
        <ele>769.8367</ele>
        <time>2014-08-31T13:08:17Z</time>
      </trkpt>
      <trkpt lat="46.05637" lon="6.74766">
        <ele>770.58716</ele>
        <time>2014-08-31T13:08:22Z</time>
      </trkpt>
      <trkpt lat="46.05638" lon="6.74774">
        <ele>770.58716</ele>
        <time>2014-08-31T13:08:27Z</time>
      </trkpt>
      <trkpt lat="46.05638" lon="6.74774">
        <ele>770.58716</ele>
        <time>2014-08-31T13:08:32Z</time>
      </trkpt>
      <trkpt lat="46.05638" lon="6.74775">
        <ele>770.58716</ele>
        <time>2014-08-31T13:08:37Z</time>
      </trkpt>
      <trkpt lat="46.05638" lon="6.74778">
        <ele>770.58716</ele>
        <time>2014-08-31T13:08:42Z</time>
      </trkpt>
      <trkpt lat="46.05641" lon="6.74786">
        <ele>770.9035</ele>
        <time>2014-08-31T13:08:47Z</time>
      </trkpt>
      <trkpt lat="46.05644" lon="6.74799">
        <ele>770.9631</ele>
        <time>2014-08-31T13:08:52Z</time>
      </trkpt>
      <trkpt lat="46.05644" lon="6.74801">
        <ele>770.9631</ele>
        <time>2014-08-31T13:08:57Z</time>
      </trkpt>
      <trkpt lat="46.05646" lon="6.74811">
        <ele>770.7293</ele>
        <time>2014-08-31T13:09:02Z</time>
      </trkpt>
      <trkpt lat="46.05649" lon="6.74823">
        <ele>770.4428</ele>
        <time>2014-08-31T13:09:07Z</time>
      </trkpt>
      <trkpt lat="46.05648" lon="6.74835">
        <ele>770.4428</ele>
        <time>2014-08-31T13:09:12Z</time>
      </trkpt>
      <trkpt lat="46.05647" lon="6.74843">
        <ele>770.11053</ele>
        <time>2014-08-31T13:09:17Z</time>
      </trkpt>
      <trkpt lat="46.05645" lon="6.7485">
        <ele>770.11053</ele>
        <time>2014-08-31T13:09:22Z</time>
      </trkpt>
      <trkpt lat="46.05643" lon="6.74864">
        <ele>769.8255</ele>
        <time>2014-08-31T13:09:27Z</time>
      </trkpt>
      <trkpt lat="46.05638" lon="6.74885">
        <ele>769.5297</ele>
        <time>2014-08-31T13:09:32Z</time>
      </trkpt>
      <trkpt lat="46.05629" lon="6.74899">
        <ele>769.0829</ele>
        <time>2014-08-31T13:09:37Z</time>
      </trkpt>
      <trkpt lat="46.05627" lon="6.74904">
        <ele>769.0829</ele>
        <time>2014-08-31T13:09:42Z</time>
      </trkpt>
      <trkpt lat="46.05624" lon="6.74911">
        <ele>768.5139</ele>
        <time>2014-08-31T13:09:47Z</time>
      </trkpt>
      <trkpt lat="46.05622" lon="6.74913">
        <ele>768.5139</ele>
        <time>2014-08-31T13:09:52Z</time>
      </trkpt>
      <trkpt lat="46.0562" lon="6.74917">
        <ele>768.5139</ele>
        <time>2014-08-31T13:09:57Z</time>
      </trkpt>
      <trkpt lat="46.05618" lon="6.74924">
        <ele>767.8932</ele>
        <time>2014-08-31T13:10:02Z</time>
      </trkpt>
      <trkpt lat="46.05614" lon="6.74931">
        <ele>767.8932</ele>
        <time>2014-08-31T13:10:07Z</time>
      </trkpt>
      <trkpt lat="46.05609" lon="6.74937">
        <ele>767.24274</ele>
        <time>2014-08-31T13:10:12Z</time>
      </trkpt>
      <trkpt lat="46.05609" lon="6.74937">
        <ele>767.24274</ele>
        <time>2014-08-31T13:10:17Z</time>
      </trkpt>
      <trkpt lat="46.05609" lon="6.74939">
        <ele>767.24274</ele>
        <time>2014-08-31T13:10:22Z</time>
      </trkpt>
      <trkpt lat="46.05606" lon="6.74941">
        <ele>767.24274</ele>
        <time>2014-08-31T13:10:27Z</time>
      </trkpt>
      <trkpt lat="46.05603" lon="6.74945">
        <ele>767.24274</ele>
        <time>2014-08-31T13:10:32Z</time>
      </trkpt>
      <trkpt lat="46.05592" lon="6.74957">
        <ele>766.655</ele>
        <time>2014-08-31T13:10:37Z</time>
      </trkpt>
      <trkpt lat="46.05591" lon="6.74963">
        <ele>766.655</ele>
        <time>2014-08-31T13:10:42Z</time>
      </trkpt>
      <trkpt lat="46.05589" lon="6.74965">
        <ele>766.655</ele>
        <time>2014-08-31T13:10:47Z</time>
      </trkpt>
      <trkpt lat="46.05588" lon="6.74966">
        <ele>766.655</ele>
        <time>2014-08-31T13:10:52Z</time>
      </trkpt>
      <trkpt lat="46.0558" lon="6.7498">
        <ele>765.9849</ele>
        <time>2014-08-31T13:10:57Z</time>
      </trkpt>
      <trkpt lat="46.05577" lon="6.7499">
        <ele>765.9849</ele>
        <time>2014-08-31T13:11:02Z</time>
      </trkpt>
      <trkpt lat="46.05574" lon="6.74992">
        <ele>765.1414</ele>
        <time>2014-08-31T13:11:07Z</time>
      </trkpt>
      <trkpt lat="46.05574" lon="6.74994">
        <ele>765.1414</ele>
        <time>2014-08-31T13:11:12Z</time>
      </trkpt>
      <trkpt lat="46.05569" lon="6.75">
        <ele>765.1414</ele>
        <time>2014-08-31T13:11:17Z</time>
      </trkpt>
      <trkpt lat="46.05563" lon="6.75005">
        <ele>764.02606</ele>
        <time>2014-08-31T13:11:22Z</time>
      </trkpt>
      <trkpt lat="46.05559" lon="6.75014">
        <ele>764.02606</ele>
        <time>2014-08-31T13:11:27Z</time>
      </trkpt>
      <trkpt lat="46.0555" lon="6.75023">
        <ele>762.33215</ele>
        <time>2014-08-31T13:11:32Z</time>
      </trkpt>
      <trkpt lat="46.05548" lon="6.75027">
        <ele>762.33215</ele>
        <time>2014-08-31T13:11:37Z</time>
      </trkpt>
      <trkpt lat="46.05541" lon="6.75034">
        <ele>760.35364</ele>
        <time>2014-08-31T13:11:42Z</time>
      </trkpt>
      <trkpt lat="46.05537" lon="6.75042">
        <ele>760.35364</ele>
        <time>2014-08-31T13:11:47Z</time>
      </trkpt>
      <trkpt lat="46.0553" lon="6.75052">
        <ele>758.1329</ele>
        <time>2014-08-31T13:11:52Z</time>
      </trkpt>
      <trkpt lat="46.05527" lon="6.7506">
        <ele>758.1329</ele>
        <time>2014-08-31T13:11:57Z</time>
      </trkpt>
      <trkpt lat="46.05525" lon="6.75066">
        <ele>755.49347</ele>
        <time>2014-08-31T13:12:02Z</time>
      </trkpt>
      <trkpt lat="46.05521" lon="6.75072">
        <ele>755.49347</ele>
        <time>2014-08-31T13:12:07Z</time>
      </trkpt>
      <trkpt lat="46.05518" lon="6.75078">
        <ele>752.8783</ele>
        <time>2014-08-31T13:12:12Z</time>
      </trkpt>
      <trkpt lat="46.05514" lon="6.75085">
        <ele>752.8783</ele>
        <time>2014-08-31T13:12:17Z</time>
      </trkpt>
      <trkpt lat="46.0551" lon="6.75093">
        <ele>750.19324</ele>
        <time>2014-08-31T13:12:22Z</time>
      </trkpt>
      <trkpt lat="46.05505" lon="6.751">
        <ele>750.19324</ele>
        <time>2014-08-31T13:12:27Z</time>
      </trkpt>
      <trkpt lat="46.05502" lon="6.75111">
        <ele>747.6103</ele>
        <time>2014-08-31T13:12:32Z</time>
      </trkpt>
      <trkpt lat="46.05505" lon="6.75118">
        <ele>747.6103</ele>
        <time>2014-08-31T13:12:37Z</time>
      </trkpt>
      <trkpt lat="46.05505" lon="6.75123">
        <ele>745.10126</ele>
        <time>2014-08-31T13:12:42Z</time>
      </trkpt>
      <trkpt lat="46.05505" lon="6.75132">
        <ele>745.10126</ele>
        <time>2014-08-31T13:12:47Z</time>
      </trkpt>
      <trkpt lat="46.05503" lon="6.75151">
        <ele>743.1005</ele>
        <time>2014-08-31T13:12:52Z</time>
      </trkpt>
      <trkpt lat="46.055" lon="6.75159">
        <ele>743.1005</ele>
        <time>2014-08-31T13:12:57Z</time>
      </trkpt>
      <trkpt lat="46.05503" lon="6.7517">
        <ele>741.6777</ele>
        <time>2014-08-31T13:13:02Z</time>
      </trkpt>
      <trkpt lat="46.05506" lon="6.75181">
        <ele>741.6777</ele>
        <time>2014-08-31T13:13:07Z</time>
      </trkpt>
      <trkpt lat="46.0551" lon="6.75188">
        <ele>740.44855</ele>
        <time>2014-08-31T13:13:12Z</time>
      </trkpt>
      <trkpt lat="46.05513" lon="6.75194">
        <ele>740.44855</ele>
        <time>2014-08-31T13:13:17Z</time>
      </trkpt>
      <trkpt lat="46.05517" lon="6.752">
        <ele>739.0853</ele>
        <time>2014-08-31T13:13:22Z</time>
      </trkpt>
      <trkpt lat="46.05521" lon="6.75206">
        <ele>739.0853</ele>
        <time>2014-08-31T13:13:27Z</time>
      </trkpt>
      <trkpt lat="46.05523" lon="6.75213">
        <ele>737.688</ele>
        <time>2014-08-31T13:13:32Z</time>
      </trkpt>
      <trkpt lat="46.05525" lon="6.75218">
        <ele>737.688</ele>
        <time>2014-08-31T13:13:37Z</time>
      </trkpt>
      <trkpt lat="46.05528" lon="6.75225">
        <ele>736.13275</ele>
        <time>2014-08-31T13:13:42Z</time>
      </trkpt>
      <trkpt lat="46.0553" lon="6.75234">
        <ele>736.13275</ele>
        <time>2014-08-31T13:13:47Z</time>
      </trkpt>
      <trkpt lat="46.0553" lon="6.75238">
        <ele>734.3342</ele>
        <time>2014-08-31T13:13:52Z</time>
      </trkpt>
      <trkpt lat="46.05531" lon="6.75244">
        <ele>734.3342</ele>
        <time>2014-08-31T13:13:57Z</time>
      </trkpt>
      <trkpt lat="46.05531" lon="6.75251">
        <ele>732.32886</ele>
        <time>2014-08-31T13:14:02Z</time>
      </trkpt>
      <trkpt lat="46.05531" lon="6.75256">
        <ele>732.32886</ele>
        <time>2014-08-31T13:14:07Z</time>
      </trkpt>
      <trkpt lat="46.05531" lon="6.75262">
        <ele>732.32886</ele>
        <time>2014-08-31T13:14:12Z</time>
      </trkpt>
      <trkpt lat="46.05531" lon="6.75268">
        <ele>729.70435</ele>
        <time>2014-08-31T13:14:17Z</time>
      </trkpt>
      <trkpt lat="46.05532" lon="6.75278">
        <ele>729.70435</ele>
        <time>2014-08-31T13:14:22Z</time>
      </trkpt>
      <trkpt lat="46.05535" lon="6.75285">
        <ele>726.8725</ele>
        <time>2014-08-31T13:14:27Z</time>
      </trkpt>
      <trkpt lat="46.05538" lon="6.75296">
        <ele>726.8725</ele>
        <time>2014-08-31T13:14:32Z</time>
      </trkpt>
      <trkpt lat="46.0554" lon="6.75305">
        <ele>724.05707</ele>
        <time>2014-08-31T13:14:37Z</time>
      </trkpt>
      <trkpt lat="46.05545" lon="6.75312">
        <ele>724.05707</ele>
        <time>2014-08-31T13:14:42Z</time>
      </trkpt>
      <trkpt lat="46.05547" lon="6.75322">
        <ele>721.609</ele>
        <time>2014-08-31T13:14:47Z</time>
      </trkpt>
      <trkpt lat="46.0555" lon="6.75331">
        <ele>721.609</ele>
        <time>2014-08-31T13:14:52Z</time>
      </trkpt>
      <trkpt lat="46.05552" lon="6.7534">
        <ele>719.9245</ele>
        <time>2014-08-31T13:14:57Z</time>
      </trkpt>
      <trkpt lat="46.05554" lon="6.75349">
        <ele>719.9245</ele>
        <time>2014-08-31T13:15:02Z</time>
      </trkpt>
      <trkpt lat="46.05557" lon="6.75358">
        <ele>718.9214</ele>
        <time>2014-08-31T13:15:07Z</time>
      </trkpt>
      <trkpt lat="46.05559" lon="6.75366">
        <ele>718.9214</ele>
        <time>2014-08-31T13:15:12Z</time>
      </trkpt>
      <trkpt lat="46.05561" lon="6.75373">
        <ele>718.30536</ele>
        <time>2014-08-31T13:15:17Z</time>
      </trkpt>
      <trkpt lat="46.05563" lon="6.75383">
        <ele>718.30536</ele>
        <time>2014-08-31T13:15:22Z</time>
      </trkpt>
      <trkpt lat="46.05563" lon="6.75389">
        <ele>718.10516</ele>
        <time>2014-08-31T13:15:27Z</time>
      </trkpt>
      <trkpt lat="46.05564" lon="6.754">
        <ele>718.10516</ele>
        <time>2014-08-31T13:15:32Z</time>
      </trkpt>
      <trkpt lat="46.05567" lon="6.75409">
        <ele>718.2883</ele>
        <time>2014-08-31T13:15:37Z</time>
      </trkpt>
      <trkpt lat="46.05569" lon="6.75415">
        <ele>718.2883</ele>
        <time>2014-08-31T13:15:42Z</time>
      </trkpt>
      <trkpt lat="46.0557" lon="6.75424">
        <ele>718.8092</ele>
        <time>2014-08-31T13:15:47Z</time>
      </trkpt>
      <trkpt lat="46.0557" lon="6.75431">
        <ele>718.8092</ele>
        <time>2014-08-31T13:15:52Z</time>
      </trkpt>
      <trkpt lat="46.0557" lon="6.75438">
        <ele>719.5812</ele>
        <time>2014-08-31T13:15:57Z</time>
      </trkpt>
      <trkpt lat="46.05572" lon="6.75446">
        <ele>719.5812</ele>
        <time>2014-08-31T13:16:02Z</time>
      </trkpt>
      <trkpt lat="46.05573" lon="6.75454">
        <ele>720.32153</ele>
        <time>2014-08-31T13:16:07Z</time>
      </trkpt>
      <trkpt lat="46.05575" lon="6.75462">
        <ele>720.32153</ele>
        <time>2014-08-31T13:16:12Z</time>
      </trkpt>
      <trkpt lat="46.05576" lon="6.7547">
        <ele>720.8114</ele>
        <time>2014-08-31T13:16:17Z</time>
      </trkpt>
      <trkpt lat="46.05575" lon="6.75477">
        <ele>720.8114</ele>
        <time>2014-08-31T13:16:22Z</time>
      </trkpt>
      <trkpt lat="46.05575" lon="6.75485">
        <ele>721.13696</ele>
        <time>2014-08-31T13:16:27Z</time>
      </trkpt>
      <trkpt lat="46.05576" lon="6.75493">
        <ele>721.13696</ele>
        <time>2014-08-31T13:16:32Z</time>
      </trkpt>
      <trkpt lat="46.05574" lon="6.75502">
        <ele>721.4649</ele>
        <time>2014-08-31T13:16:37Z</time>
      </trkpt>
      <trkpt lat="46.05572" lon="6.75511">
        <ele>721.4649</ele>
        <time>2014-08-31T13:16:42Z</time>
      </trkpt>
      <trkpt lat="46.0557" lon="6.75519">
        <ele>721.93524</ele>
        <time>2014-08-31T13:16:47Z</time>
      </trkpt>
      <trkpt lat="46.05565" lon="6.75528">
        <ele>721.93524</ele>
        <time>2014-08-31T13:16:52Z</time>
      </trkpt>
      <trkpt lat="46.05561" lon="6.75533">
        <ele>722.6197</ele>
        <time>2014-08-31T13:16:57Z</time>
      </trkpt>
      <trkpt lat="46.0556" lon="6.75539">
        <ele>722.6197</ele>
        <time>2014-08-31T13:17:02Z</time>
      </trkpt>
      <trkpt lat="46.05559" lon="6.75542">
        <ele>722.6197</ele>
        <time>2014-08-31T13:17:07Z</time>
      </trkpt>
      <trkpt lat="46.05559" lon="6.75543">
        <ele>722.6197</ele>
        <time>2014-08-31T13:17:12Z</time>
      </trkpt>
      <trkpt lat="46.0556" lon="6.75546">
        <ele>723.8434</ele>
        <time>2014-08-31T13:17:17Z</time>
      </trkpt>
      <trkpt lat="46.05562" lon="6.75549">
        <ele>723.8434</ele>
        <time>2014-08-31T13:17:22Z</time>
      </trkpt>
      <trkpt lat="46.05566" lon="6.75553">
        <ele>723.8434</ele>
        <time>2014-08-31T13:17:27Z</time>
      </trkpt>
      <trkpt lat="46.05567" lon="6.75555">
        <ele>725.2865</ele>
        <time>2014-08-31T13:17:32Z</time>
      </trkpt>
      <trkpt lat="46.05567" lon="6.75555">
        <ele>725.2865</ele>
        <time>2014-08-31T13:17:37Z</time>
      </trkpt>
      <trkpt lat="46.05565" lon="6.75554">
        <ele>725.2865</ele>
        <time>2014-08-31T13:18:07Z</time>
      </trkpt>
      <trkpt lat="46.05564" lon="6.75555">
        <ele>725.2865</ele>
        <time>2014-08-31T13:18:12Z</time>
      </trkpt>
      <trkpt lat="46.05563" lon="6.75557">
        <ele>725.2865</ele>
        <time>2014-08-31T13:18:17Z</time>
      </trkpt>
      <trkpt lat="46.05564" lon="6.75562">
        <ele>725.2865</ele>
        <time>2014-08-31T13:18:22Z</time>
      </trkpt>
      <trkpt lat="46.05564" lon="6.75562">
        <ele>725.2865</ele>
        <time>2014-08-31T13:18:27Z</time>
      </trkpt>
      <trkpt lat="46.05563" lon="6.75563">
        <ele>725.7027</ele>
        <time>2014-08-31T13:18:47Z</time>
      </trkpt>
      <trkpt lat="46.05563" lon="6.75563">
        <ele>726.1189</ele>
        <time>2014-08-31T13:18:52Z</time>
      </trkpt>
      <trkpt lat="46.05563" lon="6.75565">
        <ele>726.1189</ele>
        <time>2014-08-31T13:18:57Z</time>
      </trkpt>
      <trkpt lat="46.05563" lon="6.75565">
        <ele>726.1189</ele>
        <time>2014-08-31T13:19:02Z</time>
      </trkpt>
      <trkpt lat="46.05561" lon="6.75566">
        <ele>726.1189</ele>
        <time>2014-08-31T13:19:27Z</time>
      </trkpt>
      <trkpt lat="46.05561" lon="6.75566">
        <ele>726.1189</ele>
        <time>2014-08-31T13:19:32Z</time>
      </trkpt>
      <trkpt lat="46.0556" lon="6.75568">
        <ele>726.1189</ele>
        <time>2014-08-31T13:19:37Z</time>
      </trkpt>
      <trkpt lat="46.0556" lon="6.75568">
        <ele>726.1189</ele>
        <time>2014-08-31T13:19:42Z</time>
      </trkpt>
      <trkpt lat="46.05557" lon="6.75572">
        <ele>726.1189</ele>
        <time>2014-08-31T13:19:57Z</time>
      </trkpt>
      <trkpt lat="46.05555" lon="6.75572">
        <ele>727.69165</ele>
        <time>2014-08-31T13:20:02Z</time>
      </trkpt>
      <trkpt lat="46.05552" lon="6.75573">
        <ele>727.69165</ele>
        <time>2014-08-31T13:20:07Z</time>
      </trkpt>
      <trkpt lat="46.05548" lon="6.75577">
        <ele>727.69165</ele>
        <time>2014-08-31T13:20:12Z</time>
      </trkpt>
      <trkpt lat="46.05548" lon="6.7558">
        <ele>728.81903</ele>
        <time>2014-08-31T13:20:17Z</time>
      </trkpt>
      <trkpt lat="46.05546" lon="6.75582">
        <ele>728.81903</ele>
        <time>2014-08-31T13:20:22Z</time>
      </trkpt>
      <trkpt lat="46.05546" lon="6.75583">
        <ele>728.81903</ele>
        <time>2014-08-31T13:20:27Z</time>
      </trkpt>
      <trkpt lat="46.05542" lon="6.75586">
        <ele>728.81903</ele>
        <time>2014-08-31T13:20:32Z</time>
      </trkpt>
      <trkpt lat="46.05536" lon="6.7559">
        <ele>729.571</ele>
        <time>2014-08-31T13:20:37Z</time>
      </trkpt>
      <trkpt lat="46.05531" lon="6.75592">
        <ele>729.571</ele>
        <time>2014-08-31T13:20:42Z</time>
      </trkpt>
      <trkpt lat="46.05528" lon="6.75591">
        <ele>729.571</ele>
        <time>2014-08-31T13:20:47Z</time>
      </trkpt>
      <trkpt lat="46.05528" lon="6.75591">
        <ele>729.571</ele>
        <time>2014-08-31T13:20:52Z</time>
      </trkpt>
      <trkpt lat="46.05526" lon="6.75594">
        <ele>730.4604</ele>
        <time>2014-08-31T13:21:02Z</time>
      </trkpt>
      <trkpt lat="46.05524" lon="6.75596">
        <ele>730.4604</ele>
        <time>2014-08-31T13:21:07Z</time>
      </trkpt>
      <trkpt lat="46.0552" lon="6.75601">
        <ele>730.4604</ele>
        <time>2014-08-31T13:21:12Z</time>
      </trkpt>
      <trkpt lat="46.05518" lon="6.75606">
        <ele>731.45764</ele>
        <time>2014-08-31T13:21:17Z</time>
      </trkpt>
      <trkpt lat="46.05517" lon="6.75607">
        <ele>731.45764</ele>
        <time>2014-08-31T13:21:22Z</time>
      </trkpt>
      <trkpt lat="46.05517" lon="6.75607">
        <ele>731.45764</ele>
        <time>2014-08-31T13:21:27Z</time>
      </trkpt>
      <trkpt lat="46.05516" lon="6.75609">
        <ele>731.45764</ele>
        <time>2014-08-31T13:21:32Z</time>
      </trkpt>
      <trkpt lat="46.0551" lon="6.75614">
        <ele>732.953</ele>
        <time>2014-08-31T13:21:37Z</time>
      </trkpt>
      <trkpt lat="46.0551" lon="6.75614">
        <ele>732.953</ele>
        <time>2014-08-31T13:21:42Z</time>
      </trkpt>
      <trkpt lat="46.05507" lon="6.75615">
        <ele>732.953</ele>
        <time>2014-08-31T13:21:47Z</time>
      </trkpt>
      <trkpt lat="46.05505" lon="6.75616">
        <ele>732.953</ele>
        <time>2014-08-31T13:21:52Z</time>
      </trkpt>
      <trkpt lat="46.05505" lon="6.75616">
        <ele>732.953</ele>
        <time>2014-08-31T13:21:57Z</time>
      </trkpt>
      <trkpt lat="46.05502" lon="6.7562">
        <ele>735.2061</ele>
        <time>2014-08-31T13:22:02Z</time>
      </trkpt>
      <trkpt lat="46.055" lon="6.75623">
        <ele>735.2061</ele>
        <time>2014-08-31T13:22:07Z</time>
      </trkpt>
      <trkpt lat="46.05498" lon="6.75627">
        <ele>735.2061</ele>
        <time>2014-08-31T13:22:12Z</time>
      </trkpt>
      <trkpt lat="46.05498" lon="6.75628">
        <ele>735.2061</ele>
        <time>2014-08-31T13:22:17Z</time>
      </trkpt>
      <trkpt lat="46.05496" lon="6.75629">
        <ele>738.51294</ele>
        <time>2014-08-31T13:22:22Z</time>
      </trkpt>
      <trkpt lat="46.05492" lon="6.75627">
        <ele>738.51294</ele>
        <time>2014-08-31T13:22:27Z</time>
      </trkpt>
      <trkpt lat="46.05486" lon="6.75634">
        <ele>741.8913</ele>
        <time>2014-08-31T13:22:32Z</time>
      </trkpt>
      <trkpt lat="46.05486" lon="6.75634">
        <ele>741.8913</ele>
        <time>2014-08-31T13:22:37Z</time>
      </trkpt>
      <trkpt lat="46.05484" lon="6.75636">
        <ele>741.8913</ele>
        <time>2014-08-31T13:22:42Z</time>
      </trkpt>
      <trkpt lat="46.05483" lon="6.75639">
        <ele>741.8913</ele>
        <time>2014-08-31T13:22:47Z</time>
      </trkpt>
      <trkpt lat="46.05483" lon="6.75639">
        <ele>741.8913</ele>
        <time>2014-08-31T13:22:52Z</time>
      </trkpt>
      <trkpt lat="46.05482" lon="6.7564">
        <ele>741.8913</ele>
        <time>2014-08-31T13:22:57Z</time>
      </trkpt>
      <trkpt lat="46.05479" lon="6.75642">
        <ele>745.8866</ele>
        <time>2014-08-31T13:23:02Z</time>
      </trkpt>
      <trkpt lat="46.05478" lon="6.75644">
        <ele>745.8866</ele>
        <time>2014-08-31T13:23:07Z</time>
      </trkpt>
      <trkpt lat="46.05477" lon="6.75647">
        <ele>745.8866</ele>
        <time>2014-08-31T13:23:12Z</time>
      </trkpt>
      <trkpt lat="46.05476" lon="6.75649">
        <ele>745.8866</ele>
        <time>2014-08-31T13:23:17Z</time>
      </trkpt>
      <trkpt lat="46.05474" lon="6.75652">
        <ele>745.8866</ele>
        <time>2014-08-31T13:23:22Z</time>
      </trkpt>
      <trkpt lat="46.05471" lon="6.75656">
        <ele>750.4983</ele>
        <time>2014-08-31T13:23:27Z</time>
      </trkpt>
      <trkpt lat="46.05468" lon="6.7566">
        <ele>750.4983</ele>
        <time>2014-08-31T13:23:32Z</time>
      </trkpt>
      <trkpt lat="46.05468" lon="6.7566">
        <ele>750.4983</ele>
        <time>2014-08-31T13:23:37Z</time>
      </trkpt>
      <trkpt lat="46.0546" lon="6.75663">
        <ele>755.01807</ele>
        <time>2014-08-31T13:23:42Z</time>
      </trkpt>
      <trkpt lat="46.05457" lon="6.75666">
        <ele>755.01807</ele>
        <time>2014-08-31T13:23:47Z</time>
      </trkpt>
      <trkpt lat="46.05455" lon="6.75668">
        <ele>755.01807</ele>
        <time>2014-08-31T13:23:52Z</time>
      </trkpt>
      <trkpt lat="46.05453" lon="6.75669">
        <ele>759.4821</ele>
        <time>2014-08-31T13:23:57Z</time>
      </trkpt>
      <trkpt lat="46.05451" lon="6.75669">
        <ele>759.4821</ele>
        <time>2014-08-31T13:24:02Z</time>
      </trkpt>
      <trkpt lat="46.0545" lon="6.7567">
        <ele>759.4821</ele>
        <time>2014-08-31T13:24:07Z</time>
      </trkpt>
      <trkpt lat="46.05449" lon="6.75671">
        <ele>759.4821</ele>
        <time>2014-08-31T13:24:12Z</time>
      </trkpt>
      <trkpt lat="46.05442" lon="6.75671">
        <ele>764.1259</ele>
        <time>2014-08-31T13:24:17Z</time>
      </trkpt>
      <trkpt lat="46.0543" lon="6.75675">
        <ele>768.37494</ele>
        <time>2014-08-31T13:24:22Z</time>
      </trkpt>
      <trkpt lat="46.05426" lon="6.7568">
        <ele>768.37494</ele>
        <time>2014-08-31T13:24:27Z</time>
      </trkpt>
      <trkpt lat="46.05425" lon="6.75681">
        <ele>768.37494</ele>
        <time>2014-08-31T13:24:32Z</time>
      </trkpt>
      <trkpt lat="46.05422" lon="6.75682">
        <ele>772.073</ele>
        <time>2014-08-31T13:24:37Z</time>
      </trkpt>
      <trkpt lat="46.05419" lon="6.75683">
        <ele>772.073</ele>
        <time>2014-08-31T13:24:42Z</time>
      </trkpt>
      <trkpt lat="46.05413" lon="6.75685">
        <ele>775.5382</ele>
        <time>2014-08-31T13:24:47Z</time>
      </trkpt>
      <trkpt lat="46.05411" lon="6.75685">
        <ele>775.5382</ele>
        <time>2014-08-31T13:24:52Z</time>
      </trkpt>
      <trkpt lat="46.0541" lon="6.75686">
        <ele>775.5382</ele>
        <time>2014-08-31T13:24:57Z</time>
      </trkpt>
      <trkpt lat="46.05409" lon="6.75689">
        <ele>775.5382</ele>
        <time>2014-08-31T13:25:02Z</time>
      </trkpt>
      <trkpt lat="46.05408" lon="6.75691">
        <ele>775.5382</ele>
        <time>2014-08-31T13:25:07Z</time>
      </trkpt>
      <trkpt lat="46.05406" lon="6.75691">
        <ele>778.96564</ele>
        <time>2014-08-31T13:25:12Z</time>
      </trkpt>
      <trkpt lat="46.05405" lon="6.75691">
        <ele>778.96564</ele>
        <time>2014-08-31T13:25:17Z</time>
      </trkpt>
      <trkpt lat="46.05405" lon="6.75694">
        <ele>778.96564</ele>
        <time>2014-08-31T13:25:22Z</time>
      </trkpt>
      <trkpt lat="46.05405" lon="6.75695">
        <ele>778.96564</ele>
        <time>2014-08-31T13:25:27Z</time>
      </trkpt>
      <trkpt lat="46.05404" lon="6.75698">
        <ele>778.96564</ele>
        <time>2014-08-31T13:25:32Z</time>
      </trkpt>
      <trkpt lat="46.05404" lon="6.75699">
        <ele>778.96564</ele>
        <time>2014-08-31T13:25:37Z</time>
      </trkpt>
      <trkpt lat="46.05403" lon="6.75704">
        <ele>782.3778</ele>
        <time>2014-08-31T13:25:42Z</time>
      </trkpt>
      <trkpt lat="46.05403" lon="6.75707">
        <ele>782.3778</ele>
        <time>2014-08-31T13:25:47Z</time>
      </trkpt>
      <trkpt lat="46.05403" lon="6.75711">
        <ele>782.3778</ele>
        <time>2014-08-31T13:25:52Z</time>
      </trkpt>
      <trkpt lat="46.05403" lon="6.7571">
        <ele>782.3778</ele>
        <time>2014-08-31T13:25:57Z</time>
      </trkpt>
      <trkpt lat="46.05402" lon="6.75711">
        <ele>782.3778</ele>
        <time>2014-08-31T13:26:02Z</time>
      </trkpt>
      <trkpt lat="46.054" lon="6.75714">
        <ele>784.15894</ele>
        <time>2014-08-31T13:26:07Z</time>
      </trkpt>
      <trkpt lat="46.054" lon="6.75714">
        <ele>785.94006</ele>
        <time>2014-08-31T13:26:12Z</time>
      </trkpt>
      <trkpt lat="46.054" lon="6.75714">
        <ele>785.94006</ele>
        <time>2014-08-31T13:26:27Z</time>
      </trkpt>
      <trkpt lat="46.05399" lon="6.75716">
        <ele>785.94006</ele>
        <time>2014-08-31T13:26:32Z</time>
      </trkpt>
      <trkpt lat="46.05395" lon="6.75717">
        <ele>785.94006</ele>
        <time>2014-08-31T13:26:37Z</time>
      </trkpt>
      <trkpt lat="46.05394" lon="6.75717">
        <ele>785.94006</ele>
        <time>2014-08-31T13:26:42Z</time>
      </trkpt>
      <trkpt lat="46.05394" lon="6.75718">
        <ele>785.94006</ele>
        <time>2014-08-31T13:26:47Z</time>
      </trkpt>
      <trkpt lat="46.05393" lon="6.75718">
        <ele>785.94006</ele>
        <time>2014-08-31T13:26:52Z</time>
      </trkpt>
      <trkpt lat="46.05392" lon="6.75723">
        <ele>789.3012</ele>
        <time>2014-08-31T13:26:57Z</time>
      </trkpt>
      <trkpt lat="46.05389" lon="6.75727">
        <ele>789.3012</ele>
        <time>2014-08-31T13:27:02Z</time>
      </trkpt>
      <trkpt lat="46.05389" lon="6.75729">
        <ele>789.3012</ele>
        <time>2014-08-31T13:27:07Z</time>
      </trkpt>
      <trkpt lat="46.05384" lon="6.75737">
        <ele>792.3096</ele>
        <time>2014-08-31T13:27:12Z</time>
      </trkpt>
      <trkpt lat="46.05385" lon="6.75741">
        <ele>792.3096</ele>
        <time>2014-08-31T13:27:17Z</time>
      </trkpt>
      <trkpt lat="46.05384" lon="6.75742">
        <ele>792.3096</ele>
        <time>2014-08-31T13:27:22Z</time>
      </trkpt>
      <trkpt lat="46.05383" lon="6.75746">
        <ele>792.3096</ele>
        <time>2014-08-31T13:27:27Z</time>
      </trkpt>
      <trkpt lat="46.05382" lon="6.75747">
        <ele>792.3096</ele>
        <time>2014-08-31T13:27:32Z</time>
      </trkpt>
      <trkpt lat="46.05383" lon="6.7575">
        <ele>795.17194</ele>
        <time>2014-08-31T13:27:37Z</time>
      </trkpt>
      <trkpt lat="46.05385" lon="6.75754">
        <ele>795.17194</ele>
        <time>2014-08-31T13:27:42Z</time>
      </trkpt>
      <trkpt lat="46.05386" lon="6.75756">
        <ele>795.17194</ele>
        <time>2014-08-31T13:27:47Z</time>
      </trkpt>
      <trkpt lat="46.05386" lon="6.75757">
        <ele>795.17194</ele>
        <time>2014-08-31T13:27:52Z</time>
      </trkpt>
      <trkpt lat="46.05386" lon="6.75757">
        <ele>795.17194</ele>
        <time>2014-08-31T13:27:57Z</time>
      </trkpt>
      <trkpt lat="46.05386" lon="6.75759">
        <ele>795.17194</ele>
        <time>2014-08-31T13:28:12Z</time>
      </trkpt>
      <trkpt lat="46.05386" lon="6.7576">
        <ele>795.17194</ele>
        <time>2014-08-31T13:28:17Z</time>
      </trkpt>
      <trkpt lat="46.05386" lon="6.7576">
        <ele>796.5686</ele>
        <time>2014-08-31T13:28:22Z</time>
      </trkpt>
      <trkpt lat="46.05387" lon="6.7576">
        <ele>797.9653</ele>
        <time>2014-08-31T13:28:27Z</time>
      </trkpt>
      <trkpt lat="46.05385" lon="6.75761">
        <ele>797.9653</ele>
        <time>2014-08-31T13:28:32Z</time>
      </trkpt>
      <trkpt lat="46.05385" lon="6.75761">
        <ele>797.9653</ele>
        <time>2014-08-31T13:28:37Z</time>
      </trkpt>
      <trkpt lat="46.05385" lon="6.75761">
        <ele>797.9653</ele>
        <time>2014-08-31T13:28:42Z</time>
      </trkpt>
      <trkpt lat="46.05385" lon="6.75761">
        <ele>797.9653</ele>
        <time>2014-08-31T13:28:47Z</time>
      </trkpt>
      <trkpt lat="46.05385" lon="6.75761">
        <ele>797.9653</ele>
        <time>2014-08-31T13:28:52Z</time>
      </trkpt>
      <trkpt lat="46.05384" lon="6.75765">
        <ele>797.9653</ele>
        <time>2014-08-31T13:28:57Z</time>
      </trkpt>
      <trkpt lat="46.05383" lon="6.75765">
        <ele>797.9653</ele>
        <time>2014-08-31T13:29:02Z</time>
      </trkpt>
      <trkpt lat="46.05384" lon="6.75765">
        <ele>797.9653</ele>
        <time>2014-08-31T13:29:07Z</time>
      </trkpt>
      <trkpt lat="46.05382" lon="6.75762">
        <ele>797.9653</ele>
        <time>2014-08-31T13:29:12Z</time>
      </trkpt>
      <trkpt lat="46.05376" lon="6.75751">
        <ele>800.35785</ele>
        <time>2014-08-31T13:29:17Z</time>
      </trkpt>
      <trkpt lat="46.05374" lon="6.75744">
        <ele>800.35785</ele>
        <time>2014-08-31T13:29:22Z</time>
      </trkpt>
      <trkpt lat="46.05374" lon="6.75745">
        <ele>800.35785</ele>
        <time>2014-08-31T13:29:27Z</time>
      </trkpt>
      <trkpt lat="46.05374" lon="6.75747">
        <ele>800.35785</ele>
        <time>2014-08-31T13:29:32Z</time>
      </trkpt>
      <trkpt lat="46.05374" lon="6.75747">
        <ele>800.35785</ele>
        <time>2014-08-31T13:29:37Z</time>
      </trkpt>
      <trkpt lat="46.05374" lon="6.75747">
        <ele>800.35785</ele>
        <time>2014-08-31T13:29:42Z</time>
      </trkpt>
      <trkpt lat="46.05373" lon="6.7575">
        <ele>802.577</ele>
        <time>2014-08-31T13:29:47Z</time>
      </trkpt>
      <trkpt lat="46.05369" lon="6.7575">
        <ele>802.577</ele>
        <time>2014-08-31T13:29:52Z</time>
      </trkpt>
      <trkpt lat="46.05367" lon="6.75754">
        <ele>802.577</ele>
        <time>2014-08-31T13:29:57Z</time>
      </trkpt>
      <trkpt lat="46.05366" lon="6.75755">
        <ele>802.577</ele>
        <time>2014-08-31T13:30:02Z</time>
      </trkpt>
      <trkpt lat="46.05366" lon="6.75755">
        <ele>802.577</ele>
        <time>2014-08-31T13:30:07Z</time>
      </trkpt>
      <trkpt lat="46.05366" lon="6.75755">
        <ele>802.577</ele>
        <time>2014-08-31T13:30:12Z</time>
      </trkpt>
      <trkpt lat="46.05366" lon="6.75755">
        <ele>802.577</ele>
        <time>2014-08-31T13:30:17Z</time>
      </trkpt>
      <trkpt lat="46.05366" lon="6.75755">
        <ele>802.577</ele>
        <time>2014-08-31T13:30:37Z</time>
      </trkpt>
      <trkpt lat="46.05367" lon="6.75754">
        <ele>803.54706</ele>
        <time>2014-08-31T13:30:42Z</time>
      </trkpt>
      <trkpt lat="46.05366" lon="6.75761">
        <ele>804.5171</ele>
        <time>2014-08-31T13:30:47Z</time>
      </trkpt>
      <trkpt lat="46.05366" lon="6.75761">
        <ele>804.5171</ele>
        <time>2014-08-31T13:30:52Z</time>
      </trkpt>
      <trkpt lat="46.05369" lon="6.75766">
        <ele>804.5171</ele>
        <time>2014-08-31T13:30:57Z</time>
      </trkpt>
      <trkpt lat="46.0537" lon="6.75769">
        <ele>804.5171</ele>
        <time>2014-08-31T13:31:02Z</time>
      </trkpt>
      <trkpt lat="46.0537" lon="6.75769">
        <ele>804.5171</ele>
        <time>2014-08-31T13:31:07Z</time>
      </trkpt>
      <trkpt lat="46.05368" lon="6.75781">
        <ele>806.32635</ele>
        <time>2014-08-31T13:31:12Z</time>
      </trkpt>
      <trkpt lat="46.05368" lon="6.75781">
        <ele>806.32635</ele>
        <time>2014-08-31T13:31:17Z</time>
      </trkpt>
      <trkpt lat="46.0537" lon="6.75783">
        <ele>806.32635</ele>
        <time>2014-08-31T13:31:22Z</time>
      </trkpt>
      <trkpt lat="46.05368" lon="6.75791">
        <ele>806.32635</ele>
        <time>2014-08-31T13:31:27Z</time>
      </trkpt>
      <trkpt lat="46.05368" lon="6.75795">
        <ele>807.9265</ele>
        <time>2014-08-31T13:31:32Z</time>
      </trkpt>
      <trkpt lat="46.05368" lon="6.75798">
        <ele>807.9265</ele>
        <time>2014-08-31T13:31:37Z</time>
      </trkpt>
      <trkpt lat="46.05364" lon="6.75809">
        <ele>809.246</ele>
        <time>2014-08-31T13:31:42Z</time>
      </trkpt>
      <trkpt lat="46.05361" lon="6.7581">
        <ele>809.246</ele>
        <time>2014-08-31T13:31:47Z</time>
      </trkpt>
      <trkpt lat="46.05358" lon="6.75813">
        <ele>809.246</ele>
        <time>2014-08-31T13:31:52Z</time>
      </trkpt>
      <trkpt lat="46.05357" lon="6.75817">
        <ele>810.3634</ele>
        <time>2014-08-31T13:31:57Z</time>
      </trkpt>
      <trkpt lat="46.05353" lon="6.7582">
        <ele>810.3634</ele>
        <time>2014-08-31T13:32:02Z</time>
      </trkpt>
      <trkpt lat="46.05353" lon="6.7582">
        <ele>810.3634</ele>
        <time>2014-08-31T13:32:07Z</time>
      </trkpt>
      <trkpt lat="46.05353" lon="6.7582">
        <ele>810.3634</ele>
        <time>2014-08-31T13:32:12Z</time>
      </trkpt>
      <trkpt lat="46.05353" lon="6.7582">
        <ele>810.3634</ele>
        <time>2014-08-31T13:32:17Z</time>
      </trkpt>
      <trkpt lat="46.05354" lon="6.7582">
        <ele>810.3634</ele>
        <time>2014-08-31T13:32:37Z</time>
      </trkpt>
      <trkpt lat="46.05356" lon="6.75821">
        <ele>810.3634</ele>
        <time>2014-08-31T13:32:42Z</time>
      </trkpt>
      <trkpt lat="46.05356" lon="6.75821">
        <ele>810.3634</ele>
        <time>2014-08-31T13:32:47Z</time>
      </trkpt>
      <trkpt lat="46.05364" lon="6.75829">
        <ele>812.4335</ele>
        <time>2014-08-31T13:32:52Z</time>
      </trkpt>
      <trkpt lat="46.05367" lon="6.7583">
        <ele>812.4335</ele>
        <time>2014-08-31T13:32:57Z</time>
      </trkpt>
      <trkpt lat="46.05369" lon="6.75832">
        <ele>812.4335</ele>
        <time>2014-08-31T13:33:02Z</time>
      </trkpt>
      <trkpt lat="46.05373" lon="6.75833">
        <ele>814.31854</ele>
        <time>2014-08-31T13:33:07Z</time>
      </trkpt>
      <trkpt lat="46.05373" lon="6.75833">
        <ele>814.31854</ele>
        <time>2014-08-31T13:33:12Z</time>
      </trkpt>
      <trkpt lat="46.05373" lon="6.75834">
        <ele>814.31854</ele>
        <time>2014-08-31T13:33:17Z</time>
      </trkpt>
      <trkpt lat="46.05376" lon="6.75837">
        <ele>814.31854</ele>
        <time>2014-08-31T13:33:22Z</time>
      </trkpt>
      <trkpt lat="46.05376" lon="6.75841">
        <ele>814.31854</ele>
        <time>2014-08-31T13:33:27Z</time>
      </trkpt>
      <trkpt lat="46.05375" lon="6.75843">
        <ele>814.31854</ele>
        <time>2014-08-31T13:33:32Z</time>
      </trkpt>
      <trkpt lat="46.05375" lon="6.75843">
        <ele>814.31854</ele>
        <time>2014-08-31T13:33:37Z</time>
      </trkpt>
      <trkpt lat="46.05373" lon="6.75846">
        <ele>816.2766</ele>
        <time>2014-08-31T13:33:52Z</time>
      </trkpt>
      <trkpt lat="46.05373" lon="6.75846">
        <ele>816.2766</ele>
        <time>2014-08-31T13:33:57Z</time>
      </trkpt>
      <trkpt lat="46.05373" lon="6.75849">
        <ele>816.2766</ele>
        <time>2014-08-31T13:34:02Z</time>
      </trkpt>
      <trkpt lat="46.05373" lon="6.75852">
        <ele>816.2766</ele>
        <time>2014-08-31T13:34:07Z</time>
      </trkpt>
      <trkpt lat="46.05373" lon="6.75852">
        <ele>816.2766</ele>
        <time>2014-08-31T13:34:12Z</time>
      </trkpt>
      <trkpt lat="46.05373" lon="6.75852">
        <ele>816.2766</ele>
        <time>2014-08-31T13:34:17Z</time>
      </trkpt>
      <trkpt lat="46.05373" lon="6.75852">
        <ele>816.2766</ele>
        <time>2014-08-31T13:34:22Z</time>
      </trkpt>
      <trkpt lat="46.05375" lon="6.75854">
        <ele>816.2766</ele>
        <time>2014-08-31T13:34:27Z</time>
      </trkpt>
      <trkpt lat="46.05372" lon="6.75855">
        <ele>818.5469</ele>
        <time>2014-08-31T13:34:32Z</time>
      </trkpt>
      <trkpt lat="46.05371" lon="6.75856">
        <ele>818.5469</ele>
        <time>2014-08-31T13:34:37Z</time>
      </trkpt>
      <trkpt lat="46.05369" lon="6.75856">
        <ele>818.5469</ele>
        <time>2014-08-31T13:34:42Z</time>
      </trkpt>
      <trkpt lat="46.0537" lon="6.75856">
        <ele>818.5469</ele>
        <time>2014-08-31T13:34:47Z</time>
      </trkpt>
      <trkpt lat="46.0537" lon="6.75856">
        <ele>818.5469</ele>
        <time>2014-08-31T13:34:52Z</time>
      </trkpt>
      <trkpt lat="46.0537" lon="6.75857">
        <ele>818.5469</ele>
        <time>2014-08-31T13:34:57Z</time>
      </trkpt>
      <trkpt lat="46.05372" lon="6.75857">
        <ele>818.5469</ele>
        <time>2014-08-31T13:35:02Z</time>
      </trkpt>
      <trkpt lat="46.0537" lon="6.75859">
        <ele>821.46545</ele>
        <time>2014-08-31T13:35:07Z</time>
      </trkpt>
      <trkpt lat="46.05369" lon="6.75862">
        <ele>821.46545</ele>
        <time>2014-08-31T13:35:12Z</time>
      </trkpt>
      <trkpt lat="46.05362" lon="6.75864">
        <ele>824.1603</ele>
        <time>2014-08-31T13:35:17Z</time>
      </trkpt>
      <trkpt lat="46.05355" lon="6.75868">
        <ele>824.1603</ele>
        <time>2014-08-31T13:35:22Z</time>
      </trkpt>
      <trkpt lat="46.05352" lon="6.7587">
        <ele>826.25665</ele>
        <time>2014-08-31T13:35:27Z</time>
      </trkpt>
      <trkpt lat="46.05344" lon="6.75875">
        <ele>826.25665</ele>
        <time>2014-08-31T13:35:32Z</time>
      </trkpt>
      <trkpt lat="46.05343" lon="6.75877">
        <ele>827.8558</ele>
        <time>2014-08-31T13:35:37Z</time>
      </trkpt>
      <trkpt lat="46.05341" lon="6.75878">
        <ele>827.8558</ele>
        <time>2014-08-31T13:35:42Z</time>
      </trkpt>
      <trkpt lat="46.05339" lon="6.75879">
        <ele>827.8558</ele>
        <time>2014-08-31T13:35:47Z</time>
      </trkpt>
      <trkpt lat="46.05339" lon="6.75881">
        <ele>827.8558</ele>
        <time>2014-08-31T13:35:52Z</time>
      </trkpt>
      <trkpt lat="46.0534" lon="6.75883">
        <ele>827.8558</ele>
        <time>2014-08-31T13:35:57Z</time>
      </trkpt>
      <trkpt lat="46.0534" lon="6.75886">
        <ele>829.471</ele>
        <time>2014-08-31T13:36:02Z</time>
      </trkpt>
      <trkpt lat="46.0534" lon="6.75886">
        <ele>829.471</ele>
        <time>2014-08-31T13:36:07Z</time>
      </trkpt>
      <trkpt lat="46.05341" lon="6.75886">
        <ele>829.471</ele>
        <time>2014-08-31T13:36:27Z</time>
      </trkpt>
      <trkpt lat="46.05341" lon="6.75887">
        <ele>829.471</ele>
        <time>2014-08-31T13:36:32Z</time>
      </trkpt>
      <trkpt lat="46.05345" lon="6.75889">
        <ele>829.471</ele>
        <time>2014-08-31T13:36:37Z</time>
      </trkpt>
      <trkpt lat="46.05347" lon="6.75894">
        <ele>831.1025</ele>
        <time>2014-08-31T13:36:42Z</time>
      </trkpt>
      <trkpt lat="46.05348" lon="6.759">
        <ele>831.1025</ele>
        <time>2014-08-31T13:36:47Z</time>
      </trkpt>
      <trkpt lat="46.05351" lon="6.75902">
        <ele>831.1025</ele>
        <time>2014-08-31T13:36:52Z</time>
      </trkpt>
      <trkpt lat="46.05352" lon="6.75906">
        <ele>832.5486</ele>
        <time>2014-08-31T13:36:57Z</time>
      </trkpt>
      <trkpt lat="46.05352" lon="6.75907">
        <ele>832.5486</ele>
        <time>2014-08-31T13:37:02Z</time>
      </trkpt>
      <trkpt lat="46.05351" lon="6.75913">
        <ele>832.5486</ele>
        <time>2014-08-31T13:37:07Z</time>
      </trkpt>
      <trkpt lat="46.05348" lon="6.75918">
        <ele>832.5486</ele>
        <time>2014-08-31T13:37:12Z</time>
      </trkpt>
      <trkpt lat="46.05348" lon="6.75922">
        <ele>833.62305</ele>
        <time>2014-08-31T13:37:17Z</time>
      </trkpt>
      <trkpt lat="46.0535" lon="6.75925">
        <ele>833.62305</ele>
        <time>2014-08-31T13:37:22Z</time>
      </trkpt>
      <trkpt lat="46.05351" lon="6.7593">
        <ele>833.62305</ele>
        <time>2014-08-31T13:37:27Z</time>
      </trkpt>
      <trkpt lat="46.05354" lon="6.75935">
        <ele>834.2267</ele>
        <time>2014-08-31T13:37:32Z</time>
      </trkpt>
      <trkpt lat="46.05353" lon="6.75938">
        <ele>834.2267</ele>
        <time>2014-08-31T13:37:37Z</time>
      </trkpt>
      <trkpt lat="46.05353" lon="6.75938">
        <ele>834.2267</ele>
        <time>2014-08-31T13:37:42Z</time>
      </trkpt>
      <trkpt lat="46.0535" lon="6.75948">
        <ele>834.3697</ele>
        <time>2014-08-31T13:37:47Z</time>
      </trkpt>
      <trkpt lat="46.05351" lon="6.75951">
        <ele>834.3697</ele>
        <time>2014-08-31T13:37:52Z</time>
      </trkpt>
      <trkpt lat="46.05351" lon="6.75951">
        <ele>834.3697</ele>
        <time>2014-08-31T13:37:57Z</time>
      </trkpt>
      <trkpt lat="46.0535" lon="6.75949">
        <ele>834.3697</ele>
        <time>2014-08-31T13:38:12Z</time>
      </trkpt>
      <trkpt lat="46.0535" lon="6.75949">
        <ele>834.3697</ele>
        <time>2014-08-31T13:38:17Z</time>
      </trkpt>
      <trkpt lat="46.0535" lon="6.75949">
        <ele>834.3697</ele>
        <time>2014-08-31T13:38:27Z</time>
      </trkpt>
      <trkpt lat="46.05349" lon="6.75949">
        <ele>834.3697</ele>
        <time>2014-08-31T13:38:32Z</time>
      </trkpt>
      <trkpt lat="46.05349" lon="6.75949">
        <ele>834.3697</ele>
        <time>2014-08-31T13:38:37Z</time>
      </trkpt>
      <trkpt lat="46.05349" lon="6.75949">
        <ele>834.3697</ele>
        <time>2014-08-31T13:38:57Z</time>
      </trkpt>
      <trkpt lat="46.05349" lon="6.75949">
        <ele>834.3697</ele>
        <time>2014-08-31T13:39:02Z</time>
      </trkpt>
      <trkpt lat="46.0535" lon="6.7595">
        <ele>834.3697</ele>
        <time>2014-08-31T13:39:07Z</time>
      </trkpt>
      <trkpt lat="46.05349" lon="6.7595">
        <ele>834.3697</ele>
        <time>2014-08-31T13:39:12Z</time>
      </trkpt>
      <trkpt lat="46.05349" lon="6.75949">
        <ele>834.3697</ele>
        <time>2014-08-31T13:39:22Z</time>
      </trkpt>
      <trkpt lat="46.05349" lon="6.75949">
        <ele>834.3697</ele>
        <time>2014-08-31T13:39:27Z</time>
      </trkpt>
      <trkpt lat="46.05349" lon="6.75951">
        <ele>834.3697</ele>
        <time>2014-08-31T13:39:32Z</time>
      </trkpt>
      <trkpt lat="46.05349" lon="6.75951">
        <ele>834.3697</ele>
        <time>2014-08-31T13:39:37Z</time>
      </trkpt>
      <trkpt lat="46.05348" lon="6.75951">
        <ele>834.3697</ele>
        <time>2014-08-31T13:39:42Z</time>
      </trkpt>
      <trkpt lat="46.05348" lon="6.75951">
        <ele>834.3697</ele>
        <time>2014-08-31T13:39:47Z</time>
      </trkpt>
      <trkpt lat="46.05347" lon="6.75951">
        <ele>834.61053</ele>
        <time>2014-08-31T13:39:57Z</time>
      </trkpt>
      <trkpt lat="46.05347" lon="6.75951">
        <ele>834.61053</ele>
        <time>2014-08-31T13:40:02Z</time>
      </trkpt>
      <trkpt lat="46.05346" lon="6.75952">
        <ele>834.61053</ele>
        <time>2014-08-31T13:40:07Z</time>
      </trkpt>
      <trkpt lat="46.05345" lon="6.75953">
        <ele>834.61053</ele>
        <time>2014-08-31T13:40:12Z</time>
      </trkpt>
      <trkpt lat="46.05344" lon="6.7595">
        <ele>834.61053</ele>
        <time>2014-08-31T13:40:17Z</time>
      </trkpt>
      <trkpt lat="46.05344" lon="6.7595">
        <ele>834.61053</ele>
        <time>2014-08-31T13:40:22Z</time>
      </trkpt>
      <trkpt lat="46.05345" lon="6.7595">
        <ele>834.61053</ele>
        <time>2014-08-31T13:40:27Z</time>
      </trkpt>
      <trkpt lat="46.05344" lon="6.75951">
        <ele>834.61053</ele>
        <time>2014-08-31T13:40:32Z</time>
      </trkpt>
      <trkpt lat="46.05344" lon="6.75954">
        <ele>834.61053</ele>
        <time>2014-08-31T13:40:37Z</time>
      </trkpt>
      <trkpt lat="46.05344" lon="6.75954">
        <ele>834.61053</ele>
        <time>2014-08-31T13:40:42Z</time>
      </trkpt>
      <trkpt lat="46.05345" lon="6.75954">
        <ele>835.1781</ele>
        <time>2014-08-31T13:40:47Z</time>
      </trkpt>
      <trkpt lat="46.05344" lon="6.75957">
        <ele>835.1781</ele>
        <time>2014-08-31T13:40:52Z</time>
      </trkpt>
      <trkpt lat="46.05344" lon="6.75957">
        <ele>835.1781</ele>
        <time>2014-08-31T13:40:57Z</time>
      </trkpt>
      <trkpt lat="46.05343" lon="6.75957">
        <ele>835.1781</ele>
        <time>2014-08-31T13:41:12Z</time>
      </trkpt>
      <trkpt lat="46.05345" lon="6.75958">
        <ele>835.1781</ele>
        <time>2014-08-31T13:41:17Z</time>
      </trkpt>
      <trkpt lat="46.05346" lon="6.75959">
        <ele>835.1781</ele>
        <time>2014-08-31T13:41:22Z</time>
      </trkpt>
      <trkpt lat="46.05343" lon="6.75963">
        <ele>835.27484</ele>
        <time>2014-08-31T13:41:27Z</time>
      </trkpt>
      <trkpt lat="46.05341" lon="6.75969">
        <ele>835.27484</ele>
        <time>2014-08-31T13:41:32Z</time>
      </trkpt>
      <trkpt lat="46.05341" lon="6.75972">
        <ele>835.27484</ele>
        <time>2014-08-31T13:41:37Z</time>
      </trkpt>
      <trkpt lat="46.05337" lon="6.75977">
        <ele>835.172</ele>
        <time>2014-08-31T13:41:42Z</time>
      </trkpt>
      <trkpt lat="46.05331" lon="6.75984">
        <ele>835.172</ele>
        <time>2014-08-31T13:41:47Z</time>
      </trkpt>
      <trkpt lat="46.05329" lon="6.75985">
        <ele>835.0347</ele>
        <time>2014-08-31T13:41:52Z</time>
      </trkpt>
      <trkpt lat="46.05328" lon="6.75985">
        <ele>835.0347</ele>
        <time>2014-08-31T13:41:57Z</time>
      </trkpt>
      <trkpt lat="46.05328" lon="6.75986">
        <ele>835.0347</ele>
        <time>2014-08-31T13:42:02Z</time>
      </trkpt>
      <trkpt lat="46.05329" lon="6.75988">
        <ele>835.0347</ele>
        <time>2014-08-31T13:42:07Z</time>
      </trkpt>
      <trkpt lat="46.05328" lon="6.7599">
        <ele>835.0347</ele>
        <time>2014-08-31T13:42:12Z</time>
      </trkpt>
      <trkpt lat="46.05326" lon="6.75991">
        <ele>835.0347</ele>
        <time>2014-08-31T13:42:17Z</time>
      </trkpt>
      <trkpt lat="46.05327" lon="6.75991">
        <ele>835.0347</ele>
        <time>2014-08-31T13:42:22Z</time>
      </trkpt>
      <trkpt lat="46.05325" lon="6.75992">
        <ele>834.8866</ele>
        <time>2014-08-31T13:42:27Z</time>
      </trkpt>
      <trkpt lat="46.05325" lon="6.75992">
        <ele>834.8866</ele>
        <time>2014-08-31T13:42:32Z</time>
      </trkpt>
      <trkpt lat="46.05324" lon="6.75992">
        <ele>834.8866</ele>
        <time>2014-08-31T13:42:37Z</time>
      </trkpt>
      <trkpt lat="46.05323" lon="6.75994">
        <ele>834.8866</ele>
        <time>2014-08-31T13:42:42Z</time>
      </trkpt>
      <trkpt lat="46.05322" lon="6.75996">
        <ele>834.8866</ele>
        <time>2014-08-31T13:42:47Z</time>
      </trkpt>
      <trkpt lat="46.05322" lon="6.75996">
        <ele>834.84674</ele>
        <time>2014-08-31T13:42:52Z</time>
      </trkpt>
      <trkpt lat="46.05318" lon="6.76001">
        <ele>834.80695</ele>
        <time>2014-08-31T13:43:02Z</time>
      </trkpt>
      <trkpt lat="46.05318" lon="6.76001">
        <ele>834.80695</ele>
        <time>2014-08-31T13:43:07Z</time>
      </trkpt>
      <trkpt lat="46.05317" lon="6.76001">
        <ele>834.80695</ele>
        <time>2014-08-31T13:43:12Z</time>
      </trkpt>
      <trkpt lat="46.05315" lon="6.76001">
        <ele>834.80695</ele>
        <time>2014-08-31T13:43:17Z</time>
      </trkpt>
      <trkpt lat="46.05314" lon="6.76">
        <ele>834.80695</ele>
        <time>2014-08-31T13:43:22Z</time>
      </trkpt>
      <trkpt lat="46.05314" lon="6.76">
        <ele>834.80695</ele>
        <time>2014-08-31T13:43:27Z</time>
      </trkpt>
      <trkpt lat="46.05316" lon="6.76008">
        <ele>835.3302</ele>
        <time>2014-08-31T13:43:32Z</time>
      </trkpt>
      <trkpt lat="46.05315" lon="6.7601">
        <ele>835.3302</ele>
        <time>2014-08-31T13:43:37Z</time>
      </trkpt>
      <trkpt lat="46.05318" lon="6.76011">
        <ele>835.3302</ele>
        <time>2014-08-31T13:43:42Z</time>
      </trkpt>
      <trkpt lat="46.05317" lon="6.76012">
        <ele>835.3302</ele>
        <time>2014-08-31T13:43:47Z</time>
      </trkpt>
      <trkpt lat="46.05317" lon="6.76011">
        <ele>835.3302</ele>
        <time>2014-08-31T13:43:52Z</time>
      </trkpt>
      <trkpt lat="46.05318" lon="6.76015">
        <ele>836.6904</ele>
        <time>2014-08-31T13:43:57Z</time>
      </trkpt>
      <trkpt lat="46.05318" lon="6.76015">
        <ele>836.6904</ele>
        <time>2014-08-31T13:44:02Z</time>
      </trkpt>
      <trkpt lat="46.05319" lon="6.76015">
        <ele>836.6904</ele>
        <time>2014-08-31T13:44:07Z</time>
      </trkpt>
      <trkpt lat="46.05326" lon="6.76018">
        <ele>836.6904</ele>
        <time>2014-08-31T13:44:12Z</time>
      </trkpt>
      <trkpt lat="46.05326" lon="6.76018">
        <ele>836.6904</ele>
        <time>2014-08-31T13:44:17Z</time>
      </trkpt>
      <trkpt lat="46.05326" lon="6.76017">
        <ele>836.6904</ele>
        <time>2014-08-31T13:44:22Z</time>
      </trkpt>
      <trkpt lat="46.05326" lon="6.76018">
        <ele>836.6904</ele>
        <time>2014-08-31T13:44:27Z</time>
      </trkpt>
      <trkpt lat="46.05326" lon="6.76018">
        <ele>836.6904</ele>
        <time>2014-08-31T13:44:32Z</time>
      </trkpt>
      <trkpt lat="46.05325" lon="6.76018">
        <ele>838.77057</ele>
        <time>2014-08-31T13:44:37Z</time>
      </trkpt>
      <trkpt lat="46.05325" lon="6.76018">
        <ele>838.77057</ele>
        <time>2014-08-31T13:44:42Z</time>
      </trkpt>
      <trkpt lat="46.05326" lon="6.76015">
        <ele>838.77057</ele>
        <time>2014-08-31T13:44:47Z</time>
      </trkpt>
      <trkpt lat="46.05328" lon="6.76011">
        <ele>838.77057</ele>
        <time>2014-08-31T13:44:52Z</time>
      </trkpt>
      <trkpt lat="46.05328" lon="6.76011">
        <ele>838.77057</ele>
        <time>2014-08-31T13:44:57Z</time>
      </trkpt>
      <trkpt lat="46.05328" lon="6.7601">
        <ele>838.77057</ele>
        <time>2014-08-31T13:45:12Z</time>
      </trkpt>
      <trkpt lat="46.05326" lon="6.76009">
        <ele>838.77057</ele>
        <time>2014-08-31T13:45:17Z</time>
      </trkpt>
      <trkpt lat="46.05325" lon="6.76009">
        <ele>840.53766</ele>
        <time>2014-08-31T13:45:22Z</time>
      </trkpt>
      <trkpt lat="46.05325" lon="6.76009">
        <ele>840.53766</ele>
        <time>2014-08-31T13:45:27Z</time>
      </trkpt>
      <trkpt lat="46.05324" lon="6.76009">
        <ele>840.53766</ele>
        <time>2014-08-31T13:45:32Z</time>
      </trkpt>
      <trkpt lat="46.05324" lon="6.76008">
        <ele>840.53766</ele>
        <time>2014-08-31T13:45:37Z</time>
      </trkpt>
      <trkpt lat="46.05323" lon="6.76007">
        <ele>840.53766</ele>
        <time>2014-08-31T13:45:42Z</time>
      </trkpt>
      <trkpt lat="46.05326" lon="6.76001">
        <ele>840.53766</ele>
        <time>2014-08-31T13:45:47Z</time>
      </trkpt>
      <trkpt lat="46.05326" lon="6.75997">
        <ele>842.491</ele>
        <time>2014-08-31T13:45:52Z</time>
      </trkpt>
      <trkpt lat="46.05325" lon="6.75996">
        <ele>842.491</ele>
        <time>2014-08-31T13:45:57Z</time>
      </trkpt>
      <trkpt lat="46.05326" lon="6.75998">
        <ele>842.491</ele>
        <time>2014-08-31T13:46:02Z</time>
      </trkpt>
      <trkpt lat="46.05325" lon="6.75998">
        <ele>842.491</ele>
        <time>2014-08-31T13:46:07Z</time>
      </trkpt>
      <trkpt lat="46.05322" lon="6.75999">
        <ele>842.491</ele>
        <time>2014-08-31T13:46:12Z</time>
      </trkpt>
      <trkpt lat="46.05322" lon="6.75999">
        <ele>842.491</ele>
        <time>2014-08-31T13:46:17Z</time>
      </trkpt>
      <trkpt lat="46.05321" lon="6.76">
        <ele>842.491</ele>
        <time>2014-08-31T13:46:22Z</time>
      </trkpt>
      <trkpt lat="46.05321" lon="6.76001">
        <ele>842.491</ele>
        <time>2014-08-31T13:46:27Z</time>
      </trkpt>
      <trkpt lat="46.05321" lon="6.76002">
        <ele>845.6547</ele>
        <time>2014-08-31T13:46:32Z</time>
      </trkpt>
      <trkpt lat="46.05321" lon="6.76001">
        <ele>845.6547</ele>
        <time>2014-08-31T13:46:37Z</time>
      </trkpt>
      <trkpt lat="46.05321" lon="6.76001">
        <ele>845.6547</ele>
        <time>2014-08-31T13:46:42Z</time>
      </trkpt>
      <trkpt lat="46.05321" lon="6.76001">
        <ele>845.6547</ele>
        <time>2014-08-31T13:46:47Z</time>
      </trkpt>
      <trkpt lat="46.05322" lon="6.76005">
        <ele>845.6547</ele>
        <time>2014-08-31T13:46:52Z</time>
      </trkpt>
      <trkpt lat="46.05323" lon="6.76006">
        <ele>845.6547</ele>
        <time>2014-08-31T13:46:57Z</time>
      </trkpt>
      <trkpt lat="46.05323" lon="6.76007">
        <ele>845.6547</ele>
        <time>2014-08-31T13:47:37Z</time>
      </trkpt>
      <trkpt lat="46.05324" lon="6.76007">
        <ele>845.6547</ele>
        <time>2014-08-31T13:47:42Z</time>
      </trkpt>
      <trkpt lat="46.05323" lon="6.76008">
        <ele>845.6547</ele>
        <time>2014-08-31T13:47:47Z</time>
      </trkpt>
      <trkpt lat="46.05326" lon="6.76008">
        <ele>849.3889</ele>
        <time>2014-08-31T13:47:52Z</time>
      </trkpt>
      <trkpt lat="46.05326" lon="6.76007">
        <ele>849.3889</ele>
        <time>2014-08-31T13:47:57Z</time>
      </trkpt>
      <trkpt lat="46.05327" lon="6.76009">
        <ele>849.3889</ele>
        <time>2014-08-31T13:48:02Z</time>
      </trkpt>
      <trkpt lat="46.05327" lon="6.76013">
        <ele>849.3889</ele>
        <time>2014-08-31T13:48:07Z</time>
      </trkpt>
      <trkpt lat="46.05327" lon="6.76016">
        <ele>849.3889</ele>
        <time>2014-08-31T13:48:12Z</time>
      </trkpt>
      <trkpt lat="46.05328" lon="6.76021">
        <ele>853.11346</ele>
        <time>2014-08-31T13:48:17Z</time>
      </trkpt>
      <trkpt lat="46.05328" lon="6.76021">
        <ele>853.11346</ele>
        <time>2014-08-31T13:48:22Z</time>
      </trkpt>
      <trkpt lat="46.05327" lon="6.76022">
        <ele>853.11346</ele>
        <time>2014-08-31T13:48:27Z</time>
      </trkpt>
      <trkpt lat="46.05328" lon="6.76023">
        <ele>853.11346</ele>
        <time>2014-08-31T13:48:37Z</time>
      </trkpt>
      <trkpt lat="46.05328" lon="6.76025">
        <ele>853.11346</ele>
        <time>2014-08-31T13:48:42Z</time>
      </trkpt>
      <trkpt lat="46.05328" lon="6.76026">
        <ele>853.11346</ele>
        <time>2014-08-31T13:48:47Z</time>
      </trkpt>
      <trkpt lat="46.05329" lon="6.76028">
        <ele>853.11346</ele>
        <time>2014-08-31T13:48:52Z</time>
      </trkpt>
      <trkpt lat="46.05327" lon="6.76031">
        <ele>853.11346</ele>
        <time>2014-08-31T13:48:57Z</time>
      </trkpt>
      <trkpt lat="46.05326" lon="6.76031">
        <ele>856.3917</ele>
        <time>2014-08-31T13:49:02Z</time>
      </trkpt>
      <trkpt lat="46.05326" lon="6.76031">
        <ele>856.3917</ele>
        <time>2014-08-31T13:49:07Z</time>
      </trkpt>
      <trkpt lat="46.05325" lon="6.76033">
        <ele>856.3917</ele>
        <time>2014-08-31T13:49:12Z</time>
      </trkpt>
      <trkpt lat="46.05326" lon="6.76033">
        <ele>856.3917</ele>
        <time>2014-08-31T13:49:17Z</time>
      </trkpt>
      <trkpt lat="46.05325" lon="6.76035">
        <ele>856.3917</ele>
        <time>2014-08-31T13:49:22Z</time>
      </trkpt>
      <trkpt lat="46.05325" lon="6.76035">
        <ele>856.3917</ele>
        <time>2014-08-31T13:49:27Z</time>
      </trkpt>
      <trkpt lat="46.05324" lon="6.7604">
        <ele>856.3917</ele>
        <time>2014-08-31T13:49:47Z</time>
      </trkpt>
      <trkpt lat="46.05324" lon="6.76042">
        <ele>860.103</ele>
        <time>2014-08-31T13:49:52Z</time>
      </trkpt>
      <trkpt lat="46.05323" lon="6.76043">
        <ele>860.103</ele>
        <time>2014-08-31T13:49:57Z</time>
      </trkpt>
      <trkpt lat="46.05323" lon="6.76043">
        <ele>860.103</ele>
        <time>2014-08-31T13:50:02Z</time>
      </trkpt>
      <trkpt lat="46.05322" lon="6.76048">
        <ele>860.103</ele>
        <time>2014-08-31T13:50:07Z</time>
      </trkpt>
      <trkpt lat="46.05321" lon="6.7605">
        <ele>860.103</ele>
        <time>2014-08-31T13:50:12Z</time>
      </trkpt>
      <trkpt lat="46.05321" lon="6.76051">
        <ele>860.103</ele>
        <time>2014-08-31T13:50:17Z</time>
      </trkpt>
      <trkpt lat="46.05321" lon="6.76051">
        <ele>860.103</ele>
        <time>2014-08-31T13:50:22Z</time>
      </trkpt>
      <trkpt lat="46.05322" lon="6.76053">
        <ele>864.1096</ele>
        <time>2014-08-31T13:50:27Z</time>
      </trkpt>
      <trkpt lat="46.05324" lon="6.76057">
        <ele>864.1096</ele>
        <time>2014-08-31T13:50:32Z</time>
      </trkpt>
      <trkpt lat="46.05325" lon="6.76061">
        <ele>864.1096</ele>
        <time>2014-08-31T13:50:37Z</time>
      </trkpt>
      <trkpt lat="46.05326" lon="6.76065">
        <ele>864.1096</ele>
        <time>2014-08-31T13:50:42Z</time>
      </trkpt>
      <trkpt lat="46.05328" lon="6.7607">
        <ele>867.6058</ele>
        <time>2014-08-31T13:50:47Z</time>
      </trkpt>
      <trkpt lat="46.05328" lon="6.76075">
        <ele>867.6058</ele>
        <time>2014-08-31T13:50:52Z</time>
      </trkpt>
      <trkpt lat="46.05332" lon="6.76084">
        <ele>870.5815</ele>
        <time>2014-08-31T13:50:57Z</time>
      </trkpt>
      <trkpt lat="46.05333" lon="6.76093">
        <ele>870.5815</ele>
        <time>2014-08-31T13:51:02Z</time>
      </trkpt>
      <trkpt lat="46.05333" lon="6.76093">
        <ele>871.6754</ele>
        <time>2014-08-31T13:51:07Z</time>
      </trkpt>
      <trkpt lat="46.05334" lon="6.76097">
        <ele>872.76935</ele>
        <time>2014-08-31T13:51:22Z</time>
      </trkpt>
      <trkpt lat="46.05334" lon="6.76099">
        <ele>872.76935</ele>
        <time>2014-08-31T13:51:27Z</time>
      </trkpt>
      <trkpt lat="46.05335" lon="6.76103">
        <ele>872.76935</ele>
        <time>2014-08-31T13:51:32Z</time>
      </trkpt>
      <trkpt lat="46.05336" lon="6.76109">
        <ele>874.64465</ele>
        <time>2014-08-31T13:51:37Z</time>
      </trkpt>
      <trkpt lat="46.05337" lon="6.76112">
        <ele>874.64465</ele>
        <time>2014-08-31T13:51:42Z</time>
      </trkpt>
      <trkpt lat="46.05337" lon="6.76114">
        <ele>874.64465</ele>
        <time>2014-08-31T13:51:47Z</time>
      </trkpt>
      <trkpt lat="46.05338" lon="6.76116">
        <ele>874.64465</ele>
        <time>2014-08-31T13:51:52Z</time>
      </trkpt>
      <trkpt lat="46.05339" lon="6.7612">
        <ele>874.64465</ele>
        <time>2014-08-31T13:51:57Z</time>
      </trkpt>
      <trkpt lat="46.0534" lon="6.76124">
        <ele>876.317</ele>
        <time>2014-08-31T13:52:02Z</time>
      </trkpt>
      <trkpt lat="46.05341" lon="6.76125">
        <ele>876.317</ele>
        <time>2014-08-31T13:52:07Z</time>
      </trkpt>
      <trkpt lat="46.0534" lon="6.76134">
        <ele>876.317</ele>
        <time>2014-08-31T13:52:12Z</time>
      </trkpt>
      <trkpt lat="46.0534" lon="6.76134">
        <ele>876.317</ele>
        <time>2014-08-31T13:52:17Z</time>
      </trkpt>
      <trkpt lat="46.0534" lon="6.76136">
        <ele>876.317</ele>
        <time>2014-08-31T13:52:27Z</time>
      </trkpt>
      <trkpt lat="46.0534" lon="6.76136">
        <ele>876.317</ele>
        <time>2014-08-31T13:52:32Z</time>
      </trkpt>
      <trkpt lat="46.0534" lon="6.76137">
        <ele>877.3844</ele>
        <time>2014-08-31T13:52:42Z</time>
      </trkpt>
      <trkpt lat="46.05342" lon="6.76139">
        <ele>877.3844</ele>
        <time>2014-08-31T13:52:47Z</time>
      </trkpt>
      <trkpt lat="46.05342" lon="6.76139">
        <ele>877.3844</ele>
        <time>2014-08-31T13:52:52Z</time>
      </trkpt>
      <trkpt lat="46.05339" lon="6.76143">
        <ele>877.3844</ele>
        <time>2014-08-31T13:53:12Z</time>
      </trkpt>
      <trkpt lat="46.05339" lon="6.76143">
        <ele>877.3844</ele>
        <time>2014-08-31T13:53:17Z</time>
      </trkpt>
      <trkpt lat="46.0534" lon="6.76148">
        <ele>878.03784</ele>
        <time>2014-08-31T13:53:27Z</time>
      </trkpt>
      <trkpt lat="46.05341" lon="6.7615">
        <ele>878.03784</ele>
        <time>2014-08-31T13:53:32Z</time>
      </trkpt>
      <trkpt lat="46.0534" lon="6.76151">
        <ele>878.03784</ele>
        <time>2014-08-31T13:53:37Z</time>
      </trkpt>
      <trkpt lat="46.0534" lon="6.76151">
        <ele>878.03784</ele>
        <time>2014-08-31T13:53:42Z</time>
      </trkpt>
      <trkpt lat="46.05336" lon="6.76154">
        <ele>878.03784</ele>
        <time>2014-08-31T13:53:47Z</time>
      </trkpt>
      <trkpt lat="46.05335" lon="6.76155">
        <ele>878.03784</ele>
        <time>2014-08-31T13:53:52Z</time>
      </trkpt>
      <trkpt lat="46.05332" lon="6.76159">
        <ele>878.57104</ele>
        <time>2014-08-31T13:53:57Z</time>
      </trkpt>
      <trkpt lat="46.05334" lon="6.76162">
        <ele>878.57104</ele>
        <time>2014-08-31T13:54:02Z</time>
      </trkpt>
      <trkpt lat="46.05334" lon="6.76167">
        <ele>878.57104</ele>
        <time>2014-08-31T13:54:07Z</time>
      </trkpt>
      <trkpt lat="46.05333" lon="6.76172">
        <ele>879.01135</ele>
        <time>2014-08-31T13:54:12Z</time>
      </trkpt>
      <trkpt lat="46.05333" lon="6.76176">
        <ele>879.01135</ele>
        <time>2014-08-31T13:54:17Z</time>
      </trkpt>
      <trkpt lat="46.05333" lon="6.76176">
        <ele>879.01135</ele>
        <time>2014-08-31T13:54:22Z</time>
      </trkpt>
      <trkpt lat="46.05331" lon="6.76179">
        <ele>879.01135</ele>
        <time>2014-08-31T13:54:27Z</time>
      </trkpt>
      <trkpt lat="46.05331" lon="6.76179">
        <ele>879.01135</ele>
        <time>2014-08-31T13:54:32Z</time>
      </trkpt>
      <trkpt lat="46.05329" lon="6.76183">
        <ele>879.01135</ele>
        <time>2014-08-31T13:54:37Z</time>
      </trkpt>
      <trkpt lat="46.05329" lon="6.76185">
        <ele>879.1682</ele>
        <time>2014-08-31T13:54:42Z</time>
      </trkpt>
      <trkpt lat="46.0533" lon="6.76187">
        <ele>879.1682</ele>
        <time>2014-08-31T13:54:47Z</time>
      </trkpt>
      <trkpt lat="46.05329" lon="6.7619">
        <ele>879.1682</ele>
        <time>2014-08-31T13:54:52Z</time>
      </trkpt>
      <trkpt lat="46.05325" lon="6.76195">
        <ele>879.1829</ele>
        <time>2014-08-31T13:54:57Z</time>
      </trkpt>
      <trkpt lat="46.05323" lon="6.76198">
        <ele>879.1829</ele>
        <time>2014-08-31T13:55:02Z</time>
      </trkpt>
      <trkpt lat="46.05323" lon="6.76203">
        <ele>879.1829</ele>
        <time>2014-08-31T13:55:07Z</time>
      </trkpt>
      <trkpt lat="46.05318" lon="6.76206">
        <ele>879.129</ele>
        <time>2014-08-31T13:55:12Z</time>
      </trkpt>
      <trkpt lat="46.05317" lon="6.76207">
        <ele>879.129</ele>
        <time>2014-08-31T13:55:17Z</time>
      </trkpt>
      <trkpt lat="46.05316" lon="6.76206">
        <ele>879.129</ele>
        <time>2014-08-31T13:55:22Z</time>
      </trkpt>
      <trkpt lat="46.05316" lon="6.76205">
        <ele>879.129</ele>
        <time>2014-08-31T13:55:27Z</time>
      </trkpt>
      <trkpt lat="46.05316" lon="6.76205">
        <ele>879.129</ele>
        <time>2014-08-31T13:55:32Z</time>
      </trkpt>
      <trkpt lat="46.05315" lon="6.76203">
        <ele>879.129</ele>
        <time>2014-08-31T13:55:37Z</time>
      </trkpt>
      <trkpt lat="46.05314" lon="6.76205">
        <ele>879.129</ele>
        <time>2014-08-31T13:55:42Z</time>
      </trkpt>
      <trkpt lat="46.05312" lon="6.76205">
        <ele>879.129</ele>
        <time>2014-08-31T13:55:47Z</time>
      </trkpt>
      <trkpt lat="46.05309" lon="6.76208">
        <ele>879.066</ele>
        <time>2014-08-31T13:55:52Z</time>
      </trkpt>
      <trkpt lat="46.0531" lon="6.7621">
        <ele>879.0029</ele>
        <time>2014-08-31T13:55:57Z</time>
      </trkpt>
      <trkpt lat="46.0531" lon="6.76212">
        <ele>879.0029</ele>
        <time>2014-08-31T13:56:02Z</time>
      </trkpt>
      <trkpt lat="46.05311" lon="6.76213">
        <ele>879.0029</ele>
        <time>2014-08-31T13:56:07Z</time>
      </trkpt>
      <trkpt lat="46.05309" lon="6.76214">
        <ele>879.0029</ele>
        <time>2014-08-31T13:56:12Z</time>
      </trkpt>
      <trkpt lat="46.05308" lon="6.76214">
        <ele>879.0029</ele>
        <time>2014-08-31T13:56:17Z</time>
      </trkpt>
      <trkpt lat="46.05307" lon="6.76215">
        <ele>879.0029</ele>
        <time>2014-08-31T13:56:22Z</time>
      </trkpt>
      <trkpt lat="46.05307" lon="6.76216">
        <ele>879.0029</ele>
        <time>2014-08-31T13:56:27Z</time>
      </trkpt>
      <trkpt lat="46.05309" lon="6.7622">
        <ele>878.1528</ele>
        <time>2014-08-31T13:56:32Z</time>
      </trkpt>
      <trkpt lat="46.05304" lon="6.76223">
        <ele>878.1528</ele>
        <time>2014-08-31T13:56:37Z</time>
      </trkpt>
      <trkpt lat="46.05301" lon="6.76229">
        <ele>877.0719</ele>
        <time>2014-08-31T13:56:42Z</time>
      </trkpt>
      <trkpt lat="46.05301" lon="6.76231">
        <ele>877.0719</ele>
        <time>2014-08-31T13:56:47Z</time>
      </trkpt>
      <trkpt lat="46.05297" lon="6.76238">
        <ele>877.0719</ele>
        <time>2014-08-31T13:56:52Z</time>
      </trkpt>
      <trkpt lat="46.05293" lon="6.76241">
        <ele>875.8576</ele>
        <time>2014-08-31T13:56:57Z</time>
      </trkpt>
      <trkpt lat="46.05292" lon="6.76241">
        <ele>875.8576</ele>
        <time>2014-08-31T13:57:02Z</time>
      </trkpt>
      <trkpt lat="46.0529" lon="6.76246">
        <ele>875.8576</ele>
        <time>2014-08-31T13:57:07Z</time>
      </trkpt>
      <trkpt lat="46.05286" lon="6.76247">
        <ele>874.44183</ele>
        <time>2014-08-31T13:57:12Z</time>
      </trkpt>
      <trkpt lat="46.05283" lon="6.76247">
        <ele>874.44183</ele>
        <time>2014-08-31T13:57:17Z</time>
      </trkpt>
      <trkpt lat="46.0528" lon="6.76248">
        <ele>874.44183</ele>
        <time>2014-08-31T13:57:22Z</time>
      </trkpt>
      <trkpt lat="46.05278" lon="6.7625">
        <ele>874.44183</ele>
        <time>2014-08-31T13:57:27Z</time>
      </trkpt>
      <trkpt lat="46.05276" lon="6.76255">
        <ele>872.9348</ele>
        <time>2014-08-31T13:57:32Z</time>
      </trkpt>
      <trkpt lat="46.05274" lon="6.76258">
        <ele>872.9348</ele>
        <time>2014-08-31T13:57:37Z</time>
      </trkpt>
      <trkpt lat="46.05273" lon="6.76258">
        <ele>872.9348</ele>
        <time>2014-08-31T13:57:42Z</time>
      </trkpt>
      <trkpt lat="46.05272" lon="6.76258">
        <ele>872.9348</ele>
        <time>2014-08-31T13:57:47Z</time>
      </trkpt>
      <trkpt lat="46.05272" lon="6.76258">
        <ele>872.9348</ele>
        <time>2014-08-31T13:57:52Z</time>
      </trkpt>
      <trkpt lat="46.05272" lon="6.76259">
        <ele>872.9348</ele>
        <time>2014-08-31T13:57:57Z</time>
      </trkpt>
      <trkpt lat="46.05271" lon="6.7626">
        <ele>872.9348</ele>
        <time>2014-08-31T13:58:02Z</time>
      </trkpt>
      <trkpt lat="46.0527" lon="6.76263">
        <ele>870.6319</ele>
        <time>2014-08-31T13:58:07Z</time>
      </trkpt>
      <trkpt lat="46.0527" lon="6.76266">
        <ele>870.6319</ele>
        <time>2014-08-31T13:58:12Z</time>
      </trkpt>
      <trkpt lat="46.05271" lon="6.76268">
        <ele>870.6319</ele>
        <time>2014-08-31T13:58:17Z</time>
      </trkpt>
      <trkpt lat="46.05272" lon="6.7627">
        <ele>870.6319</ele>
        <time>2014-08-31T13:58:22Z</time>
      </trkpt>
      <trkpt lat="46.0527" lon="6.76273">
        <ele>870.6319</ele>
        <time>2014-08-31T13:58:27Z</time>
      </trkpt>
      <trkpt lat="46.0527" lon="6.76273">
        <ele>870.6319</ele>
        <time>2014-08-31T13:58:32Z</time>
      </trkpt>
      <trkpt lat="46.05268" lon="6.76274">
        <ele>868.1792</ele>
        <time>2014-08-31T13:58:37Z</time>
      </trkpt>
      <trkpt lat="46.05268" lon="6.7628">
        <ele>868.1792</ele>
        <time>2014-08-31T13:58:42Z</time>
      </trkpt>
      <trkpt lat="46.05268" lon="6.76279">
        <ele>868.1792</ele>
        <time>2014-08-31T13:58:47Z</time>
      </trkpt>
      <trkpt lat="46.05267" lon="6.76282">
        <ele>868.1792</ele>
        <time>2014-08-31T13:58:52Z</time>
      </trkpt>
      <trkpt lat="46.05267" lon="6.76282">
        <ele>868.1792</ele>
        <time>2014-08-31T13:58:57Z</time>
      </trkpt>
      <trkpt lat="46.05266" lon="6.76283">
        <ele>868.1792</ele>
        <time>2014-08-31T13:59:02Z</time>
      </trkpt>
      <trkpt lat="46.05266" lon="6.76283">
        <ele>868.1792</ele>
        <time>2014-08-31T13:59:07Z</time>
      </trkpt>
      <trkpt lat="46.05267" lon="6.76283">
        <ele>868.1792</ele>
        <time>2014-08-31T13:59:12Z</time>
      </trkpt>
      <trkpt lat="46.05267" lon="6.76283">
        <ele>868.1792</ele>
        <time>2014-08-31T13:59:17Z</time>
      </trkpt>
      <trkpt lat="46.05267" lon="6.76285">
        <ele>868.1792</ele>
        <time>2014-08-31T13:59:27Z</time>
      </trkpt>
      <trkpt lat="46.05264" lon="6.76287">
        <ele>865.4983</ele>
        <time>2014-08-31T13:59:32Z</time>
      </trkpt>
      <trkpt lat="46.05263" lon="6.76291">
        <ele>865.4983</ele>
        <time>2014-08-31T13:59:37Z</time>
      </trkpt>
      <trkpt lat="46.05262" lon="6.76295">
        <ele>865.4983</ele>
        <time>2014-08-31T13:59:42Z</time>
      </trkpt>
      <trkpt lat="46.0526" lon="6.76301">
        <ele>862.73303</ele>
        <time>2014-08-31T13:59:47Z</time>
      </trkpt>
      <trkpt lat="46.05258" lon="6.76304">
        <ele>862.73303</ele>
        <time>2014-08-31T13:59:52Z</time>
      </trkpt>
      <trkpt lat="46.05253" lon="6.76311">
        <ele>859.88715</ele>
        <time>2014-08-31T13:59:57Z</time>
      </trkpt>
      <trkpt lat="46.05251" lon="6.76311">
        <ele>859.88715</ele>
        <time>2014-08-31T14:00:02Z</time>
      </trkpt>
      <trkpt lat="46.05249" lon="6.76311">
        <ele>859.88715</ele>
        <time>2014-08-31T14:00:07Z</time>
      </trkpt>
      <trkpt lat="46.05248" lon="6.76312">
        <ele>859.88715</ele>
        <time>2014-08-31T14:00:12Z</time>
      </trkpt>
      <trkpt lat="46.05247" lon="6.76313">
        <ele>859.88715</ele>
        <time>2014-08-31T14:00:17Z</time>
      </trkpt>
      <trkpt lat="46.05246" lon="6.76313">
        <ele>859.88715</ele>
        <time>2014-08-31T14:00:22Z</time>
      </trkpt>
      <trkpt lat="46.05245" lon="6.76314">
        <ele>859.88715</ele>
        <time>2014-08-31T14:00:27Z</time>
      </trkpt>
      <trkpt lat="46.05241" lon="6.76315">
        <ele>856.12823</ele>
        <time>2014-08-31T14:00:32Z</time>
      </trkpt>
      <trkpt lat="46.05239" lon="6.76315">
        <ele>856.12823</ele>
        <time>2014-08-31T14:00:37Z</time>
      </trkpt>
      <trkpt lat="46.05239" lon="6.76315">
        <ele>856.12823</ele>
        <time>2014-08-31T14:00:42Z</time>
      </trkpt>
      <trkpt lat="46.0524" lon="6.76317">
        <ele>856.12823</ele>
        <time>2014-08-31T14:00:47Z</time>
      </trkpt>
      <trkpt lat="46.0524" lon="6.76317">
        <ele>856.12823</ele>
        <time>2014-08-31T14:00:52Z</time>
      </trkpt>
      <trkpt lat="46.05238" lon="6.76317">
        <ele>856.12823</ele>
        <time>2014-08-31T14:00:57Z</time>
      </trkpt>
      <trkpt lat="46.05238" lon="6.76318">
        <ele>856.12823</ele>
        <time>2014-08-31T14:01:02Z</time>
      </trkpt>
      <trkpt lat="46.05237" lon="6.76318">
        <ele>856.12823</ele>
        <time>2014-08-31T14:01:07Z</time>
      </trkpt>
      <trkpt lat="46.05237" lon="6.7632">
        <ele>856.12823</ele>
        <time>2014-08-31T14:01:12Z</time>
      </trkpt>
      <trkpt lat="46.05237" lon="6.76321">
        <ele>856.12823</ele>
        <time>2014-08-31T14:01:17Z</time>
      </trkpt>
      <trkpt lat="46.05237" lon="6.76321">
        <ele>856.12823</ele>
        <time>2014-08-31T14:01:22Z</time>
      </trkpt>
      <trkpt lat="46.05235" lon="6.76324">
        <ele>850.8024</ele>
        <time>2014-08-31T14:01:27Z</time>
      </trkpt>
      <trkpt lat="46.05232" lon="6.76325">
        <ele>850.8024</ele>
        <time>2014-08-31T14:01:32Z</time>
      </trkpt>
      <trkpt lat="46.05232" lon="6.76325">
        <ele>850.8024</ele>
        <time>2014-08-31T14:01:37Z</time>
      </trkpt>
      <trkpt lat="46.0523" lon="6.76325">
        <ele>850.8024</ele>
        <time>2014-08-31T14:01:42Z</time>
      </trkpt>
      <trkpt lat="46.05227" lon="6.7633">
        <ele>845.5276</ele>
        <time>2014-08-31T14:01:47Z</time>
      </trkpt>
      <trkpt lat="46.05225" lon="6.76329">
        <ele>845.5276</ele>
        <time>2014-08-31T14:01:52Z</time>
      </trkpt>
      <trkpt lat="46.05224" lon="6.76329">
        <ele>845.5276</ele>
        <time>2014-08-31T14:01:57Z</time>
      </trkpt>
      <trkpt lat="46.05221" lon="6.76332">
        <ele>845.5276</ele>
        <time>2014-08-31T14:02:02Z</time>
      </trkpt>
      <trkpt lat="46.05221" lon="6.76332">
        <ele>845.5276</ele>
        <time>2014-08-31T14:02:07Z</time>
      </trkpt>
      <trkpt lat="46.05222" lon="6.76334">
        <ele>845.5276</ele>
        <time>2014-08-31T14:02:12Z</time>
      </trkpt>
      <trkpt lat="46.05223" lon="6.76336">
        <ele>840.11597</ele>
        <time>2014-08-31T14:02:17Z</time>
      </trkpt>
      <trkpt lat="46.05223" lon="6.76338">
        <ele>840.11597</ele>
        <time>2014-08-31T14:02:22Z</time>
      </trkpt>
      <trkpt lat="46.05222" lon="6.7634">
        <ele>840.11597</ele>
        <time>2014-08-31T14:02:27Z</time>
      </trkpt>
      <trkpt lat="46.05224" lon="6.7634">
        <ele>840.11597</ele>
        <time>2014-08-31T14:02:32Z</time>
      </trkpt>
      <trkpt lat="46.05225" lon="6.7634">
        <ele>840.11597</ele>
        <time>2014-08-31T14:02:37Z</time>
      </trkpt>
      <trkpt lat="46.05225" lon="6.7634">
        <ele>840.11597</ele>
        <time>2014-08-31T14:02:42Z</time>
      </trkpt>
      <trkpt lat="46.05225" lon="6.76342">
        <ele>840.11597</ele>
        <time>2014-08-31T14:02:47Z</time>
      </trkpt>
      <trkpt lat="46.05226" lon="6.7635">
        <ele>834.95575</ele>
        <time>2014-08-31T14:02:52Z</time>
      </trkpt>
      <trkpt lat="46.05225" lon="6.7635">
        <ele>834.95575</ele>
        <time>2014-08-31T14:02:57Z</time>
      </trkpt>
      <trkpt lat="46.05222" lon="6.7635">
        <ele>834.95575</ele>
        <time>2014-08-31T14:03:02Z</time>
      </trkpt>
      <trkpt lat="46.0522" lon="6.76349">
        <ele>834.95575</ele>
        <time>2014-08-31T14:03:07Z</time>
      </trkpt>
      <trkpt lat="46.05218" lon="6.76348">
        <ele>834.95575</ele>
        <time>2014-08-31T14:03:12Z</time>
      </trkpt>
      <trkpt lat="46.05216" lon="6.76349">
        <ele>829.72815</ele>
        <time>2014-08-31T14:03:17Z</time>
      </trkpt>
      <trkpt lat="46.05215" lon="6.76353">
        <ele>829.72815</ele>
        <time>2014-08-31T14:03:22Z</time>
      </trkpt>
      <trkpt lat="46.05215" lon="6.76355">
        <ele>829.72815</ele>
        <time>2014-08-31T14:03:27Z</time>
      </trkpt>
      <trkpt lat="46.05213" lon="6.76356">
        <ele>829.72815</ele>
        <time>2014-08-31T14:03:32Z</time>
      </trkpt>
      <trkpt lat="46.05212" lon="6.76355">
        <ele>829.72815</ele>
        <time>2014-08-31T14:03:37Z</time>
      </trkpt>
      <trkpt lat="46.05211" lon="6.76356">
        <ele>829.72815</ele>
        <time>2014-08-31T14:03:42Z</time>
      </trkpt>
      <trkpt lat="46.05207" lon="6.76356">
        <ele>824.52686</ele>
        <time>2014-08-31T14:03:47Z</time>
      </trkpt>
      <trkpt lat="46.05207" lon="6.76357">
        <ele>824.52686</ele>
        <time>2014-08-31T14:03:52Z</time>
      </trkpt>
      <trkpt lat="46.05205" lon="6.7636">
        <ele>824.52686</ele>
        <time>2014-08-31T14:03:57Z</time>
      </trkpt>
      <trkpt lat="46.05204" lon="6.7636">
        <ele>824.52686</ele>
        <time>2014-08-31T14:04:02Z</time>
      </trkpt>
      <trkpt lat="46.05201" lon="6.76366">
        <ele>819.2506</ele>
        <time>2014-08-31T14:04:07Z</time>
      </trkpt>
      <trkpt lat="46.052" lon="6.76367">
        <ele>819.2506</ele>
        <time>2014-08-31T14:04:12Z</time>
      </trkpt>
      <trkpt lat="46.05199" lon="6.76368">
        <ele>819.2506</ele>
        <time>2014-08-31T14:04:17Z</time>
      </trkpt>
      <trkpt lat="46.05198" lon="6.7637">
        <ele>819.2506</ele>
        <time>2014-08-31T14:04:22Z</time>
      </trkpt>
      <trkpt lat="46.05198" lon="6.76371">
        <ele>819.2506</ele>
        <time>2014-08-31T14:04:27Z</time>
      </trkpt>
      <trkpt lat="46.05198" lon="6.76371">
        <ele>819.2506</ele>
        <time>2014-08-31T14:04:32Z</time>
      </trkpt>
      <trkpt lat="46.05194" lon="6.76374">
        <ele>819.2506</ele>
        <time>2014-08-31T14:04:42Z</time>
      </trkpt>
      <trkpt lat="46.05191" lon="6.76375">
        <ele>814.26666</ele>
        <time>2014-08-31T14:04:47Z</time>
      </trkpt>
      <trkpt lat="46.05191" lon="6.76375">
        <ele>814.26666</ele>
        <time>2014-08-31T14:04:52Z</time>
      </trkpt>
      <trkpt lat="46.0519" lon="6.76377">
        <ele>814.26666</ele>
        <time>2014-08-31T14:05:02Z</time>
      </trkpt>
      <trkpt lat="46.05186" lon="6.76378">
        <ele>814.26666</ele>
        <time>2014-08-31T14:05:07Z</time>
      </trkpt>
      <trkpt lat="46.05186" lon="6.76378">
        <ele>814.26666</ele>
        <time>2014-08-31T14:05:12Z</time>
      </trkpt>
      <trkpt lat="46.05185" lon="6.76379">
        <ele>814.26666</ele>
        <time>2014-08-31T14:05:27Z</time>
      </trkpt>
      <trkpt lat="46.05185" lon="6.76379">
        <ele>814.26666</ele>
        <time>2014-08-31T14:05:32Z</time>
      </trkpt>
      <trkpt lat="46.05182" lon="6.7638">
        <ele>808.99176</ele>
        <time>2014-08-31T14:05:37Z</time>
      </trkpt>
      <trkpt lat="46.0518" lon="6.76382">
        <ele>808.99176</ele>
        <time>2014-08-31T14:05:42Z</time>
      </trkpt>
      <trkpt lat="46.05179" lon="6.76384">
        <ele>808.99176</ele>
        <time>2014-08-31T14:05:47Z</time>
      </trkpt>
      <trkpt lat="46.05179" lon="6.76384">
        <ele>808.99176</ele>
        <time>2014-08-31T14:05:52Z</time>
      </trkpt>
      <trkpt lat="46.05177" lon="6.76387">
        <ele>808.99176</ele>
        <time>2014-08-31T14:06:07Z</time>
      </trkpt>
      <trkpt lat="46.05175" lon="6.7639">
        <ele>803.9954</ele>
        <time>2014-08-31T14:06:12Z</time>
      </trkpt>
      <trkpt lat="46.05175" lon="6.7639">
        <ele>803.9954</ele>
        <time>2014-08-31T14:06:17Z</time>
      </trkpt>
      <trkpt lat="46.05171" lon="6.76392">
        <ele>803.9954</ele>
        <time>2014-08-31T14:06:42Z</time>
      </trkpt>
      <trkpt lat="46.05171" lon="6.76392">
        <ele>803.9954</ele>
        <time>2014-08-31T14:06:47Z</time>
      </trkpt>
      <trkpt lat="46.0517" lon="6.76394">
        <ele>803.9954</ele>
        <time>2014-08-31T14:07:07Z</time>
      </trkpt>
      <trkpt lat="46.05169" lon="6.76394">
        <ele>803.9954</ele>
        <time>2014-08-31T14:07:12Z</time>
      </trkpt>
      <trkpt lat="46.05166" lon="6.76396">
        <ele>799.242</ele>
        <time>2014-08-31T14:07:17Z</time>
      </trkpt>
      <trkpt lat="46.05166" lon="6.76396">
        <ele>799.242</ele>
        <time>2014-08-31T14:07:22Z</time>
      </trkpt>
      <trkpt lat="46.05163" lon="6.76401">
        <ele>799.242</ele>
        <time>2014-08-31T14:07:27Z</time>
      </trkpt>
      <trkpt lat="46.05162" lon="6.76401">
        <ele>799.242</ele>
        <time>2014-08-31T14:07:32Z</time>
      </trkpt>
      <trkpt lat="46.05161" lon="6.76401">
        <ele>799.242</ele>
        <time>2014-08-31T14:07:37Z</time>
      </trkpt>
      <trkpt lat="46.0516" lon="6.76401">
        <ele>799.242</ele>
        <time>2014-08-31T14:07:42Z</time>
      </trkpt>
      <trkpt lat="46.0516" lon="6.76401">
        <ele>799.242</ele>
        <time>2014-08-31T14:07:47Z</time>
      </trkpt>
      <trkpt lat="46.05158" lon="6.76402">
        <ele>794.88477</ele>
        <time>2014-08-31T14:07:57Z</time>
      </trkpt>
      <trkpt lat="46.05155" lon="6.76404">
        <ele>794.88477</ele>
        <time>2014-08-31T14:08:02Z</time>
      </trkpt>
      <trkpt lat="46.05147" lon="6.76405">
        <ele>790.9632</ele>
        <time>2014-08-31T14:08:07Z</time>
      </trkpt>
      <trkpt lat="46.05143" lon="6.76407">
        <ele>790.9632</ele>
        <time>2014-08-31T14:08:12Z</time>
      </trkpt>
      <trkpt lat="46.05143" lon="6.76407">
        <ele>790.9632</ele>
        <time>2014-08-31T14:08:17Z</time>
      </trkpt>
      <trkpt lat="46.05141" lon="6.76408">
        <ele>790.9632</ele>
        <time>2014-08-31T14:08:32Z</time>
      </trkpt>
      <trkpt lat="46.05141" lon="6.76408">
        <ele>790.9632</ele>
        <time>2014-08-31T14:08:37Z</time>
      </trkpt>
      <trkpt lat="46.05135" lon="6.76406">
        <ele>787.1664</ele>
        <time>2014-08-31T14:09:02Z</time>
      </trkpt>
      <trkpt lat="46.05121" lon="6.76405">
        <ele>783.81067</ele>
        <time>2014-08-31T14:09:07Z</time>
      </trkpt>
      <trkpt lat="46.05098" lon="6.76401">
        <ele>780.89923</ele>
        <time>2014-08-31T14:09:12Z</time>
      </trkpt>
      <trkpt lat="46.05084" lon="6.764">
        <ele>778.3901</ele>
        <time>2014-08-31T14:09:17Z</time>
      </trkpt>
      <trkpt lat="46.05082" lon="6.764">
        <ele>778.3901</ele>
        <time>2014-08-31T14:09:22Z</time>
      </trkpt>
      <trkpt lat="46.05078" lon="6.76401">
        <ele>778.3901</ele>
        <time>2014-08-31T14:09:27Z</time>
      </trkpt>
      <trkpt lat="46.05068" lon="6.76403">
        <ele>776.1852</ele>
        <time>2014-08-31T14:09:32Z</time>
      </trkpt>
      <trkpt lat="46.05058" lon="6.764">
        <ele>774.37976</ele>
        <time>2014-08-31T14:09:37Z</time>
      </trkpt>
      <trkpt lat="46.05054" lon="6.76399">
        <ele>774.37976</ele>
        <time>2014-08-31T14:09:42Z</time>
      </trkpt>
      <trkpt lat="46.05052" lon="6.76399">
        <ele>774.37976</ele>
        <time>2014-08-31T14:09:47Z</time>
      </trkpt>
      <trkpt lat="46.05052" lon="6.764">
        <ele>774.37976</ele>
        <time>2014-08-31T14:09:57Z</time>
      </trkpt>
      <trkpt lat="46.05052" lon="6.764">
        <ele>774.37976</ele>
        <time>2014-08-31T14:10:02Z</time>
      </trkpt>
      <trkpt lat="46.05049" lon="6.76402">
        <ele>772.23914</ele>
        <time>2014-08-31T14:10:57Z</time>
      </trkpt>
      <trkpt lat="46.05045" lon="6.76402">
        <ele>772.23914</ele>
        <time>2014-08-31T14:11:02Z</time>
      </trkpt>
      <trkpt lat="46.05038" lon="6.764">
        <ele>770.1063</ele>
        <time>2014-08-31T14:11:07Z</time>
      </trkpt>
      <trkpt lat="46.05032" lon="6.76403">
        <ele>770.1063</ele>
        <time>2014-08-31T14:11:12Z</time>
      </trkpt>
      <trkpt lat="46.05023" lon="6.76406">
        <ele>768.37085</ele>
        <time>2014-08-31T14:11:17Z</time>
      </trkpt>
      <trkpt lat="46.05014" lon="6.76408">
        <ele>768.37085</ele>
        <time>2014-08-31T14:11:22Z</time>
      </trkpt>
      <trkpt lat="46.05008" lon="6.76414">
        <ele>767.26263</ele>
        <time>2014-08-31T14:11:27Z</time>
      </trkpt>
      <trkpt lat="46.05003" lon="6.76419">
        <ele>767.26263</ele>
        <time>2014-08-31T14:11:32Z</time>
      </trkpt>
      <trkpt lat="46.04994" lon="6.76422">
        <ele>766.5745</ele>
        <time>2014-08-31T14:11:37Z</time>
      </trkpt>
      <trkpt lat="46.04987" lon="6.76424">
        <ele>766.5745</ele>
        <time>2014-08-31T14:11:42Z</time>
      </trkpt>
      <trkpt lat="46.04981" lon="6.76425">
        <ele>766.2431</ele>
        <time>2014-08-31T14:11:47Z</time>
      </trkpt>
      <trkpt lat="46.04976" lon="6.76426">
        <ele>766.2431</ele>
        <time>2014-08-31T14:11:52Z</time>
      </trkpt>
      <trkpt lat="46.0497" lon="6.76429">
        <ele>766.3378</ele>
        <time>2014-08-31T14:11:57Z</time>
      </trkpt>
      <trkpt lat="46.04967" lon="6.7643">
        <ele>766.3378</ele>
        <time>2014-08-31T14:12:02Z</time>
      </trkpt>
      <trkpt lat="46.04966" lon="6.76432">
        <ele>766.3378</ele>
        <time>2014-08-31T14:12:07Z</time>
      </trkpt>
      <trkpt lat="46.04966" lon="6.76432">
        <ele>766.3378</ele>
        <time>2014-08-31T14:12:12Z</time>
      </trkpt>
      <trkpt lat="46.04966" lon="6.76432">
        <ele>766.3378</ele>
        <time>2014-08-31T14:12:17Z</time>
      </trkpt>
      <trkpt lat="46.04965" lon="6.76433">
        <ele>766.3378</ele>
        <time>2014-08-31T14:12:22Z</time>
      </trkpt>
      <trkpt lat="46.04963" lon="6.76433">
        <ele>766.3378</ele>
        <time>2014-08-31T14:12:27Z</time>
      </trkpt>
      <trkpt lat="46.04959" lon="6.76434">
        <ele>766.25903</ele>
        <time>2014-08-31T14:12:32Z</time>
      </trkpt>
      <trkpt lat="46.04957" lon="6.76433">
        <ele>766.25903</ele>
        <time>2014-08-31T14:12:37Z</time>
      </trkpt>
      <trkpt lat="46.04954" lon="6.76432">
        <ele>766.25903</ele>
        <time>2014-08-31T14:12:42Z</time>
      </trkpt>
      <trkpt lat="46.04951" lon="6.7643">
        <ele>766.25903</ele>
        <time>2014-08-31T14:12:47Z</time>
      </trkpt>
      <trkpt lat="46.0495" lon="6.7643">
        <ele>766.15735</ele>
        <time>2014-08-31T14:12:52Z</time>
      </trkpt>
      <trkpt lat="46.04946" lon="6.76426">
        <ele>766.15735</ele>
        <time>2014-08-31T14:12:57Z</time>
      </trkpt>
      <trkpt lat="46.04942" lon="6.76424">
        <ele>766.15735</ele>
        <time>2014-08-31T14:13:02Z</time>
      </trkpt>
      <trkpt lat="46.04937" lon="6.76421">
        <ele>765.9995</ele>
        <time>2014-08-31T14:13:07Z</time>
      </trkpt>
      <trkpt lat="46.04931" lon="6.76415">
        <ele>765.9995</ele>
        <time>2014-08-31T14:13:12Z</time>
      </trkpt>
      <trkpt lat="46.04929" lon="6.76406">
        <ele>766.07166</ele>
        <time>2014-08-31T14:13:17Z</time>
      </trkpt>
      <trkpt lat="46.04929" lon="6.76397">
        <ele>766.07166</ele>
        <time>2014-08-31T14:13:22Z</time>
      </trkpt>
      <trkpt lat="46.0493" lon="6.76389">
        <ele>766.3068</ele>
        <time>2014-08-31T14:13:27Z</time>
      </trkpt>
      <trkpt lat="46.04928" lon="6.76386">
        <ele>766.3068</ele>
        <time>2014-08-31T14:13:32Z</time>
      </trkpt>
      <trkpt lat="46.04926" lon="6.76382">
        <ele>766.3068</ele>
        <time>2014-08-31T14:13:37Z</time>
      </trkpt>
      <trkpt lat="46.04921" lon="6.76379">
        <ele>766.64246</ele>
        <time>2014-08-31T14:13:42Z</time>
      </trkpt>
      <trkpt lat="46.04917" lon="6.7638">
        <ele>766.64246</ele>
        <time>2014-08-31T14:13:47Z</time>
      </trkpt>
      <trkpt lat="46.04914" lon="6.76383">
        <ele>766.64246</ele>
        <time>2014-08-31T14:13:52Z</time>
      </trkpt>
      <trkpt lat="46.04908" lon="6.76388">
        <ele>767.3806</ele>
        <time>2014-08-31T14:13:57Z</time>
      </trkpt>
      <trkpt lat="46.04903" lon="6.76392">
        <ele>767.3806</ele>
        <time>2014-08-31T14:14:02Z</time>
      </trkpt>
      <trkpt lat="46.04899" lon="6.76398">
        <ele>768.28107</ele>
        <time>2014-08-31T14:14:07Z</time>
      </trkpt>
      <trkpt lat="46.04894" lon="6.76403">
        <ele>768.28107</ele>
        <time>2014-08-31T14:14:12Z</time>
      </trkpt>
      <trkpt lat="46.04892" lon="6.76404">
        <ele>768.28107</ele>
        <time>2014-08-31T14:14:17Z</time>
      </trkpt>
      <trkpt lat="46.0489" lon="6.76404">
        <ele>769.294</ele>
        <time>2014-08-31T14:14:22Z</time>
      </trkpt>
      <trkpt lat="46.04886" lon="6.76404">
        <ele>769.294</ele>
        <time>2014-08-31T14:14:27Z</time>
      </trkpt>
      <trkpt lat="46.04882" lon="6.76404">
        <ele>769.294</ele>
        <time>2014-08-31T14:14:32Z</time>
      </trkpt>
      <trkpt lat="46.04882" lon="6.76404">
        <ele>769.294</ele>
        <time>2014-08-31T14:14:37Z</time>
      </trkpt>
      <trkpt lat="46.04882" lon="6.76404">
        <ele>769.294</ele>
        <time>2014-08-31T14:14:42Z</time>
      </trkpt>
      <trkpt lat="46.04882" lon="6.76404">
        <ele>769.294</ele>
        <time>2014-08-31T14:14:47Z</time>
      </trkpt>
      <trkpt lat="46.04882" lon="6.76405">
        <ele>769.9117</ele>
        <time>2014-08-31T14:14:52Z</time>
      </trkpt>
      <trkpt lat="46.0488" lon="6.76406">
        <ele>769.9117</ele>
        <time>2014-08-31T14:14:57Z</time>
      </trkpt>
      <trkpt lat="46.04874" lon="6.76406">
        <ele>769.9117</ele>
        <time>2014-08-31T14:15:02Z</time>
      </trkpt>
      <trkpt lat="46.04869" lon="6.76407">
        <ele>770.06836</ele>
        <time>2014-08-31T14:15:07Z</time>
      </trkpt>
      <trkpt lat="46.04864" lon="6.76407">
        <ele>770.06836</ele>
        <time>2014-08-31T14:15:12Z</time>
      </trkpt>
      <trkpt lat="46.04859" lon="6.76406">
        <ele>770.02167</ele>
        <time>2014-08-31T14:15:17Z</time>
      </trkpt>
      <trkpt lat="46.04852" lon="6.76406">
        <ele>770.02167</ele>
        <time>2014-08-31T14:15:22Z</time>
      </trkpt>
      <trkpt lat="46.04846" lon="6.76408">
        <ele>769.9532</ele>
        <time>2014-08-31T14:15:27Z</time>
      </trkpt>
      <trkpt lat="46.0484" lon="6.7641">
        <ele>769.9532</ele>
        <time>2014-08-31T14:15:32Z</time>
      </trkpt>
      <trkpt lat="46.04835" lon="6.76411">
        <ele>769.9594</ele>
        <time>2014-08-31T14:15:37Z</time>
      </trkpt>
      <trkpt lat="46.04832" lon="6.7641">
        <ele>769.9594</ele>
        <time>2014-08-31T14:15:42Z</time>
      </trkpt>
      <trkpt lat="46.0483" lon="6.7641">
        <ele>769.9594</ele>
        <time>2014-08-31T14:15:47Z</time>
      </trkpt>
      <trkpt lat="46.04825" lon="6.76409">
        <ele>769.89905</ele>
        <time>2014-08-31T14:15:52Z</time>
      </trkpt>
      <trkpt lat="46.0482" lon="6.76411">
        <ele>769.89905</ele>
        <time>2014-08-31T14:15:57Z</time>
      </trkpt>
      <trkpt lat="46.04816" lon="6.76413">
        <ele>769.973</ele>
        <time>2014-08-31T14:16:02Z</time>
      </trkpt>
      <trkpt lat="46.0481" lon="6.76414">
        <ele>769.973</ele>
        <time>2014-08-31T14:16:07Z</time>
      </trkpt>
      <trkpt lat="46.04803" lon="6.76413">
        <ele>770.12213</ele>
        <time>2014-08-31T14:16:12Z</time>
      </trkpt>
      <trkpt lat="46.04798" lon="6.76412">
        <ele>770.12213</ele>
        <time>2014-08-31T14:16:17Z</time>
      </trkpt>
      <trkpt lat="46.04795" lon="6.7641">
        <ele>770.12213</ele>
        <time>2014-08-31T14:16:22Z</time>
      </trkpt>
      <trkpt lat="46.0479" lon="6.76407">
        <ele>770.6664</ele>
        <time>2014-08-31T14:16:27Z</time>
      </trkpt>
      <trkpt lat="46.04785" lon="6.76407">
        <ele>770.6664</ele>
        <time>2014-08-31T14:16:32Z</time>
      </trkpt>
      <trkpt lat="46.0478" lon="6.76407">
        <ele>771.4688</ele>
        <time>2014-08-31T14:16:37Z</time>
      </trkpt>
      <trkpt lat="46.04774" lon="6.76406">
        <ele>771.4688</ele>
        <time>2014-08-31T14:16:42Z</time>
      </trkpt>
      <trkpt lat="46.04769" lon="6.76405">
        <ele>772.34436</ele>
        <time>2014-08-31T14:16:47Z</time>
      </trkpt>
      <trkpt lat="46.04769" lon="6.76405">
        <ele>772.34436</ele>
        <time>2014-08-31T14:16:52Z</time>
      </trkpt>
      <trkpt lat="46.04769" lon="6.76405">
        <ele>772.34436</ele>
        <time>2014-08-31T14:17:07Z</time>
      </trkpt>
      <trkpt lat="46.04769" lon="6.76405">
        <ele>772.34436</ele>
        <time>2014-08-31T14:17:12Z</time>
      </trkpt>
      <trkpt lat="46.04768" lon="6.76406">
        <ele>772.34436</ele>
        <time>2014-08-31T14:17:22Z</time>
      </trkpt>
      <trkpt lat="46.04766" lon="6.7641">
        <ele>772.34436</ele>
        <time>2014-08-31T14:17:27Z</time>
      </trkpt>
      <trkpt lat="46.04764" lon="6.76416">
        <ele>772.93427</ele>
        <time>2014-08-31T14:17:32Z</time>
      </trkpt>
      <trkpt lat="46.04759" lon="6.76425">
        <ele>772.93427</ele>
        <time>2014-08-31T14:17:37Z</time>
      </trkpt>
      <trkpt lat="46.04755" lon="6.76433">
        <ele>773.5699</ele>
        <time>2014-08-31T14:17:42Z</time>
      </trkpt>
      <trkpt lat="46.04755" lon="6.76433">
        <ele>773.5699</ele>
        <time>2014-08-31T14:17:47Z</time>
      </trkpt>
      <trkpt lat="46.04755" lon="6.76434">
        <ele>773.5699</ele>
        <time>2014-08-31T14:17:52Z</time>
      </trkpt>
      <trkpt lat="46.04755" lon="6.76434">
        <ele>773.5699</ele>
        <time>2014-08-31T14:17:57Z</time>
      </trkpt>
      <trkpt lat="46.04756" lon="6.76435">
        <ele>773.5699</ele>
        <time>2014-08-31T14:18:07Z</time>
      </trkpt>
      <trkpt lat="46.04757" lon="6.7644">
        <ele>773.5699</ele>
        <time>2014-08-31T14:18:12Z</time>
      </trkpt>
      <trkpt lat="46.0476" lon="6.76448">
        <ele>774.0397</ele>
        <time>2014-08-31T14:18:17Z</time>
      </trkpt>
      <trkpt lat="46.04764" lon="6.76455">
        <ele>774.0397</ele>
        <time>2014-08-31T14:18:22Z</time>
      </trkpt>
      <trkpt lat="46.04767" lon="6.76459">
        <ele>774.3787</ele>
        <time>2014-08-31T14:18:27Z</time>
      </trkpt>
      <trkpt lat="46.04769" lon="6.76465">
        <ele>774.3787</ele>
        <time>2014-08-31T14:18:32Z</time>
      </trkpt>
      <trkpt lat="46.04771" lon="6.76471">
        <ele>774.4904</ele>
        <time>2014-08-31T14:18:37Z</time>
      </trkpt>
      <trkpt lat="46.04773" lon="6.76477">
        <ele>774.4904</ele>
        <time>2014-08-31T14:18:42Z</time>
      </trkpt>
      <trkpt lat="46.04776" lon="6.76484">
        <ele>774.488</ele>
        <time>2014-08-31T14:18:47Z</time>
      </trkpt>
      <trkpt lat="46.04779" lon="6.76489">
        <ele>774.488</ele>
        <time>2014-08-31T14:18:52Z</time>
      </trkpt>
      <trkpt lat="46.04782" lon="6.76493">
        <ele>774.3758</ele>
        <time>2014-08-31T14:18:57Z</time>
      </trkpt>
      <trkpt lat="46.04785" lon="6.76498">
        <ele>774.3758</ele>
        <time>2014-08-31T14:19:02Z</time>
      </trkpt>
      <trkpt lat="46.04788" lon="6.76502">
        <ele>774.3758</ele>
        <time>2014-08-31T14:19:07Z</time>
      </trkpt>
      <trkpt lat="46.0479" lon="6.7651">
        <ele>774.317</ele>
        <time>2014-08-31T14:19:12Z</time>
      </trkpt>
      <trkpt lat="46.04791" lon="6.76517">
        <ele>774.317</ele>
        <time>2014-08-31T14:19:17Z</time>
      </trkpt>
      <trkpt lat="46.04789" lon="6.76524">
        <ele>774.29</ele>
        <time>2014-08-31T14:19:22Z</time>
      </trkpt>
      <trkpt lat="46.04789" lon="6.76527">
        <ele>774.29</ele>
        <time>2014-08-31T14:19:27Z</time>
      </trkpt>
      <trkpt lat="46.04789" lon="6.76531">
        <ele>774.29</ele>
        <time>2014-08-31T14:19:32Z</time>
      </trkpt>
      <trkpt lat="46.04788" lon="6.76534">
        <ele>774.29</ele>
        <time>2014-08-31T14:19:37Z</time>
      </trkpt>
      <trkpt lat="46.04787" lon="6.76536">
        <ele>774.53394</ele>
        <time>2014-08-31T14:19:42Z</time>
      </trkpt>
      <trkpt lat="46.04785" lon="6.7654">
        <ele>774.53394</ele>
        <time>2014-08-31T14:19:47Z</time>
      </trkpt>
      <trkpt lat="46.04782" lon="6.76544">
        <ele>774.53394</ele>
        <time>2014-08-31T14:19:52Z</time>
      </trkpt>
      <trkpt lat="46.0478" lon="6.7655">
        <ele>775.0396</ele>
        <time>2014-08-31T14:19:57Z</time>
      </trkpt>
      <trkpt lat="46.04776" lon="6.76558">
        <ele>775.0396</ele>
        <time>2014-08-31T14:20:02Z</time>
      </trkpt>
      <trkpt lat="46.04774" lon="6.76562">
        <ele>775.6105</ele>
        <time>2014-08-31T14:20:07Z</time>
      </trkpt>
      <trkpt lat="46.04773" lon="6.76567">
        <ele>775.6105</ele>
        <time>2014-08-31T14:20:12Z</time>
      </trkpt>
      <trkpt lat="46.04769" lon="6.76572">
        <ele>775.6105</ele>
        <time>2014-08-31T14:20:17Z</time>
      </trkpt>
      <trkpt lat="46.04765" lon="6.76575">
        <ele>776.26605</ele>
        <time>2014-08-31T14:20:22Z</time>
      </trkpt>
      <trkpt lat="46.04762" lon="6.76579">
        <ele>776.26605</ele>
        <time>2014-08-31T14:20:27Z</time>
      </trkpt>
      <trkpt lat="46.0476" lon="6.76583">
        <ele>776.26605</ele>
        <time>2014-08-31T14:20:32Z</time>
      </trkpt>
      <trkpt lat="46.04756" lon="6.76587">
        <ele>776.98126</ele>
        <time>2014-08-31T14:20:37Z</time>
      </trkpt>
      <trkpt lat="46.04754" lon="6.76589">
        <ele>776.98126</ele>
        <time>2014-08-31T14:20:42Z</time>
      </trkpt>
      <trkpt lat="46.04751" lon="6.76594">
        <ele>776.98126</ele>
        <time>2014-08-31T14:20:47Z</time>
      </trkpt>
      <trkpt lat="46.04749" lon="6.76599">
        <ele>778.00665</ele>
        <time>2014-08-31T14:20:52Z</time>
      </trkpt>
      <trkpt lat="46.04747" lon="6.76605">
        <ele>778.00665</ele>
        <time>2014-08-31T14:20:57Z</time>
      </trkpt>
      <trkpt lat="46.04746" lon="6.76609">
        <ele>778.00665</ele>
        <time>2014-08-31T14:21:02Z</time>
      </trkpt>
      <trkpt lat="46.04744" lon="6.76614">
        <ele>779.4729</ele>
        <time>2014-08-31T14:21:07Z</time>
      </trkpt>
      <trkpt lat="46.0474" lon="6.76618">
        <ele>779.4729</ele>
        <time>2014-08-31T14:21:12Z</time>
      </trkpt>
      <trkpt lat="46.04739" lon="6.7662">
        <ele>779.4729</ele>
        <time>2014-08-31T14:21:17Z</time>
      </trkpt>
      <trkpt lat="46.04738" lon="6.76623">
        <ele>781.3701</ele>
        <time>2014-08-31T14:21:22Z</time>
      </trkpt>
      <trkpt lat="46.04736" lon="6.76627">
        <ele>781.3701</ele>
        <time>2014-08-31T14:21:27Z</time>
      </trkpt>
      <trkpt lat="46.04732" lon="6.76627">
        <ele>781.3701</ele>
        <time>2014-08-31T14:21:32Z</time>
      </trkpt>
      <trkpt lat="46.04728" lon="6.76628">
        <ele>783.5154</ele>
        <time>2014-08-31T14:21:37Z</time>
      </trkpt>
      <trkpt lat="46.04722" lon="6.76627">
        <ele>783.5154</ele>
        <time>2014-08-31T14:21:42Z</time>
      </trkpt>
      <trkpt lat="46.0472" lon="6.76626">
        <ele>783.5154</ele>
        <time>2014-08-31T14:21:47Z</time>
      </trkpt>
      <trkpt lat="46.0472" lon="6.76626">
        <ele>783.5154</ele>
        <time>2014-08-31T14:21:52Z</time>
      </trkpt>
      <trkpt lat="46.04719" lon="6.76626">
        <ele>783.5154</ele>
        <time>2014-08-31T14:21:57Z</time>
      </trkpt>
      <trkpt lat="46.04716" lon="6.76625">
        <ele>786.01245</ele>
        <time>2014-08-31T14:22:02Z</time>
      </trkpt>
      <trkpt lat="46.04712" lon="6.76626">
        <ele>786.01245</ele>
        <time>2014-08-31T14:22:07Z</time>
      </trkpt>
      <trkpt lat="46.04711" lon="6.7663">
        <ele>786.01245</ele>
        <time>2014-08-31T14:22:12Z</time>
      </trkpt>
      <trkpt lat="46.04709" lon="6.76635">
        <ele>788.5964</ele>
        <time>2014-08-31T14:22:17Z</time>
      </trkpt>
      <trkpt lat="46.04707" lon="6.76639">
        <ele>788.5964</ele>
        <time>2014-08-31T14:22:22Z</time>
      </trkpt>
      <trkpt lat="46.04707" lon="6.76641">
        <ele>788.5964</ele>
        <time>2014-08-31T14:22:27Z</time>
      </trkpt>
      <trkpt lat="46.04707" lon="6.76641">
        <ele>788.5964</ele>
        <time>2014-08-31T14:22:32Z</time>
      </trkpt>
      <trkpt lat="46.04706" lon="6.7664">
        <ele>788.5964</ele>
        <time>2014-08-31T14:22:52Z</time>
      </trkpt>
      <trkpt lat="46.04706" lon="6.7664">
        <ele>788.5964</ele>
        <time>2014-08-31T14:22:57Z</time>
      </trkpt>
      <trkpt lat="46.04705" lon="6.76639">
        <ele>788.5964</ele>
        <time>2014-08-31T14:23:27Z</time>
      </trkpt>
      <trkpt lat="46.047" lon="6.7664">
        <ele>791.87195</ele>
        <time>2014-08-31T14:23:32Z</time>
      </trkpt>
      <trkpt lat="46.04698" lon="6.7664">
        <ele>791.87195</ele>
        <time>2014-08-31T14:23:37Z</time>
      </trkpt>
      <trkpt lat="46.04697" lon="6.7664">
        <ele>791.87195</ele>
        <time>2014-08-31T14:23:42Z</time>
      </trkpt>
      <trkpt lat="46.04696" lon="6.76645">
        <ele>791.87195</ele>
        <time>2014-08-31T14:23:47Z</time>
      </trkpt>
      <trkpt lat="46.04695" lon="6.76649">
        <ele>795.072</ele>
        <time>2014-08-31T14:23:52Z</time>
      </trkpt>
      <trkpt lat="46.04694" lon="6.76656">
        <ele>795.072</ele>
        <time>2014-08-31T14:23:57Z</time>
      </trkpt>
      <trkpt lat="46.04693" lon="6.7666">
        <ele>795.072</ele>
        <time>2014-08-31T14:24:02Z</time>
      </trkpt>
      <trkpt lat="46.04691" lon="6.76666">
        <ele>797.7599</ele>
        <time>2014-08-31T14:24:07Z</time>
      </trkpt>
      <trkpt lat="46.04688" lon="6.76669">
        <ele>797.7599</ele>
        <time>2014-08-31T14:24:12Z</time>
      </trkpt>
      <trkpt lat="46.04686" lon="6.76674">
        <ele>797.7599</ele>
        <time>2014-08-31T14:24:17Z</time>
      </trkpt>
      <trkpt lat="46.04682" lon="6.76679">
        <ele>800.23895</ele>
        <time>2014-08-31T14:24:22Z</time>
      </trkpt>
      <trkpt lat="46.04681" lon="6.76684">
        <ele>800.23895</ele>
        <time>2014-08-31T14:24:27Z</time>
      </trkpt>
      <trkpt lat="46.04681" lon="6.76688">
        <ele>800.23895</ele>
        <time>2014-08-31T14:24:32Z</time>
      </trkpt>
      <trkpt lat="46.0468" lon="6.76692">
        <ele>802.5316</ele>
        <time>2014-08-31T14:24:37Z</time>
      </trkpt>
      <trkpt lat="46.04678" lon="6.76697">
        <ele>802.5316</ele>
        <time>2014-08-31T14:24:42Z</time>
      </trkpt>
      <trkpt lat="46.04677" lon="6.76701">
        <ele>802.5316</ele>
        <time>2014-08-31T14:24:47Z</time>
      </trkpt>
      <trkpt lat="46.04676" lon="6.76705">
        <ele>804.63074</ele>
        <time>2014-08-31T14:24:52Z</time>
      </trkpt>
      <trkpt lat="46.04676" lon="6.76709">
        <ele>804.63074</ele>
        <time>2014-08-31T14:24:57Z</time>
      </trkpt>
      <trkpt lat="46.04676" lon="6.76716">
        <ele>804.63074</ele>
        <time>2014-08-31T14:25:02Z</time>
      </trkpt>
      <trkpt lat="46.04675" lon="6.7672">
        <ele>806.6601</ele>
        <time>2014-08-31T14:25:07Z</time>
      </trkpt>
      <trkpt lat="46.04677" lon="6.76728">
        <ele>806.6601</ele>
        <time>2014-08-31T14:25:12Z</time>
      </trkpt>
      <trkpt lat="46.04677" lon="6.76734">
        <ele>808.5618</ele>
        <time>2014-08-31T14:25:17Z</time>
      </trkpt>
      <trkpt lat="46.04677" lon="6.7674">
        <ele>808.5618</ele>
        <time>2014-08-31T14:25:22Z</time>
      </trkpt>
      <trkpt lat="46.04677" lon="6.76742">
        <ele>808.5618</ele>
        <time>2014-08-31T14:25:27Z</time>
      </trkpt>
      <trkpt lat="46.04676" lon="6.76744">
        <ele>808.5618</ele>
        <time>2014-08-31T14:25:32Z</time>
      </trkpt>
      <trkpt lat="46.04677" lon="6.76748">
        <ele>810.4849</ele>
        <time>2014-08-31T14:25:37Z</time>
      </trkpt>
      <trkpt lat="46.04679" lon="6.76755">
        <ele>810.4849</ele>
        <time>2014-08-31T14:25:42Z</time>
      </trkpt>
      <trkpt lat="46.04678" lon="6.76762">
        <ele>812.135</ele>
        <time>2014-08-31T14:25:47Z</time>
      </trkpt>
      <trkpt lat="46.04677" lon="6.76767">
        <ele>812.135</ele>
        <time>2014-08-31T14:25:52Z</time>
      </trkpt>
      <trkpt lat="46.04676" lon="6.76772">
        <ele>812.135</ele>
        <time>2014-08-31T14:25:57Z</time>
      </trkpt>
      <trkpt lat="46.04677" lon="6.76779">
        <ele>813.55756</ele>
        <time>2014-08-31T14:26:02Z</time>
      </trkpt>
      <trkpt lat="46.04677" lon="6.76785">
        <ele>813.55756</ele>
        <time>2014-08-31T14:26:07Z</time>
      </trkpt>
      <trkpt lat="46.04679" lon="6.76795">
        <ele>814.709</ele>
        <time>2014-08-31T14:26:12Z</time>
      </trkpt>
      <trkpt lat="46.04679" lon="6.76799">
        <ele>814.709</ele>
        <time>2014-08-31T14:26:17Z</time>
      </trkpt>
      <trkpt lat="46.04679" lon="6.76804">
        <ele>814.709</ele>
        <time>2014-08-31T14:26:22Z</time>
      </trkpt>
      <trkpt lat="46.0468" lon="6.76806">
        <ele>814.709</ele>
        <time>2014-08-31T14:26:27Z</time>
      </trkpt>
      <trkpt lat="46.0468" lon="6.76812">
        <ele>815.7374</ele>
        <time>2014-08-31T14:26:32Z</time>
      </trkpt>
      <trkpt lat="46.04678" lon="6.76817">
        <ele>815.7374</ele>
        <time>2014-08-31T14:26:37Z</time>
      </trkpt>
      <trkpt lat="46.04677" lon="6.76826">
        <ele>816.78046</ele>
        <time>2014-08-31T14:26:42Z</time>
      </trkpt>
      <trkpt lat="46.04676" lon="6.76829">
        <ele>816.78046</ele>
        <time>2014-08-31T14:26:47Z</time>
      </trkpt>
      <trkpt lat="46.04677" lon="6.76835">
        <ele>816.78046</ele>
        <time>2014-08-31T14:26:52Z</time>
      </trkpt>
      <trkpt lat="46.04677" lon="6.76841">
        <ele>817.8505</ele>
        <time>2014-08-31T14:26:57Z</time>
      </trkpt>
      <trkpt lat="46.04677" lon="6.76847">
        <ele>817.8505</ele>
        <time>2014-08-31T14:27:02Z</time>
      </trkpt>
      <trkpt lat="46.04677" lon="6.76851">
        <ele>817.8505</ele>
        <time>2014-08-31T14:27:07Z</time>
      </trkpt>
      <trkpt lat="46.04677" lon="6.76855">
        <ele>818.8584</ele>
        <time>2014-08-31T14:27:12Z</time>
      </trkpt>
      <trkpt lat="46.04676" lon="6.76861">
        <ele>818.8584</ele>
        <time>2014-08-31T14:27:17Z</time>
      </trkpt>
      <trkpt lat="46.04676" lon="6.76865">
        <ele>818.8584</ele>
        <time>2014-08-31T14:27:22Z</time>
      </trkpt>
      <trkpt lat="46.04675" lon="6.76868">
        <ele>819.8659</ele>
        <time>2014-08-31T14:27:27Z</time>
      </trkpt>
      <trkpt lat="46.04674" lon="6.76875">
        <ele>819.8659</ele>
        <time>2014-08-31T14:27:32Z</time>
      </trkpt>
      <trkpt lat="46.04676" lon="6.76881">
        <ele>820.75745</ele>
        <time>2014-08-31T14:27:37Z</time>
      </trkpt>
      <trkpt lat="46.04677" lon="6.76886">
        <ele>820.75745</ele>
        <time>2014-08-31T14:27:42Z</time>
      </trkpt>
      <trkpt lat="46.04676" lon="6.76891">
        <ele>820.75745</ele>
        <time>2014-08-31T14:27:47Z</time>
      </trkpt>
      <trkpt lat="46.04676" lon="6.76895">
        <ele>821.7147</ele>
        <time>2014-08-31T14:27:52Z</time>
      </trkpt>
      <trkpt lat="46.04676" lon="6.76899">
        <ele>821.7147</ele>
        <time>2014-08-31T14:27:57Z</time>
      </trkpt>
      <trkpt lat="46.04674" lon="6.76906">
        <ele>821.7147</ele>
        <time>2014-08-31T14:28:02Z</time>
      </trkpt>
      <trkpt lat="46.04674" lon="6.7691">
        <ele>822.661</ele>
        <time>2014-08-31T14:28:07Z</time>
      </trkpt>
      <trkpt lat="46.04674" lon="6.76915">
        <ele>822.661</ele>
        <time>2014-08-31T14:28:12Z</time>
      </trkpt>
      <trkpt lat="46.04675" lon="6.76919">
        <ele>822.661</ele>
        <time>2014-08-31T14:28:17Z</time>
      </trkpt>
      <trkpt lat="46.04675" lon="6.76925">
        <ele>823.79913</ele>
        <time>2014-08-31T14:28:22Z</time>
      </trkpt>
      <trkpt lat="46.04673" lon="6.76938">
        <ele>825.05725</ele>
        <time>2014-08-31T14:28:27Z</time>
      </trkpt>
      <trkpt lat="46.04671" lon="6.76949">
        <ele>825.05725</ele>
        <time>2014-08-31T14:28:32Z</time>
      </trkpt>
      <trkpt lat="46.04672" lon="6.76951">
        <ele>825.05725</ele>
        <time>2014-08-31T14:28:37Z</time>
      </trkpt>
      <trkpt lat="46.0467" lon="6.76956">
        <ele>826.7433</ele>
        <time>2014-08-31T14:28:42Z</time>
      </trkpt>
      <trkpt lat="46.0467" lon="6.76956">
        <ele>826.7433</ele>
        <time>2014-08-31T14:28:47Z</time>
      </trkpt>
      <trkpt lat="46.0467" lon="6.76957">
        <ele>826.7433</ele>
        <time>2014-08-31T14:28:52Z</time>
      </trkpt>
      <trkpt lat="46.04669" lon="6.76957">
        <ele>826.7433</ele>
        <time>2014-08-31T14:29:12Z</time>
      </trkpt>
      <trkpt lat="46.04668" lon="6.76957">
        <ele>826.7433</ele>
        <time>2014-08-31T14:29:17Z</time>
      </trkpt>
      <trkpt lat="46.04665" lon="6.76958">
        <ele>826.7433</ele>
        <time>2014-08-31T14:29:22Z</time>
      </trkpt>
      <trkpt lat="46.04656" lon="6.76963">
        <ele>829.5161</ele>
        <time>2014-08-31T14:29:27Z</time>
      </trkpt>
      <trkpt lat="46.04648" lon="6.76959">
        <ele>829.5161</ele>
        <time>2014-08-31T14:29:32Z</time>
      </trkpt>
      <trkpt lat="46.04643" lon="6.76957">
        <ele>832.0378</ele>
        <time>2014-08-31T14:29:37Z</time>
      </trkpt>
      <trkpt lat="46.04639" lon="6.76955">
        <ele>832.0378</ele>
        <time>2014-08-31T14:29:42Z</time>
      </trkpt>
      <trkpt lat="46.04637" lon="6.76955">
        <ele>832.0378</ele>
        <time>2014-08-31T14:29:47Z</time>
      </trkpt>
      <trkpt lat="46.04637" lon="6.76955">
        <ele>832.0378</ele>
        <time>2014-08-31T14:29:52Z</time>
      </trkpt>
      <trkpt lat="46.04636" lon="6.76957">
        <ele>832.0378</ele>
        <time>2014-08-31T14:30:07Z</time>
      </trkpt>
      <trkpt lat="46.04636" lon="6.76957">
        <ele>832.0378</ele>
        <time>2014-08-31T14:30:12Z</time>
      </trkpt>
      <trkpt lat="46.04634" lon="6.76958">
        <ele>834.45276</ele>
        <time>2014-08-31T14:30:17Z</time>
      </trkpt>
      <trkpt lat="46.04634" lon="6.76958">
        <ele>834.45276</ele>
        <time>2014-08-31T14:30:22Z</time>
      </trkpt>
      <trkpt lat="46.04634" lon="6.76958">
        <ele>834.45276</ele>
        <time>2014-08-31T14:30:27Z</time>
      </trkpt>
      <trkpt lat="46.04634" lon="6.76959">
        <ele>834.45276</ele>
        <time>2014-08-31T14:30:37Z</time>
      </trkpt>
      <trkpt lat="46.04634" lon="6.7696">
        <ele>834.45276</ele>
        <time>2014-08-31T14:30:42Z</time>
      </trkpt>
      <trkpt lat="46.04634" lon="6.7696">
        <ele>834.45276</ele>
        <time>2014-08-31T14:30:47Z</time>
      </trkpt>
      <trkpt lat="46.04634" lon="6.76961">
        <ele>834.45276</ele>
        <time>2014-08-31T14:30:52Z</time>
      </trkpt>
      <trkpt lat="46.04634" lon="6.76961">
        <ele>834.45276</ele>
        <time>2014-08-31T14:30:57Z</time>
      </trkpt>
      <trkpt lat="46.04634" lon="6.76962">
        <ele>834.45276</ele>
        <time>2014-08-31T14:31:12Z</time>
      </trkpt>
      <trkpt lat="46.04634" lon="6.76962">
        <ele>834.45276</ele>
        <time>2014-08-31T14:31:17Z</time>
      </trkpt>
      <trkpt lat="46.04634" lon="6.76962">
        <ele>834.45276</ele>
        <time>2014-08-31T14:31:22Z</time>
      </trkpt>
      <trkpt lat="46.04634" lon="6.76964">
        <ele>834.45276</ele>
        <time>2014-08-31T14:31:27Z</time>
      </trkpt>
      <trkpt lat="46.04634" lon="6.76964">
        <ele>834.45276</ele>
        <time>2014-08-31T14:31:32Z</time>
      </trkpt>
      <trkpt lat="46.04632" lon="6.76965">
        <ele>834.45276</ele>
        <time>2014-08-31T14:31:37Z</time>
      </trkpt>
      <trkpt lat="46.04632" lon="6.76965">
        <ele>834.45276</ele>
        <time>2014-08-31T14:31:42Z</time>
      </trkpt>
      <trkpt lat="46.04633" lon="6.76967">
        <ele>838.4952</ele>
        <time>2014-08-31T14:32:12Z</time>
      </trkpt>
      <trkpt lat="46.04633" lon="6.76967">
        <ele>838.4952</ele>
        <time>2014-08-31T14:32:17Z</time>
      </trkpt>
    </trkseg>
  </trk>
</gpx>